ECMWFFLT1_925_thetae_000.txt.gz
Theta_e
350 351 352 353 354 354 355 354 352 353 354 354 355 356 357 357 357 357 357 357 357 356 356 356 354 352 353 355 355 354 355 355 355 356 354 350 348 347 344 340 339 338 336 336 337 337 335 334 335 336 337 335 333 332 331 330 330 331 331 332 332 332 333
352 352 353 353 354 355 355 354 353 354 354 355 355 356 357 357 357 358 357 357 357 356 356 356 354 353 353 354 355 356 357 357 357 356 352 347 346 344 342 340 338 337 336 337 337 337 336 334 334 335 335 334 333 333 333 331 330 331 332 332 333 333 333
351 353 354 354 356 356 356 354 354 355 355 356 356 356 357 358 357 358 358 358 358 357 356 355 354 353 353 355 356 356 357 357 357 354 348 345 343 342 339 338 337 335 336 338 339 338 337 335 334 334 334 334 332 333 333 332 331 331 332 332 333 333 333
351 353 354 355 357 356 357 356 354 355 355 356 356 356 357 357 358 359 358 358 358 357 356 355 354 354 354 355 355 355 356 357 356 352 346 343 341 339 338 337 336 335 336 339 339 338 336 335 335 334 334 332 331 331 332 332 331 332 332 332 332 332 333
350 353 354 356 357 357 358 357 355 356 356 356 357 357 357 357 358 359 358 358 358 356 356 355 354 354 354 355 354 354 355 355 355 351 346 343 340 338 337 337 335 334 335 338 338 337 336 335 334 333 333 331 330 330 331 331 331 332 331 331 332 332 333
349 352 355 356 357 358 358 357 356 357 357 357 358 357 357 357 357 358 358 358 358 356 356 355 354 354 354 354 354 353 354 354 354 351 346 342 340 337 336 336 335 334 334 336 337 337 335 334 332 332 331 330 330 330 331 331 331 331 331 331 332 332 332
349 352 354 355 357 358 358 358 357 358 358 358 358 358 358 357 357 358 358 358 357 357 356 355 354 354 353 353 353 352 353 353 353 350 345 341 339 337 336 335 335 333 334 336 337 336 334 332 332 332 332 331 332 331 332 332 332 331 330 331 332 331 330
348 351 352 353 356 356 358 359 357 358 359 358 359 358 358 358 357 357 358 357 358 357 356 355 354 353 353 352 352 351 352 352 352 349 344 341 339 337 335 334 334 334 334 335 336 335 333 332 332 333 333 333 333 333 334 333 332 331 331 331 332 331 329
347 350 350 352 353 354 357 358 357 358 359 359 359 359 358 358 358 357 358 357 358 357 356 354 353 352 352 351 351 351 350 351 352 348 343 341 340 337 335 335 335 335 335 335 335 334 332 332 333 334 334 335 334 335 334 334 332 331 331 331 330 329 329
348 350 350 351 352 355 356 356 358 358 359 359 359 359 358 358 358 358 358 357 357 357 356 355 353 352 351 351 349 349 349 349 349 346 343 341 340 337 334 335 336 336 335 335 335 334 333 334 334 335 335 335 335 335 334 333 332 331 330 329 329 329 329
350 350 351 351 352 355 356 357 360 359 358 359 359 358 358 358 358 358 357 358 358 357 357 355 354 352 350 350 349 348 347 347 346 344 342 341 340 337 334 335 337 337 336 336 336 336 335 334 334 334 335 335 335 334 333 333 332 331 330 329 329 329 329
350 351 351 352 352 354 357 358 360 359 358 358 359 359 359 357 358 358 357 358 357 357 356 355 353 352 350 349 348 347 346 345 343 341 341 341 340 338 336 336 338 337 337 337 337 338 337 335 334 333 334 334 334 334 333 333 333 331 330 329 329 329 330
350 350 349 350 350 352 356 358 359 360 358 357 358 359 358 358 358 357 357 357 358 357 356 355 353 351 349 348 347 346 344 343 341 341 342 341 339 338 337 338 338 338 338 338 339 339 338 336 335 334 333 333 334 334 334 334 333 332 330 329 330 330 331
350 350 348 350 350 351 355 357 358 359 357 356 358 358 358 358 357 357 357 356 357 357 356 355 353 351 349 348 347 346 344 343 342 342 342 341 339 338 338 338 338 339 339 340 340 339 338 336 336 334 333 334 334 335 335 334 333 331 330 330 331 331 331
351 351 349 349 349 350 353 354 356 358 356 354 356 357 358 358 357 356 356 356 356 356 356 355 354 352 350 348 347 346 344 343 342 340 340 339 337 338 338 338 339 339 339 340 340 339 338 337 336 334 333 334 335 335 334 332 331 331 331 332 332 332 333
351 350 349 348 348 349 350 352 353 355 356 354 354 356 357 357 357 356 355 356 355 355 356 355 353 352 350 349 347 346 345 344 341 339 339 338 337 337 338 338 339 339 339 340 340 339 338 338 337 335 334 335 336 336 334 332 330 331 332 333 333 334 334
351 349 349 348 347 348 349 350 351 354 356 353 351 354 356 356 356 356 355 355 355 355 355 354 354 352 350 349 348 347 346 343 339 338 338 338 338 337 337 337 338 339 339 339 340 339 339 339 338 336 335 336 337 336 334 332 331 331 331 332 333 334 334
350 350 351 350 349 349 349 350 352 354 354 350 349 352 354 354 356 355 355 355 354 355 355 353 353 351 350 349 348 347 344 340 337 336 337 337 335 334 334 335 337 338 339 339 339 339 338 340 339 334 332 336 339 337 335 333 332 331 331 331 332 333 334
349 350 352 351 350 350 349 349 349 350 348 346 347 350 351 353 355 354 354 355 354 354 353 353 353 351 348 346 346 345 342 339 337 336 335 334 331 331 333 334 333 334 336 338 339 338 338 340 339 333 331 337 339 337 336 334 332 332 331 331 332 333 333
349 350 351 351 352 350 349 349 346 343 343 343 345 347 349 352 353 353 354 353 353 353 353 353 352 349 346 344 343 342 341 338 337 336 335 334 332 331 331 330 329 329 332 336 338 338 338 339 339 338 337 339 338 336 336 335 333 332 332 332 333 333 333
350 353 352 352 354 352 351 353 348 341 342 344 345 346 349 351 352 353 352 352 352 352 352 352 351 348 344 342 341 341 340 339 338 337 337 334 330 328 326 325 326 328 330 333 334 335 334 335 336 338 338 338 338 336 336 335 334 333 332 332 332 332 333
352 355 354 353 355 354 352 351 348 344 344 345 345 346 348 349 350 351 351 351 351 351 351 351 349 345 343 341 340 340 340 338 336 335 333 329 325 324 322 321 322 323 325 328 329 329 329 331 334 335 336 337 337 336 336 336 335 334 332 332 332 333 334
347 351 354 350 348 349 347 344 344 346 346 346 346 346 346 348 349 350 350 350 350 350 350 349 346 344 342 341 340 339 338 335 332 330 329 327 325 324 323 323 322 321 322 324 323 324 326 330 333 334 335 336 336 336 337 336 335 334 333 332 334 334 335
344 347 348 341 339 340 340 342 345 346 348 349 347 346 346 347 347 349 350 349 350 349 347 345 343 342 341 340 339 337 335 332 330 328 327 327 327 326 325 324 322 320 320 320 321 325 328 331 333 333 334 335 335 335 334 332 331 331 331 331 332 332 332
349 349 344 338 337 338 339 343 346 347 350 350 348 348 348 347 347 348 348 348 348 348 345 343 342 340 339 338 337 335 333 330 327 327 326 326 325 323 323 324 324 324 325 325 326 329 331 333 333 334 334 334 333 333 331 329 328 328 328 328 328 329 330
354 356 351 343 342 340 341 345 346 348 350 351 350 349 349 348 347 347 347 346 345 346 344 341 340 339 338 337 335 332 330 328 327 327 326 326 325 323 324 327 328 328 329 330 331 332 333 333 333 334 334 333 333 332 330 328 327 327 326 326 326 328 329
345 348 349 347 347 344 344 346 346 348 350 351 352 351 348 348 347 345 346 345 344 344 342 340 338 338 337 337 334 331 329 327 327 328 328 329 328 328 328 329 330 330 331 332 332 332 331 332 333 334 333 333 333 332 330 329 328 326 325 325 326 328 327
346 349 348 346 347 347 347 347 346 347 349 350 352 351 348 347 347 345 344 343 342 342 341 339 338 337 336 336 334 331 329 327 328 329 330 331 331 330 330 330 331 331 331 331 330 329 329 330 332 332 333 333 332 331 331 331 328 326 326 326 326 326 325
350 352 349 346 346 347 347 347 345 345 348 350 351 349 348 347 345 344 343 341 340 340 340 339 338 336 336 335 334 333 331 330 329 331 332 332 331 329 329 330 331 331 330 329 327 327 329 330 330 331 331 331 331 331 331 329 326 325 326 327 326 325 325
349 349 345 341 343 345 345 343 342 343 347 350 349 347 346 346 344 342 341 341 340 340 339 339 337 335 335 334 334 334 333 332 332 333 332 331 329 327 328 329 330 330 329 327 327 328 329 330 330 331 331 330 331 331 329 327 325 326 326 326 325 325 324
348 346 343 339 341 344 345 344 344 344 345 345 346 345 344 344 344 341 340 341 341 339 339 338 336 336 335 334 334 334 334 334 333 331 330 329 328 327 327 327 328 328 327 327 326 327 329 330 330 330 330 330 330 329 327 326 326 326 325 325 324 324 322
350 341 338 339 341 343 345 346 344 344 343 342 342 342 343 344 344 342 341 341 340 339 339 337 336 336 334 334 334 333 333 333 331 329 329 328 327 328 328 328 328 328 328 327 326 326 328 329 329 329 329 329 328 327 325 326 326 326 325 324 323 322 322
360 343 336 339 341 342 343 344 343 341 341 340 340 342 343 343 344 343 341 339 339 338 337 336 335 334 333 333 333 331 331 330 329 330 330 327 324 325 327 328 328 328 328 328 327 327 328 329 329 328 328 328 327 326 326 327 327 325 324 322 321 322 323
352 343 338 339 341 341 341 342 340 339 340 339 340 342 343 343 343 342 340 338 337 336 335 334 333 332 331 331 331 330 330 330 329 330 329 325 322 322 324 326 326 326 326 326 326 328 329 329 328 328 328 327 327 327 327 327 325 323 321 320 321 322 323
340 336 336 337 339 341 341 340 339 339 339 339 340 341 342 342 342 340 339 337 336 335 333 332 331 331 330 330 330 330 329 328 327 327 325 322 321 323 324 324 324 325 325 325 324 326 328 327 327 327 326 326 327 327 327 325 322 320 319 321 322 323 323
334 333 336 337 338 340 340 339 339 338 337 338 340 342 342 342 341 340 338 336 334 333 332 331 330 329 329 329 329 329 327 325 325 325 323 322 322 323 322 321 321 323 325 325 324 325 325 325 325 324 324 325 326 326 323 321 320 320 320 322 323 323 323
333 334 336 337 338 339 338 337 337 336 336 337 339 340 341 341 340 339 338 335 334 333 331 330 329 328 327 328 327 326 324 323 324 324 323 323 323 323 322 321 321 322 323 323 324 324 324 323 324 324 324 326 326 323 321 320 320 320 321 322 323 323 322
335 335 335 336 335 335 334 334 335 335 334 333 334 336 337 337 338 338 337 335 333 332 330 328 326 326 326 326 324 322 321 321 322 323 323 323 322 322 322 322 321 320 320 321 322 323 324 324 325 325 326 325 324 322 321 321 320 320 321 322 322 321 320

ECMWFFLT1_925_thetae_003.txt.gz
Theta_e
351 351 352 352 352 352 352 354 356 356 356 357 357 358 358 359 359 359 358 357 356 357 357 357 356 356 356 358 358 356 354 354 354 355 356 355 353 353 353 352 351 348 345 341 339 337 336 335 335 336 336 337 338 335 331 329 330 333 334 331 331 333 334
349 350 351 352 352 353 354 355 356 356 357 357 357 357 358 359 359 360 359 357 357 356 357 357 357 356 356 356 357 356 355 355 355 355 355 354 353 353 353 353 351 350 346 341 338 337 336 335 334 335 335 337 338 335 331 330 329 331 333 332 331 332 332
349 349 350 351 353 353 354 355 356 356 356 356 357 357 358 359 358 357 358 358 357 357 357 357 356 356 356 356 356 356 355 355 355 355 355 354 352 353 353 353 351 349 345 340 338 337 335 335 334 334 335 336 337 335 333 332 331 330 332 331 332 333 332
350 350 350 351 353 355 355 355 356 356 356 356 356 357 359 358 356 355 356 357 358 358 358 357 357 356 356 356 357 356 355 355 354 354 354 353 351 352 354 353 351 348 344 340 338 336 335 335 335 334 335 335 335 334 332 333 332 332 332 332 333 333 332
350 349 351 352 352 354 354 354 356 356 356 355 356 357 358 357 356 357 357 357 358 358 356 357 359 358 356 356 356 356 356 354 353 353 352 351 350 353 354 352 349 346 343 339 337 336 335 336 336 335 335 334 334 333 332 333 333 333 333 332 332 333 333
349 350 351 351 351 353 352 352 355 356 355 355 357 358 358 357 357 359 359 358 358 358 358 359 359 358 356 355 355 355 354 353 352 351 350 348 351 355 355 351 347 344 341 338 336 335 337 338 337 336 335 334 334 333 332 332 333 333 333 331 332 333 333
347 350 351 351 350 351 352 352 355 356 355 356 356 357 358 358 358 358 358 359 359 359 360 360 359 357 357 356 355 355 354 352 352 350 349 349 353 355 353 348 344 342 339 336 335 336 338 339 337 336 335 334 334 333 331 331 331 331 331 331 332 331 332
346 350 351 351 351 350 351 352 354 355 356 356 357 357 357 357 358 358 358 360 360 360 360 360 360 358 357 356 355 355 353 352 352 351 352 352 352 351 347 343 341 339 337 335 335 336 338 338 336 335 335 334 333 332 330 329 329 330 332 332 331 332 333
345 350 350 350 350 351 352 353 355 357 358 359 359 359 358 358 359 359 359 360 360 360 360 359 360 359 357 356 355 354 352 351 351 350 350 349 346 345 342 340 339 337 336 335 335 336 337 337 336 335 333 332 332 332 331 330 331 332 333 333 331 333 334
347 350 351 350 350 352 354 355 358 360 360 362 361 360 360 359 359 359 359 360 360 360 361 359 360 359 357 356 355 353 351 349 349 349 348 346 344 344 343 340 338 337 335 334 334 335 335 335 336 335 333 332 332 333 333 332 333 334 334 333 332 332 332
349 350 352 352 353 355 356 356 360 361 362 363 362 361 361 361 360 360 359 360 360 360 360 360 360 360 358 357 355 352 350 349 348 348 347 345 344 345 344 339 338 336 334 335 335 334 333 335 335 333 333 332 333 334 333 333 333 334 333 332 331 330 329
348 350 352 353 354 355 357 358 361 362 363 364 362 362 362 362 362 360 360 361 359 360 360 360 360 360 359 358 355 351 350 350 347 346 344 345 345 344 342 339 338 336 334 333 334 332 332 334 335 333 333 333 334 334 334 333 333 333 333 332 331 330 329
349 349 350 352 353 355 358 360 361 362 363 364 362 362 363 362 362 362 361 362 360 360 360 360 361 360 359 358 355 351 350 349 348 345 342 343 342 340 340 339 336 336 334 332 333 334 334 335 335 334 334 334 334 335 334 332 332 333 333 333 332 331 330
348 347 347 351 353 355 358 358 361 362 363 363 363 363 364 362 362 362 362 362 361 360 361 361 361 360 359 357 354 351 350 349 348 344 340 340 340 340 339 337 336 337 335 334 335 332 331 335 338 336 335 335 335 335 334 333 333 333 333 334 334 332 330
347 346 346 349 351 354 356 358 359 361 361 363 363 363 364 363 362 363 362 362 362 361 361 361 361 360 359 358 355 352 350 348 346 344 341 339 340 340 338 335 335 334 331 332 333 327 326 335 338 337 337 336 335 335 334 333 333 333 334 334 333 331 330
348 346 346 348 350 352 354 356 357 359 360 362 363 363 364 363 363 363 362 362 362 361 361 361 361 361 359 358 356 352 350 347 345 344 341 338 338 339 337 335 335 331 324 325 331 331 333 337 334 333 338 338 336 335 335 334 334 334 334 333 331 330 331
349 349 347 347 350 351 352 354 355 357 359 361 363 363 363 364 363 362 362 361 361 361 361 361 361 361 360 358 356 352 349 347 344 343 341 339 337 337 337 336 335 330 323 324 332 337 338 337 332 333 338 338 336 336 335 334 335 335 333 332 331 330 331
351 351 350 350 352 350 350 351 354 355 357 359 361 362 362 363 364 362 363 362 361 361 360 360 361 361 360 358 354 350 348 345 344 342 341 339 338 337 337 338 337 331 326 329 335 337 338 338 337 338 339 338 337 337 336 335 336 336 335 333 331 330 331
353 352 351 352 352 350 349 349 350 353 355 357 358 360 361 362 362 362 362 362 360 360 359 359 359 360 359 356 352 349 346 344 343 342 340 339 338 337 339 339 338 334 331 334 337 337 337 339 340 340 339 338 338 337 336 334 334 336 337 335 334 332 331
350 349 349 349 349 348 348 348 350 352 353 354 355 356 357 358 359 360 360 359 360 359 358 358 359 358 357 353 350 347 344 343 342 340 339 339 338 339 341 339 337 336 336 336 337 337 338 338 339 339 338 338 339 338 337 335 335 336 338 337 335 333 332
346 346 346 348 348 348 348 348 349 350 351 350 351 352 354 355 356 358 358 358 359 359 359 359 358 356 353 351 348 346 343 341 340 339 339 338 338 340 340 338 337 337 337 336 337 338 337 337 339 339 338 338 338 337 336 336 337 337 337 335 334 334 334
344 343 345 349 350 350 350 347 347 348 349 349 349 350 351 352 354 355 356 357 357 357 358 358 356 353 351 350 348 346 343 341 338 338 338 338 338 339 338 337 337 337 336 336 336 336 335 337 337 335 335 335 335 334 333 334 336 336 335 335 335 334 333
342 343 345 347 348 350 350 347 347 349 349 348 349 350 351 351 352 354 355 356 357 357 357 356 354 352 350 349 348 346 344 341 338 337 337 337 337 337 337 337 337 336 334 333 334 335 334 335 333 331 331 332 331 330 331 333 335 335 335 334 334 332 331
339 341 344 345 346 350 350 350 350 349 348 349 350 349 349 349 351 354 356 356 356 355 356 355 353 351 350 349 347 345 344 342 339 337 337 337 337 336 335 335 334 333 331 331 333 334 334 333 332 329 328 330 330 330 330 332 335 334 333 332 331 330 329
340 341 344 346 347 349 351 351 351 349 351 353 351 348 347 346 348 353 356 356 354 354 354 353 351 350 349 348 346 345 343 341 340 339 337 336 335 334 332 330 329 330 329 329 332 333 333 333 332 328 328 329 331 331 331 332 333 331 330 330 329 327 325
345 344 345 347 348 350 352 352 353 354 356 355 350 347 344 343 347 353 356 355 353 353 352 351 349 349 348 347 345 344 342 341 341 339 335 331 330 330 330 328 328 329 329 328 330 332 332 332 331 329 328 329 331 331 332 332 331 329 328 327 327 326 323
349 348 347 349 351 352 352 353 355 356 355 349 345 344 343 344 351 355 354 352 352 352 350 348 348 347 346 345 343 342 340 339 339 335 330 327 327 328 330 330 330 330 329 329 331 332 332 330 328 327 327 329 330 332 331 330 329 329 328 328 327 326 325
349 350 350 350 351 352 353 355 357 356 351 347 345 345 343 347 353 354 352 351 352 350 347 347 347 346 345 344 342 340 339 336 335 331 327 327 328 329 330 330 331 331 331 331 332 331 329 328 328 328 328 329 330 332 331 331 330 329 329 329 327 326 326
350 350 351 352 352 351 353 356 357 355 352 349 347 345 344 348 352 352 351 351 349 347 345 345 345 344 344 342 341 339 336 333 330 328 327 329 332 332 332 333 333 333 332 331 330 330 329 330 330 330 329 330 332 333 332 331 330 329 329 329 327 326 326
352 350 350 352 351 346 346 353 354 353 349 347 345 343 343 345 348 349 350 350 346 344 344 344 343 342 342 340 339 337 334 331 328 328 330 333 334 333 332 333 335 334 331 330 330 332 334 334 333 332 332 333 333 333 332 330 329 330 330 329 327 326 326
349 349 350 351 349 346 345 349 349 349 347 346 345 344 343 340 343 346 347 346 343 342 343 342 341 341 340 338 337 335 333 330 329 331 333 334 334 333 332 333 334 333 331 331 331 333 335 335 334 333 334 334 334 334 332 330 330 330 329 328 327 326 326
345 347 349 350 350 348 347 347 348 347 346 345 344 344 345 342 341 343 344 343 342 342 342 341 340 339 338 338 337 335 333 333 333 334 334 333 333 333 332 332 334 334 333 332 332 333 334 334 334 334 334 335 335 334 331 330 330 330 328 327 326 326 325
345 346 348 349 348 347 348 349 349 348 348 346 345 345 345 345 344 343 343 342 341 341 341 340 340 340 340 340 338 336 335 336 335 335 335 333 333 333 332 332 333 334 334 333 333 334 333 333 334 335 335 336 335 333 331 330 329 329 327 326 326 325 324
343 345 346 345 343 344 348 351 350 349 350 348 345 344 345 344 344 342 342 341 341 340 341 340 340 341 341 340 339 337 337 337 336 335 334 333 332 331 331 331 331 332 333 333 333 334 334 334 335 334 333 334 334 333 331 330 329 328 327 326 326 325 323
343 344 345 344 342 342 346 349 350 350 350 347 344 344 344 343 342 342 342 341 340 340 341 340 340 340 340 340 339 338 338 337 336 335 333 331 330 329 328 327 327 329 331 331 330 331 332 334 335 333 331 332 333 333 332 332 330 328 327 326 325 324 322
344 344 344 344 343 344 345 346 347 348 348 345 344 344 344 343 342 342 342 341 340 340 340 339 339 339 339 338 338 338 337 337 336 335 333 330 329 328 325 323 322 323 325 327 327 327 327 329 330 329 329 330 331 330 330 331 330 328 326 324 323 322 321
342 342 342 342 343 345 346 344 345 348 347 344 343 343 343 343 342 341 340 340 340 339 338 338 338 339 338 338 338 337 336 335 335 334 332 330 329 327 323 321 320 321 322 324 324 324 324 324 325 325 325 327 327 326 326 327 328 326 323 322 321 321 322
339 340 341 340 341 344 345 344 345 346 344 342 342 342 342 342 341 340 339 339 338 338 338 337 338 338 337 337 336 335 334 334 333 331 330 328 327 325 323 323 323 322 321 322 322 323 324 323 324 324 323 324 325 324 325 326 325 322 321 320 320 321 322

ECMWFFLT1_925_thetae_006.txt.gz
Theta_e
356 355 355 356 357 357 356 357 359 361 360 362 364 364 364 364 363 363 365 367 367 368 369 370 369 368 368 367 365 365 364 363 362 361 359 358 358 358 357 356 356 355 354 353 351 350 348 347 345 344 343 342 341 341 340 338 336 335 336 336 336 337 337
355 355 356 356 356 357 357 359 361 361 360 361 363 363 363 364 365 365 365 367 368 368 369 370 370 369 369 368 366 366 365 363 363 363 361 359 358 359 357 356 356 356 355 353 351 350 348 347 346 344 343 341 340 341 340 338 337 335 335 336 336 337 338
355 355 356 356 357 358 358 359 361 361 360 361 362 362 363 364 365 366 365 367 369 368 368 370 370 369 368 368 367 366 365 364 364 364 362 360 360 359 358 357 356 355 354 353 351 350 349 347 346 344 342 341 340 340 340 339 338 336 335 336 337 336 337
354 354 356 357 358 359 359 359 361 361 360 360 361 362 363 365 365 366 366 367 368 368 369 369 369 369 368 368 368 367 366 365 365 365 362 360 360 359 357 357 356 355 355 354 352 351 349 347 346 344 342 341 340 341 340 339 338 337 336 336 336 336 336
354 354 355 357 357 359 359 358 360 362 359 359 361 362 363 365 366 366 366 366 366 367 369 368 368 369 368 368 368 367 367 366 365 365 363 360 360 359 358 357 356 354 355 354 352 351 349 346 345 343 342 342 341 341 340 339 337 337 337 336 336 335 335
353 354 355 355 356 358 359 358 359 361 359 358 360 362 363 364 364 364 365 366 366 366 368 368 367 369 368 368 367 367 366 366 365 365 364 361 360 360 359 357 356 355 355 354 353 351 349 346 343 342 343 342 341 341 340 339 338 337 338 337 337 336 335
352 354 356 355 355 357 357 357 358 359 359 358 359 361 362 361 362 362 362 364 365 365 367 367 367 368 368 368 367 367 367 366 365 365 364 361 359 361 360 355 353 354 355 354 351 350 349 346 343 343 343 342 341 341 340 339 339 337 337 337 336 336 336
351 354 355 355 355 354 355 357 358 359 360 359 359 361 361 360 360 360 359 361 362 363 364 364 365 368 368 368 367 367 367 365 365 363 362 360 360 361 359 354 352 353 355 353 351 349 347 345 343 342 342 342 342 341 340 340 339 337 336 335 335 336 337
352 356 357 354 353 352 354 355 357 360 360 360 360 360 361 360 359 359 359 359 360 361 361 359 362 367 369 368 366 367 366 365 364 362 361 360 361 360 358 355 352 351 353 353 349 345 343 342 339 338 339 340 341 341 339 339 339 337 335 335 336 337 337
354 358 357 354 353 353 352 353 357 361 362 363 362 361 362 362 361 360 359 358 358 359 359 357 358 365 368 368 366 366 365 364 362 361 360 360 359 358 357 355 353 351 352 351 347 341 338 338 337 337 338 338 337 337 336 336 338 337 335 335 337 338 337
357 358 358 356 354 354 353 354 359 362 363 365 364 362 363 363 362 361 360 359 358 358 359 358 356 362 368 367 365 365 364 362 361 360 358 358 357 356 354 353 352 352 351 348 344 338 334 335 337 337 335 330 328 332 333 333 336 337 336 337 337 338 337
360 361 360 358 356 355 356 359 361 363 366 367 365 363 363 363 363 362 361 361 360 358 359 360 358 359 366 366 364 364 363 361 360 358 357 357 356 354 352 350 350 350 348 344 340 335 334 335 333 330 327 323 322 327 330 331 335 337 338 337 338 337 337
361 361 360 359 358 358 360 363 363 365 367 367 367 365 365 365 363 363 363 363 361 360 360 362 360 360 364 365 365 364 363 361 359 358 357 356 354 351 349 347 346 346 344 342 338 334 334 332 326 323 322 323 325 326 327 331 336 338 339 339 338 337 338
359 358 359 359 359 361 364 365 367 368 368 368 368 366 366 367 364 364 365 364 363 362 361 363 363 363 365 365 365 365 363 361 359 358 355 352 349 347 346 345 345 346 345 342 339 337 333 327 323 323 323 326 331 329 326 331 337 339 340 340 339 338 338
359 356 357 358 360 363 365 367 368 369 369 369 368 367 367 367 366 365 366 365 365 363 362 363 365 365 366 366 366 366 362 360 360 355 350 347 345 345 345 345 346 346 346 345 341 336 330 324 323 324 323 327 333 331 327 330 335 338 339 338 338 339 339
358 356 355 356 359 363 365 366 368 369 370 370 369 368 368 367 368 367 367 366 367 365 363 365 366 367 368 367 366 365 362 361 358 351 346 345 344 344 344 344 343 338 336 341 339 331 325 323 323 323 323 329 335 335 333 333 333 335 336 335 336 338 338
356 357 357 356 358 362 364 365 367 369 370 369 369 370 369 369 369 368 367 366 367 367 366 365 367 368 367 366 365 364 362 360 355 348 344 344 344 343 342 342 342 337 333 337 337 331 326 324 321 323 327 333 337 339 338 336 334 335 335 333 334 335 335
358 359 358 358 359 361 363 363 366 368 368 369 370 371 370 371 371 369 368 367 366 367 367 366 368 367 365 365 365 363 361 358 353 347 344 343 343 344 341 338 339 339 336 336 335 332 329 325 324 329 334 336 338 340 339 336 333 335 336 334 333 333 334
359 358 360 361 360 361 361 361 363 366 367 369 371 371 370 371 371 370 369 368 367 367 367 367 368 366 365 366 365 362 359 357 353 347 343 343 342 342 341 338 338 339 338 336 335 334 331 331 333 337 339 339 339 339 339 337 335 336 337 335 333 334 336
355 358 360 360 359 360 360 359 361 363 367 367 367 368 369 369 370 370 368 368 368 367 366 367 367 365 365 365 363 361 358 356 353 348 344 343 342 341 341 339 338 338 338 338 337 335 335 336 339 340 340 341 340 340 340 339 338 338 337 336 335 335 336
354 356 357 358 359 359 359 358 359 362 364 364 364 366 367 367 367 368 367 367 367 367 367 367 366 365 364 364 362 360 358 356 353 349 346 344 343 343 343 342 341 340 339 339 339 338 338 339 340 340 340 341 342 342 342 341 339 338 337 336 333 333 335
349 351 353 355 356 359 359 358 358 361 362 362 363 364 364 364 364 364 364 366 367 367 367 367 366 365 364 362 360 358 357 355 352 350 348 346 345 345 344 344 343 342 341 341 341 340 340 341 340 340 339 340 340 340 341 340 338 338 337 334 332 333 336
345 348 350 351 353 358 359 358 358 360 360 359 360 360 359 358 359 360 361 363 366 367 367 366 366 364 361 360 358 356 355 353 351 351 349 348 347 347 346 345 344 344 345 344 343 342 341 340 340 340 340 339 338 338 339 338 338 337 337 335 334 335 336
344 347 349 351 354 358 358 356 356 356 356 357 357 356 356 355 357 360 361 364 366 367 367 367 365 362 359 358 356 354 353 352 352 351 350 349 349 348 347 347 345 345 345 344 343 342 340 340 340 340 340 339 337 338 338 337 337 336 335 335 333 332 333
343 345 350 353 355 356 355 354 354 355 356 357 357 356 356 357 359 362 364 366 367 367 367 367 364 362 360 357 354 353 352 351 351 351 350 349 349 348 347 347 346 345 344 343 343 342 341 341 341 339 338 338 337 338 337 337 337 335 333 332 329 327 332
346 346 349 353 354 355 357 358 358 357 357 359 360 361 361 362 364 366 366 366 366 366 366 365 363 361 359 356 354 352 351 350 350 350 349 349 348 347 347 346 344 343 342 341 341 341 341 341 340 339 338 337 337 336 336 336 335 331 329 327 325 326 331
350 351 351 354 358 358 359 359 357 355 357 362 363 363 364 365 366 366 366 366 364 363 363 362 361 360 358 356 355 353 351 350 349 349 348 348 348 347 345 343 341 340 340 339 338 338 338 338 337 337 337 336 335 335 334 334 333 331 328 328 329 330 330
353 354 356 358 359 356 353 354 353 354 359 362 362 363 364 365 366 365 364 363 362 361 360 360 359 359 358 357 355 353 351 350 349 349 348 347 347 345 342 340 338 338 337 336 335 336 336 336 335 335 335 335 334 333 333 334 336 337 335 332 331 330 328
354 354 354 355 355 352 351 354 356 357 359 359 359 360 361 362 364 364 363 362 361 360 359 359 358 358 357 356 354 353 351 349 349 348 346 345 345 342 339 337 336 335 334 333 333 335 335 335 335 334 334 334 334 334 337 339 338 336 334 331 330 329 328
349 348 346 346 346 347 353 361 362 361 359 357 357 357 358 362 364 364 364 363 360 358 357 358 358 358 356 354 353 351 350 349 348 346 344 343 342 339 338 336 335 335 334 333 334 335 335 334 334 334 334 334 334 337 341 340 337 334 331 330 329 329 328
343 343 343 343 343 342 347 357 361 360 360 360 360 360 361 362 363 365 364 360 357 356 357 357 357 356 354 352 351 349 348 348 346 343 342 341 339 339 338 336 335 336 336 335 335 336 335 334 334 334 334 333 334 338 340 339 338 335 332 330 329 329 328
347 345 344 347 350 347 343 348 353 354 356 357 357 358 360 361 362 363 360 356 355 357 357 356 355 354 353 352 350 348 347 347 345 342 340 339 339 339 339 337 337 338 337 337 336 336 335 335 335 335 335 335 336 339 339 338 337 336 333 331 330 328 326
351 351 351 352 355 354 348 346 348 350 352 353 353 353 355 358 361 360 356 355 356 356 355 354 353 353 352 352 349 347 346 345 343 341 340 339 339 340 339 339 339 338 338 337 336 336 336 336 336 335 335 336 337 338 338 337 336 336 335 332 328 326 325
351 353 353 352 354 355 353 349 348 350 354 356 354 353 353 354 356 355 354 354 353 353 353 353 352 352 351 350 349 347 346 344 342 341 340 339 338 339 338 339 338 338 338 337 336 336 336 336 335 335 334 334 336 337 338 337 336 336 335 331 329 328 328
351 352 353 352 352 354 354 353 352 352 355 357 357 357 356 355 353 352 352 351 351 351 351 350 350 351 350 348 347 346 345 343 341 340 339 339 338 338 338 339 339 338 338 337 336 336 336 335 335 334 333 332 333 335 335 334 334 334 333 330 330 330 329
350 351 352 352 352 352 353 354 355 355 356 357 357 357 355 354 352 350 349 349 349 350 350 349 349 350 348 347 346 345 344 343 341 340 339 339 339 336 334 334 335 335 334 333 333 333 334 334 334 334 333 332 331 331 331 332 333 333 331 329 328 327 325
347 349 349 350 351 352 353 353 354 356 356 356 356 355 353 351 351 349 348 349 349 350 350 349 349 348 346 346 345 344 343 342 340 340 340 340 339 336 331 329 328 328 327 327 326 327 329 331 332 332 331 331 332 331 329 329 330 330 329 327 326 325 323
339 343 346 347 348 350 352 352 353 355 355 354 354 353 351 350 349 349 349 349 349 350 350 349 348 346 345 344 344 344 344 342 341 341 340 340 340 338 335 333 330 326 323 322 323 325 326 326 327 327 326 327 329 329 325 325 326 327 327 326 324 322 321

ECMWFFLT1_925_thetae_009.txt.gz
Theta_e
352 351 348 351 356 356 357 358 358 357 356 355 356 357 357 357 359 361 363 365 367 368 368 367 367 366 366 366 364 364 364 362 362 362 362 360 359 358 358 357 356 354 353 353 352 352 351 349 346 343 343 342 342 342 342 342 340 338 337 337 338 338 338
352 351 347 350 355 357 356 358 359 359 358 356 356 357 357 357 359 361 363 366 367 368 368 368 368 367 367 366 365 365 365 363 362 362 362 361 360 359 358 356 356 355 355 353 351 351 350 348 346 344 343 342 342 342 343 342 340 338 337 338 337 337 338
350 352 350 351 357 359 358 357 359 361 359 357 358 357 357 357 360 361 363 365 368 370 369 368 370 368 368 368 366 366 365 363 362 363 362 360 359 359 358 357 357 355 355 353 351 351 350 348 347 345 344 343 343 343 342 342 340 338 337 338 337 337 338
347 352 351 353 358 361 359 357 358 361 360 358 358 359 358 358 360 362 362 364 368 370 370 369 370 370 368 368 367 367 366 364 363 362 361 359 358 359 358 357 357 355 353 353 351 351 351 349 347 346 345 344 343 343 342 341 341 339 337 338 338 337 338
345 351 351 353 357 360 361 358 358 360 359 358 360 361 360 359 361 362 362 364 368 370 370 369 370 370 369 369 368 366 367 366 364 363 361 359 358 358 358 357 357 355 352 352 351 352 352 350 348 347 346 345 343 342 342 341 341 340 338 337 337 337 337
342 349 351 352 356 360 360 358 358 359 359 358 360 362 362 360 361 363 362 363 367 369 369 368 368 370 370 369 368 366 367 367 366 364 363 361 359 359 358 356 355 353 351 351 352 353 353 351 349 348 347 345 343 342 342 341 340 340 339 338 337 337 337
341 347 350 352 356 359 360 358 359 360 359 357 358 361 361 360 361 362 361 363 364 366 367 367 366 368 371 371 369 368 368 367 367 366 365 362 361 360 359 357 356 353 351 352 353 353 353 351 349 348 347 344 343 342 342 342 340 339 339 339 338 338 337
339 344 348 353 356 357 359 360 359 361 360 355 354 358 359 359 360 360 360 361 360 361 364 364 364 367 371 372 371 370 370 368 369 368 366 364 362 360 359 359 358 354 352 352 353 353 353 352 349 347 346 344 343 343 342 342 342 340 340 339 339 339 339
341 345 348 352 352 353 358 360 360 362 361 356 353 356 359 358 357 357 357 357 357 357 358 360 360 364 370 373 371 371 371 370 370 369 367 365 363 360 357 358 359 356 354 353 353 353 353 352 349 345 345 345 343 344 343 342 342 341 339 339 338 338 338
344 347 350 353 353 355 358 359 362 365 365 362 357 357 360 358 354 354 354 353 354 354 355 356 353 358 369 373 371 371 371 370 369 368 367 364 362 359 355 357 359 358 356 352 351 354 353 351 348 345 345 346 343 343 343 343 343 341 338 337 337 337 337
352 351 354 358 358 359 358 360 367 370 371 370 362 357 361 358 353 352 352 351 352 351 352 355 351 353 366 371 370 370 371 370 368 367 366 362 359 357 355 356 358 358 356 353 352 354 351 349 347 344 346 346 342 343 345 344 343 341 338 337 337 336 337
358 359 362 364 363 361 362 365 370 372 374 372 363 358 361 361 353 350 351 351 350 350 351 353 351 352 363 370 369 368 370 370 368 367 364 360 358 356 353 353 356 355 351 352 354 353 350 349 347 345 346 345 342 344 346 344 342 340 338 337 337 337 338
363 368 367 366 364 363 366 368 368 370 371 369 364 361 362 362 355 351 352 353 350 349 350 352 352 352 359 368 370 368 370 371 368 366 363 359 358 357 352 353 355 352 348 351 354 350 348 349 346 346 346 341 337 342 344 342 340 338 337 338 338 338 339
363 369 366 366 366 365 367 367 366 368 368 368 367 365 365 363 360 355 354 354 352 350 349 352 354 354 357 365 369 370 370 369 367 365 360 358 358 357 355 355 355 352 349 350 350 345 346 348 345 345 344 336 331 337 341 341 339 336 336 338 339 340 340
360 366 366 367 368 367 367 366 367 367 368 369 369 368 367 365 363 361 358 358 355 351 350 353 356 356 356 362 368 370 369 368 367 364 361 359 358 356 356 357 354 350 346 343 341 342 344 346 344 343 340 335 334 338 339 338 337 336 336 339 340 341 341
348 355 357 360 365 369 368 367 368 369 370 372 372 370 369 366 365 364 363 362 359 354 352 354 358 359 358 361 367 370 369 368 366 365 363 362 359 355 355 356 352 347 343 340 341 343 344 346 344 342 338 336 336 338 338 337 336 336 336 339 342 343 342
336 341 341 344 355 366 370 369 369 371 372 373 373 371 369 368 368 366 365 364 362 357 354 355 360 363 361 363 367 370 370 368 365 365 364 362 358 356 355 354 350 346 343 343 345 346 346 345 344 342 339 336 337 338 339 338 336 336 337 338 341 343 342
336 338 338 340 351 365 372 370 372 374 372 372 373 372 370 370 369 367 365 365 363 361 358 359 364 367 365 367 370 371 370 365 363 363 361 359 357 355 354 352 349 346 347 349 350 349 348 346 344 341 338 337 338 339 339 338 336 337 337 336 336 338 341
338 335 337 346 352 360 368 369 370 373 373 373 373 372 372 372 371 369 367 366 366 363 361 363 368 370 370 371 371 371 367 362 360 361 359 358 356 354 353 352 349 348 349 351 351 349 348 347 344 340 337 337 339 338 338 338 338 338 336 330 329 333 337
338 334 338 348 348 351 362 367 369 370 374 375 373 372 372 371 372 370 367 367 368 366 365 367 370 373 373 372 371 370 365 360 359 359 358 358 357 355 355 354 352 351 351 351 351 349 348 346 344 342 340 340 340 339 338 338 339 340 336 330 329 333 336
339 338 344 351 351 354 364 368 366 368 373 374 370 370 371 371 371 369 367 368 370 369 368 370 373 374 373 371 371 369 363 359 359 359 358 358 357 356 356 355 354 353 351 351 350 349 348 346 343 342 340 341 341 340 339 339 338 339 338 333 331 334 336
334 341 349 355 358 363 369 369 365 368 372 371 370 371 371 370 370 368 367 369 371 371 371 371 374 374 371 369 370 368 364 360 359 359 357 357 356 356 356 355 355 354 352 351 350 349 348 346 343 341 341 342 342 341 340 339 338 339 338 336 336 337 337
333 341 349 355 359 365 369 367 364 368 372 370 370 370 370 370 370 368 369 371 372 373 374 373 373 372 369 368 369 368 365 361 358 357 356 355 355 355 355 355 354 353 352 351 350 348 347 346 344 343 343 343 342 342 341 341 340 339 338 337 337 338 337
339 340 345 351 356 362 365 366 364 367 369 369 369 370 371 371 371 371 372 373 373 374 374 373 373 370 367 368 368 366 365 362 358 356 355 354 354 354 353 353 352 351 351 350 349 348 346 345 344 343 343 342 342 342 342 341 341 341 339 335 334 337 337
341 340 344 350 354 358 363 364 363 365 368 368 369 371 371 371 370 370 371 373 373 373 373 372 371 369 366 365 365 364 363 362 359 357 355 354 353 353 352 352 351 350 350 349 348 347 346 345 345 344 343 342 342 341 342 341 341 341 339 335 334 337 338
345 343 345 349 351 358 363 363 364 366 367 367 369 370 368 368 369 370 372 373 373 372 372 371 369 367 364 362 362 361 360 360 360 358 355 355 354 353 352 352 351 350 349 349 348 348 347 345 345 344 344 343 342 342 341 341 340 340 338 334 334 337 337
347 346 346 350 355 360 364 364 365 367 366 366 367 366 365 366 368 370 372 372 371 370 370 369 367 365 363 361 360 359 357 357 357 357 355 355 354 353 352 352 350 350 349 348 347 346 346 345 344 344 343 343 342 341 341 341 340 340 338 335 335 337 336
349 349 348 354 359 361 362 362 363 363 363 362 362 363 365 368 370 371 371 370 369 368 368 368 366 364 362 360 359 359 357 356 356 355 354 354 354 353 352 351 349 348 346 345 343 342 343 343 343 343 342 342 341 340 339 340 338 337 337 336 336 335 332
350 350 352 357 359 359 360 360 360 362 363 364 364 366 368 370 370 370 368 368 367 366 366 367 366 364 362 361 359 358 356 354 354 353 353 353 353 351 350 348 345 344 344 344 342 341 341 340 339 339 338 338 339 338 338 339 338 335 334 334 334 331 329
355 356 358 360 359 359 360 363 366 367 365 362 361 361 363 367 368 366 366 367 365 365 366 367 365 363 362 360 358 356 353 352 352 352 351 351 351 349 347 345 345 344 344 343 341 340 341 339 338 337 335 336 337 337 337 339 339 335 333 333 333 332 331
358 358 357 355 355 357 357 359 359 356 354 352 352 353 358 363 365 365 366 366 365 365 367 365 364 363 361 358 357 354 352 351 351 350 350 350 349 347 346 344 344 343 342 340 338 338 339 339 338 337 336 335 336 335 336 339 340 337 335 335 335 334 331
354 352 353 354 355 354 353 354 354 354 355 357 357 358 360 362 365 368 368 367 366 366 366 364 362 360 358 357 356 354 352 352 350 349 348 348 347 346 345 343 343 341 340 339 337 337 339 339 338 337 336 336 335 335 336 339 340 338 335 333 332 331 329
353 350 348 349 350 351 353 357 358 359 360 360 357 356 359 364 368 368 365 365 365 364 362 361 360 358 357 357 355 354 352 351 349 347 346 346 345 344 343 342 341 340 340 338 337 338 339 338 337 336 336 336 335 334 336 338 339 337 334 332 330 329 329
358 358 355 349 345 345 348 349 351 352 353 352 348 348 353 361 364 363 362 362 361 360 360 359 358 358 358 357 355 353 352 350 348 347 345 345 344 343 342 340 339 339 339 338 337 338 337 337 336 335 334 334 334 334 337 339 338 337 336 334 333 331 330
357 359 361 360 356 351 349 349 351 353 355 354 353 353 356 359 359 359 360 360 360 360 360 358 358 358 357 355 354 352 350 348 347 346 345 344 343 343 343 342 341 340 340 339 339 339 338 338 337 335 334 334 334 335 338 338 336 336 336 336 334 331 330
354 354 358 361 361 360 359 358 358 360 361 361 359 358 357 356 355 354 354 356 359 360 359 357 357 356 354 352 352 350 348 347 346 345 344 343 342 340 339 339 340 340 340 338 338 337 336 337 336 335 335 335 336 337 338 337 336 337 337 336 333 329 328
351 352 355 358 359 361 362 362 362 363 362 361 359 356 354 352 352 352 352 354 356 357 356 355 354 351 349 349 348 348 347 346 344 344 342 342 342 340 338 337 336 336 336 336 336 335 334 334 334 334 333 334 334 335 334 333 332 333 334 334 332 329 329
348 349 352 354 357 359 359 359 360 360 359 358 357 355 354 352 352 352 354 354 355 355 354 353 351 349 348 347 346 346 346 344 343 342 341 341 341 341 340 339 337 334 332 332 332 332 330 329 331 333 332 331 332 332 330 331 332 332 332 332 330 328 328

ECMWFFLT1_925_thetae_012.txt.gz
Theta_e
354 354 354 355 356 354 356 361 360 360 361 360 360 360 359 360 362 362 363 365 367 367 368 368 367 367 366 366 366 365 365 365 365 364 362 360 359 357 358 359 359 358 359 358 356 353 352 352 351 350 348 344 343 343 343 342 342 342 340 337 339 340 339
351 352 353 353 355 355 356 360 360 359 360 361 360 360 360 360 362 363 364 366 367 368 369 369 368 367 366 366 366 366 365 364 364 364 363 361 360 359 358 359 359 358 357 357 356 354 352 351 350 348 347 344 342 343 343 342 342 341 340 337 338 339 339
352 352 353 352 354 357 358 358 358 357 358 360 359 359 360 360 361 363 364 366 367 368 369 369 368 366 366 367 366 366 365 364 364 364 363 362 361 359 359 359 359 357 356 355 354 353 352 351 348 346 345 344 343 343 343 343 342 341 339 338 338 338 338
355 353 353 354 357 359 359 358 357 357 357 358 358 358 360 361 361 362 364 366 367 369 370 370 368 367 366 367 367 366 366 365 364 363 363 363 361 360 359 359 358 357 355 354 353 353 352 350 348 346 345 344 343 343 343 343 343 341 339 338 338 338 338
354 353 355 354 355 359 359 356 356 357 357 358 357 357 360 361 361 361 363 365 367 368 370 371 369 367 367 367 368 366 366 365 364 363 362 363 362 360 360 359 358 357 356 355 353 353 352 350 349 347 345 344 344 344 343 343 343 341 339 338 338 337 337
352 355 357 353 351 356 358 354 352 354 358 359 358 357 359 360 359 359 361 364 366 367 370 371 369 367 367 367 367 367 366 366 364 363 362 362 361 360 360 359 358 357 356 355 354 353 352 351 349 348 346 345 345 345 343 343 343 341 339 338 338 338 337
354 356 357 355 351 352 354 353 352 355 359 359 358 357 358 359 358 358 359 362 366 368 369 370 369 368 367 367 367 367 366 367 365 364 363 362 360 359 359 359 359 358 356 354 353 352 352 351 350 349 347 346 346 345 344 343 342 342 340 338 338 338 337
355 359 357 356 352 348 350 353 355 357 359 359 359 359 357 358 358 357 358 361 365 368 369 369 368 367 367 367 368 368 367 367 366 364 363 362 360 360 359 359 359 358 355 354 353 352 352 352 350 349 349 348 346 345 344 343 342 342 341 340 338 338 337
355 360 357 352 348 346 351 355 357 357 356 356 359 361 359 358 358 357 358 361 364 367 368 368 368 367 367 367 368 368 367 367 367 365 364 362 360 360 359 359 358 357 355 353 352 353 353 352 351 350 349 348 347 345 343 343 342 341 342 341 339 338 337
360 360 359 353 349 352 354 356 358 359 358 357 359 362 361 360 358 357 358 361 363 364 367 368 367 367 369 369 368 367 367 367 368 367 365 363 361 359 359 359 358 357 355 353 352 352 353 353 352 351 350 349 348 345 343 343 343 342 341 341 341 339 339
362 363 361 356 356 359 357 356 360 364 364 362 361 363 363 361 360 358 358 360 361 362 366 367 365 366 369 369 368 367 367 367 368 367 366 364 361 359 359 359 358 357 354 353 353 353 353 353 353 352 350 349 348 345 344 343 343 342 341 341 341 341 340
362 368 367 362 364 365 363 363 365 368 370 368 364 364 364 363 362 359 359 360 359 361 365 365 363 364 368 369 368 367 368 367 366 367 366 364 362 360 359 358 358 358 356 354 352 353 354 354 353 353 351 349 348 346 344 343 343 343 342 342 342 341 341
366 369 369 367 367 366 369 372 370 370 375 374 367 363 364 364 362 360 360 359 360 360 361 362 361 361 366 369 370 369 370 369 367 367 366 365 363 361 359 358 358 358 357 354 353 353 354 354 354 353 352 350 348 346 345 344 343 343 343 342 341 340 338
368 365 368 373 375 375 378 380 381 381 378 377 370 363 362 363 361 361 361 359 359 358 358 358 358 360 364 368 370 370 371 371 369 368 367 366 364 362 360 358 356 357 357 356 354 354 352 353 354 354 352 350 348 346 345 344 344 344 343 341 338 336 335
366 363 367 372 377 383 386 386 390 390 383 379 373 365 361 361 361 361 360 359 357 355 355 355 355 358 362 367 370 371 371 371 371 369 368 366 364 362 361 358 355 355 357 357 356 354 351 352 355 355 352 350 348 346 344 343 344 344 343 340 336 335 336
355 356 364 370 375 381 384 385 388 388 387 384 377 369 363 361 362 362 359 357 355 352 353 355 354 354 357 362 367 370 371 372 371 369 367 366 364 362 361 359 355 355 356 357 357 355 352 353 356 355 352 351 349 347 345 345 346 345 343 339 334 333 337
342 347 358 366 373 377 379 382 382 384 385 383 379 373 365 362 363 361 358 355 353 352 351 353 355 354 354 358 364 368 370 371 371 370 368 366 365 362 360 359 356 355 356 357 356 354 353 354 356 355 353 352 351 349 349 348 346 344 341 337 331 331 337
345 351 357 362 372 379 378 378 378 380 378 375 375 374 368 366 365 362 358 354 351 351 351 352 355 355 354 358 364 369 371 371 372 371 369 367 365 363 361 359 357 356 355 356 356 355 354 355 356 355 354 353 352 350 348 347 344 342 340 336 330 330 339
344 348 353 360 371 378 375 371 373 375 372 369 369 371 369 369 368 364 361 356 352 350 350 353 357 356 356 360 366 371 373 372 373 372 370 368 365 363 362 360 358 358 357 358 358 357 356 355 354 354 352 351 350 348 345 344 342 339 338 334 328 329 339
345 343 344 354 368 375 374 374 373 373 372 370 369 369 368 368 368 367 364 359 354 352 350 352 359 360 359 363 367 373 374 373 373 372 370 368 366 365 364 361 361 361 360 359 359 357 356 354 353 352 350 348 346 344 342 341 339 337 336 334 328 327 336
350 347 342 352 368 375 378 381 379 375 374 372 370 371 370 370 369 367 366 364 360 359 354 352 359 362 362 366 372 376 376 374 372 371 370 369 367 366 364 362 361 361 359 358 357 357 355 353 351 350 348 345 343 342 341 340 340 338 335 334 330 325 330
344 345 343 350 366 378 383 380 376 377 375 371 371 372 371 370 369 366 366 365 364 365 360 356 362 367 369 374 376 375 374 373 371 370 369 368 367 366 363 362 362 360 358 356 355 355 354 352 351 349 346 344 342 341 341 340 340 338 336 335 333 328 327
337 339 342 345 355 371 378 374 370 375 376 374 372 371 370 369 369 368 367 365 365 367 366 366 369 373 375 377 374 371 371 370 369 368 367 366 365 364 363 362 361 359 358 356 354 354 352 351 350 348 346 344 343 343 342 341 340 339 338 337 336 332 329
335 335 338 341 345 359 373 373 370 372 375 376 372 371 370 369 370 370 369 367 368 370 371 374 376 375 377 376 372 369 369 368 367 366 365 364 363 363 362 361 360 359 358 356 355 354 352 351 350 347 346 344 343 343 343 342 341 340 339 339 339 336 333
332 331 334 336 335 349 367 373 369 369 373 374 372 371 371 371 372 373 371 370 371 371 374 378 377 376 377 375 371 368 367 366 365 364 363 362 361 360 360 360 359 359 358 357 356 354 353 352 350 348 346 344 343 344 343 343 343 341 339 339 339 338 336
341 337 337 337 334 348 367 373 371 370 370 372 372 371 372 373 373 373 372 373 373 372 373 377 377 375 375 373 370 367 366 365 364 363 362 360 359 359 359 358 358 357 355 354 353 352 351 350 348 347 346 345 344 344 343 343 344 343 341 340 339 338 338
351 346 337 334 340 356 372 374 371 368 366 369 373 372 372 375 374 373 373 375 375 373 373 375 375 373 373 372 370 366 365 365 363 361 360 358 358 357 357 356 355 353 353 352 351 350 349 349 347 346 346 345 344 344 343 343 344 344 342 340 340 340 338
355 352 345 342 350 361 369 371 368 366 367 371 373 372 373 375 375 375 377 378 377 376 375 374 372 371 371 371 369 366 365 364 362 360 357 356 356 355 354 354 353 352 351 350 349 349 349 348 346 346 346 345 344 344 344 343 343 342 341 340 340 340 338
356 351 349 352 359 364 366 367 367 367 368 370 371 372 374 375 377 378 379 378 378 376 374 372 370 369 369 369 367 365 363 362 361 358 356 356 356 354 354 353 352 351 350 349 349 349 348 346 345 344 345 345 344 343 343 343 341 339 339 339 339 339 338
356 352 349 348 356 364 366 368 371 370 368 369 370 371 373 376 378 378 378 377 375 373 371 369 367 366 366 366 364 362 361 360 360 358 357 356 356 355 354 353 351 350 349 349 349 349 348 346 345 344 343 343 343 342 341 342 341 338 337 337 337 337 337
353 351 348 345 354 363 365 369 373 372 370 371 372 372 374 376 375 376 376 374 371 369 369 367 366 365 364 363 361 360 359 359 358 357 357 356 355 354 353 352 351 350 348 347 347 346 345 344 343 342 340 339 339 339 340 341 341 338 336 336 334 334 336
361 357 355 357 361 362 363 366 369 369 370 372 373 373 373 373 372 373 373 371 370 369 367 365 364 363 362 361 359 358 358 357 356 355 355 354 353 353 351 350 349 348 346 345 344 343 343 342 340 339 338 337 338 339 341 342 340 337 335 335 334 334 335
361 361 359 359 360 362 364 366 364 365 369 371 371 371 370 369 370 371 371 371 370 368 366 363 362 360 359 358 357 355 355 355 353 353 353 352 352 351 349 347 346 345 344 343 341 341 342 341 339 339 338 337 337 338 341 342 340 338 336 335 335 334 334
359 358 352 353 358 362 364 366 365 365 367 367 367 367 368 369 369 369 369 369 368 366 364 362 360 359 357 356 355 353 353 352 352 352 351 351 350 348 347 346 344 343 342 341 339 340 341 340 339 339 338 337 336 339 342 342 340 338 337 336 335 335 334
357 354 352 355 359 360 360 361 361 362 362 363 364 366 368 369 368 368 368 368 366 364 362 360 359 358 356 355 353 352 352 351 351 351 350 347 344 343 343 343 343 342 340 339 339 340 340 340 339 337 337 336 335 337 340 341 340 339 337 336 334 334 332
356 356 356 358 359 360 362 361 360 361 362 363 364 365 366 367 366 365 364 364 363 361 359 358 358 357 355 354 352 351 351 350 348 348 347 344 340 339 338 340 341 342 339 338 338 339 339 338 336 336 337 337 336 337 339 339 340 339 337 335 333 332 331
353 357 360 361 361 363 364 364 363 363 363 360 358 358 359 360 360 361 361 361 360 359 357 357 357 355 354 352 351 350 349 347 346 346 345 342 340 339 337 336 337 337 336 337 337 336 337 338 336 335 335 336 337 337 338 338 338 338 336 335 334 332 332
348 352 357 360 361 363 363 364 363 361 358 356 354 352 352 353 356 360 361 360 359 358 357 357 356 353 352 351 350 348 347 346 345 346 345 343 341 339 337 336 334 332 332 334 335 335 335 335 335 334 334 334 336 337 337 336 337 336 336 336 334 332 331

ECMWFFLT1_925_thetae_015.txt.gz
Theta_e
349 351 353 354 356 357 358 360 358 356 356 357 358 357 356 357 357 358 360 361 362 362 362 361 362 362 362 362 361 361 362 362 362 362 361 360 358 357 355 354 355 355 355 356 355 356 356 354 354 352 349 349 348 343 340 340 338 339 340 337 338 340 338
349 352 355 355 356 357 359 360 358 356 356 357 358 357 356 356 357 358 360 362 363 363 363 362 362 362 363 363 362 362 363 363 363 362 362 361 359 357 355 354 355 355 355 355 355 356 355 354 354 352 349 348 346 342 342 341 338 338 339 337 339 339 338
350 354 357 357 357 357 357 359 358 356 356 357 358 358 357 357 357 358 360 362 363 363 364 363 363 363 363 364 363 363 364 363 363 363 362 361 360 358 356 355 355 355 356 355 355 356 355 354 354 352 349 347 345 342 342 341 338 338 339 338 339 339 338
351 354 357 357 357 356 356 357 357 357 356 357 358 358 357 357 357 359 360 362 363 364 364 363 363 363 363 364 364 364 364 364 363 363 362 361 360 359 358 356 356 356 357 355 355 355 354 354 353 352 349 347 345 343 342 340 338 338 341 339 338 338 338
352 354 356 356 356 355 355 355 355 356 356 357 358 358 358 357 358 359 361 363 363 364 364 364 364 364 364 364 364 365 365 364 364 363 362 362 360 359 359 357 357 357 357 356 355 354 353 353 353 352 349 347 344 343 342 341 337 337 340 340 337 337 338
353 355 356 356 355 355 355 353 353 354 355 356 357 358 358 357 358 360 361 363 364 364 364 365 365 365 365 364 364 365 365 364 364 363 363 363 361 359 359 358 358 358 357 357 356 355 353 352 351 351 350 347 344 342 342 341 339 337 339 339 337 336 337
352 354 355 355 354 354 354 353 351 352 355 356 357 358 359 358 359 359 361 363 364 365 365 366 366 366 366 366 364 365 365 365 364 363 363 363 361 360 359 359 358 357 358 357 357 356 354 352 350 350 349 346 343 342 342 342 341 339 338 338 338 337 336
351 353 354 354 353 352 352 354 353 352 354 355 357 359 358 358 359 359 360 363 364 365 366 366 367 367 366 366 365 365 365 364 364 363 363 363 361 360 359 359 358 358 357 357 356 356 354 352 351 349 348 345 343 343 343 342 341 340 339 338 338 338 337
351 353 353 352 351 350 352 354 354 352 353 354 355 358 359 359 360 359 360 362 364 365 366 366 367 367 366 366 365 365 365 365 364 363 363 362 361 361 359 359 359 358 357 356 355 355 353 352 351 350 347 345 344 344 343 343 342 341 340 338 337 338 338
353 352 354 353 351 352 353 355 355 355 355 354 353 357 358 359 359 359 359 361 363 365 365 366 367 367 367 366 365 366 365 365 364 363 363 362 361 361 360 359 359 358 357 357 356 355 354 352 352 350 349 347 345 344 344 343 342 342 341 339 337 337 338
355 354 354 354 352 355 356 356 357 358 358 355 354 356 357 358 359 359 359 360 361 363 365 366 367 367 367 366 365 366 365 365 365 364 363 362 361 361 361 360 359 358 357 357 356 355 355 353 352 351 350 348 346 345 345 344 343 342 341 340 338 336 336
355 355 356 355 355 358 360 359 359 362 363 358 357 358 357 357 358 358 358 359 359 362 364 364 366 367 367 366 366 365 366 365 365 364 363 362 361 361 360 360 359 359 358 357 356 355 355 354 353 351 350 349 347 346 345 345 343 342 341 341 340 338 336
357 355 356 355 356 358 361 361 362 366 367 360 357 359 357 357 358 358 357 358 358 360 363 364 366 367 367 367 366 365 365 365 365 364 363 362 361 360 360 359 358 358 358 357 356 355 354 354 353 352 351 350 349 347 346 345 344 343 341 341 341 340 339
358 355 355 353 356 360 362 362 362 364 365 360 356 358 359 357 357 357 357 357 357 359 362 364 366 367 367 366 365 365 365 365 364 364 363 362 361 360 360 359 358 357 357 357 357 355 354 353 353 353 352 351 350 348 347 345 344 343 342 341 341 341 340
357 354 354 355 359 362 363 363 364 363 364 361 355 355 359 359 357 357 357 357 357 359 361 364 366 366 367 366 365 364 364 364 364 364 364 363 362 360 359 358 357 357 357 357 356 355 354 353 353 353 353 352 351 350 348 346 344 344 342 341 341 341 340
356 352 352 356 361 362 361 362 363 362 363 364 359 355 358 360 358 358 357 357 358 359 361 363 365 366 366 366 366 364 364 364 364 364 364 363 362 361 360 358 357 356 356 357 356 355 354 353 353 354 354 353 352 350 349 347 345 344 343 342 341 340 340
358 359 357 358 363 363 362 363 364 363 365 366 362 357 358 361 360 358 358 358 357 359 360 362 365 366 365 366 367 365 364 364 364 364 364 364 363 362 361 359 358 357 356 356 356 355 354 353 353 354 354 354 353 351 349 347 346 345 344 342 341 340 340
364 370 368 367 370 368 366 368 370 369 366 363 363 361 359 361 362 360 359 359 358 359 359 360 363 364 364 366 366 366 365 364 364 364 364 364 364 363 362 360 359 358 357 357 357 356 354 353 353 354 354 354 353 351 350 348 347 345 344 343 342 341 340
362 367 370 369 370 370 370 371 374 376 370 362 363 364 361 360 362 361 360 359 358 359 358 359 362 362 363 364 365 367 367 366 365 365 364 364 364 364 363 362 360 359 358 357 357 357 356 355 354 354 354 354 353 352 350 348 347 346 345 344 342 341 340
350 359 368 369 369 371 373 373 374 375 372 366 366 366 363 361 361 361 361 360 359 359 358 358 358 360 361 362 364 367 368 367 368 367 366 366 365 364 364 363 362 360 358 357 357 358 358 356 354 354 354 355 354 352 350 348 347 346 345 344 343 342 340
348 356 362 366 369 370 370 373 374 373 370 368 368 367 364 361 361 361 360 360 359 358 358 356 356 357 359 359 362 365 367 368 369 368 368 367 366 366 365 363 362 361 359 358 357 357 357 357 356 356 355 355 354 353 351 349 347 346 345 345 344 343 341
363 361 356 359 368 374 373 370 367 368 368 367 366 368 366 362 361 361 360 359 358 357 357 355 354 355 356 357 359 363 366 368 369 369 370 369 367 366 365 364 362 360 359 358 357 357 357 356 356 356 355 355 354 353 351 349 349 348 347 346 345 343 341
354 357 354 354 362 368 369 365 363 363 364 365 365 365 366 364 362 361 360 359 357 356 354 354 353 354 354 355 356 359 364 367 369 370 370 368 368 366 365 364 362 360 360 359 358 358 357 356 356 355 355 354 352 351 349 347 346 346 345 345 343 342 340
337 344 352 357 364 368 366 363 365 364 363 365 365 364 365 366 364 363 361 359 357 355 353 352 352 354 355 355 354 357 362 366 368 369 369 369 368 366 365 364 362 361 361 359 359 359 357 356 355 353 353 351 349 348 346 343 343 342 341 341 340 338 337
335 337 343 345 355 368 371 366 366 367 366 365 365 365 366 366 366 365 363 361 359 357 354 352 352 354 356 355 355 358 364 368 369 369 369 369 368 366 365 363 362 361 360 359 358 357 356 355 353 352 351 349 347 345 343 342 341 341 340 339 338 336 334
355 359 356 345 343 354 365 367 367 369 369 367 366 367 367 367 367 367 365 364 362 360 358 355 352 354 359 360 360 364 368 370 370 370 369 368 367 366 365 363 363 361 359 357 356 355 354 353 351 350 348 347 346 344 343 342 342 340 340 339 338 337 334
362 363 358 352 348 347 353 360 365 366 367 367 367 368 368 368 368 366 366 366 363 362 363 359 355 359 365 366 367 369 370 371 370 369 369 368 366 365 364 363 362 360 359 357 355 354 353 351 350 348 347 346 345 344 343 343 342 341 340 339 338 338 335
364 361 350 349 356 358 357 361 365 366 368 369 368 368 369 369 368 367 366 366 364 363 364 363 364 367 370 370 370 370 370 369 369 368 367 365 365 364 362 361 360 359 358 357 355 354 351 350 349 348 346 345 345 344 343 343 343 342 341 340 338 338 337
368 371 357 349 355 362 367 372 370 367 370 371 370 370 370 369 369 368 367 366 366 365 366 369 372 371 370 369 369 368 368 367 366 365 364 363 362 361 360 359 358 357 356 354 353 351 349 348 347 347 346 345 344 344 343 343 343 342 342 341 340 338 337
359 365 362 357 353 352 363 378 376 367 367 371 372 371 371 370 370 369 368 368 367 368 371 373 372 370 369 367 367 366 365 364 363 362 361 360 360 358 357 356 355 354 353 352 351 350 348 347 346 346 345 344 344 344 344 343 343 342 342 342 341 339 338
354 356 357 359 360 356 360 374 375 367 366 368 368 369 371 371 371 368 368 371 371 372 374 373 370 368 367 366 365 363 361 361 360 359 358 358 357 356 354 354 353 352 351 350 349 349 348 346 345 345 345 344 344 344 343 343 342 341 339 340 340 340 339
351 352 352 354 358 360 362 368 370 367 365 363 358 358 362 367 371 371 370 372 373 372 372 370 368 366 365 364 363 361 359 358 357 357 357 355 355 354 353 352 351 350 350 350 349 347 346 345 344 344 345 344 343 342 343 343 342 340 339 339 339 339 339
349 351 351 352 354 354 354 362 369 370 368 360 351 348 350 356 367 374 373 373 373 372 370 368 365 363 362 361 359 357 356 356 356 355 355 354 353 352 352 351 350 349 349 350 348 346 345 344 343 343 343 343 342 342 343 343 342 341 338 337 338 338 337
347 349 349 350 353 351 349 355 362 363 361 355 349 350 351 353 359 365 367 367 366 363 362 359 357 356 355 354 353 352 353 354 355 354 353 353 352 351 351 350 348 346 345 347 347 346 343 342 342 341 340 341 341 342 342 341 341 340 338 336 336 335 335
346 348 349 350 352 350 347 349 352 351 351 350 349 351 354 353 351 350 351 351 351 351 351 350 351 352 351 350 351 352 353 354 353 351 350 349 349 348 348 348 347 344 342 343 343 343 341 340 340 339 337 338 340 341 341 339 339 338 336 335 334 333 333
345 347 348 349 350 349 347 347 347 347 347 348 348 349 351 350 347 346 347 348 348 348 348 348 349 350 351 352 353 352 353 353 349 346 345 345 344 343 342 343 344 343 341 340 340 340 339 338 339 338 337 337 339 340 340 339 338 338 337 336 335 334 332
341 345 347 347 347 349 349 349 348 347 346 347 348 348 349 350 350 348 349 349 349 349 349 350 351 351 352 353 352 351 352 350 345 342 341 340 340 339 337 336 337 338 339 339 339 339 339 338 338 338 338 338 338 339 339 338 337 337 337 337 336 335 334
337 340 343 343 344 346 349 350 348 346 345 347 348 346 346 349 352 352 351 351 351 351 352 352 352 351 351 351 350 350 350 347 342 339 338 337 337 337 334 331 329 329 331 334 337 338 338 337 337 337 336 336 337 338 339 339 337 337 337 336 334 333 333

ECMWFFLT1_925_thetae_018.txt.gz
Theta_e
345 345 344 345 347 349 352 353 351 350 351 352 353 353 353 354 355 356 357 359 358 358 358 358 358 357 357 358 357 357 357 356 356 357 357 358 357 357 357 357 358 358 358 357 355 355 355 355 355 354 353 351 349 349 348 345 339 338 340 340 340 340 338
345 346 345 346 347 348 351 353 351 350 351 352 353 354 354 354 355 356 357 359 359 359 359 359 359 359 358 357 357 358 358 357 357 357 357 358 357 357 357 357 358 358 358 355 354 355 355 355 354 353 353 352 350 349 347 344 338 338 340 340 341 341 338
345 347 347 347 348 348 350 352 352 351 351 353 354 354 354 354 355 356 356 358 359 359 359 359 359 360 359 358 357 358 358 358 358 358 358 357 357 357 357 357 357 358 357 354 354 355 355 354 354 354 353 352 350 348 347 344 339 338 341 341 340 340 338
345 346 348 348 349 348 349 351 352 351 350 352 354 354 355 354 355 356 356 358 359 359 360 359 360 360 359 359 358 358 358 358 359 359 358 358 357 357 357 357 358 357 356 355 354 354 354 354 354 354 353 353 350 347 348 346 340 338 340 340 339 338 337
346 346 347 348 349 349 349 350 350 352 351 352 354 354 355 355 355 356 356 358 359 359 360 359 359 360 360 359 359 358 358 358 358 359 358 358 358 357 358 357 358 357 355 355 354 354 354 354 354 354 353 353 349 347 348 346 341 338 339 339 338 337 338
346 346 347 348 349 350 350 350 349 350 352 352 353 354 355 355 354 356 356 357 358 359 359 359 359 359 360 360 359 359 358 359 358 359 359 359 359 358 358 357 357 356 355 354 354 355 354 354 354 354 353 352 349 348 347 343 340 339 339 338 338 337 338
345 347 347 347 349 349 350 350 350 350 352 353 353 354 355 355 355 355 356 357 358 359 359 360 359 360 360 360 360 360 360 359 359 360 360 359 359 359 358 358 357 356 355 354 354 355 354 354 354 354 353 352 349 349 347 342 341 341 339 338 338 338 338
346 347 347 348 349 348 350 350 351 351 352 353 354 355 355 355 355 355 356 357 358 359 359 359 360 360 360 360 360 360 360 360 360 360 360 360 360 360 359 358 357 356 355 355 354 355 354 355 354 354 353 352 350 349 346 342 342 342 340 338 338 338 338
346 348 347 349 348 348 349 350 351 352 353 354 354 356 355 355 356 356 356 358 358 359 360 360 360 360 360 361 360 361 361 361 361 361 361 361 360 360 360 358 358 357 356 355 355 355 355 355 354 354 353 352 350 348 345 343 342 342 340 338 338 338 338
347 349 348 349 348 350 350 349 351 354 355 355 354 355 356 355 355 356 356 357 358 360 360 361 361 361 361 361 361 361 361 361 361 361 361 362 361 361 360 359 358 358 357 356 355 355 355 354 354 354 354 352 350 348 345 343 343 342 340 337 336 337 336
348 349 349 349 350 351 351 352 354 355 356 355 353 356 357 355 356 356 356 358 359 360 361 361 361 362 361 362 361 361 362 362 362 362 362 362 362 361 360 359 359 358 357 357 356 356 356 355 354 353 353 352 350 348 346 344 343 342 340 337 336 335 334
350 350 350 352 352 351 353 355 356 356 356 354 352 355 356 355 356 356 356 358 359 360 361 361 362 363 362 362 362 362 362 362 362 362 362 362 362 361 361 360 359 358 358 357 356 356 356 355 354 353 352 351 350 348 347 345 344 343 341 340 337 335 334
351 350 349 352 352 352 355 357 357 356 356 354 352 353 356 356 356 357 356 358 359 360 361 362 363 363 363 363 363 362 363 362 362 362 362 362 362 361 361 360 359 358 358 357 357 356 356 356 354 353 352 351 350 349 347 345 344 343 342 341 339 337 335
350 349 349 351 352 353 356 356 357 356 355 354 351 352 355 356 356 357 357 357 358 360 361 362 363 364 364 364 363 363 363 363 363 362 362 362 361 361 361 360 360 358 358 358 357 356 356 355 355 354 352 351 349 348 347 345 344 343 342 342 341 339 337
352 350 351 350 352 354 355 356 357 356 355 354 352 351 354 356 357 357 356 357 358 359 361 362 363 364 364 364 364 364 363 363 363 362 362 362 361 361 361 360 359 359 358 357 357 356 356 355 354 353 352 351 349 348 346 345 344 343 343 342 341 340 338
354 352 353 352 353 354 353 355 357 355 357 356 353 352 353 355 357 356 356 357 357 359 361 362 363 364 364 364 364 364 363 364 364 363 362 362 361 361 360 360 359 359 358 357 357 356 356 355 354 353 352 351 350 348 347 345 344 344 343 343 342 341 340
355 353 353 353 354 354 353 356 356 357 359 359 355 352 352 355 357 356 357 357 357 358 359 361 363 363 364 364 364 364 364 363 363 363 363 362 362 361 360 360 359 358 358 357 357 357 356 355 354 353 353 352 351 350 348 346 346 345 344 343 342 342 341
358 354 353 354 354 354 355 355 357 359 359 358 354 352 353 354 355 356 357 357 357 358 358 360 362 363 364 365 364 364 364 363 363 363 363 363 362 361 361 359 359 358 358 357 357 357 356 355 354 354 353 353 352 351 350 348 347 346 345 344 343 343 342
358 354 352 354 354 355 355 353 355 358 357 355 353 352 354 355 354 355 356 356 357 357 357 359 361 362 363 364 364 365 364 363 363 363 363 363 362 361 361 360 359 358 357 357 356 356 356 355 354 354 353 353 352 351 351 349 348 347 345 345 344 343 342
358 354 353 354 354 354 354 354 354 354 352 352 352 353 355 355 355 356 356 356 357 356 356 358 360 361 363 363 364 365 364 363 363 363 362 363 362 361 361 360 359 358 357 356 356 356 356 355 354 354 353 353 353 352 351 350 350 348 347 346 344 343 342
356 353 352 354 355 354 354 355 356 354 351 350 352 354 354 355 356 356 355 356 356 356 357 358 359 361 362 363 363 364 364 364 363 363 363 362 362 362 361 360 359 358 357 356 355 355 355 355 354 354 353 353 353 352 352 351 350 349 348 347 346 344 343
355 351 351 355 357 357 357 354 352 353 352 350 351 353 353 354 356 357 356 356 355 356 356 356 358 360 361 363 364 364 364 364 363 362 362 362 362 362 361 361 360 359 358 356 355 355 355 355 354 354 353 353 353 352 352 351 350 350 349 348 346 345 343
346 346 351 357 359 355 351 349 349 350 351 350 351 352 353 354 356 357 357 357 356 356 356 356 357 359 360 362 363 363 364 364 363 363 362 361 362 361 361 361 360 360 359 357 356 356 356 355 355 354 354 353 353 352 352 351 350 350 349 348 347 345 343
343 344 348 354 362 360 351 349 351 351 352 354 353 352 353 354 355 356 357 357 357 356 356 356 357 357 359 361 362 363 364 364 364 363 362 361 362 361 361 361 361 360 359 358 357 356 356 356 356 355 354 353 353 353 352 351 351 350 350 349 348 346 344
352 352 348 341 346 353 352 351 354 354 355 357 357 357 355 355 355 356 357 357 357 357 356 357 356 357 358 360 361 362 363 364 364 364 363 363 362 361 361 361 361 361 360 359 359 357 357 356 356 355 355 354 353 353 352 352 351 350 350 349 348 346 345
354 357 354 342 338 342 347 351 357 359 356 357 359 360 360 359 357 357 357 358 358 357 357 356 356 357 357 358 359 361 361 363 364 364 364 364 363 362 362 361 361 361 360 359 359 358 356 356 355 355 355 354 354 353 352 352 352 351 350 349 348 346 345
351 352 353 348 346 347 348 350 356 359 356 356 358 361 362 362 360 357 357 359 357 357 358 357 357 357 356 356 357 358 360 361 363 365 365 365 364 364 363 363 362 361 360 359 358 357 356 354 354 354 354 354 354 353 353 353 352 351 350 350 349 347 346
352 354 353 351 350 350 351 354 357 358 358 357 357 359 362 363 362 360 359 358 358 358 358 358 358 357 356 356 355 355 357 359 361 364 365 365 366 365 364 363 362 360 360 358 357 356 354 354 353 352 351 351 351 351 351 350 350 349 348 346 346 346 345
351 354 353 353 353 351 351 358 359 357 358 359 358 359 361 362 362 361 359 358 358 358 358 357 357 357 356 355 354 354 355 357 360 364 365 366 366 365 364 363 361 359 358 357 355 354 353 352 352 350 348 347 346 346 347 346 345 344 343 342 341 341 342
347 349 349 350 351 350 349 356 361 358 359 361 362 362 362 362 363 362 360 360 360 359 359 357 356 355 355 354 354 354 354 357 361 364 365 366 365 364 363 361 359 357 357 355 354 353 351 350 349 348 346 345 344 344 344 344 343 342 342 341 340 339 339
344 347 348 348 349 349 349 352 356 355 356 359 362 363 363 363 363 362 360 361 362 363 363 361 357 356 355 356 358 358 358 361 363 364 365 366 365 363 361 359 357 355 354 353 352 351 349 348 347 346 345 344 343 343 342 342 343 342 342 341 340 339 338
343 345 347 347 348 349 347 347 351 352 350 352 356 359 362 363 362 361 360 360 362 365 366 365 363 362 361 362 363 362 363 364 364 364 365 364 363 362 360 358 356 354 352 351 350 349 348 347 346 345 345 344 343 343 343 343 343 342 342 341 340 339 337
342 344 346 347 348 347 344 346 354 357 355 352 352 354 358 361 362 363 362 361 361 363 366 367 365 364 363 363 363 362 363 362 362 361 361 361 361 360 357 356 354 353 350 349 347 346 346 345 345 344 343 343 343 343 343 343 342 342 342 342 341 339 336
340 343 344 344 345 345 344 345 351 356 355 353 352 351 352 356 357 358 360 361 360 361 365 365 363 362 361 360 360 360 360 359 359 359 357 356 355 353 352 350 348 347 347 347 345 346 345 344 343 344 343 343 343 343 342 341 342 342 341 340 341 340 336
338 340 342 342 343 345 346 345 346 348 348 349 350 349 349 352 353 354 357 360 361 361 361 360 358 357 356 355 356 356 356 356 356 355 352 350 348 346 346 346 343 343 345 347 347 348 347 345 344 344 343 343 343 342 341 340 341 341 339 337 338 339 338
338 338 340 341 342 344 347 347 346 346 347 348 348 347 347 349 350 352 355 358 360 360 357 355 354 352 352 352 352 352 352 353 352 349 347 346 343 341 340 341 343 345 347 347 348 349 348 347 346 345 344 343 343 342 340 339 340 340 339 337 335 336 337
339 340 339 340 342 343 345 346 346 346 347 347 347 347 347 347 348 349 350 352 354 354 351 350 349 348 347 348 348 348 348 347 345 343 341 339 339 338 337 336 339 343 346 346 346 346 346 345 344 344 343 341 341 340 338 337 337 338 339 338 334 333 335
336 338 339 339 341 342 342 344 345 345 345 345 346 347 347 346 346 346 347 347 346 345 345 345 345 345 345 345 344 344 342 341 339 338 336 335 335 336 334 333 333 334 337 341 343 342 342 341 341 341 340 339 340 339 338 338 338 337 338 337 335 333 333

ECMWFFLT1_925_thetae_021.txt.gz
Theta_e
340 342 342 344 346 346 347 348 346 345 345 346 347 347 348 349 351 352 353 353 353 353 353 353 354 354 354 354 353 353 353 353 353 353 353 353 353 354 355 354 355 355 356 357 357 358 357 357 357 356 356 357 356 355 353 350 346 340 338 340 342 341 339
340 341 342 343 346 346 348 348 346 345 345 346 347 347 348 349 350 352 353 353 353 353 353 353 354 354 354 354 354 354 353 353 354 354 354 354 354 354 354 354 355 356 356 356 356 357 357 357 356 356 356 356 356 355 352 348 344 341 341 341 341 339 339
340 340 341 342 345 347 347 348 346 346 346 347 347 347 348 349 349 351 352 353 354 353 353 353 354 355 355 355 354 354 354 354 354 354 354 355 355 355 355 355 355 356 356 356 356 356 356 356 356 356 356 355 355 354 351 346 343 343 343 342 339 339 340
341 341 341 341 343 345 347 348 347 347 347 347 347 348 348 349 349 351 352 353 354 353 354 354 354 355 355 355 355 355 355 355 355 355 355 355 355 355 355 355 355 356 356 356 356 356 356 356 356 356 355 355 355 354 351 347 344 345 345 342 339 339 340
343 342 341 341 342 343 346 347 347 346 347 347 348 348 348 349 350 350 352 353 354 354 354 354 354 355 355 355 355 355 355 355 355 355 355 355 355 355 355 355 356 356 356 356 356 356 356 356 355 355 355 355 354 353 352 348 345 346 347 344 340 339 339
344 343 344 341 341 342 343 345 346 346 346 347 347 348 349 349 350 351 352 353 355 355 354 355 355 355 355 355 356 356 356 355 356 355 355 355 355 355 355 355 355 355 356 356 356 356 356 356 355 354 354 355 354 353 352 350 347 346 348 346 341 338 339
343 344 344 343 342 342 342 343 344 345 346 347 347 348 350 350 350 351 352 353 354 355 355 355 355 355 356 356 355 356 356 356 356 356 356 355 355 355 355 355 355 355 355 356 356 356 356 356 354 353 354 354 354 353 352 351 349 348 347 345 341 338 339
343 344 344 344 343 342 342 343 344 345 346 347 347 348 350 350 351 351 352 353 354 355 356 355 356 356 357 356 356 356 356 356 356 356 356 356 356 356 356 355 355 355 355 355 355 356 356 355 354 353 353 354 353 353 352 352 350 348 347 345 341 339 339
343 344 343 344 343 342 343 343 343 343 345 347 348 349 350 351 351 352 353 353 354 355 356 356 357 356 357 357 357 357 356 356 356 356 357 357 357 357 356 356 356 355 355 355 355 356 355 355 354 353 353 353 353 352 352 352 351 349 347 346 343 340 338
343 343 344 344 343 344 345 344 345 345 346 348 347 348 350 351 352 352 352 353 354 355 356 356 357 357 357 357 357 358 357 357 357 356 357 357 357 357 357 356 356 356 356 355 355 355 355 355 354 354 353 353 352 352 352 352 351 349 347 346 345 341 338
345 345 345 345 344 346 346 346 348 349 349 349 347 349 350 351 352 353 353 354 354 355 356 356 357 357 358 358 358 358 358 358 357 357 357 357 357 357 357 357 357 356 356 355 355 355 355 355 354 353 353 353 352 352 352 351 351 348 346 346 345 342 339
345 346 346 346 346 345 347 349 350 351 352 349 347 349 351 351 352 352 353 354 354 355 356 356 357 358 358 358 358 358 359 358 358 357 357 357 357 357 357 357 357 356 356 356 355 355 355 354 354 354 353 353 352 352 351 351 350 348 346 345 344 342 340
345 345 344 345 345 345 348 350 351 352 352 349 348 349 351 351 352 353 353 353 354 355 355 356 357 357 358 358 358 358 358 358 358 358 358 358 357 358 358 357 357 357 356 356 355 355 355 354 354 354 353 353 352 352 352 351 350 348 346 345 343 342 340
347 347 345 345 346 347 349 351 351 352 352 351 349 349 351 352 352 353 353 353 354 355 356 356 357 357 358 358 358 358 359 358 358 358 358 358 358 358 358 358 358 357 357 357 356 356 355 355 354 353 353 353 352 352 352 350 350 348 346 344 343 342 341
349 348 346 347 346 349 351 350 351 351 351 352 351 350 351 352 353 353 353 353 354 355 356 356 357 357 358 358 358 358 358 358 358 359 358 359 359 358 359 358 358 358 357 357 357 356 356 355 354 354 353 353 353 352 351 351 350 349 347 344 343 342 341
348 347 346 346 347 350 350 350 351 351 351 353 353 352 352 352 353 354 353 354 354 355 356 357 357 358 358 358 359 358 358 359 359 359 359 359 359 359 359 359 359 358 358 357 357 357 356 356 355 354 353 352 352 352 351 350 350 349 348 346 344 342 341
345 346 346 346 346 349 349 349 352 353 353 354 352 351 352 353 354 353 353 354 354 355 356 357 357 358 359 359 359 359 359 359 359 359 359 359 359 359 359 359 359 359 358 357 357 357 356 356 355 355 354 353 352 352 351 350 349 348 347 346 345 343 342
346 346 346 347 347 349 350 350 352 353 353 352 349 349 351 353 354 354 354 354 354 356 356 357 358 358 359 359 359 360 360 359 360 360 359 360 360 360 360 360 359 359 358 358 357 357 356 356 355 355 354 353 352 352 351 350 349 348 347 347 346 344 343
347 345 346 347 348 349 349 348 349 351 352 349 347 348 349 352 353 354 355 354 354 356 357 358 358 359 359 360 360 360 360 360 360 360 360 360 360 360 360 360 359 359 358 358 358 357 356 356 355 355 354 354 353 352 351 350 349 348 348 347 346 345 344
352 350 349 346 348 350 349 349 348 349 349 347 347 348 348 351 353 353 355 354 354 355 356 358 359 359 359 360 360 361 361 360 361 361 360 361 360 360 360 359 359 359 358 358 357 357 357 356 355 355 354 354 353 353 352 351 350 349 348 347 346 345 344
356 357 356 353 351 350 349 350 352 351 348 346 347 348 348 349 352 353 353 354 355 355 356 357 358 359 359 360 360 361 361 361 361 361 361 361 360 361 360 359 360 359 358 358 357 357 356 356 355 355 354 354 353 352 352 351 350 349 348 347 347 346 345
351 348 351 354 358 358 355 351 349 349 348 346 347 348 348 349 351 352 353 354 355 355 355 356 357 358 359 360 361 361 362 362 361 361 362 361 361 361 360 360 359 359 358 358 357 357 356 356 356 355 354 354 353 353 352 352 351 351 350 348 348 346 345
350 346 346 346 348 353 351 346 345 345 346 347 348 348 348 349 350 351 352 353 354 355 355 355 356 357 358 359 360 361 362 362 362 362 361 361 361 361 361 360 360 359 358 357 356 356 356 356 355 355 354 354 353 353 353 352 352 351 351 350 349 347 346
350 351 350 346 346 347 345 344 345 345 345 347 348 348 349 349 350 351 352 353 354 354 355 355 356 356 357 359 359 361 362 362 362 362 362 361 361 361 361 361 360 359 359 357 356 356 355 355 355 355 354 354 353 353 353 352 352 352 351 351 350 349 347
350 351 351 348 349 350 348 346 345 345 346 347 347 348 350 350 351 351 352 352 353 354 354 355 355 356 356 358 359 360 361 362 362 362 362 361 361 361 361 360 360 360 359 358 357 356 355 355 354 354 354 354 353 354 353 352 352 352 351 352 350 350 348
350 351 351 348 348 350 349 348 349 350 348 347 347 349 349 350 352 352 352 353 353 353 354 354 355 355 356 356 358 359 360 361 362 362 362 361 361 361 361 361 360 359 359 358 357 356 355 354 354 354 354 353 353 353 353 352 352 352 352 352 351 351 349
345 346 348 348 347 349 348 348 351 353 351 349 350 350 349 349 351 351 352 353 353 353 354 354 354 355 355 356 357 358 360 361 361 362 362 361 361 361 361 361 360 360 359 358 357 356 355 355 354 353 353 353 353 353 352 352 352 352 352 351 351 351 349
344 345 346 346 347 348 347 348 349 351 354 355 353 352 352 351 350 351 352 353 353 354 354 354 354 354 354 355 356 356 359 360 361 362 361 361 361 361 360 360 360 360 359 358 357 357 355 355 354 354 353 352 352 352 352 352 352 352 352 352 351 351 349
345 346 346 346 347 346 346 348 348 348 352 355 355 355 355 354 353 352 351 352 353 354 355 354 355 355 354 355 355 356 358 360 360 362 361 361 361 360 360 361 360 360 360 358 358 357 355 354 354 353 352 351 351 352 352 352 352 352 352 351 351 351 349
344 344 344 345 346 345 344 346 346 347 350 353 355 357 357 357 358 356 353 353 353 353 354 355 354 355 355 354 355 355 356 358 360 361 361 362 361 360 360 360 359 359 359 358 357 356 355 354 352 351 350 349 348 348 348 349 350 352 352 352 351 351 349
342 343 343 343 343 344 343 344 345 345 349 353 355 356 357 358 359 357 357 357 355 354 355 355 355 355 355 354 355 354 355 357 359 360 361 362 361 361 361 360 359 359 358 357 357 356 354 352 350 349 347 346 344 343 342 342 345 350 352 352 351 351 348
339 340 341 342 342 343 343 343 343 344 346 351 353 354 355 357 357 357 359 359 359 358 357 356 356 356 355 355 355 354 354 355 356 359 361 362 362 362 361 360 360 359 358 357 356 354 352 350 347 346 345 344 342 341 340 339 342 349 352 350 350 350 348
338 338 339 341 342 342 342 343 344 345 345 347 350 352 354 355 356 357 358 359 360 361 360 359 358 356 355 355 354 354 354 354 355 357 359 361 362 363 362 362 360 358 357 356 355 352 349 347 345 344 343 343 341 341 340 339 341 346 348 347 347 348 346
338 339 339 340 342 343 343 343 344 345 346 346 347 348 349 352 354 355 356 357 359 362 363 361 359 357 355 355 354 354 354 353 354 356 359 361 362 362 362 361 359 357 357 355 354 351 347 346 345 344 343 343 341 341 340 338 339 343 343 343 344 343 342
339 338 339 341 342 343 343 344 345 346 346 346 347 346 346 348 350 351 353 355 357 360 363 362 360 359 357 356 356 355 355 355 355 356 359 361 361 361 361 360 358 357 356 355 355 352 349 349 348 345 343 343 342 341 339 337 339 342 342 342 342 341 340
338 338 339 341 342 342 343 344 345 345 345 345 346 347 346 347 347 349 351 353 356 358 360 361 360 359 358 358 358 357 356 356 356 358 359 359 358 357 356 356 356 356 354 353 354 353 353 354 352 348 345 343 342 343 344 343 343 343 343 342 341 341 340
336 338 339 340 342 342 343 344 345 345 344 344 345 346 346 346 346 347 348 351 354 356 358 359 359 357 357 358 358 357 357 357 357 357 356 355 355 353 348 344 346 349 350 350 350 350 350 351 350 347 347 346 344 344 346 347 346 343 342 342 342 341 341
332 335 338 339 341 342 342 342 343 344 345 344 344 345 346 346 345 345 345 347 349 351 353 354 355 355 356 357 357 357 357 356 354 352 350 350 350 347 342 338 337 337 340 344 346 345 344 345 346 346 347 348 348 345 344 344 345 343 342 342 341 340 341

ECMWFFLT1_925_thetae_024.txt.gz
Theta_e
343 345 345 345 346 345 346 346 343 343 343 343 343 344 346 347 348 349 349 350 350 350 350 350 351 352 352 352 352 352 352 352 352 352 351 351 351 351 351 351 352 352 353 353 353 353 353 353 354 355 356 356 356 356 355 355 354 354 354 354 354 350 342
342 344 345 344 345 345 345 345 343 343 342 343 343 343 345 347 348 349 349 350 350 350 350 350 351 351 352 352 352 352 352 352 352 352 352 352 351 351 351 351 351 351 352 352 352 352 352 352 353 354 356 356 356 356 356 356 355 355 354 354 352 347 340
340 341 343 344 345 345 346 345 343 343 342 343 343 343 344 345 347 349 349 350 350 350 350 350 350 351 351 352 352 352 352 352 352 352 352 352 352 351 351 351 351 351 351 351 351 351 351 352 353 354 356 357 357 356 356 356 355 355 354 352 350 345 339
340 340 341 343 345 345 345 345 344 343 342 342 343 343 344 345 346 348 349 350 350 350 350 350 350 351 351 352 352 352 352 352 352 352 352 352 352 351 352 352 352 352 351 351 351 351 351 352 354 355 356 357 357 356 356 355 354 355 354 351 349 343 338
341 340 340 341 343 343 344 345 344 343 343 342 343 343 344 345 345 347 349 350 350 350 350 350 351 351 351 352 352 352 352 352 352 352 352 352 352 352 352 352 352 352 352 351 352 352 352 352 354 355 356 356 357 356 355 355 354 354 354 351 347 342 339
341 340 340 339 340 342 343 343 343 343 343 342 342 343 344 344 345 346 348 349 350 350 350 351 351 351 352 352 352 352 352 352 352 352 352 352 352 352 352 352 352 352 352 352 352 352 352 352 353 355 355 356 356 356 355 355 354 354 353 351 346 342 340
341 340 340 339 338 340 341 341 342 342 343 343 343 343 344 344 345 345 347 349 350 350 351 351 351 351 352 352 353 353 352 352 352 352 352 352 352 352 352 352 352 353 353 353 353 353 352 353 353 354 355 355 355 356 355 354 354 354 353 351 346 343 343
341 342 340 339 338 338 339 340 342 342 343 344 343 343 344 344 345 345 346 348 349 350 351 351 351 351 352 352 353 353 353 353 353 352 352 352 352 353 353 353 353 353 354 354 353 353 353 353 353 353 354 355 355 355 355 354 354 353 353 351 347 344 344
341 343 342 340 338 337 339 339 341 342 342 344 344 344 344 344 345 346 346 347 348 350 350 351 351 351 352 352 353 353 353 353 353 353 353 353 352 353 353 353 354 354 354 354 353 354 353 353 354 353 354 355 355 355 354 353 353 353 353 351 348 346 344
343 344 343 343 340 340 340 339 341 343 344 344 344 344 345 345 345 346 346 347 348 349 350 350 352 351 352 353 352 353 353 353 354 353 353 354 353 353 353 353 354 354 354 354 354 354 354 354 354 354 354 354 355 354 354 353 353 353 352 351 349 347 346
346 346 344 344 343 344 343 342 343 345 346 345 343 344 345 345 347 347 347 348 348 349 350 350 351 352 352 353 353 353 354 354 354 354 354 354 354 354 354 354 354 354 354 354 354 354 354 354 354 354 354 354 354 354 354 353 352 352 352 351 350 349 347
348 347 347 346 346 346 346 345 345 345 346 345 342 344 345 345 347 347 347 348 348 349 350 350 352 352 352 353 353 353 354 353 354 354 354 354 354 354 354 354 354 354 354 354 354 354 354 354 354 354 354 354 353 354 354 353 352 352 351 351 350 350 349
347 347 346 345 345 346 348 349 348 347 346 344 341 343 345 345 346 347 347 348 349 349 350 351 352 353 353 353 353 354 354 354 354 354 354 355 354 355 355 355 355 355 354 354 354 354 354 354 354 354 353 354 353 354 353 353 352 352 351 351 350 350 349
346 347 346 346 346 348 350 350 349 349 346 344 342 342 345 345 346 347 348 348 349 349 350 351 352 353 353 354 354 354 355 354 355 354 354 354 355 355 355 355 355 355 355 355 354 354 354 354 354 354 353 353 353 353 353 353 352 351 351 350 350 349 348
345 343 343 347 349 350 350 349 349 350 348 345 343 342 344 346 346 347 348 349 349 350 350 351 352 353 354 354 354 355 355 355 355 355 355 355 355 355 355 355 355 355 355 355 355 354 354 354 354 354 353 354 353 353 353 352 352 351 351 350 350 349 348
345 341 339 343 347 348 347 347 348 349 349 348 346 343 344 345 346 348 348 349 349 350 351 351 352 353 354 355 355 355 355 355 356 356 355 355 355 355 355 355 356 356 356 355 355 355 354 354 354 353 353 353 353 353 352 352 352 352 351 351 350 349 348
348 346 342 341 344 345 346 347 348 348 350 351 348 344 343 345 347 348 348 349 350 350 351 352 352 354 354 354 355 355 355 356 356 356 356 356 356 356 356 356 356 356 356 356 356 355 355 354 354 353 353 353 353 353 352 352 352 352 352 351 350 350 348
360 355 345 341 345 347 346 346 347 349 349 348 346 344 343 345 347 348 349 349 349 350 351 352 353 354 354 355 355 355 356 356 356 357 357 356 357 356 356 356 356 356 356 356 356 355 355 355 354 354 353 353 352 352 352 352 352 352 352 351 351 350 349
360 355 347 345 348 350 349 344 344 346 346 345 344 343 344 346 346 348 349 349 350 351 351 352 353 353 354 355 355 356 356 356 356 357 357 357 357 357 357 357 356 357 356 356 356 356 355 355 355 354 353 353 353 352 352 352 352 352 351 351 351 350 349
352 351 352 352 352 352 350 347 345 345 343 342 343 343 345 346 347 348 349 349 350 351 351 352 353 354 355 355 355 356 356 356 357 357 357 357 357 357 357 357 357 357 357 356 356 356 355 355 355 354 354 353 353 352 352 352 352 352 351 351 351 350 350
356 354 356 355 354 354 355 353 350 348 343 341 341 343 345 347 347 348 349 350 350 351 352 353 353 354 355 355 355 356 356 356 357 357 357 357 357 358 357 357 357 357 357 357 357 356 356 356 355 355 354 354 353 353 352 352 352 351 351 351 351 351 350
357 354 353 352 351 352 354 351 346 345 344 341 342 344 344 346 348 348 350 351 351 351 352 353 354 354 355 355 356 356 356 357 357 357 357 357 357 358 358 357 358 358 357 357 357 357 356 356 355 355 354 354 354 353 353 352 351 351 351 351 351 350 349
351 351 351 349 348 348 347 344 340 339 341 341 343 344 344 346 348 349 351 351 351 352 352 353 354 354 355 355 356 356 357 357 357 357 357 357 358 358 358 358 358 358 358 357 357 357 357 356 356 355 355 354 354 353 353 352 352 351 351 351 350 350 349
347 348 349 347 348 349 347 345 343 339 341 343 344 344 344 346 347 349 351 351 351 352 353 353 354 354 355 355 356 357 357 357 358 358 358 358 358 358 358 358 358 358 358 358 357 357 357 356 356 355 355 354 354 353 353 352 352 352 351 351 350 350 349
344 346 345 345 348 349 348 348 346 342 341 343 344 345 346 346 346 348 350 351 352 353 353 353 354 354 355 355 355 356 357 357 358 358 358 358 358 358 358 358 358 358 358 358 358 357 357 357 356 355 355 355 354 354 353 353 352 352 351 351 351 350 349
343 345 345 345 346 346 346 348 350 351 349 345 344 346 346 346 347 348 349 350 351 352 352 353 354 354 355 355 356 357 357 358 358 358 359 359 358 359 359 359 359 359 358 358 358 357 357 357 356 356 355 354 354 354 353 352 352 351 351 351 351 351 350
343 343 344 345 345 345 344 345 349 352 351 350 348 345 346 347 347 347 349 350 350 352 352 353 353 353 354 355 356 357 357 358 359 359 359 359 359 359 359 359 359 359 358 358 358 357 357 356 356 355 355 355 354 354 353 352 352 351 351 351 351 352 350
343 342 343 343 343 344 343 343 347 349 349 351 351 347 346 348 348 348 349 349 349 351 351 352 353 353 353 354 355 356 357 358 359 359 360 359 359 359 359 360 360 359 359 359 358 358 357 356 356 355 355 354 354 353 353 352 351 352 352 352 352 352 351
342 342 342 341 342 343 342 342 344 345 346 349 351 351 349 348 348 348 349 350 350 350 350 351 352 353 353 354 354 355 356 358 358 359 360 360 360 360 360 360 360 360 359 359 358 358 357 356 355 355 354 354 353 353 353 352 351 352 352 352 352 352 351
340 341 341 341 342 342 342 342 342 343 344 346 348 351 352 351 350 349 348 350 350 350 351 351 351 352 353 353 354 354 355 357 358 358 359 360 360 359 360 360 360 359 360 359 359 358 357 357 356 354 354 353 352 352 351 351 351 352 352 352 352 352 352
340 341 342 342 342 343 343 342 341 342 344 344 345 347 348 349 351 351 350 351 352 351 352 351 351 352 352 352 353 354 354 355 356 358 359 360 360 360 360 360 360 360 359 359 359 358 358 357 356 355 354 353 351 350 350 350 351 351 352 352 352 352 352
341 341 342 342 343 343 343 343 343 343 344 344 345 345 345 346 347 348 349 351 353 355 355 353 351 352 353 352 352 353 353 354 355 356 358 359 360 360 360 360 360 360 359 359 359 358 358 357 355 354 353 352 350 349 348 349 350 351 351 352 351 351 351
341 341 342 343 343 343 344 344 344 344 344 345 345 345 345 345 345 345 347 350 352 354 355 355 354 352 352 353 353 352 352 353 354 356 357 358 359 360 360 360 360 359 359 359 359 358 358 357 355 354 353 351 349 348 347 348 348 348 349 350 349 349 349
341 341 342 342 342 343 344 345 345 345 345 346 345 345 345 345 345 345 346 348 351 352 354 356 356 354 353 352 352 353 353 352 353 354 355 357 359 359 359 359 359 359 359 359 359 359 358 356 355 354 352 351 349 347 346 345 345 346 348 349 349 347 344
340 341 341 342 342 343 343 344 345 345 345 345 345 346 346 346 346 346 345 346 348 351 353 355 356 357 356 354 353 352 352 352 352 353 354 356 358 358 359 359 359 359 359 359 359 359 358 357 356 354 353 351 349 347 345 343 344 347 349 349 349 347 343
339 340 341 342 342 342 342 343 344 344 345 345 344 345 346 346 346 346 346 346 347 349 351 353 354 355 357 357 356 354 353 352 352 352 353 354 356 358 359 359 359 359 359 358 359 359 358 358 357 355 353 351 349 348 347 347 346 348 351 351 349 348 347
338 339 340 340 341 341 341 342 342 343 343 343 343 343 345 346 345 345 345 346 346 348 349 350 351 351 352 353 353 354 354 354 354 353 353 353 354 356 358 358 358 358 358 358 358 357 358 358 357 354 353 351 349 348 349 349 347 348 350 352 350 348 347
336 337 338 339 340 341 341 341 341 342 342 342 342 342 343 344 344 343 343 343 343 344 345 346 346 346 346 346 347 348 350 351 353 353 354 353 353 355 356 355 354 353 353 355 357 357 357 356 355 353 352 351 349 346 345 345 346 347 350 352 350 348 346

ECMWFFLT1_925_thetae_030.txt.gz
Theta_e
349 351 352 353 354 354 355 357 358 360 360 360 361 361 361 360 360 361 362 362 364 364 364 363 363 362 361 361 361 361 362 362 363 363 363 362 360 360 360 360 360 360 359 360 360 360 361 360 360 361 362 363 362 361 361 361 360 360 359 358 358 358 357
348 349 351 352 353 354 355 356 359 360 359 360 361 360 360 360 361 362 362 363 363 364 364 364 363 363 362 361 361 362 362 362 363 363 362 363 361 360 360 360 360 360 360 359 360 361 362 362 362 361 362 363 362 361 361 361 360 360 360 359 358 358 358
347 348 350 352 354 356 356 356 358 360 359 359 360 360 360 361 361 362 361 363 364 364 364 364 364 363 362 362 362 362 362 362 363 362 361 363 363 361 361 361 361 361 361 360 360 361 362 363 363 362 362 362 361 361 361 361 360 360 360 360 360 359 358
348 349 350 352 354 356 356 355 357 358 359 358 359 359 360 361 361 361 361 362 363 364 365 364 364 363 363 363 363 363 363 363 362 362 362 363 363 361 361 361 361 360 360 361 360 360 361 363 364 364 363 362 361 362 361 361 360 360 360 360 360 359 358
348 349 350 352 353 355 355 354 355 359 358 357 358 359 360 360 361 361 361 361 362 364 364 363 363 363 363 363 362 362 363 363 362 362 363 363 363 362 361 361 362 361 361 361 360 361 362 363 364 364 363 362 362 362 361 361 360 360 360 360 359 358 357
345 349 351 352 352 353 355 354 354 357 357 356 357 358 359 359 359 359 360 360 361 362 362 363 363 363 363 363 362 362 364 363 363 362 363 364 362 362 362 361 362 361 360 360 361 361 362 363 363 364 364 362 361 361 361 360 359 359 360 360 359 358 357
341 348 351 351 351 352 353 353 353 356 356 356 356 357 357 357 358 358 359 360 360 361 362 362 362 362 363 363 362 363 363 363 363 362 363 364 363 363 362 361 361 361 361 361 361 361 362 363 362 362 363 362 361 361 361 360 360 360 360 360 359 359 358
338 347 351 351 350 350 352 352 353 354 356 355 354 355 356 355 356 357 357 359 359 359 360 360 360 361 362 362 362 363 363 363 364 363 363 364 363 362 362 362 361 361 361 361 361 361 362 362 363 362 362 362 361 361 362 361 360 360 360 360 359 359 359
339 348 351 350 348 348 350 352 354 355 355 355 354 354 355 354 355 356 356 357 357 357 358 358 359 360 362 363 362 363 363 363 363 364 363 363 362 362 362 362 362 361 361 360 361 361 362 362 363 362 362 363 362 362 362 362 361 360 360 360 360 360 360
344 350 353 350 346 348 349 349 353 355 355 357 356 355 354 355 354 354 355 355 355 356 356 357 358 360 361 362 362 362 362 362 362 363 362 362 362 361 361 361 362 361 361 361 360 361 362 362 362 363 363 363 363 363 364 363 361 360 360 360 360 361 361
350 353 354 352 349 349 347 348 354 357 358 359 358 355 354 354 354 354 354 354 354 354 355 356 357 358 360 362 361 361 362 362 362 361 362 362 361 361 361 361 361 361 361 361 360 361 362 362 362 363 364 364 363 363 364 364 362 360 359 359 360 361 362
353 354 355 354 352 350 349 351 354 358 360 360 357 355 354 355 354 353 353 353 353 353 355 355 356 357 359 360 360 360 361 361 361 361 360 361 360 360 360 359 359 360 361 361 361 360 362 363 363 363 364 364 364 364 364 364 362 360 359 359 360 362 362
352 352 352 352 353 354 354 354 354 358 361 359 356 356 354 355 354 353 353 353 352 353 354 355 356 356 358 359 360 360 360 361 361 360 360 360 360 360 359 359 358 359 360 361 361 361 361 363 364 363 364 365 365 364 365 364 362 360 360 359 360 362 362
345 347 350 352 356 358 358 357 357 358 360 358 355 355 354 354 354 353 352 353 352 352 353 354 355 356 357 358 360 360 360 360 361 361 360 360 360 360 359 360 359 359 360 360 361 361 361 362 364 364 363 364 365 365 365 364 363 361 360 359 359 361 362
337 337 344 351 358 361 361 360 360 360 358 357 354 354 354 353 353 353 352 353 353 352 352 353 355 356 357 358 360 361 360 361 361 361 361 361 361 361 360 360 360 359 360 361 361 362 361 361 363 364 364 364 364 364 364 365 364 361 359 359 359 360 361
333 331 333 343 355 361 362 361 361 361 360 358 354 354 354 353 353 353 353 353 353 352 352 352 355 356 357 358 360 361 361 362 362 362 362 362 362 362 361 361 361 360 360 361 362 362 362 362 363 364 364 364 364 364 364 365 364 361 359 359 359 360 361
332 332 333 338 348 355 359 361 361 362 362 359 357 355 353 354 354 353 352 353 353 353 352 352 354 357 358 358 360 361 362 363 363 364 363 363 362 363 363 362 362 362 361 362 363 363 363 362 363 364 364 364 364 364 364 364 363 361 359 358 358 359 360
334 336 335 338 347 352 354 355 358 361 360 358 358 356 353 354 355 353 352 352 351 353 353 351 354 356 358 360 361 362 364 364 365 365 365 364 364 363 364 363 363 363 363 362 363 364 363 363 363 364 363 364 364 364 364 364 362 360 359 358 357 357 359
333 333 331 335 349 354 351 347 350 354 356 355 356 355 354 353 354 353 353 352 352 353 352 351 353 356 359 361 362 364 366 366 366 366 366 366 365 365 365 364 364 364 364 364 364 364 364 363 364 364 363 363 364 363 364 364 363 360 358 358 357 356 357
333 336 335 338 344 348 350 350 350 351 353 353 351 352 353 352 352 353 353 352 351 353 353 352 353 357 361 363 362 365 367 367 366 366 367 367 366 365 366 365 364 364 364 364 364 364 364 363 362 363 363 362 362 363 363 364 363 361 358 357 357 356 356
335 337 338 342 347 352 357 359 356 353 353 352 349 349 351 352 352 352 353 352 352 352 354 355 354 356 361 363 363 365 367 367 366 366 366 367 366 366 366 365 365 365 364 364 364 364 363 362 362 362 361 361 361 361 362 363 363 361 359 357 356 356 356
334 339 345 351 356 360 364 363 360 357 357 355 351 349 349 351 351 350 351 351 352 353 355 357 356 357 360 363 363 365 367 367 366 366 365 366 366 366 365 365 366 365 365 364 363 364 364 363 362 361 360 360 360 360 361 362 362 360 358 357 357 356 355
344 350 355 356 358 360 363 364 364 363 361 360 355 350 348 349 350 349 350 351 352 354 356 358 359 359 362 365 364 365 366 366 365 365 365 366 367 366 365 365 366 365 365 365 364 364 364 363 362 361 360 360 360 360 361 361 361 359 357 358 358 356 355
350 352 354 355 356 359 362 363 364 364 364 363 360 353 350 349 350 350 351 351 352 355 358 359 361 362 363 365 364 364 365 366 365 365 366 366 366 366 365 365 365 366 365 365 364 364 363 364 363 361 361 360 360 360 360 361 361 360 358 358 357 356 355
352 351 353 355 356 357 360 362 364 365 364 363 360 355 351 351 350 351 352 352 352 355 358 360 360 361 363 363 363 364 365 365 365 366 366 366 366 366 366 366 365 365 366 365 364 364 363 363 362 362 361 360 360 359 360 360 360 360 359 358 357 356 355
351 351 352 354 355 356 358 361 364 366 364 361 361 357 352 352 352 352 353 354 353 354 357 360 359 359 361 362 362 364 365 366 366 366 366 367 367 367 366 366 365 365 365 365 364 364 363 362 361 362 362 360 360 360 359 360 360 359 360 359 357 356 355
349 350 350 352 354 355 356 360 363 365 363 363 362 359 355 355 353 353 356 356 356 355 356 358 360 360 361 362 362 363 365 366 366 367 366 367 367 367 366 365 365 366 366 365 365 364 363 362 360 361 361 361 360 360 360 360 360 360 359 359 358 357 355
347 349 349 351 353 353 355 359 362 362 361 361 360 358 356 356 356 357 358 359 360 358 355 357 360 361 364 364 362 363 366 366 366 366 367 367 367 367 366 365 365 366 366 366 365 364 363 363 361 360 360 361 360 360 361 360 360 360 359 359 358 358 356
346 347 348 351 351 351 354 358 360 360 359 359 360 361 358 356 357 359 359 361 362 359 356 358 361 363 366 366 363 364 366 366 366 367 367 367 368 367 366 366 366 366 366 366 366 365 364 364 363 361 361 362 361 361 361 361 360 360 359 358 358 357 357
345 346 347 349 350 350 352 356 358 358 358 358 359 362 364 361 361 362 363 366 366 363 361 362 364 365 366 365 364 364 364 365 367 367 367 367 367 367 366 366 366 367 367 367 366 365 364 364 364 363 362 362 362 362 361 362 362 361 360 359 358 357 356
344 346 347 348 349 349 350 353 355 356 357 357 357 358 362 364 365 366 366 366 365 365 364 363 363 365 365 364 364 364 363 364 366 367 367 366 366 367 367 367 367 367 368 367 365 364 364 363 364 364 363 362 363 363 362 362 363 363 362 360 359 357 356
345 345 346 347 348 349 349 351 353 354 355 356 355 355 356 358 361 362 361 361 362 364 365 364 363 364 364 364 365 365 365 365 366 367 367 366 366 367 367 367 367 367 367 366 364 363 364 363 363 364 363 363 363 363 363 362 363 364 364 361 359 357 357
345 345 346 346 347 348 349 350 351 352 353 354 353 354 354 354 355 356 356 358 360 362 364 365 364 363 363 364 364 364 364 365 364 365 366 366 366 366 366 366 367 366 367 366 364 364 364 364 363 363 362 363 363 363 364 363 363 364 365 362 359 357 356
345 346 346 346 346 347 348 349 350 351 352 352 352 351 351 352 352 352 354 356 358 360 363 364 364 364 364 363 363 364 364 364 363 363 364 365 364 364 364 365 365 365 365 366 365 364 364 363 364 364 363 362 363 363 364 364 363 364 364 361 359 356 353
345 346 346 346 346 347 347 349 349 350 351 351 350 350 350 350 350 351 352 353 355 358 360 362 364 365 365 364 364 364 364 364 363 362 362 362 362 362 362 363 364 365 365 365 365 364 363 363 363 363 362 362 362 363 364 364 363 364 363 362 359 355 352
344 345 346 346 346 347 348 348 348 349 349 350 350 349 349 348 348 349 350 351 353 355 357 359 360 361 362 362 363 363 363 363 363 362 361 361 361 360 361 361 362 362 363 364 365 365 364 363 363 361 362 362 362 363 364 363 363 363 363 362 361 357 356
343 345 346 346 347 348 348 347 348 348 348 349 349 349 348 348 347 347 348 349 350 352 353 355 355 357 358 359 358 358 359 361 361 361 362 362 362 362 362 361 361 361 361 361 362 363 363 364 363 362 362 362 362 362 362 363 363 363 363 364 362 360 357
343 344 345 345 345 346 346 347 347 348 348 349 349 349 348 348 347 348 347 347 348 349 350 351 353 354 355 354 352 352 354 356 356 356 357 358 359 359 360 360 361 361 360 359 359 359 360 360 361 361 361 361 361 361 361 361 362 362 362 362 362 362 359

ECMWFFLT1_925_thetae_036.txt.gz
Theta_e
347 350 353 353 354 353 353 357 358 357 357 359 360 360 361 363 363 365 366 366 366 365 365 364 364 363 362 362 361 360 361 361 361 361 359 357 355 355 358 361 361 361 361 361 360 360 360 359 359 358 358 360 360 360 360 361 363 362 362 361 360 359 359
344 347 354 353 352 352 355 358 357 356 356 359 362 362 361 363 363 365 367 367 367 366 365 365 365 365 363 362 362 361 360 361 361 361 360 358 356 355 356 359 362 363 362 362 361 360 360 359 358 358 358 360 360 360 360 360 362 363 362 361 361 360 360
342 344 352 353 352 354 357 358 357 357 358 360 362 363 362 363 364 366 367 368 368 367 366 365 365 365 364 364 363 361 361 361 361 361 360 358 357 356 355 356 361 364 364 362 362 361 361 359 359 358 358 360 360 361 361 361 361 362 363 362 361 361 360
346 343 348 352 355 356 355 356 357 358 358 359 363 364 362 363 364 366 368 369 369 369 369 366 365 366 365 364 364 362 361 361 361 361 360 359 357 355 355 355 358 363 364 362 361 360 360 360 359 358 358 359 361 362 362 362 362 362 362 362 362 361 360
349 344 348 353 355 355 355 355 357 358 356 357 362 364 363 363 364 365 368 370 370 370 370 368 366 367 366 364 364 363 362 362 361 360 359 358 357 356 355 355 357 360 362 363 361 359 358 361 360 359 359 358 360 362 363 363 362 363 363 362 362 362 361
348 345 349 354 352 353 354 353 355 358 357 358 362 365 363 362 363 364 367 370 371 371 370 368 367 367 366 366 366 364 362 362 360 360 359 357 357 357 355 356 356 358 360 361 362 360 357 359 361 361 361 360 360 362 363 363 362 362 363 362 362 362 361
346 344 348 353 353 352 352 351 353 356 359 360 362 365 363 362 362 362 366 370 371 371 370 369 368 367 367 367 365 364 363 363 362 360 360 358 357 357 357 357 357 358 359 360 361 361 359 358 359 361 363 362 361 362 364 364 363 362 363 363 362 361 360
345 347 346 348 349 348 350 355 356 358 362 362 360 364 364 363 362 362 365 368 369 370 370 369 369 368 368 367 365 363 363 363 363 360 359 360 358 357 358 359 358 358 360 361 360 361 360 358 358 359 363 364 362 363 364 364 362 362 363 362 362 362 360
347 349 345 345 343 343 350 356 357 358 362 362 360 363 365 364 362 362 364 366 367 369 370 368 368 367 367 366 364 363 362 363 364 361 360 360 360 359 358 360 361 359 360 362 361 361 360 359 358 358 361 364 365 364 363 363 362 361 362 362 362 362 360
350 350 347 346 345 348 353 356 360 361 362 363 363 365 366 364 364 363 363 365 366 368 368 368 367 367 366 366 365 364 363 363 365 363 362 361 362 361 359 360 362 360 360 361 361 361 360 360 360 359 360 363 366 366 363 362 362 361 362 363 362 362 360
352 353 351 350 352 355 355 357 365 367 366 366 365 366 367 366 365 364 363 364 365 366 367 367 366 366 367 367 366 364 363 363 364 365 364 362 362 361 360 361 362 361 361 361 361 362 360 360 361 361 362 362 364 366 365 364 362 362 362 362 363 362 360
356 355 354 354 357 357 358 362 367 368 370 371 367 365 367 366 366 365 363 364 364 364 366 366 366 366 367 367 366 364 364 364 363 363 365 363 361 361 361 361 361 362 364 363 361 360 360 361 361 362 363 363 363 365 366 364 363 362 362 362 362 362 361
358 356 355 357 358 359 364 369 368 367 371 370 365 363 365 366 366 365 365 364 364 364 364 365 365 364 365 368 366 363 365 365 361 360 363 363 360 359 360 360 359 361 364 364 362 361 360 361 362 362 363 363 363 364 365 365 364 363 363 363 362 362 361
354 351 353 358 363 367 371 372 372 374 372 369 365 363 363 364 364 365 365 365 364 363 363 364 364 364 365 367 366 364 364 364 362 360 361 361 360 359 359 359 358 360 362 364 364 363 361 362 363 362 363 364 364 364 364 365 364 363 363 363 363 362 362
346 345 348 355 362 368 372 374 381 383 378 371 366 363 362 363 364 365 365 365 364 363 363 363 364 364 364 366 368 366 364 364 363 360 359 360 360 359 359 358 358 359 360 362 365 364 362 361 362 363 364 364 365 365 365 365 365 364 364 364 363 363 362
341 341 345 353 359 364 370 376 382 385 384 379 371 365 363 362 363 365 364 363 364 363 362 363 363 364 364 365 368 367 365 365 364 362 360 360 360 360 359 358 359 358 357 360 364 364 364 362 360 362 365 365 365 366 366 365 365 364 363 364 363 362 361
338 341 345 351 356 363 370 374 379 384 386 383 376 368 363 362 362 362 362 361 362 363 362 362 364 364 364 365 367 368 367 366 366 364 363 361 361 361 360 359 359 358 358 360 363 363 363 362 361 361 364 366 367 368 367 366 366 365 364 363 362 361 360
338 342 346 351 357 365 368 367 372 377 376 372 371 367 363 364 362 360 361 361 360 361 361 361 363 365 364 364 366 368 368 367 367 367 365 363 362 362 362 360 359 360 360 360 361 362 363 363 363 362 362 365 368 369 369 368 367 366 366 365 363 362 360
334 335 341 349 357 363 361 358 364 369 366 362 364 363 360 362 361 360 360 359 359 360 359 359 361 364 365 365 365 369 369 369 369 368 367 366 364 363 363 362 361 361 361 361 360 362 363 364 364 363 362 364 367 369 370 370 369 367 367 366 365 363 361
336 337 337 340 348 358 364 368 369 364 360 357 357 359 358 357 359 360 360 359 358 359 359 359 359 362 365 365 366 369 370 369 370 369 369 369 366 365 365 364 363 362 361 363 362 362 364 364 364 364 363 362 365 368 369 369 369 369 367 367 366 364 362
336 336 337 344 357 366 370 372 367 359 357 356 353 352 354 357 357 357 358 358 358 358 359 360 358 360 365 366 366 369 371 370 371 370 370 371 369 368 367 366 366 365 363 364 363 363 364 365 365 366 365 363 364 367 369 369 369 369 369 367 367 366 364
340 342 347 356 365 370 369 365 361 360 361 361 355 348 347 352 355 355 357 357 358 358 359 361 361 359 363 367 367 369 371 372 371 371 371 371 371 370 369 368 368 367 366 365 364 364 364 364 366 366 365 366 365 365 367 368 368 369 369 368 367 366 365
354 354 355 357 359 364 367 367 366 365 364 362 359 354 351 349 350 353 355 354 356 358 358 361 363 361 362 367 368 367 370 372 372 372 372 372 373 372 369 369 369 369 368 366 365 366 365 365 365 366 366 367 366 366 366 366 366 367 368 368 368 367 366
355 354 354 355 358 362 365 364 363 362 360 359 359 358 357 355 354 356 360 357 355 357 359 360 364 363 362 367 368 367 369 372 372 373 373 374 375 374 371 371 370 370 369 367 366 366 366 366 365 364 366 366 367 367 366 365 365 366 366 368 368 368 367
353 352 351 355 359 358 359 360 361 363 363 365 368 368 365 363 362 363 366 364 358 357 359 360 362 363 363 365 367 368 369 371 372 373 374 374 375 375 373 372 371 371 370 368 367 366 365 366 366 365 366 366 367 367 367 366 366 365 367 367 367 368 367
353 351 351 353 356 356 356 358 362 366 366 368 371 370 368 367 368 367 368 367 362 359 359 360 360 361 362 363 366 367 367 369 372 374 374 374 375 375 374 372 371 371 371 370 368 366 365 365 366 367 367 367 368 368 367 367 367 366 366 367 367 367 367
352 352 351 350 352 357 356 357 364 367 366 367 367 367 368 368 367 367 366 366 365 362 358 358 359 360 361 361 364 367 368 369 371 374 375 374 375 375 374 373 371 371 371 371 369 368 367 365 365 366 367 368 369 369 368 368 367 367 367 366 365 365 365
351 353 352 350 352 356 356 358 364 365 365 366 365 365 371 371 368 367 365 364 365 363 359 359 360 360 361 362 362 364 369 369 370 374 375 375 375 376 374 373 372 371 371 371 371 370 368 367 366 365 366 368 368 369 369 368 368 367 367 366 364 364 364
350 351 351 352 354 356 355 358 363 364 365 366 364 364 370 373 372 367 363 364 365 362 358 360 362 362 363 363 362 363 368 370 371 373 375 375 376 376 375 373 373 373 372 371 371 371 371 369 369 368 367 367 367 368 368 368 368 367 366 366 365 364 364
348 349 351 352 354 355 354 356 360 362 363 364 363 365 368 371 371 366 368 372 373 368 366 363 362 364 366 365 365 364 366 370 373 373 374 376 376 376 375 374 372 372 372 372 372 373 373 372 371 370 369 368 367 367 367 367 369 369 367 367 366 364 364
347 349 350 351 352 353 352 355 359 361 362 362 361 362 365 367 368 369 371 373 372 372 374 370 365 366 367 367 368 367 367 370 373 374 374 375 375 376 376 374 373 373 373 372 372 372 372 372 372 372 371 370 368 367 366 366 367 367 368 367 366 365 364
348 349 349 349 350 350 351 355 358 359 360 359 359 360 361 362 363 365 366 366 366 369 372 372 368 367 367 368 370 369 369 369 371 373 374 373 374 375 375 374 373 372 372 373 373 372 372 371 371 371 371 371 370 368 368 366 365 365 367 367 366 366 364
349 349 349 349 349 349 351 354 356 357 358 357 356 357 359 359 360 361 362 363 364 366 369 371 371 369 369 371 370 369 370 369 368 370 372 371 371 371 372 373 373 371 372 372 371 371 372 371 370 370 369 369 369 368 367 366 365 365 365 365 364 363 362
348 349 349 349 349 350 351 353 354 355 356 356 355 355 357 357 358 359 360 362 363 364 367 369 369 368 369 369 369 370 370 369 369 368 368 369 369 368 370 372 371 370 371 371 370 370 370 369 369 368 367 367 366 366 366 366 365 364 361 359 359 358 357
348 348 349 351 351 350 351 352 353 354 355 354 353 353 354 355 355 357 358 360 362 365 367 367 367 368 368 367 368 369 369 369 368 367 366 368 368 367 369 371 370 369 369 369 369 368 367 367 367 366 365 366 365 365 366 366 362 356 353 354 355 355 355
349 349 350 351 352 351 351 351 352 353 354 353 353 352 353 353 353 354 355 357 360 363 364 365 366 367 367 367 365 365 366 367 366 365 366 368 368 368 369 368 368 368 367 365 365 365 364 364 364 363 363 364 361 360 360 358 352 348 348 349 349 348 349
349 349 350 350 351 352 352 352 353 353 353 352 352 351 351 351 351 352 353 355 356 358 360 362 364 364 364 363 361 361 363 364 364 366 367 367 367 368 368 365 362 363 363 361 361 361 360 359 358 357 357 357 354 352 350 347 344 343 344 345 343 342 341
348 348 348 349 350 351 351 352 353 353 353 353 352 351 351 351 350 351 352 353 354 356 357 358 359 359 360 360 359 359 359 359 360 363 364 363 362 364 366 366 364 362 358 354 353 353 353 353 352 349 347 345 343 342 340 338 337 336 337 336 336 335 334

ECMWFFLT1_925_thetae_039.txt.gz
Theta_e
352 354 354 355 356 356 356 356 354 353 354 356 356 357 359 360 359 360 360 359 359 359 358 357 358 358 356 356 356 356 356 356 357 357 357 356 356 357 357 355 356 356 356 356 357 357 357 356 357 358 358 357 358 359 360 361 362 361 361 360 360 360 360
352 354 354 354 356 356 357 356 353 353 355 356 357 357 358 360 360 360 360 360 359 359 359 358 358 359 358 357 356 357 357 357 357 357 357 357 356 357 358 357 356 356 356 356 357 358 357 357 357 358 358 358 358 360 360 361 362 361 361 361 361 360 359
351 353 354 354 355 356 357 356 354 353 356 357 357 357 358 358 360 360 360 360 360 359 359 359 358 359 359 358 357 357 358 357 357 357 357 357 357 357 358 358 356 355 356 356 358 358 358 359 359 358 358 358 359 360 360 360 360 360 361 362 361 360 359
351 352 352 354 355 356 356 356 355 354 355 357 357 357 357 358 359 361 361 361 361 360 360 359 359 359 359 359 358 358 358 358 357 357 357 356 356 356 357 358 358 357 356 356 357 358 359 360 359 358 357 358 359 360 359 359 359 360 361 361 361 360 360
350 351 351 353 354 355 355 356 355 354 355 356 357 357 357 357 358 361 362 362 362 361 360 360 359 359 360 359 359 358 358 358 358 358 358 357 357 356 355 357 358 358 358 357 358 359 359 359 359 359 358 358 359 359 358 358 359 360 360 361 362 361 360
350 350 352 353 353 353 354 354 355 355 355 356 356 357 356 356 358 361 363 364 363 362 361 361 361 360 360 360 359 359 358 358 359 358 359 358 357 357 355 354 356 358 359 359 359 360 360 360 359 359 359 358 358 359 359 358 358 360 361 361 361 361 360
351 351 352 353 353 353 352 353 354 354 355 355 356 358 357 357 359 361 363 364 364 364 363 361 361 361 361 360 359 359 359 359 359 359 359 358 357 357 356 354 353 355 358 360 360 360 361 361 360 359 359 359 359 359 359 359 359 360 361 361 361 361 360
350 351 352 352 352 352 351 352 353 352 353 354 356 358 358 357 360 362 363 364 364 365 364 363 362 362 362 361 361 360 359 359 359 359 359 358 358 357 356 355 354 353 355 359 361 361 361 361 362 360 359 358 359 360 360 360 359 359 361 361 361 362 361
348 351 350 350 351 351 351 353 353 353 353 353 355 359 360 359 361 362 363 364 365 366 365 364 363 362 362 362 362 361 360 360 359 358 359 358 358 358 356 355 354 353 354 356 359 361 361 360 360 360 360 358 359 360 360 360 360 360 361 361 361 362 361
346 351 351 351 351 351 351 352 354 355 355 354 355 359 361 361 361 362 363 365 365 366 366 365 364 363 363 362 362 362 361 360 360 359 359 359 358 358 357 356 354 353 353 354 356 360 361 360 359 359 361 360 359 359 359 360 361 361 361 361 361 361 361
347 352 354 352 352 353 353 352 355 357 358 355 354 358 361 362 363 361 362 364 366 367 367 366 365 364 363 363 363 363 362 361 361 360 359 359 358 357 357 356 355 354 353 354 355 357 359 361 360 359 360 361 361 360 359 360 361 361 361 361 361 361 361
346 352 355 354 353 354 354 355 357 359 359 357 355 358 359 361 363 361 361 363 366 368 368 368 367 365 364 363 363 363 362 361 361 360 360 359 358 357 357 356 356 355 354 354 355 356 357 360 361 359 358 360 361 361 360 359 360 361 362 362 361 362 361
348 349 352 354 353 353 355 357 359 359 361 359 357 358 359 361 362 361 361 361 363 368 369 368 368 366 365 364 363 363 363 362 361 360 359 359 358 357 356 356 355 355 355 355 355 357 358 359 360 360 358 358 359 361 362 361 361 361 362 362 361 361 361
348 347 351 354 353 355 358 360 361 362 362 361 359 359 360 362 362 362 361 361 362 365 368 369 369 368 366 365 363 363 363 362 361 360 359 359 358 356 356 355 354 354 355 356 356 357 358 359 359 360 359 358 358 359 361 362 363 362 362 362 362 361 361
347 346 353 357 356 359 361 362 363 364 364 362 360 360 362 363 363 363 362 362 362 364 366 368 368 368 367 366 364 363 362 361 360 360 359 359 358 357 356 355 355 354 354 356 357 356 357 358 359 359 360 360 359 358 360 362 364 363 363 362 362 361 361
347 350 355 356 359 361 361 362 365 364 365 365 359 359 363 364 364 364 363 363 363 363 364 366 367 367 366 366 365 363 362 361 360 360 359 359 358 357 356 355 356 355 355 356 357 356 356 356 357 359 359 360 360 360 360 362 363 364 363 363 362 361 361
349 352 352 355 363 369 367 365 366 365 367 368 362 359 362 364 365 364 364 364 363 363 363 364 366 367 366 366 365 365 363 361 360 359 359 360 359 358 357 356 356 356 356 356 357 357 357 357 357 358 359 360 360 361 361 362 362 363 364 364 363 361 361
355 356 358 363 373 379 377 373 372 370 367 364 362 361 361 363 365 365 364 365 364 363 363 363 364 366 365 365 365 366 364 362 360 360 359 359 360 360 358 357 357 356 356 357 358 359 359 358 358 358 359 360 360 361 362 362 362 362 363 363 364 362 361
355 358 365 373 377 379 377 377 379 376 370 364 363 363 362 362 363 365 364 364 365 364 364 363 364 364 365 365 365 365 366 364 362 361 360 359 358 359 359 358 357 357 357 357 358 360 361 361 360 359 359 360 361 361 362 362 362 362 362 363 363 363 362
353 358 366 369 371 374 375 378 381 374 366 364 364 365 364 363 362 364 364 364 364 364 364 363 363 364 365 364 364 366 366 365 364 362 361 360 359 359 359 359 358 357 357 357 357 359 362 362 362 361 361 361 361 362 362 362 362 362 362 363 363 363 363
359 365 369 370 371 373 375 380 382 374 365 361 358 358 361 362 362 362 362 362 362 363 363 363 362 363 364 364 364 365 366 366 365 363 363 362 361 360 359 359 359 358 357 358 358 358 360 362 362 362 362 361 361 361 362 362 362 362 363 363 363 363 363
362 366 369 370 373 375 374 374 373 368 363 360 357 354 354 357 359 360 360 360 361 361 361 362 362 361 363 365 364 365 367 367 366 365 364 364 362 361 360 360 360 359 358 358 358 358 358 360 362 362 362 362 361 360 361 361 363 363 364 364 364 364 364
357 361 363 363 363 366 365 362 361 360 357 355 356 358 356 355 356 357 359 359 359 360 361 360 362 361 362 365 365 365 367 368 367 366 365 365 364 363 362 361 361 361 360 359 358 359 359 359 360 361 361 362 362 361 361 361 362 364 365 366 366 365 365
352 356 358 356 356 359 357 357 360 362 363 362 364 366 365 363 362 361 362 361 358 358 359 361 362 361 361 364 365 365 367 368 368 367 366 366 366 365 364 363 363 362 362 360 360 359 359 359 359 360 361 362 362 362 362 361 362 363 364 367 367 368 367
353 353 351 351 355 357 356 358 361 364 367 367 365 365 367 367 366 365 366 367 363 359 357 358 361 361 361 363 365 366 367 369 369 368 368 368 367 367 367 365 364 364 363 363 362 360 360 360 360 360 361 361 362 362 363 363 362 362 363 365 367 368 368
354 353 350 351 355 356 357 362 364 364 366 365 364 365 367 369 369 366 365 367 367 364 359 357 358 359 360 361 364 366 368 369 370 370 369 369 369 368 369 367 366 366 365 365 364 363 362 362 361 362 362 362 362 363 363 364 364 363 364 364 365 367 367
351 351 351 353 356 355 356 361 361 361 364 365 363 363 366 370 373 370 366 364 366 366 362 360 359 357 359 361 363 366 368 369 371 371 370 369 369 369 370 369 369 368 367 368 367 366 365 364 363 364 363 363 363 363 363 364 364 364 365 364 364 365 365
350 352 352 353 355 353 354 359 360 360 363 364 362 363 365 367 370 371 369 369 371 370 366 364 361 357 358 361 363 365 368 369 371 372 371 370 370 371 371 371 370 370 369 369 368 367 367 366 364 364 364 364 364 364 364 364 364 364 365 365 365 365 365
352 353 352 352 353 351 351 355 357 359 363 362 362 363 364 365 369 372 371 371 372 372 368 367 365 359 357 360 363 365 368 369 371 372 371 371 371 372 372 372 372 371 370 369 369 369 368 367 366 365 364 364 365 365 366 365 365 366 365 365 366 366 365
351 351 350 349 350 350 350 351 354 359 361 360 360 361 360 362 367 369 368 367 368 370 369 368 368 366 362 360 363 366 367 368 370 371 372 373 373 372 373 373 373 372 371 370 370 369 368 368 367 366 365 364 364 364 365 366 367 367 367 367 367 367 366
350 350 349 349 349 349 350 350 352 358 359 357 357 359 359 360 362 362 363 364 365 367 369 368 368 370 367 363 363 366 367 369 370 371 372 373 373 373 373 374 374 373 371 371 370 370 370 369 368 368 367 366 365 364 365 367 367 367 368 368 368 368 367
351 350 348 349 350 349 350 351 353 357 358 356 355 356 358 358 359 360 361 362 363 366 368 368 370 371 370 366 365 366 369 370 370 372 373 373 374 374 374 374 374 373 372 372 371 370 370 370 370 370 369 368 367 366 366 366 366 367 368 369 369 368 367
352 350 348 349 351 350 349 352 355 356 356 354 354 355 356 356 357 358 358 360 363 365 366 368 370 371 372 370 368 368 370 372 371 372 374 374 374 375 374 374 375 374 373 373 372 372 371 371 371 371 371 370 370 369 368 368 367 366 365 365 365 364 362
353 351 350 351 352 352 351 352 355 356 354 353 353 353 354 354 354 355 357 359 361 363 366 367 367 368 371 371 370 370 370 371 373 374 374 375 375 375 376 376 375 374 374 373 373 373 372 371 371 371 371 370 370 370 369 367 364 362 360 359 360 360 359
351 350 351 351 352 353 353 353 354 354 353 352 351 351 352 353 353 353 355 356 358 361 364 366 367 367 368 368 369 370 369 369 372 373 374 375 374 373 373 374 375 374 373 372 373 373 372 371 371 370 369 368 367 368 366 360 356 355 354 354 354 355 355
349 348 350 350 351 352 353 353 354 353 352 351 350 350 350 351 352 353 353 354 356 359 362 365 366 365 364 364 365 367 368 368 369 369 372 373 371 368 367 367 370 372 370 368 368 369 369 370 368 367 366 363 359 358 357 353 350 349 348 347 346 346 346
348 348 348 349 350 351 351 353 354 354 353 353 352 351 350 350 351 352 352 352 355 358 360 362 362 360 360 361 361 363 366 367 367 368 369 369 367 364 361 359 358 361 361 361 361 363 363 363 362 361 361 359 354 349 346 343 341 341 339 338 337 336 336
347 348 348 349 350 351 352 353 353 353 353 353 352 352 352 351 351 352 352 352 353 356 358 359 359 359 359 359 359 360 362 364 365 366 366 366 363 359 354 349 345 344 346 347 349 351 351 351 351 350 348 346 345 342 338 335 334 333 333 332 331 331 331

ECMWFFLT1_925_thetae_042.txt.gz
Theta_e
352 353 354 354 354 353 352 353 351 350 350 351 352 352 352 353 353 353 354 354 355 354 355 355 355 355 355 354 354 354 354 353 354 353 353 353 354 353 352 353 352 351 352 352 353 353 353 353 354 355 356 356 356 355 355 355 356 357 358 359 359 358 357
352 353 353 354 355 354 353 352 351 351 351 351 353 352 352 353 353 353 354 354 354 354 355 355 355 355 355 354 354 353 354 353 353 353 352 353 354 354 352 353 353 353 352 352 352 352 354 353 354 354 354 356 356 356 355 355 356 357 358 359 360 359 358
352 352 354 354 355 355 354 353 351 351 351 351 353 354 353 353 353 353 353 354 354 354 355 355 355 355 354 354 354 353 354 354 353 353 353 353 353 354 354 352 353 353 353 353 353 352 354 354 354 353 353 354 356 356 355 355 355 357 359 360 360 360 359
353 353 354 354 355 355 354 353 351 351 352 352 353 354 354 353 354 354 353 355 355 354 354 355 355 355 355 354 354 353 353 354 354 353 353 353 353 354 354 353 353 353 353 354 353 352 353 354 353 353 353 353 355 356 356 356 355 356 359 361 361 361 360
353 352 353 353 354 354 354 353 351 351 351 353 353 353 354 355 354 355 355 354 355 355 354 355 355 356 355 354 354 354 354 354 354 353 353 354 353 353 353 354 354 353 352 354 354 354 353 353 353 354 355 354 355 356 356 357 356 356 358 360 361 361 360
353 353 353 353 354 354 354 353 352 352 352 352 353 353 354 355 356 356 356 356 355 356 355 355 355 356 355 355 355 354 354 354 354 353 354 353 354 354 354 354 355 354 353 354 355 356 355 354 354 354 355 355 355 356 357 357 357 357 359 360 361 361 361
352 352 353 353 353 353 353 353 352 351 352 353 353 353 355 355 357 357 356 357 357 356 356 356 355 355 356 356 355 355 354 354 354 354 355 355 355 355 355 355 355 355 355 355 354 356 356 356 355 354 355 355 356 356 357 357 357 358 359 360 360 360 361
351 352 351 353 353 353 353 353 352 351 352 353 353 354 354 356 357 358 358 358 358 357 357 356 356 356 356 356 356 356 355 355 355 355 355 355 355 355 355 355 355 356 356 356 354 355 356 356 356 356 356 357 357 357 357 357 357 358 359 359 360 360 361
350 352 351 352 351 352 353 353 352 351 351 353 354 355 355 355 357 358 358 359 358 358 358 357 357 356 357 357 356 357 356 355 355 355 355 356 355 356 355 355 354 355 357 357 356 356 355 356 356 357 357 358 357 358 357 357 357 358 359 359 359 360 360
351 352 351 352 351 353 353 352 353 353 352 353 354 355 355 354 356 358 358 359 359 359 359 358 358 358 357 357 356 357 356 356 356 356 356 356 356 356 355 355 354 355 355 358 357 357 356 356 356 356 357 357 357 357 357 357 357 357 358 358 358 359 359
350 352 351 353 351 353 354 353 355 355 353 353 353 354 355 354 356 356 358 360 360 360 360 358 358 358 358 357 356 357 357 357 356 356 356 357 357 356 356 356 355 354 354 355 357 358 358 357 357 357 357 357 357 358 357 357 357 358 358 358 357 358 358
350 352 351 353 352 353 354 354 356 356 354 353 353 354 355 354 356 355 356 360 360 361 361 360 359 359 358 358 358 358 357 357 357 357 356 357 356 357 357 356 356 355 354 354 354 356 357 358 359 358 358 358 358 359 358 358 358 357 357 358 358 358 358
350 350 350 352 352 352 354 354 356 356 355 352 353 354 355 354 355 355 357 358 360 361 361 360 361 360 359 360 359 358 358 357 357 357 356 356 356 356 356 356 356 355 354 354 352 354 355 357 358 359 359 359 359 359 358 358 359 358 358 358 358 358 359
351 349 350 352 351 353 355 355 355 356 354 353 353 354 355 355 355 355 356 359 360 361 362 362 362 361 361 360 359 360 359 358 358 357 357 357 356 356 356 356 356 355 355 354 353 353 353 355 357 358 359 358 359 359 359 359 358 358 358 359 359 358 359
350 349 348 351 352 352 353 354 356 355 354 353 352 353 355 355 356 356 356 358 360 362 362 362 363 362 362 361 361 361 360 359 360 359 358 358 357 357 357 355 356 356 355 354 354 353 352 353 354 356 358 358 357 358 358 359 359 359 358 359 359 359 359
348 347 348 349 350 351 352 353 355 354 356 355 351 353 356 357 358 357 357 359 360 362 363 363 364 363 363 363 362 361 361 360 360 360 359 359 358 358 357 356 356 355 355 355 354 353 352 352 353 354 356 357 358 358 358 358 359 358 359 358 359 359 359
348 349 349 348 349 351 352 354 354 355 358 356 352 352 355 357 359 359 359 359 360 362 364 364 365 364 364 364 363 362 361 360 360 360 360 359 359 358 357 357 356 355 355 355 354 354 353 353 352 354 354 355 356 357 357 358 358 359 358 359 359 358 359
348 349 348 349 351 352 353 354 355 356 356 355 353 353 353 356 358 359 359 360 360 361 364 365 366 365 365 365 364 362 362 361 361 360 360 359 359 358 358 357 356 355 355 355 354 354 353 353 353 353 354 355 356 356 357 357 357 357 358 359 359 359 359
355 355 355 354 353 354 355 354 355 355 355 354 353 354 354 355 357 358 359 360 360 361 362 365 366 366 366 366 365 364 363 363 362 361 361 360 359 358 358 358 357 356 355 354 353 354 354 354 354 354 354 354 356 356 357 357 357 357 357 358 358 359 360
366 367 367 366 365 365 367 367 364 357 354 355 356 355 356 357 357 358 358 360 360 360 360 362 364 366 366 366 366 365 365 363 363 362 361 360 359 359 358 358 357 356 355 354 354 353 354 354 354 354 354 354 355 356 356 357 357 358 358 357 358 358 360
366 367 368 369 371 373 375 376 374 363 356 356 358 358 358 359 360 361 360 360 361 361 360 362 362 364 366 366 366 366 365 364 363 362 361 361 360 359 358 357 357 356 355 354 354 353 353 354 354 355 354 354 354 355 355 356 357 357 357 357 357 358 360
359 360 361 363 368 369 369 368 367 362 359 358 359 359 359 359 361 363 361 362 362 361 362 361 361 362 364 365 366 365 365 365 363 363 362 360 359 359 358 358 358 357 355 355 354 354 354 354 354 355 355 355 355 355 355 355 355 356 358 358 358 359 360
355 356 359 360 361 363 363 363 363 361 362 363 365 365 364 361 360 362 363 363 362 363 362 362 361 362 362 363 365 365 365 365 364 363 362 361 360 359 358 358 358 357 356 356 355 355 354 355 355 355 356 356 356 356 355 355 355 357 357 358 359 359 360
352 356 358 358 360 360 361 363 364 363 363 364 365 367 368 366 363 361 362 362 362 361 362 363 363 362 361 362 363 364 365 365 365 363 363 361 361 359 359 358 357 358 357 357 355 355 355 355 355 356 356 358 358 358 358 357 357 358 358 360 360 360 361
354 355 355 355 358 359 358 362 363 362 362 362 362 365 367 367 367 366 365 364 362 362 360 360 361 361 362 362 363 364 364 364 365 364 363 363 361 360 360 358 357 357 357 357 356 356 355 355 355 355 356 357 358 359 359 359 359 359 359 359 360 360 361
354 355 354 353 353 354 356 359 361 361 361 361 361 362 363 365 368 368 367 365 365 365 363 361 361 360 361 362 362 363 363 364 364 364 364 364 362 361 361 359 359 358 358 358 357 357 356 355 356 356 355 355 357 358 359 360 360 360 360 360 360 361 361
349 350 351 350 351 351 352 354 358 361 360 360 361 361 361 365 368 370 370 368 367 368 368 367 365 362 360 360 361 363 363 364 364 365 364 364 363 363 362 361 360 360 359 358 358 357 357 356 356 356 356 356 357 357 358 359 360 360 361 361 361 360 361
348 348 349 349 350 349 349 350 354 359 360 359 360 360 361 364 367 367 368 367 366 368 368 368 367 364 361 359 360 361 363 363 364 365 365 365 364 363 363 362 362 361 360 360 360 359 359 358 357 357 357 357 358 358 358 359 359 360 361 361 361 361 361
349 348 348 348 349 349 349 349 351 356 358 357 358 359 359 360 362 363 363 362 364 367 367 367 368 366 362 359 359 362 363 364 365 366 365 365 365 364 364 363 363 363 362 361 361 361 361 360 360 359 358 359 359 359 360 360 360 361 361 361 362 362 362
349 348 347 347 348 349 350 351 352 354 355 355 357 357 357 357 359 359 359 360 361 364 367 367 368 368 365 360 359 361 363 363 366 366 366 366 366 365 366 365 365 364 365 363 363 363 363 363 362 361 361 361 361 361 362 362 362 363 362 362 363 362 363
348 348 349 349 349 350 352 353 353 354 353 353 355 355 354 355 356 356 357 358 360 363 365 366 368 370 366 361 360 363 364 365 366 368 367 367 367 366 367 367 366 366 366 365 365 365 365 364 364 364 364 363 362 362 363 363 363 363 364 364 364 364 363
348 347 348 350 351 351 352 353 352 352 352 352 352 353 353 353 354 354 354 356 359 361 363 365 368 372 368 362 362 363 365 367 368 369 369 369 368 368 368 368 368 368 367 367 367 366 366 366 366 365 365 364 364 364 364 363 364 364 365 366 365 365 364
350 347 347 350 352 351 352 352 352 351 351 351 351 351 352 352 352 352 353 355 357 359 362 365 367 370 370 364 362 364 366 367 368 370 371 370 370 369 370 369 369 369 369 369 368 368 367 367 366 367 366 366 366 365 366 365 365 364 365 366 366 367 366
351 348 347 348 351 351 352 352 352 351 350 350 350 350 351 351 352 352 352 354 355 358 362 365 365 369 371 367 363 365 367 367 370 370 371 372 371 371 370 371 370 370 370 370 370 369 368 368 367 367 367 367 367 367 366 365 364 364 364 364 364 365 365
347 346 347 348 349 351 352 352 352 351 351 350 350 350 350 351 351 352 352 354 357 358 361 365 365 366 369 369 367 368 368 368 370 371 372 371 370 367 366 368 370 371 371 371 370 369 370 368 369 368 368 368 368 367 366 364 362 362 361 361 361 361 360
344 344 347 348 349 350 352 352 352 352 351 351 350 350 350 349 350 351 352 355 358 360 361 364 365 363 364 367 369 370 370 371 371 372 371 370 366 362 358 359 364 369 369 368 369 370 370 371 370 369 369 368 367 367 368 366 362 358 356 357 356 355 353
344 344 347 348 349 350 351 351 352 351 351 350 349 349 349 349 349 350 351 355 358 359 360 361 361 361 362 364 366 369 370 371 372 372 370 366 363 360 357 354 356 359 362 364 366 367 369 369 370 368 367 366 364 362 360 358 354 352 350 350 348 346 343
345 345 347 349 349 349 350 350 350 350 349 348 347 347 348 348 348 349 351 353 356 358 359 359 359 359 360 361 363 366 367 368 371 370 366 360 357 356 354 350 345 344 348 354 359 361 361 360 360 360 359 358 358 355 349 344 342 341 341 339 337 335 334

ECMWFFLT1_925_thetae_045.txt.gz
Theta_e
347 350 352 352 352 352 351 351 349 349 349 349 350 351 352 353 354 354 353 354 354 354 354 354 355 355 355 355 354 354 354 354 353 353 353 353 353 352 352 352 351 351 352 352 352 353 352 351 352 351 352 352 352 352 349 349 351 353 355 357 357 358 357
348 349 351 351 352 352 352 351 349 349 349 349 350 351 352 352 353 354 353 353 354 354 354 354 355 355 355 355 355 354 354 353 353 353 352 353 353 352 352 351 351 351 350 351 352 352 353 352 352 351 352 352 352 353 351 349 350 352 354 356 357 357 357
347 349 350 351 352 353 353 352 349 348 349 350 350 350 352 352 353 354 353 354 353 353 354 354 354 355 355 355 354 354 354 353 353 353 353 353 353 352 352 352 351 351 350 351 351 352 353 352 352 352 352 352 352 353 352 351 351 352 353 354 356 357 357
347 349 349 351 352 351 352 351 350 349 349 349 350 350 351 352 352 354 354 353 354 354 354 354 354 354 354 355 354 354 354 353 353 353 353 353 352 352 352 352 352 352 350 350 350 351 352 353 352 352 352 352 352 352 353 353 352 352 353 354 355 356 356
348 349 350 351 352 352 352 351 350 348 348 349 350 350 351 352 352 353 353 354 354 354 354 354 354 354 354 354 354 354 354 353 354 353 353 352 352 352 352 352 352 352 352 350 350 349 351 352 352 352 352 352 352 353 353 353 353 354 354 354 354 354 356
348 348 351 351 351 351 352 351 350 348 349 349 350 350 350 351 352 353 353 353 354 354 354 354 354 354 354 354 354 354 354 353 353 353 353 353 353 352 352 352 352 352 352 352 351 350 350 351 351 351 351 351 352 353 353 353 353 354 354 355 354 354 354
347 348 350 351 351 352 351 351 350 348 349 349 349 350 350 351 352 352 352 353 353 354 353 354 354 354 354 354 354 354 353 353 353 353 353 352 352 352 351 352 352 352 352 352 352 351 351 350 351 351 350 351 352 352 353 353 353 353 354 356 355 355 355
347 349 349 350 351 351 351 351 350 349 349 349 349 351 350 351 351 352 352 352 353 354 353 353 354 354 354 354 353 354 353 353 353 353 353 353 352 352 352 352 352 352 352 352 352 352 352 351 351 351 352 351 352 352 353 353 352 353 354 356 357 356 356
346 347 348 350 350 350 351 351 350 349 349 350 350 350 351 351 351 351 352 352 352 353 353 353 353 353 354 354 354 353 353 353 353 353 353 352 352 352 352 352 352 352 353 353 353 352 352 351 351 351 353 353 353 353 352 353 353 353 354 356 356 357 356
347 349 349 350 350 351 353 351 351 350 350 350 350 350 351 351 351 352 352 352 352 353 353 353 353 353 354 354 354 353 353 352 353 353 352 352 352 352 352 352 352 352 353 353 353 353 352 352 352 352 353 353 353 353 353 353 353 353 354 355 355 356 356
347 349 350 350 351 352 353 352 354 353 351 350 350 351 351 351 352 353 352 353 353 353 353 353 353 353 353 354 353 353 353 352 353 353 352 353 352 353 352 353 353 352 352 353 353 353 353 353 353 353 354 354 354 354 354 353 354 354 355 355 355 356 356
349 350 351 352 351 353 354 353 354 354 352 350 350 351 351 352 353 353 353 354 353 353 354 353 353 353 354 354 354 354 354 353 353 353 353 353 353 353 353 353 353 353 353 353 353 353 354 354 354 354 354 354 354 354 354 354 355 354 354 355 356 356 356
349 350 350 352 351 352 355 354 355 355 353 350 350 351 351 351 353 353 354 355 354 354 354 354 354 353 354 354 354 354 354 354 354 353 354 353 353 353 353 353 353 353 353 353 353 354 354 354 355 355 354 355 354 355 354 354 355 355 355 356 356 356 356
351 350 350 352 352 354 355 355 355 354 352 351 350 351 352 352 352 353 355 355 355 356 356 355 355 355 354 355 354 354 355 354 354 354 354 354 353 354 353 353 354 353 353 353 352 353 354 354 354 355 355 355 355 355 355 355 355 355 355 356 356 357 356
350 350 350 351 352 354 354 355 355 355 353 352 350 351 352 352 352 353 354 356 356 357 356 356 356 355 356 355 355 355 355 355 355 355 354 354 354 354 354 354 354 354 354 353 353 352 352 353 354 355 356 356 356 355 355 355 355 354 355 355 356 356 356
349 348 351 351 352 353 353 353 355 354 355 353 350 351 352 352 352 353 354 355 356 357 357 357 357 356 356 356 356 355 356 355 355 355 355 355 354 355 354 354 354 354 354 354 353 353 352 352 353 353 355 356 356 356 356 356 355 354 354 355 355 355 356
349 349 350 350 351 352 352 353 354 354 355 354 351 350 352 352 353 353 353 354 356 357 358 358 358 358 357 357 357 356 356 356 356 356 356 355 355 355 354 355 354 354 354 354 354 354 353 352 352 352 352 354 355 355 356 356 355 355 355 355 355 356 356
348 349 349 349 351 351 352 353 353 354 354 352 351 351 352 353 353 353 353 354 354 357 358 359 359 359 358 358 357 358 357 357 356 356 356 355 356 355 355 355 354 354 355 355 354 354 354 353 352 352 351 352 352 353 355 355 355 355 355 356 356 356 357
347 348 348 350 351 352 352 351 352 353 353 350 350 351 352 353 352 353 354 353 354 356 358 359 360 359 359 359 359 358 358 358 358 357 357 356 356 356 355 355 355 355 354 354 355 354 354 353 353 352 351 351 351 352 353 353 354 354 355 356 356 357 357
351 349 349 350 351 351 351 350 351 351 350 350 350 351 351 353 353 353 354 354 355 356 357 359 360 360 360 360 360 359 359 359 359 358 358 358 357 357 356 356 356 355 355 355 354 354 354 353 353 353 353 352 351 351 352 352 353 354 354 355 355 355 357
364 359 358 357 356 355 354 356 354 350 348 349 350 351 352 353 353 354 354 354 355 356 357 359 360 360 361 360 361 360 360 360 359 359 359 359 358 358 357 357 357 356 356 355 355 354 354 354 353 353 353 352 352 352 352 351 352 352 353 354 354 355 356
367 366 365 363 362 363 360 356 353 351 349 349 351 351 351 353 355 355 355 356 355 357 358 360 360 361 362 361 362 362 361 361 361 360 360 359 359 359 358 357 357 357 356 356 355 355 354 353 354 353 352 353 352 352 352 352 351 352 352 353 353 354 355
362 364 365 364 363 362 359 355 353 353 352 352 353 352 351 353 354 355 356 357 356 357 358 359 361 362 362 362 363 362 362 362 362 361 361 360 359 359 359 358 358 358 357 357 356 355 355 354 354 353 353 352 352 352 353 352 352 352 352 353 353 354 355
357 361 363 362 362 360 358 359 360 360 360 360 360 358 353 353 354 355 356 357 357 358 358 358 360 362 362 363 363 363 363 363 362 362 361 361 360 360 359 359 359 358 358 357 356 356 355 354 354 354 353 353 352 352 353 352 352 352 352 352 353 354 355
352 356 357 359 361 360 359 361 361 361 362 363 363 364 360 356 355 356 357 357 357 358 358 359 359 360 362 363 364 365 364 364 363 363 362 362 361 361 360 359 359 359 358 357 356 356 355 355 354 354 353 352 353 352 352 353 352 352 352 353 353 353 354
350 352 353 355 357 359 359 359 359 360 360 360 363 367 365 362 361 362 362 360 359 359 359 359 359 359 360 361 362 365 365 364 364 364 363 363 362 362 361 360 359 359 358 358 357 356 356 355 354 354 353 353 353 352 352 353 353 353 353 353 353 353 353
347 349 350 352 355 357 357 357 357 357 357 359 363 366 366 365 364 364 364 364 362 363 364 363 362 361 360 359 360 362 363 364 365 364 364 364 362 362 362 361 360 359 358 358 357 357 356 356 354 354 354 353 353 353 352 353 354 354 354 354 354 355 354
348 349 349 351 354 355 355 355 355 356 355 357 361 362 364 364 362 360 362 362 361 363 364 365 366 366 363 361 360 361 362 363 363 364 364 364 363 363 362 361 361 360 358 358 358 356 357 356 355 355 354 354 354 353 353 354 354 355 355 355 356 357 356
350 350 350 351 352 353 353 352 352 352 353 354 357 359 360 360 358 357 358 357 358 361 363 364 366 368 368 366 360 360 361 361 362 363 363 364 364 363 362 361 361 360 359 357 357 357 357 356 355 355 354 354 354 354 354 354 354 355 355 356 356 357 358
349 351 351 350 351 351 350 350 350 351 351 352 353 355 355 357 355 354 354 354 357 360 363 364 365 366 369 368 363 360 360 361 361 362 363 363 364 363 362 362 361 360 360 358 357 357 357 356 356 356 355 355 354 355 355 354 354 355 355 355 356 357 357
348 349 350 350 350 350 349 349 349 349 349 350 351 351 352 353 353 352 352 353 355 358 361 362 365 366 368 368 366 360 359 360 361 362 363 363 363 363 363 362 361 360 360 359 358 358 357 357 357 356 356 356 356 355 356 356 355 356 356 356 357 357 358
347 346 347 349 350 349 349 349 348 348 348 348 349 350 351 351 352 352 352 353 355 358 359 361 363 365 366 369 367 362 359 361 361 362 362 362 363 364 363 362 362 362 361 360 360 359 358 358 358 357 357 357 357 357 357 357 357 358 358 358 359 359 359
347 345 345 347 349 349 348 348 347 348 347 347 348 349 350 350 351 352 353 353 355 357 358 360 363 364 366 369 368 363 360 361 361 362 363 363 364 363 363 363 363 362 362 362 361 360 360 359 359 360 359 359 359 359 359 359 360 360 360 361 362 362 362
347 346 345 347 349 350 348 347 347 347 346 346 347 348 349 350 351 352 354 355 356 357 358 360 362 363 366 369 368 364 361 362 364 364 365 364 364 364 364 364 364 363 363 363 363 363 363 362 361 361 361 361 361 361 362 362 361 362 362 362 363 363 363
344 344 345 346 348 349 349 347 347 346 346 346 346 347 348 349 350 352 354 355 358 359 359 361 363 363 364 367 368 365 362 364 367 366 366 365 364 362 362 363 364 365 364 365 365 364 364 364 364 363 363 363 363 363 363 363 363 364 364 363 363 363 363
341 342 345 346 347 348 348 347 346 345 345 345 345 347 348 348 349 351 354 355 357 359 359 360 361 362 363 365 367 366 365 366 368 366 365 363 361 357 356 357 361 365 365 366 366 366 365 365 366 366 365 365 365 364 364 365 365 365 364 363 363 362 362
341 342 344 345 346 346 346 346 346 344 344 344 345 346 348 348 349 351 352 354 356 357 358 358 359 360 361 363 366 367 367 368 367 365 361 359 358 357 355 353 355 359 362 364 365 366 366 367 367 367 367 366 365 363 363 364 364 362 362 360 359 359 358
342 344 345 344 344 344 345 345 344 343 343 344 345 346 347 348 349 350 352 354 355 355 356 357 357 358 358 360 363 366 367 368 366 361 357 355 355 355 356 354 350 348 351 357 362 363 365 366 366 367 367 366 365 364 361 359 356 356 355 353 352 350 349

ECMWFFLT1_925_thetae_048.txt.gz
Theta_e
349 350 350 350 350 350 350 350 348 348 348 348 349 350 351 351 352 352 352 353 352 352 353 353 353 353 353 353 352 352 352 351 351 351 352 352 352 352 352 352 352 352 352 353 352 352 352 352 351 351 351 351 351 350 351 351 351 349 348 348 349 351 353
348 350 350 350 350 350 351 349 348 349 348 349 349 349 350 351 351 352 352 352 352 353 352 353 353 353 353 353 353 352 353 352 352 351 351 352 352 352 352 352 352 352 352 352 352 352 352 351 351 351 351 351 350 350 350 351 351 351 349 348 349 351 353
346 348 349 350 350 351 351 350 348 349 349 348 349 349 350 350 351 352 352 352 353 352 352 353 353 354 354 353 353 353 353 353 352 352 352 352 352 352 352 352 352 352 352 352 352 352 352 352 351 351 351 351 351 350 350 351 351 352 351 349 348 350 353
346 347 348 349 351 351 350 350 349 348 349 349 348 349 349 350 351 352 352 352 352 352 353 352 353 353 353 353 353 353 353 353 352 352 352 352 352 352 352 352 351 352 351 351 351 351 351 351 351 351 351 351 351 350 350 351 351 352 351 351 350 349 351
346 346 347 348 350 350 350 350 348 348 348 349 349 349 350 350 351 351 352 352 352 352 353 353 353 353 353 353 353 353 353 353 353 352 352 352 352 352 352 352 351 352 352 351 351 351 351 350 350 351 351 351 351 350 350 350 351 352 352 352 351 350 351
346 346 347 347 348 350 350 350 348 349 348 348 348 349 349 351 351 352 352 352 352 353 352 352 353 353 354 353 354 354 353 353 353 352 353 352 352 352 352 352 352 352 352 351 351 351 350 350 350 350 350 351 352 350 350 350 351 351 352 353 352 351 351
345 346 346 347 347 349 350 349 349 348 349 349 348 349 350 350 351 352 352 352 352 352 352 353 353 353 354 354 354 353 353 353 353 353 353 352 352 352 352 352 351 351 352 351 351 351 350 349 349 348 349 350 351 351 350 350 350 351 352 353 353 353 352
345 345 345 345 346 346 348 349 349 348 349 349 348 349 349 350 351 351 352 352 352 352 352 353 353 353 354 353 354 354 353 353 353 353 353 352 352 352 352 352 352 351 351 351 351 351 350 349 349 349 348 349 351 351 351 351 351 351 352 352 353 353 353
344 345 345 345 344 346 348 348 349 348 349 348 348 349 349 350 351 351 351 352 352 353 352 352 353 353 353 353 353 354 353 353 353 353 353 352 352 352 352 352 351 351 351 351 351 351 351 351 350 349 349 349 350 350 350 351 350 350 352 352 353 353 353
344 345 345 346 345 346 348 348 349 350 349 348 348 348 349 350 350 351 351 352 353 353 352 353 353 353 353 353 353 353 353 353 353 352 352 352 352 352 352 352 352 351 352 351 351 351 351 350 351 351 350 350 350 350 350 350 351 351 352 352 353 353 353
343 345 345 346 347 348 349 350 351 352 349 348 348 348 349 349 350 350 351 352 352 352 353 352 353 353 353 353 353 353 353 353 353 352 353 352 352 352 352 352 352 352 352 351 351 351 351 351 351 351 351 351 350 350 350 350 351 351 352 352 352 352 352
342 344 346 347 347 349 351 352 352 353 351 349 347 349 349 349 350 350 351 352 352 352 353 352 353 353 353 353 353 353 353 353 353 353 353 353 352 352 352 352 352 352 351 352 351 351 351 351 351 351 351 351 351 351 351 350 350 351 351 352 352 352 352
344 343 344 347 348 349 353 354 353 353 351 349 347 348 349 349 349 350 350 351 351 352 352 352 353 353 353 353 353 353 353 353 352 352 352 352 352 352 352 352 352 352 351 351 351 351 351 351 351 351 351 352 351 351 351 350 350 351 351 352 352 352 353
343 343 343 346 348 351 354 353 353 353 351 349 348 348 349 349 350 349 351 351 351 352 352 352 352 352 353 353 353 353 353 352 353 352 352 352 352 352 352 352 352 352 351 351 351 351 351 351 351 352 352 352 351 351 352 351 351 351 352 352 352 353 353
339 342 342 345 348 352 354 354 353 354 352 349 348 348 349 349 349 350 350 351 351 351 352 352 352 352 353 352 353 353 353 353 353 353 352 352 352 352 352 352 352 352 352 351 351 351 351 351 351 352 352 352 352 352 352 353 352 352 352 352 352 353 353
333 341 342 344 348 350 351 353 353 353 353 352 349 348 349 349 350 351 350 350 351 351 352 352 352 352 352 352 353 352 353 353 352 352 352 352 352 352 352 352 352 352 351 351 352 352 352 352 352 352 352 352 352 352 352 353 353 353 352 352 352 352 353
333 341 344 344 347 349 350 352 354 353 354 353 349 348 349 349 349 350 351 350 351 351 351 351 352 352 352 352 353 352 353 353 353 352 352 352 352 352 352 352 352 352 352 352 352 352 352 352 352 352 352 352 353 353 353 353 353 352 353 352 353 353 353
340 344 346 347 347 349 351 352 352 354 353 350 349 349 349 350 350 351 351 351 351 352 352 352 352 352 352 352 352 352 352 353 353 353 352 352 352 352 352 352 352 352 352 352 352 352 352 352 352 352 351 352 353 353 353 353 352 352 353 353 353 353 353
345 345 346 348 348 349 351 350 351 352 351 349 349 349 349 349 350 350 351 352 352 352 353 353 352 352 353 352 352 352 352 353 353 353 353 353 353 353 352 353 352 353 353 352 352 353 352 352 352 352 352 352 352 352 352 353 353 353 353 353 353 353 354
346 348 347 348 349 349 350 351 351 351 350 349 349 349 350 350 350 351 351 352 353 353 353 354 354 354 353 353 353 353 353 353 353 353 353 354 353 354 354 353 353 353 353 353 353 352 353 353 352 352 352 352 351 351 351 351 352 352 353 353 353 354 354
352 351 351 350 350 350 351 352 353 351 350 349 349 350 349 350 350 351 351 352 353 354 354 355 355 355 354 354 354 354 354 354 354 354 354 354 354 354 354 354 354 354 353 353 353 353 353 353 353 353 352 352 351 351 351 351 351 350 351 351 352 353 354
361 352 352 352 351 353 353 351 350 350 350 349 349 350 350 350 351 351 351 352 353 354 356 355 356 356 356 355 355 355 355 355 355 354 354 355 354 354 354 354 354 354 354 354 353 354 353 353 354 353 353 352 352 351 351 351 351 350 350 350 350 351 352
360 357 355 354 351 349 348 347 347 349 349 349 350 350 350 351 351 351 351 352 352 354 355 356 357 357 356 357 357 356 356 355 355 356 356 355 355 355 355 355 355 354 354 354 354 354 354 353 353 353 353 353 353 352 352 351 351 351 351 350 350 350 351
356 360 360 357 353 348 345 346 348 348 349 349 349 350 350 351 351 351 352 352 352 353 355 356 357 357 357 358 357 357 357 357 357 356 356 357 356 356 356 355 355 355 355 354 354 354 354 354 353 354 353 353 353 353 352 352 352 351 351 351 351 350 351
354 359 360 356 354 351 348 348 349 349 349 349 349 350 350 352 352 353 352 353 352 353 354 356 357 357 358 358 358 358 358 357 358 358 357 357 357 357 357 356 356 356 356 355 355 355 355 355 354 354 354 353 353 353 353 352 352 352 351 352 351 351 351
351 356 359 357 355 354 353 352 351 351 350 349 349 350 351 351 352 353 353 353 354 354 354 355 356 357 358 358 358 359 359 358 359 358 358 358 358 358 357 358 357 357 357 356 356 356 356 356 355 355 354 354 354 353 353 352 353 352 352 352 352 351 351
350 353 355 356 357 357 357 357 356 356 355 354 352 350 351 352 353 354 355 354 354 354 354 355 356 356 357 358 358 359 359 360 359 360 359 359 358 359 358 358 358 358 358 358 357 357 357 356 356 355 355 355 355 354 353 353 353 352 353 352 352 351 351
350 351 352 353 355 355 355 357 357 357 359 360 357 353 350 353 355 356 356 355 355 356 356 356 356 357 357 358 359 359 360 360 360 360 360 360 360 359 359 359 359 359 359 358 357 357 357 357 356 356 355 355 355 354 354 353 353 353 352 352 352 352 351
349 349 350 350 350 352 352 353 352 352 354 358 359 357 354 355 357 358 357 357 358 359 359 359 359 357 357 358 359 360 361 361 361 361 361 361 361 360 360 360 360 359 359 359 358 358 357 357 356 356 355 355 354 354 354 353 353 353 352 353 352 352 352
348 349 348 348 348 349 348 348 349 349 350 353 355 358 357 357 358 356 356 357 360 362 363 363 362 361 361 359 358 359 360 361 362 363 363 363 362 362 362 361 361 360 360 358 358 358 357 357 357 356 356 355 354 355 354 354 354 353 353 353 352 353 352
346 348 348 347 347 347 347 347 347 347 347 349 352 354 356 356 357 355 354 355 358 360 362 364 364 364 365 364 362 360 359 359 361 362 362 363 363 362 363 362 361 361 360 359 359 358 357 357 357 356 356 355 355 355 354 354 354 354 353 353 353 353 353
346 347 347 347 347 346 346 346 346 346 347 347 349 351 353 354 355 354 354 356 357 359 361 362 364 363 364 366 366 364 361 359 359 360 362 362 363 363 363 362 362 361 360 359 359 358 358 357 357 356 355 355 355 355 355 354 354 354 354 353 354 354 354
346 346 345 347 347 346 346 346 346 346 346 345 347 350 352 354 354 355 355 356 357 358 359 361 362 363 363 364 366 366 365 361 359 359 360 361 361 362 362 362 362 361 360 359 358 358 357 356 356 356 355 355 355 355 355 355 355 355 355 355 354 355 354
344 345 344 345 346 346 345 344 344 344 344 344 346 348 351 353 355 356 356 356 356 357 359 360 361 362 363 365 366 366 364 361 359 358 359 360 361 361 361 361 361 360 360 359 358 358 358 357 357 356 355 356 355 355 356 355 355 355 356 356 356 356 356
342 343 344 344 345 345 344 343 343 343 343 343 345 348 351 352 354 356 356 356 357 358 360 361 361 362 363 366 367 365 362 360 360 359 359 359 358 358 358 359 360 360 360 360 359 359 359 358 358 358 358 357 357 357 357 356 357 357 358 358 358 358 357
340 341 343 343 344 344 343 343 343 342 342 343 344 347 350 351 353 355 356 357 358 359 360 361 361 361 363 365 367 365 362 361 362 360 358 357 354 353 353 355 358 360 360 360 360 361 360 360 360 360 359 359 358 359 359 359 359 360 360 359 359 359 359
340 341 342 342 343 343 342 342 342 341 342 343 344 347 350 351 353 354 354 356 356 357 359 360 360 361 362 364 366 365 363 363 362 358 354 351 351 353 352 353 355 358 360 361 361 362 362 362 362 362 362 361 361 361 360 359 359 360 361 361 360 361 360
339 341 342 341 342 342 342 341 341 340 340 342 343 346 348 350 352 353 354 354 355 355 357 357 358 359 360 362 364 365 364 362 358 353 348 347 350 353 354 354 351 350 352 357 360 361 363 363 363 364 364 363 363 362 360 359 359 359 360 360 359 358 358

ECMWFFLT1_925_thetae_051.txt.gz
Theta_e
351 352 350 350 350 349 350 351 353 352 353 353 354 353 353 354 354 355 354 354 355 355 354 354 353 353 353 353 353 352 352 352 352 352 353 352 352 351 349 349 350 351 351 353 352 351 350 349 350 350 350 351 350 351 350 351 351 350 350 351 352 352 349
350 351 350 351 350 351 351 351 353 353 352 353 353 353 353 354 354 355 355 355 355 355 355 354 354 354 354 354 354 353 353 352 352 352 353 353 351 350 349 348 349 349 349 351 351 350 350 349 349 350 350 351 351 350 350 350 350 350 350 351 354 355 354
348 350 351 350 351 351 351 351 352 353 352 353 352 353 353 354 355 355 355 355 355 355 355 355 354 354 354 354 354 354 353 353 353 353 353 353 351 352 351 349 349 349 349 349 350 350 350 350 350 350 351 351 351 351 349 350 350 350 350 350 354 357 356
348 349 350 351 351 351 351 351 351 352 351 352 352 352 353 355 355 355 355 355 355 355 356 355 355 355 354 355 354 354 354 353 353 353 353 353 353 353 353 351 350 350 350 350 350 350 350 351 350 350 351 351 352 350 350 351 350 350 350 350 354 358 358
348 348 350 351 351 351 350 350 351 351 351 351 351 352 354 354 354 355 355 355 355 356 355 355 355 355 355 355 354 355 354 354 353 353 353 354 354 353 353 353 351 351 351 350 351 350 350 351 351 351 351 351 351 351 350 350 350 351 350 350 355 358 358
346 347 350 351 350 351 351 349 352 351 351 350 352 352 352 354 353 354 354 355 355 355 355 356 355 355 356 356 355 355 355 355 354 353 354 354 354 354 353 353 352 352 352 351 351 351 351 351 351 351 351 351 352 352 351 351 350 351 351 350 355 358 357
346 348 349 350 350 350 350 349 351 352 351 351 351 352 352 352 353 353 354 355 355 355 356 356 356 356 357 356 355 356 355 355 355 354 355 354 354 354 353 354 352 352 353 352 351 351 351 351 351 351 351 351 352 352 352 351 350 351 351 351 355 357 357
346 348 348 348 348 348 349 349 350 351 352 351 351 352 351 352 352 353 353 354 355 355 355 356 356 356 357 356 356 357 356 356 356 355 355 355 355 354 354 354 353 352 352 352 352 351 351 352 351 351 351 351 351 352 351 350 350 351 352 351 353 356 358
345 348 347 346 346 348 349 350 351 352 352 351 352 352 352 352 352 352 353 354 355 355 355 355 355 356 356 357 357 356 356 356 356 356 355 355 355 355 355 354 354 353 352 353 352 352 351 351 351 351 351 351 351 350 351 350 350 351 352 352 352 354 356
345 349 349 347 346 347 348 350 351 353 353 353 354 353 352 351 352 352 354 353 354 354 355 355 355 356 357 357 356 357 357 356 356 356 356 355 355 355 355 355 355 354 353 353 354 353 352 351 351 351 351 351 351 350 349 350 350 350 351 351 351 352 354
345 351 351 348 348 349 348 351 353 355 355 355 354 353 353 353 353 353 353 354 353 354 355 355 355 356 357 356 356 357 356 357 356 356 356 356 355 355 355 355 355 354 354 353 354 354 353 352 351 351 351 351 350 350 349 349 350 350 350 351 351 351 352
343 349 352 351 349 349 351 353 355 356 358 356 353 353 353 353 353 353 353 354 354 354 355 355 355 356 356 356 356 356 357 356 356 356 356 356 356 356 355 355 355 355 354 354 354 354 353 353 352 351 351 351 351 350 350 349 350 350 350 351 352 352 352
340 345 349 350 349 351 354 357 357 358 357 356 353 353 353 353 353 353 354 354 354 354 355 354 356 356 356 356 356 357 357 357 357 356 356 356 355 355 355 355 355 354 354 354 354 354 354 354 353 352 352 351 351 351 351 350 351 350 350 351 352 353 352
336 340 344 348 350 352 355 358 358 359 357 354 353 353 353 353 352 353 355 354 354 354 354 355 356 356 356 356 356 357 357 357 357 356 356 356 356 356 356 355 355 355 354 354 354 354 354 355 354 353 352 352 351 351 351 351 352 351 351 351 351 352 352
330 332 338 344 348 353 355 356 357 358 357 354 353 353 353 353 352 353 355 355 354 355 355 355 356 356 357 357 356 357 357 357 357 357 356 356 356 355 355 356 355 355 355 354 354 354 354 354 355 354 353 354 353 353 353 354 353 353 352 351 351 352 353
336 331 332 339 345 351 353 355 355 358 358 357 355 354 353 354 354 354 354 355 355 355 355 356 356 357 356 357 357 358 357 357 356 356 357 356 355 355 355 355 355 355 354 354 354 354 354 354 355 355 354 354 354 355 355 355 355 353 352 351 352 352 354
347 338 333 334 341 347 351 353 355 357 357 357 356 354 354 354 354 354 354 354 354 355 355 356 357 357 357 356 357 358 357 356 356 356 356 355 355 355 354 355 356 355 355 354 354 354 354 354 355 355 355 355 355 356 356 356 354 352 351 350 351 351 354
355 349 340 335 335 343 350 351 354 356 355 354 355 354 354 354 354 353 353 354 354 354 355 356 356 356 357 357 358 357 357 356 356 356 356 355 355 355 354 355 355 355 355 355 355 355 355 355 355 355 355 355 355 355 355 355 354 351 351 350 350 350 352
355 354 349 340 334 337 343 347 351 353 353 353 353 353 354 354 354 353 353 354 354 354 355 355 356 356 356 358 358 358 356 357 357 357 356 356 356 355 354 355 355 355 355 355 355 355 355 355 355 355 355 355 355 356 355 356 355 352 350 350 350 350 351
354 356 353 345 336 334 340 348 352 352 354 353 353 353 353 352 353 353 353 354 354 355 355 355 355 357 357 357 358 357 357 357 357 357 357 356 355 355 355 355 355 355 355 355 355 356 355 355 355 356 355 355 356 356 356 355 354 353 352 351 350 351 351
352 355 355 349 340 337 344 351 353 353 355 353 352 353 353 352 353 354 353 354 355 354 355 356 356 357 358 358 358 357 356 357 357 357 357 356 355 356 356 356 356 356 355 355 356 356 356 355 356 356 356 355 356 356 356 356 354 353 352 351 351 351 351
352 354 356 353 345 344 349 351 351 352 354 352 351 353 352 352 353 353 353 353 353 354 355 356 357 358 358 357 357 356 357 357 357 358 358 357 356 356 356 356 356 356 356 356 356 356 356 356 355 356 356 356 355 355 355 355 354 353 352 351 351 351 352
352 353 356 352 346 349 353 352 351 354 353 353 352 351 352 352 353 353 353 353 354 355 356 356 357 357 357 357 357 356 357 357 357 357 358 357 358 357 357 357 357 356 356 357 356 356 357 357 356 356 356 356 356 356 355 355 354 353 352 352 351 351 351
352 354 354 350 346 349 354 353 353 354 353 352 352 352 352 352 352 353 354 354 355 356 356 356 357 357 358 357 357 357 357 357 357 358 357 358 358 357 357 358 357 358 357 357 357 356 357 357 357 357 357 357 357 356 356 356 355 354 352 352 352 351 351
353 354 355 352 348 348 352 354 353 353 354 353 352 353 353 352 353 355 356 355 356 356 356 357 357 357 358 357 357 358 358 358 358 358 358 359 358 358 358 358 357 358 357 357 357 357 357 357 357 358 358 357 357 357 356 356 356 355 353 353 352 351 351
352 354 356 356 354 352 354 355 355 353 353 353 353 354 354 353 355 355 356 357 357 357 358 358 358 358 358 357 358 359 358 358 358 358 358 359 358 358 358 358 358 358 358 358 357 358 358 358 357 358 358 357 357 357 355 356 356 356 354 353 353 352 352
352 353 356 358 358 358 355 355 355 353 353 355 355 353 354 355 355 357 358 358 357 357 358 357 359 360 360 359 360 359 359 359 359 359 359 359 359 358 359 359 358 359 359 358 358 358 358 359 358 359 358 358 358 357 357 356 356 356 355 354 353 353 352
351 352 354 356 358 359 358 356 356 353 354 355 355 355 355 356 357 359 359 358 358 357 358 359 360 361 360 361 360 360 360 360 359 360 360 360 359 360 360 360 359 360 360 359 359 359 360 360 360 359 359 359 358 359 358 358 357 356 355 355 354 354 353
350 351 352 354 355 356 359 360 359 358 356 354 353 354 354 355 359 360 359 359 359 358 358 359 360 360 360 362 361 361 362 362 360 360 361 361 362 361 361 362 361 361 361 360 360 361 361 361 360 360 360 360 360 359 359 358 358 357 356 356 355 354 354
348 350 350 353 354 354 356 360 360 360 360 357 356 356 355 357 360 362 360 360 358 357 358 357 358 359 361 362 362 362 362 362 362 362 361 362 362 362 363 363 362 362 363 362 362 362 361 361 361 360 360 360 361 360 361 360 359 357 357 356 355 355 354
347 349 349 351 353 353 354 357 358 358 358 358 359 359 358 359 362 362 363 360 356 355 356 356 356 358 360 361 362 363 363 364 364 363 363 363 363 363 363 363 363 363 363 363 362 362 362 362 361 361 362 362 361 362 361 361 360 359 357 357 356 355 355
347 348 349 349 350 351 353 354 356 356 356 357 357 358 359 362 363 363 362 359 356 355 356 356 357 359 360 362 363 362 363 364 364 364 364 364 364 364 364 364 364 365 364 364 363 362 362 363 362 362 362 361 362 363 362 361 361 360 358 357 356 355 355
346 347 347 348 349 350 351 352 354 355 355 355 356 357 358 360 360 359 358 358 358 358 357 357 358 359 361 362 362 362 363 364 364 365 365 365 365 365 365 364 364 365 365 365 364 363 363 363 363 363 362 362 363 363 363 363 362 361 360 359 357 355 354
345 346 346 348 348 348 349 350 351 352 353 353 354 355 356 357 357 357 357 358 359 360 360 360 361 362 363 362 361 362 362 362 363 365 365 367 366 366 366 366 366 366 366 365 364 364 364 364 363 363 363 363 363 363 363 363 363 361 361 359 358 357 355
343 345 345 346 348 347 347 348 349 350 351 351 352 354 355 356 356 357 358 359 360 363 365 364 363 363 364 363 364 364 362 362 363 364 364 365 365 364 364 365 366 366 367 365 365 365 364 364 364 364 363 363 363 364 364 363 363 362 361 359 359 358 356
342 344 344 345 347 348 347 347 348 349 349 349 350 352 354 354 355 356 357 358 361 364 365 363 363 364 365 366 366 366 364 364 364 364 363 361 360 358 356 357 359 362 363 364 363 363 363 363 363 363 363 362 363 362 362 362 363 361 360 358 357 357 356
340 343 344 344 345 347 346 346 347 347 347 347 349 350 351 352 352 353 356 357 359 361 361 361 364 366 367 368 367 365 364 364 363 362 359 356 354 353 351 350 351 354 357 360 360 360 360 361 360 361 361 361 362 361 359 359 359 358 358 358 358 357 356
338 340 342 343 343 344 344 344 345 346 346 346 347 348 348 349 349 351 353 354 357 359 359 361 363 366 368 368 367 364 363 361 359 357 355 353 352 352 351 348 346 344 346 352 355 356 357 358 358 358 359 359 360 359 357 356 356 356 356 357 358 357 355

ECMWFFLT1_925_thetae_054.txt.gz
Theta_e
350 353 353 355 356 355 355 357 359 359 358 359 359 359 358 358 358 358 359 360 361 361 361 360 361 360 359 359 358 359 359 359 359 359 359 359 357 356 357 355 356 355 355 354 355 357 358 358 358 358 359 359 359 359 359 358 357 357 358 358 357 356 356
348 350 352 354 355 356 356 359 360 360 359 359 359 359 359 359 359 359 360 360 361 361 362 361 360 360 359 358 358 358 358 358 359 359 359 359 358 357 357 357 357 357 356 353 354 358 359 360 359 358 359 359 358 358 359 359 358 358 357 358 358 357 357
345 347 350 352 354 356 356 358 360 359 358 359 359 359 359 359 359 360 360 361 361 361 362 362 360 360 360 360 359 359 358 358 358 358 359 359 359 358 358 358 358 358 357 355 355 358 359 360 360 359 358 358 357 357 359 358 358 358 357 358 358 357 358
343 344 348 351 354 355 356 356 359 359 359 358 359 359 359 359 360 360 360 361 362 362 362 361 361 361 360 360 359 359 359 358 358 358 358 359 359 358 358 359 359 357 357 357 355 356 359 359 360 361 360 359 358 357 358 358 358 359 358 358 358 357 358
340 342 344 351 353 355 354 355 357 359 359 359 359 359 359 360 360 360 360 361 361 362 362 361 361 360 360 360 361 360 359 359 359 358 359 359 359 360 358 359 359 357 356 357 357 358 358 359 359 360 361 360 358 358 358 359 358 358 359 358 358 357 357
338 339 341 346 350 354 354 354 357 359 358 357 358 359 359 359 359 359 359 360 360 361 361 361 360 360 360 361 360 360 361 360 359 360 360 359 359 360 360 359 359 358 357 357 358 359 359 359 358 359 360 359 357 356 357 357 357 357 359 359 358 357 356
338 340 340 341 347 353 353 353 356 357 357 357 358 358 358 358 358 358 359 360 360 360 360 361 360 360 361 360 360 360 360 361 361 360 361 360 359 360 360 359 359 359 359 358 358 359 360 360 358 358 359 358 357 356 356 357 359 358 358 359 359 359 358
338 340 342 343 346 350 353 354 356 357 356 356 356 357 357 358 358 358 359 360 359 360 360 359 360 360 360 361 360 361 361 361 361 361 360 359 359 360 360 360 360 359 359 358 359 360 360 360 359 358 360 359 358 358 358 359 361 359 358 358 359 360 358
337 341 345 346 344 347 352 353 356 357 356 357 356 357 357 357 358 358 359 358 359 359 358 359 359 359 361 361 361 361 361 361 361 361 361 359 359 359 360 360 360 360 359 358 359 360 359 360 360 360 361 359 359 360 360 361 361 360 358 359 360 360 359
337 341 347 347 345 348 351 353 356 357 357 358 357 356 357 357 357 358 358 358 358 358 357 359 359 359 361 361 361 361 361 361 361 361 360 360 359 359 359 359 359 360 360 359 359 360 360 359 359 360 362 362 361 361 362 361 362 361 360 360 360 361 360
339 344 351 350 348 350 351 353 357 358 359 359 357 357 358 357 357 358 357 357 357 357 358 358 358 359 360 362 361 361 361 362 361 361 361 360 359 359 359 358 358 360 360 359 358 358 360 360 360 360 361 362 362 362 362 362 362 362 360 359 360 361 360
344 349 354 354 352 351 352 355 358 359 361 359 356 357 357 357 357 357 357 357 356 356 357 358 359 359 361 362 361 361 361 361 361 361 361 360 358 358 359 357 357 359 360 359 359 358 359 360 360 360 361 362 362 362 362 362 362 362 362 359 359 361 360
342 344 349 352 352 353 355 358 360 360 361 359 357 357 357 357 357 356 356 357 357 357 358 358 358 359 360 362 361 361 362 362 361 361 360 361 359 359 358 358 357 358 360 360 359 358 358 359 361 360 361 362 362 361 362 363 362 363 362 360 358 360 360
339 337 342 347 350 354 355 357 360 361 360 359 358 357 357 357 357 356 356 357 356 358 357 358 359 359 360 362 361 361 362 361 362 361 361 361 360 359 359 359 358 358 359 360 359 359 358 358 360 361 361 361 362 361 361 362 362 363 363 362 359 359 360
344 337 339 343 350 355 356 357 361 362 360 359 359 357 356 357 356 356 357 357 357 356 358 358 359 359 360 362 362 363 362 361 362 362 362 361 362 362 360 360 359 359 359 361 360 359 359 358 360 361 361 362 362 362 361 361 362 362 363 362 361 360 359
347 345 345 344 346 352 355 358 361 363 364 362 360 357 357 357 356 357 357 357 357 357 357 359 360 360 361 362 363 362 362 363 363 363 363 363 363 363 362 361 361 361 360 362 361 360 360 360 359 360 361 362 362 362 361 361 361 361 360 359 359 360 359
352 354 355 352 350 349 351 354 359 362 364 363 360 358 357 357 357 357 357 357 358 357 358 358 359 360 361 361 362 363 363 363 363 363 364 363 363 363 363 363 363 362 362 362 362 361 361 361 360 360 360 361 361 361 361 360 360 359 358 354 353 356 359
356 357 357 358 358 357 354 350 352 358 360 360 359 358 357 358 358 357 356 358 357 357 358 359 360 361 361 363 363 363 364 364 364 365 364 365 365 364 363 363 363 363 363 363 363 363 362 361 361 361 360 360 361 361 361 360 360 358 356 353 348 347 354
355 355 356 358 358 360 358 354 349 353 358 358 358 356 357 357 358 358 357 357 358 358 357 359 360 361 362 362 363 365 365 365 365 365 365 365 365 365 364 364 363 364 364 363 363 363 363 362 362 362 361 360 360 360 360 360 360 358 356 353 348 344 348
353 354 355 357 357 358 359 359 354 350 353 358 357 355 356 356 357 357 357 358 359 358 358 358 360 362 363 363 364 366 366 365 366 366 366 366 366 365 365 364 365 364 364 363 364 363 364 363 362 363 362 362 360 361 360 360 360 360 357 354 351 348 348
352 354 354 355 358 358 359 361 359 350 348 355 356 355 355 357 357 358 357 358 359 358 358 359 361 362 364 363 365 367 367 366 366 366 366 366 365 366 365 365 365 364 363 363 362 363 363 363 363 363 363 362 362 361 361 360 359 359 358 356 354 352 351
348 351 353 354 356 358 359 361 361 353 344 349 355 354 354 356 357 358 357 357 359 359 359 361 362 363 364 363 365 367 366 367 367 366 366 366 366 366 365 365 365 364 363 362 362 362 363 363 363 363 363 362 362 361 361 360 359 358 357 357 356 355 353
339 345 352 355 356 359 361 362 361 355 345 347 354 354 353 356 356 356 357 356 358 359 359 361 363 364 364 364 365 366 366 366 366 366 366 366 366 365 365 365 365 364 364 362 362 361 363 362 362 362 362 362 362 362 361 361 360 359 357 356 356 355 354
333 340 351 355 357 360 361 359 356 352 346 348 354 353 352 355 356 356 356 356 358 359 360 362 363 363 364 365 364 365 366 366 366 366 366 366 366 365 365 364 364 365 364 363 362 361 361 362 362 362 362 362 362 362 362 361 361 359 358 356 355 355 355
331 340 352 357 357 360 361 357 352 349 348 351 354 352 352 355 356 357 357 356 359 360 361 362 362 363 365 365 364 365 365 365 365 365 365 365 365 365 365 364 364 364 364 363 362 361 360 361 362 362 362 361 362 361 361 361 361 360 359 357 355 354 354
331 344 355 357 357 359 360 356 353 351 351 352 353 352 353 356 356 356 358 359 359 360 361 362 363 363 364 364 363 365 365 365 365 365 365 366 366 365 365 364 364 364 363 363 362 361 361 360 361 361 362 361 361 362 361 361 361 361 359 358 356 355 354
336 350 356 355 357 359 359 356 354 352 351 352 353 354 354 357 357 358 360 360 360 360 360 361 362 363 364 364 363 364 364 364 364 365 365 365 365 365 364 363 363 364 363 363 362 361 361 361 361 361 362 362 362 361 362 361 361 361 361 358 357 356 354
338 353 356 355 357 358 358 357 354 353 353 353 354 355 356 357 357 359 361 360 360 359 360 361 362 363 364 364 363 362 364 363 364 365 365 365 365 365 364 363 363 363 364 364 362 362 363 363 362 362 362 362 362 362 363 363 361 361 361 360 358 357 356
336 352 355 355 355 357 359 361 356 352 353 354 355 354 355 356 360 362 361 361 360 360 359 360 362 363 364 364 363 362 364 363 364 365 364 365 365 364 364 364 363 364 364 363 363 363 363 363 363 362 363 363 363 363 363 364 362 361 360 360 359 358 357
333 349 355 355 357 356 358 364 363 357 354 356 356 356 355 359 362 363 363 362 361 360 360 362 364 365 365 364 363 363 364 365 365 365 365 364 365 364 365 365 364 364 364 364 364 364 363 364 363 363 362 363 363 363 364 363 363 363 361 360 359 358 357
332 349 353 353 356 357 357 361 365 363 360 357 357 357 358 360 364 366 365 364 362 361 362 364 365 366 366 365 364 364 365 365 366 365 365 365 365 365 365 365 364 365 365 364 364 364 364 364 364 363 363 363 363 363 363 364 364 365 364 363 361 359 358
332 348 352 351 353 356 357 359 360 362 365 363 359 359 359 361 364 366 366 365 363 362 363 365 367 368 368 367 366 366 366 366 366 367 365 364 365 366 366 366 365 366 366 366 365 365 365 364 364 363 363 364 364 364 364 365 365 366 365 365 363 361 359
330 345 352 349 351 354 356 358 359 361 363 363 364 364 363 363 364 365 365 366 364 363 366 369 369 369 368 367 366 366 367 367 366 367 366 366 365 366 367 366 366 367 367 367 366 366 365 365 364 364 364 365 365 365 365 366 366 366 366 366 364 362 360
330 345 351 349 350 351 352 355 358 359 361 361 362 365 366 367 368 368 368 368 365 363 367 369 369 369 368 367 367 368 367 367 366 367 367 367 366 366 368 368 368 367 368 368 367 367 367 366 365 365 365 365 365 366 366 366 366 367 367 366 365 363 360
332 345 349 348 349 350 350 353 355 356 358 359 360 361 363 365 366 367 368 368 366 367 370 369 367 368 368 367 367 368 368 368 367 366 367 368 366 365 365 366 366 367 368 368 368 367 366 366 366 366 365 365 365 366 367 366 366 366 366 365 366 364 362
333 344 346 346 348 348 348 350 352 353 355 357 358 360 361 362 363 364 365 367 368 369 369 369 369 368 368 368 367 367 367 367 365 365 366 368 366 360 358 358 361 363 365 365 366 368 367 366 366 366 365 365 365 364 365 366 365 365 365 364 365 363 362
331 339 342 343 345 347 347 348 349 350 352 354 355 357 359 360 361 362 363 365 368 368 368 369 369 367 367 367 365 364 366 366 364 364 365 367 366 360 355 355 355 358 361 362 363 365 366 365 365 364 364 365 364 363 362 362 363 363 362 363 363 361 359
328 334 337 338 341 345 346 346 347 348 349 351 353 354 355 355 356 358 360 362 365 367 368 370 368 366 366 367 366 366 367 368 366 367 367 368 367 362 359 356 353 351 353 355 359 361 362 363 364 363 363 364 363 362 362 361 361 361 360 359 359 359 359

ECMWFFLT1_925_thetae_057.txt.gz
Theta_e
347 347 351 353 353 354 354 357 360 363 361 362 361 358 358 358 357 359 360 363 366 365 365 365 364 363 362 361 361 360 361 361 362 360 358 356 354 355 358 357 355 353 351 353 353 353 354 354 354 353 356 359 360 359 360 361 361 359 359 359 359 357 356
345 347 351 353 354 354 354 357 361 362 362 362 362 361 359 359 359 360 361 363 366 366 367 366 364 364 363 362 362 362 362 361 361 361 360 359 357 356 357 357 357 354 352 351 352 353 354 356 355 354 356 359 359 360 360 360 361 359 358 359 360 359 359
345 347 351 353 353 351 352 355 358 362 362 362 363 361 361 360 360 361 361 364 366 366 366 366 365 365 364 363 363 363 363 362 362 362 361 360 360 358 357 358 357 356 354 352 352 352 354 356 357 356 358 359 359 358 359 360 360 360 358 359 360 359 359
345 346 348 353 353 352 353 354 357 362 362 362 364 362 361 361 362 362 362 364 365 367 368 367 366 365 364 364 363 363 364 363 362 363 361 360 360 358 357 358 358 357 356 354 352 352 353 355 358 358 358 359 357 357 358 359 359 359 359 359 359 359 359
344 345 348 353 353 354 356 354 357 361 362 362 363 363 362 362 361 362 363 364 365 367 367 367 366 365 365 365 363 363 364 363 362 363 361 359 361 360 359 359 359 357 356 357 355 352 354 356 358 359 359 359 358 357 358 359 358 359 359 359 359 358 358
340 343 346 350 351 353 356 354 356 360 361 361 363 362 363 362 362 362 363 364 366 366 367 366 365 366 366 364 362 362 362 362 362 363 361 361 361 362 361 359 359 358 356 358 356 353 355 356 357 358 359 359 357 355 357 359 358 358 359 360 359 358 356
335 340 344 348 349 352 353 353 354 356 358 360 361 363 362 362 362 362 362 364 365 366 366 366 365 365 366 363 362 362 362 362 363 362 361 361 362 362 362 360 359 358 357 357 357 355 356 358 358 358 358 358 355 354 355 357 358 357 358 359 360 360 358
334 338 343 344 348 349 350 351 354 354 355 357 360 362 363 362 363 362 363 363 364 365 366 365 366 364 365 364 361 362 362 362 363 363 361 361 362 363 363 361 360 359 359 357 357 357 357 359 357 357 358 357 355 354 354 356 357 357 357 359 360 360 358
334 336 340 344 345 347 348 350 353 356 356 356 359 361 362 362 362 362 362 363 364 365 364 364 364 364 365 364 363 362 363 362 363 362 361 361 361 361 361 361 360 360 360 357 356 357 358 359 359 357 358 357 356 356 355 356 358 358 357 358 360 360 359
334 337 338 340 342 346 347 349 354 358 358 358 360 362 362 361 362 362 362 363 363 364 364 363 362 364 365 364 363 363 364 363 363 362 361 360 360 360 359 359 359 361 361 358 356 356 358 359 359 358 359 359 358 358 357 357 360 360 358 357 359 360 360
334 339 342 341 344 346 345 348 356 361 361 362 362 361 361 362 361 361 361 362 363 363 362 363 361 362 365 363 363 363 364 363 362 361 361 360 359 360 358 357 357 358 361 359 355 355 358 360 360 360 362 361 359 360 361 360 361 362 360 357 358 359 361
337 341 343 343 343 342 348 358 364 367 367 365 361 361 362 362 362 362 362 362 361 362 362 361 360 360 364 363 362 363 363 362 362 362 362 360 358 358 358 357 355 357 359 359 357 354 355 359 360 360 363 363 362 362 362 362 362 363 360 357 357 359 360
339 343 345 347 347 346 353 365 366 368 369 363 359 360 362 362 362 361 361 361 361 361 361 360 360 359 362 363 362 363 363 362 362 361 361 361 358 357 357 356 354 355 358 359 358 355 354 357 361 361 363 365 365 363 364 363 364 364 362 359 357 359 359
338 340 344 349 353 353 356 363 364 365 365 362 360 360 360 361 361 360 361 361 361 361 360 361 359 360 363 364 362 363 363 362 361 361 360 361 359 356 357 357 355 354 356 358 359 357 354 355 360 362 363 365 366 364 364 365 364 364 364 363 359 358 359
340 339 341 343 349 352 354 359 364 366 363 363 361 359 358 360 360 359 360 361 361 361 361 361 360 360 362 363 363 363 363 362 361 361 360 361 361 358 357 357 356 354 354 357 359 358 355 354 357 362 363 364 366 365 364 365 364 364 365 365 362 358 358
344 343 343 344 348 352 352 354 360 364 366 365 363 360 360 360 360 360 360 362 361 361 359 360 360 361 362 364 364 364 364 363 362 362 362 362 362 360 359 357 357 355 355 357 360 359 357 355 355 359 362 363 365 365 363 364 363 362 362 364 363 360 357
344 345 343 346 352 355 355 353 355 361 365 366 363 361 359 359 360 360 359 360 360 361 359 361 362 362 363 364 364 365 364 365 364 365 363 363 364 362 360 359 358 358 357 358 361 361 359 357 356 357 360 362 363 363 363 362 360 361 362 361 361 361 360
345 346 344 346 351 354 356 354 354 358 360 362 363 361 359 359 360 360 360 360 360 360 360 361 361 362 363 365 365 366 367 366 366 366 366 365 366 364 363 361 360 360 360 359 362 363 362 360 359 358 358 359 360 362 362 360 359 360 361 359 357 356 358
348 347 346 346 349 354 356 356 357 359 359 360 361 361 359 358 360 361 360 359 359 360 359 361 362 363 363 365 367 367 368 367 367 369 368 368 367 367 365 364 363 363 362 362 363 364 364 363 361 360 360 359 360 361 361 360 359 358 359 359 354 350 351
348 348 348 348 349 352 356 359 361 363 363 362 360 359 359 358 358 360 359 358 359 360 359 359 361 363 365 366 367 369 369 369 369 370 370 369 369 369 367 366 366 365 364 364 365 366 366 365 363 363 362 360 360 362 361 359 358 359 359 357 355 350 347
344 344 345 348 349 351 353 358 362 364 365 364 360 359 358 358 358 359 359 359 360 360 360 360 362 364 365 366 368 369 370 370 370 371 371 371 370 370 369 368 368 367 366 365 365 366 367 365 364 364 363 361 360 361 362 359 357 359 360 358 356 352 351
339 340 341 344 347 350 352 355 359 363 364 364 364 361 357 358 358 357 358 358 360 360 360 361 362 364 365 366 367 369 370 370 371 372 372 371 371 371 371 369 369 368 367 365 365 365 368 366 365 365 365 364 362 361 362 359 358 359 360 359 358 355 355
335 336 339 342 345 349 352 354 358 361 363 363 365 361 356 356 356 357 358 358 359 361 361 361 362 365 366 367 368 369 371 370 371 372 372 372 372 372 371 371 370 369 368 367 364 363 366 367 366 365 366 366 365 363 362 361 360 359 360 360 360 358 357
331 334 337 340 344 348 351 353 357 360 362 363 363 360 355 354 356 357 359 358 359 361 361 361 363 364 366 368 368 370 370 370 371 372 372 372 372 372 371 371 371 370 369 367 364 361 363 365 365 364 365 365 366 365 363 360 360 360 360 360 359 359 358
329 332 336 339 342 346 349 354 358 360 361 362 361 358 354 353 355 357 358 358 359 360 362 362 363 364 367 368 368 370 371 370 371 372 373 373 372 371 372 371 371 370 369 367 365 362 361 361 363 364 363 364 365 366 364 361 359 360 360 360 359 358 359
327 330 333 337 341 345 349 355 358 360 360 360 358 356 351 351 356 358 359 359 358 361 363 363 362 365 368 368 368 371 371 371 371 372 373 373 372 371 371 370 369 370 369 367 365 363 361 360 360 362 363 362 363 364 364 362 360 360 360 360 359 358 358
327 329 332 336 340 343 349 357 358 358 360 360 358 355 350 350 356 359 361 360 360 361 362 361 364 366 368 369 369 371 371 371 372 372 372 373 372 371 370 370 368 369 369 368 365 363 362 360 359 360 361 361 361 361 364 363 363 362 361 361 360 359 358
326 328 331 336 339 343 351 358 358 358 360 360 356 352 352 353 357 362 363 361 361 362 362 362 365 367 369 369 368 369 371 371 371 371 372 372 372 371 370 369 368 368 369 366 364 364 364 362 360 359 359 360 359 360 362 363 363 363 362 362 361 360 358
324 325 330 335 337 343 353 359 358 359 361 358 354 353 353 354 359 363 363 362 361 361 361 363 366 367 369 370 369 369 370 372 371 372 371 372 371 370 369 369 367 368 368 367 365 365 365 365 363 361 360 360 359 360 362 363 363 363 362 362 362 361 359
323 325 329 333 335 343 354 360 359 361 363 358 355 354 353 354 360 364 363 362 362 362 362 364 366 368 370 369 368 369 371 372 372 371 370 371 371 370 369 370 368 368 368 368 366 366 366 367 367 365 362 361 360 360 361 363 365 364 362 362 362 361 360
322 324 328 331 335 345 357 361 360 361 362 360 356 354 355 355 359 364 365 363 362 362 364 366 367 370 371 370 369 370 371 371 371 371 370 371 371 370 370 369 368 368 369 368 367 366 367 367 367 366 365 363 362 362 362 363 365 365 364 363 362 362 361
322 324 327 331 338 350 359 360 360 359 362 362 358 355 356 357 360 363 363 363 364 363 365 366 368 370 371 370 369 370 370 370 371 370 371 370 371 371 370 370 369 369 369 369 368 367 367 367 366 366 365 364 364 364 364 364 365 365 366 365 363 362 361
321 324 327 332 342 353 358 359 361 361 363 366 364 361 358 357 359 363 364 365 364 364 365 367 369 370 371 370 369 370 370 370 370 369 369 370 370 370 369 369 368 368 369 368 367 366 366 366 365 365 365 365 365 365 365 365 365 365 367 365 363 362 362
322 324 328 332 342 352 356 358 362 363 364 367 367 368 367 363 361 363 365 366 364 363 366 369 370 370 371 370 369 369 370 369 370 369 368 369 368 368 368 368 367 367 367 367 366 366 365 365 365 365 364 365 365 365 366 366 366 366 367 366 364 363 362
322 325 328 331 338 348 352 355 359 361 362 364 365 367 369 369 368 366 366 365 364 364 368 371 371 371 370 370 369 369 369 369 369 367 367 367 366 364 364 366 366 366 367 367 365 365 366 365 365 365 364 365 365 366 367 368 368 368 368 368 367 364 362
323 324 327 328 334 344 350 352 355 358 360 361 363 364 365 366 368 369 368 366 365 365 369 372 371 370 371 370 370 369 369 368 367 366 367 368 365 360 358 360 363 365 366 367 367 366 365 366 366 366 365 364 366 366 366 368 367 367 367 368 367 365 363
323 324 325 326 332 342 349 350 352 355 357 358 360 361 361 363 364 366 368 367 366 367 369 370 370 370 370 369 367 367 368 366 364 365 366 368 365 359 357 357 358 361 363 365 366 366 364 365 365 366 364 366 366 364 364 366 367 368 367 367 367 365 364
322 322 324 326 330 338 347 349 350 353 353 354 355 356 357 359 361 362 365 367 366 367 369 370 370 368 368 368 366 366 368 367 365 367 367 368 367 364 362 360 358 356 357 360 364 365 365 364 364 364 365 366 366 364 363 364 366 366 366 365 365 365 365

ECMWFFLT1_925_thetae_063.txt.gz
Theta_e
354 354 354 354 355 353 354 354 350 350 350 353 354 353 353 353 354 355 356 355 354 354 355 355 357 357 353 351 350 349 347 346 345 343 345 347 345 341 341 341 343 344 347 350 351 351 353 355 356 357 358 356 358 359 356 358 357 355 357 355 355 357 355
354 354 354 354 355 354 354 353 352 351 351 353 355 354 354 353 355 356 357 357 355 355 355 355 357 357 355 352 350 350 348 346 346 344 343 345 346 344 341 340 341 343 345 346 348 351 352 354 355 356 358 355 355 358 358 358 357 357 357 355 355 357 356
353 354 354 354 356 356 354 353 352 351 351 353 355 356 355 354 355 356 357 358 357 356 356 355 357 357 356 353 352 350 350 347 346 346 344 344 344 345 343 340 340 341 343 344 345 348 351 354 355 355 356 355 354 356 358 359 358 357 358 357 355 356 356
353 353 353 354 357 356 356 355 353 352 352 354 356 356 356 355 355 356 357 359 358 358 357 356 356 357 356 354 353 351 351 349 348 346 344 343 342 344 345 344 341 340 343 345 344 344 348 353 355 354 356 355 354 354 356 359 359 358 358 358 357 355 355
353 352 353 356 357 357 358 357 355 354 353 355 356 356 356 355 355 355 357 358 359 358 358 357 356 356 356 355 353 352 351 350 348 346 344 343 342 343 345 347 346 344 343 345 347 345 346 350 353 354 355 356 355 354 356 359 359 358 358 359 358 355 355
352 353 354 355 357 357 358 357 357 356 354 355 357 357 356 356 355 356 356 359 359 359 359 358 357 357 357 355 353 352 352 351 349 347 346 345 343 342 345 347 348 347 346 346 349 349 349 348 350 354 354 355 355 355 356 359 360 359 358 358 359 356 355
352 354 356 356 357 357 358 357 357 356 356 355 357 358 357 356 356 356 357 359 360 360 360 358 358 357 357 356 354 353 352 351 350 348 347 345 344 343 343 345 348 349 349 349 350 351 352 351 350 351 354 355 355 355 355 358 360 359 358 358 359 357 357
353 354 356 357 356 356 357 357 357 356 356 357 357 358 358 357 356 356 357 359 361 361 361 360 359 358 357 357 356 354 353 352 351 350 349 346 345 345 343 343 346 349 352 352 352 351 352 353 352 351 352 354 355 355 356 358 359 360 359 359 359 358 357
353 355 355 356 355 355 356 356 356 356 356 357 359 358 358 357 357 357 358 359 361 362 361 361 360 359 358 359 357 356 354 353 352 351 351 348 348 347 345 344 345 348 352 353 354 352 352 353 353 353 353 354 354 355 357 359 359 359 360 359 358 357 357
353 354 354 355 353 353 355 356 357 357 358 358 359 359 359 358 357 358 358 360 361 363 363 362 361 360 360 359 359 358 355 354 353 352 352 351 349 349 349 347 347 349 351 352 354 354 352 352 354 354 354 354 354 355 356 358 359 358 359 359 358 356 355
353 353 354 353 352 355 357 357 359 359 358 358 358 358 358 358 358 357 358 359 360 363 364 364 363 362 362 361 360 360 358 356 355 354 354 353 352 351 351 351 350 350 351 353 354 355 354 352 353 355 355 355 355 355 356 358 358 357 358 358 357 356 355
354 355 355 353 353 356 357 357 360 360 359 357 357 358 358 358 358 357 356 357 358 361 363 364 364 365 364 363 361 361 359 358 357 355 355 355 354 353 353 354 353 352 353 354 354 355 355 353 353 355 355 356 356 356 356 358 358 357 356 356 357 357 357
354 354 354 356 356 356 357 358 358 359 359 358 357 358 359 358 358 357 358 357 357 358 361 362 364 365 365 364 363 361 360 359 358 357 356 355 354 354 354 355 355 354 354 355 355 356 356 355 353 354 355 356 356 357 357 357 358 357 356 356 357 357 358
352 350 352 354 357 359 360 359 361 361 358 356 358 359 358 358 358 358 358 357 357 358 359 362 364 365 365 365 364 363 361 360 360 358 357 356 355 353 354 354 355 355 355 356 356 356 357 356 355 354 355 356 356 357 357 357 357 357 357 356 356 357 359
347 347 348 351 354 358 359 357 360 368 366 358 356 358 358 359 359 358 358 358 357 358 359 360 363 365 366 366 365 364 362 361 361 360 358 356 355 355 354 354 355 356 356 356 356 356 356 356 356 355 355 356 357 357 358 358 357 357 357 356 355 356 358
344 345 346 348 351 355 356 354 354 361 364 359 357 357 357 358 358 358 358 358 357 358 359 360 361 364 365 366 365 365 363 362 361 360 359 358 356 355 355 355 356 357 357 357 357 356 357 357 356 355 356 356 357 357 358 358 358 357 356 356 356 356 356
341 342 342 344 347 348 350 352 353 355 357 356 355 356 355 356 357 357 357 357 357 358 358 359 361 363 365 365 366 365 364 363 361 361 360 359 357 355 355 355 355 357 358 358 357 357 356 356 357 357 356 357 357 358 358 359 358 357 356 355 355 355 356
338 338 339 340 342 344 344 346 349 352 352 352 353 353 354 355 356 355 356 356 356 356 355 356 358 361 364 366 366 366 365 363 363 361 360 359 358 356 355 356 356 357 359 359 359 358 357 356 356 356 357 357 358 359 359 359 359 358 356 355 355 355 355
335 335 335 336 337 340 342 343 345 347 349 351 352 352 354 355 353 354 356 356 356 356 356 355 355 356 360 363 366 367 366 364 362 361 360 359 359 358 356 356 357 358 359 359 359 359 357 356 356 357 358 358 358 359 359 358 359 359 357 356 355 355 355
333 332 332 333 333 335 338 340 341 343 345 349 351 350 353 355 354 354 353 355 357 357 356 357 357 356 355 357 362 366 366 364 362 362 361 360 359 358 357 358 358 358 358 359 359 359 358 357 357 357 358 358 358 360 359 359 359 358 358 358 357 356 356
331 330 330 331 331 332 335 336 338 340 341 344 347 348 350 354 357 356 353 353 356 357 357 357 356 356 357 357 360 365 366 364 363 363 362 361 360 360 358 358 359 359 358 358 359 359 359 358 357 357 358 358 359 359 360 361 360 359 359 359 358 358 357
328 328 329 329 329 330 333 334 335 337 338 341 343 346 348 352 355 357 355 355 356 356 357 356 356 357 357 358 360 364 366 364 364 363 362 361 361 361 359 359 358 359 359 358 359 359 359 358 358 357 357 359 359 359 360 361 361 361 361 361 360 360 359
326 326 327 327 328 329 330 332 333 334 336 338 341 344 347 351 355 357 358 357 356 356 356 355 356 357 356 357 360 364 367 365 364 364 363 363 362 362 361 360 359 359 359 359 359 359 360 359 358 358 357 358 360 360 360 361 362 363 362 362 362 362 362
324 325 326 325 327 327 328 329 330 332 335 337 339 342 346 350 353 356 359 359 358 356 356 356 356 357 356 358 361 365 367 365 364 365 363 363 363 362 362 361 360 360 360 359 359 359 359 359 359 358 357 357 358 360 361 362 361 362 363 363 363 363 363
323 323 324 324 325 326 326 328 329 331 333 335 337 340 343 347 351 354 357 360 360 357 356 355 357 357 358 359 362 365 367 365 365 365 363 364 363 363 363 362 360 360 360 359 359 358 358 360 359 359 358 357 357 358 359 362 362 362 363 363 362 362 362
322 322 323 323 324 324 325 326 328 330 331 333 335 337 340 344 350 354 357 360 360 359 357 355 355 356 357 359 363 366 367 366 366 365 364 364 364 363 363 363 361 361 359 360 360 357 358 359 359 359 358 358 358 357 357 359 360 361 361 361 361 362 362
322 321 322 322 322 324 325 325 327 328 329 331 333 334 337 341 347 353 358 360 361 361 359 356 354 353 354 357 362 366 367 367 367 365 365 365 364 364 364 364 362 361 360 360 360 358 358 359 359 359 359 359 359 358 357 357 358 359 360 359 359 360 360
321 321 322 321 321 323 324 325 326 326 327 328 330 332 335 339 344 351 356 360 362 362 362 361 358 354 352 355 362 366 368 368 367 367 366 365 365 365 364 364 363 363 361 361 360 358 357 358 360 361 360 360 360 359 360 359 358 358 359 359 358 359 359
321 322 322 321 321 322 323 324 324 325 326 327 329 331 334 337 342 349 355 360 361 362 362 363 361 356 354 356 364 367 367 368 368 367 367 367 366 365 365 365 364 363 362 362 360 359 359 359 360 362 362 362 362 361 361 360 359 359 358 358 359 358 359
321 322 322 322 321 322 323 323 324 324 325 326 328 330 333 336 340 346 353 360 363 364 364 364 362 359 356 356 362 367 368 369 369 369 367 367 367 367 366 366 365 364 363 363 361 361 360 359 361 363 363 363 363 363 362 361 361 360 359 358 358 358 359
321 321 322 322 322 322 322 323 323 323 324 326 327 330 332 335 339 344 352 361 368 370 369 367 364 360 357 357 361 365 368 369 369 369 369 369 369 368 367 367 367 366 365 364 363 361 360 360 361 362 364 363 363 363 362 362 362 362 361 360 359 358 358
320 321 322 322 322 322 323 322 322 322 324 326 327 330 331 334 337 342 351 361 369 371 372 370 366 360 358 359 361 363 367 369 370 371 370 370 370 369 369 368 369 368 366 365 364 363 361 361 360 360 362 362 362 363 362 362 363 363 363 362 361 360 358
320 321 321 321 322 323 322 322 322 323 325 327 329 330 332 334 337 342 350 360 367 370 371 371 367 362 361 362 363 364 367 369 370 371 371 372 371 371 370 370 370 369 368 367 366 365 363 362 361 360 359 361 361 362 362 362 363 363 364 363 362 362 361
320 320 320 321 322 322 322 322 322 324 326 328 330 331 333 336 340 345 353 362 367 368 370 372 369 363 362 364 365 366 367 369 370 371 370 371 371 371 372 371 370 370 369 369 368 367 365 364 363 360 359 359 359 361 361 361 362 363 363 363 363 362 362
320 320 321 322 322 322 321 322 323 325 327 329 330 333 337 340 344 350 357 362 366 367 369 372 369 366 365 365 367 368 368 369 370 371 371 371 372 372 371 371 372 371 370 370 369 368 367 365 364 362 360 359 357 358 360 360 361 362 362 360 360 361 362
320 320 321 321 321 321 321 321 323 325 328 331 333 336 340 342 346 353 359 361 363 365 367 370 371 368 366 367 368 367 369 369 370 370 370 370 370 371 372 371 371 371 371 370 370 370 368 367 365 363 362 360 358 357 358 359 359 360 360 360 359 359 360
320 321 321 321 320 320 320 321 323 326 329 331 334 337 340 340 345 352 356 358 360 362 364 367 370 369 367 368 369 368 369 370 370 371 371 372 372 371 370 367 366 368 370 370 370 370 370 368 366 364 362 361 360 358 357 357 357 359 359 360 360 359 359
321 321 320 319 319 320 320 321 324 327 329 330 332 335 336 338 342 346 349 353 358 360 359 362 367 370 369 367 367 366 366 366 365 365 365 367 368 368 366 363 361 362 364 366 369 370 370 369 367 365 364 362 361 360 359 358 358 358 359 360 360 361 360

ECMWFFLT1_925_thetae_066.txt.gz
Theta_e
353 354 352 352 353 351 352 349 348 349 348 348 348 347 346 346 346 346 347 348 348 349 349 350 351 349 350 350 348 346 345 345 346 346 343 342 342 341 341 341 340 341 345 348 349 350 351 353 357 358 358 359 359 356 354 355 356 356 356 356 355 355 354
354 354 353 351 353 352 351 349 348 349 350 349 349 348 347 347 347 347 347 348 348 348 349 349 351 351 349 350 350 348 345 344 346 345 344 343 342 342 341 341 341 340 342 346 347 347 348 350 354 357 357 358 359 356 354 355 355 355 356 356 356 356 356
354 355 353 351 352 352 352 350 347 349 349 350 349 349 348 348 348 348 347 348 349 349 349 350 350 350 349 349 350 350 347 344 345 345 344 344 342 342 343 343 342 340 341 344 345 347 347 348 350 353 356 357 357 356 356 356 356 355 355 356 356 356 356
354 355 353 352 353 353 352 350 348 349 349 350 350 350 350 349 349 350 349 349 349 349 350 350 351 351 350 349 349 349 349 345 344 344 344 344 343 342 342 344 344 342 342 343 344 345 347 348 348 350 353 355 355 356 358 358 356 356 355 355 356 356 356
355 354 352 352 353 352 353 350 348 348 349 350 351 350 351 350 350 350 351 350 350 350 350 351 351 352 351 350 349 348 349 348 345 344 343 344 344 343 342 342 343 343 342 342 343 344 346 348 347 349 352 354 355 355 357 358 357 357 356 355 356 356 357
355 353 353 353 351 353 352 351 350 349 349 350 351 350 351 351 351 351 352 352 350 351 351 351 352 353 353 351 350 349 349 348 347 345 343 343 345 346 344 342 340 340 341 342 343 344 345 347 347 349 351 353 354 355 356 356 357 358 357 356 355 355 356
354 353 353 353 352 352 352 352 350 349 349 349 351 352 351 351 352 352 353 353 353 352 352 352 352 353 354 353 352 350 349 348 348 346 345 343 343 345 345 343 341 339 339 340 342 343 344 346 346 346 349 353 354 354 355 355 355 357 358 357 356 355 355
352 353 352 352 352 352 352 351 351 351 350 350 350 352 352 352 353 353 353 354 354 354 352 353 353 353 354 354 353 352 350 349 348 347 346 344 344 344 343 344 342 340 340 339 339 340 341 342 342 343 346 351 354 354 355 354 354 355 357 358 357 356 355
351 351 351 351 351 352 353 351 351 351 350 350 351 352 352 352 352 353 354 354 355 355 353 354 353 353 354 355 354 354 352 350 350 348 347 345 345 344 342 343 343 342 343 341 340 339 340 340 340 340 344 348 352 354 355 355 354 354 356 358 358 357 357
357 353 352 351 350 352 354 353 352 352 351 350 351 353 353 354 353 353 354 355 356 356 355 355 354 354 354 354 354 354 353 352 351 350 348 346 345 344 343 342 343 343 344 343 342 341 341 341 340 340 343 347 350 353 354 355 355 354 355 356 357 357 356
358 358 357 354 354 354 354 356 356 354 353 352 351 353 354 354 354 353 354 355 356 356 356 355 355 355 354 354 355 354 353 353 352 350 350 348 347 346 344 343 342 343 344 344 345 344 343 343 343 344 346 347 349 352 353 355 355 354 354 355 356 357 356
351 354 355 355 355 356 354 356 358 355 354 352 352 353 355 355 355 354 354 354 356 357 358 357 357 356 355 355 355 354 354 353 352 351 351 349 349 347 345 344 343 342 343 345 346 346 346 346 346 347 349 350 350 350 351 353 355 355 355 355 356 358 357
345 345 346 347 348 348 350 350 351 353 354 355 353 353 354 355 355 355 355 354 355 357 357 358 357 357 356 356 356 355 354 354 352 351 351 350 349 348 347 345 344 343 342 344 346 347 348 348 348 349 350 351 351 351 351 352 354 355 355 355 356 358 359
339 339 340 342 342 343 345 347 348 349 349 352 355 354 355 356 355 355 355 354 356 358 358 358 358 358 358 357 356 356 355 355 353 352 351 351 350 349 348 346 345 344 343 343 345 347 348 349 349 349 350 351 352 352 352 352 353 354 354 355 356 357 358
335 335 336 337 339 340 341 343 345 347 348 349 351 351 353 355 356 356 356 355 356 358 359 359 359 359 358 357 357 357 357 356 355 354 352 352 351 351 349 348 347 346 345 344 344 346 348 349 349 350 351 352 352 353 354 354 354 354 354 355 356 356 358
333 332 333 333 335 337 337 339 341 344 347 349 349 350 351 352 354 355 356 355 356 358 359 360 360 360 360 359 359 359 357 357 357 356 354 353 353 351 351 350 349 348 347 347 346 346 348 349 350 351 351 351 353 353 354 354 354 354 354 354 354 355 357
332 331 331 331 333 333 335 336 336 339 342 345 347 349 349 351 353 353 353 355 356 356 358 361 361 362 362 361 361 359 357 355 357 358 357 356 354 354 352 352 351 350 349 350 349 349 349 350 351 352 352 352 353 354 354 354 354 354 354 354 354 354 356
331 330 328 330 332 333 334 335 334 335 338 339 341 344 346 349 351 351 351 353 354 356 357 359 360 362 362 362 361 360 360 358 357 358 359 358 356 356 354 353 352 351 351 351 352 351 351 352 352 353 353 353 353 354 355 355 355 354 354 354 354 354 355
329 328 327 327 328 330 332 333 333 333 334 336 337 339 342 345 348 349 350 352 353 353 355 357 358 360 360 360 360 360 360 360 359 358 359 360 359 357 356 355 354 352 352 352 352 352 352 353 353 353 354 354 353 353 354 355 355 354 354 355 354 354 354
327 325 326 325 325 326 329 330 330 331 331 333 335 337 339 342 346 348 350 352 353 352 353 354 357 358 359 359 360 359 359 359 359 358 359 360 360 358 358 356 355 354 353 352 353 353 354 354 354 354 354 354 354 354 354 354 355 355 355 355 355 354 354
326 324 324 324 324 325 326 327 328 329 330 331 333 335 337 340 343 346 349 351 352 352 352 353 353 356 356 356 358 357 357 357 357 357 359 361 361 360 358 357 356 355 353 353 353 354 354 355 354 355 354 354 354 355 354 354 355 355 355 355 355 355 355
325 323 323 324 324 324 325 326 326 327 329 331 331 333 335 337 339 340 344 348 351 351 351 352 352 354 355 355 355 356 356 357 356 357 359 361 361 360 359 359 357 355 355 354 354 354 355 355 355 355 355 354 355 355 355 355 355 355 355 355 355 355 356
324 323 322 322 323 323 324 324 325 327 328 329 330 331 332 334 336 337 339 344 350 353 352 352 352 354 355 355 356 356 356 356 355 357 359 361 362 360 360 359 358 356 356 354 354 355 355 356 356 356 355 355 355 355 356 355 355 355 355 355 356 357 356
323 322 321 321 322 322 323 323 325 326 327 327 328 329 329 331 333 335 337 341 347 352 355 354 354 355 356 356 355 356 356 356 356 357 360 361 362 361 360 359 358 358 357 355 355 355 355 357 356 356 356 356 355 356 356 356 356 356 356 355 356 357 357
323 322 321 321 321 321 322 323 323 324 325 325 326 327 328 329 331 334 336 340 344 348 354 356 356 356 356 356 356 356 356 356 357 358 360 363 362 362 361 360 360 359 357 356 356 355 356 357 357 357 357 356 355 355 356 356 356 356 356 356 356 357 358
323 321 321 320 321 322 322 322 322 323 323 324 325 325 327 329 331 333 335 337 340 345 351 356 357 357 357 356 356 356 356 356 358 359 361 363 363 362 361 361 360 359 358 357 356 356 356 356 357 357 357 357 356 356 356 356 356 356 357 357 356 357 357
322 321 320 320 320 321 321 321 322 322 322 323 323 324 326 328 330 332 334 336 338 342 347 353 357 358 359 357 356 356 356 357 357 359 362 363 363 363 362 362 360 360 359 358 357 356 356 356 357 358 358 357 357 356 356 356 356 356 357 357 357 358 358
321 321 320 320 320 320 321 322 322 322 322 322 322 324 326 328 330 331 334 335 337 339 342 347 352 357 362 362 359 356 356 356 357 360 362 364 363 363 363 362 361 360 360 359 358 357 357 357 356 357 358 357 357 357 357 356 357 357 357 358 358 358 359
321 321 321 320 320 320 320 321 321 322 322 322 322 324 326 328 330 331 333 335 337 338 340 343 348 356 363 365 364 360 357 355 357 360 362 363 364 363 363 362 361 361 360 359 358 358 357 357 357 357 357 357 357 357 357 356 356 357 358 358 359 359 360
320 321 320 320 320 320 319 320 321 322 322 322 323 324 327 329 330 331 333 335 336 338 340 343 348 355 362 367 367 365 361 357 357 359 362 363 364 364 363 362 362 361 361 360 359 358 357 357 357 356 357 357 357 357 357 357 356 356 357 358 359 359 360
319 320 320 320 320 319 319 320 321 321 321 322 323 325 327 330 331 332 333 335 337 338 341 344 347 354 361 366 367 367 365 361 358 359 362 363 364 364 364 363 363 362 361 361 359 358 358 358 357 356 357 357 357 357 358 358 357 357 357 357 357 358 359
319 319 320 320 319 319 319 320 320 320 321 322 323 326 328 330 332 334 336 337 339 341 343 346 349 355 362 365 367 367 367 364 361 359 362 363 364 364 364 363 363 362 362 362 360 359 358 358 357 357 357 357 357 358 358 358 357 357 357 356 356 356 356
318 319 319 319 319 320 320 320 320 320 321 321 323 326 328 330 333 335 336 337 340 343 347 350 353 358 363 365 365 366 366 365 363 361 363 365 364 364 364 364 363 363 362 362 361 360 359 358 358 357 357 357 357 358 358 358 359 359 358 358 358 357 357
318 319 319 320 319 320 320 320 319 319 320 321 323 326 327 329 332 333 334 336 339 343 348 353 357 360 362 363 363 365 365 365 363 362 364 365 366 365 365 364 364 363 362 362 362 361 360 359 358 358 357 357 357 358 359 359 359 359 359 359 358 359 358
318 319 319 320 319 320 320 319 318 319 320 321 323 325 326 327 330 331 332 334 338 341 344 348 354 359 359 360 362 364 366 365 362 361 363 365 366 366 366 364 364 364 363 363 363 362 362 361 360 359 358 358 357 358 359 359 360 360 360 360 359 360 359
318 319 319 320 319 319 319 318 318 319 320 321 324 325 325 326 329 330 330 332 335 337 340 342 348 354 357 358 361 363 366 365 363 361 363 366 367 366 364 362 363 364 365 364 364 362 362 362 361 360 360 359 358 358 358 359 360 360 360 360 360 360 359
318 318 319 320 320 319 318 317 318 320 320 322 324 324 324 326 328 328 329 330 331 334 336 339 344 350 355 357 358 361 364 365 363 361 363 366 366 364 361 361 364 365 366 366 366 365 364 363 362 361 361 360 359 358 358 358 358 359 360 361 361 361 360
318 319 320 320 320 319 317 317 319 320 321 322 324 324 324 326 327 327 328 329 329 330 333 336 341 348 353 355 356 359 361 363 364 364 364 363 363 363 363 364 365 365 365 365 366 367 366 365 365 364 362 362 361 360 359 358 358 358 359 359 360 361 361

ECMWFFLT1_925_thetae_069.txt.gz
Theta_e
353 353 352 351 351 349 349 348 346 345 344 343 344 344 343 343 344 346 347 347 347 348 348 347 348 349 348 348 347 348 348 347 346 345 344 345 344 345 345 345 346 346 347 347 346 346 346 351 356 357 355 356 356 356 355 355 355 356 355 355 355 354 354
354 353 353 351 351 351 349 348 346 346 345 344 344 343 343 343 344 345 346 347 347 347 348 347 348 348 348 348 347 347 347 347 347 345 344 344 344 345 344 343 344 343 343 344 345 345 345 347 353 356 357 356 357 357 356 354 354 354 355 356 356 355 355
355 353 353 352 351 351 350 347 346 347 345 345 344 343 343 343 344 345 346 346 347 347 348 348 348 348 348 348 348 347 347 347 347 345 344 343 343 343 343 342 342 341 341 342 343 345 346 346 349 354 357 356 356 357 357 356 354 353 355 355 356 355 355
356 354 352 352 352 351 351 349 346 347 346 345 345 344 343 343 343 344 345 347 347 347 348 348 348 348 348 349 348 348 347 347 346 346 345 344 343 343 342 342 342 342 341 341 340 341 344 346 347 351 355 355 356 356 357 357 355 353 354 355 356 355 355
355 355 352 353 352 350 351 349 346 347 347 346 346 344 343 343 344 344 344 346 347 347 347 348 348 348 348 348 348 347 347 346 346 346 346 345 345 345 344 342 341 342 342 340 340 339 341 345 346 348 352 353 355 356 356 357 355 354 355 355 356 355 355
355 355 354 353 351 351 351 350 348 347 347 347 347 346 345 343 344 344 344 345 346 346 347 348 348 348 349 348 348 348 347 346 345 345 346 346 346 346 345 343 342 342 341 340 340 339 339 342 345 347 348 350 353 354 354 355 354 354 355 356 356 355 355
355 354 354 353 351 351 350 349 349 347 347 348 347 347 346 344 344 344 344 345 346 347 346 347 348 348 349 348 348 348 348 347 346 344 345 345 345 345 345 344 342 342 341 341 341 341 340 341 343 345 346 348 350 351 351 352 353 353 354 356 356 356 356
355 354 354 353 351 351 350 350 350 347 348 348 347 348 347 346 346 345 345 345 345 347 346 347 347 348 349 348 348 348 347 347 347 345 345 344 344 345 345 344 343 342 342 342 342 342 342 341 342 344 345 346 347 348 349 350 351 352 354 355 356 356 356
351 353 353 353 350 351 349 349 350 348 348 348 348 348 348 347 347 346 347 346 346 347 347 347 347 347 348 349 348 348 347 347 347 347 346 345 343 344 344 345 344 342 342 342 343 343 343 342 342 342 344 345 346 347 348 348 349 351 353 354 355 356 356
343 346 349 352 355 358 355 351 350 348 348 348 348 349 348 348 348 347 347 347 347 347 347 347 348 347 348 349 348 349 348 348 347 347 347 346 344 344 343 344 344 344 343 342 342 342 342 342 342 342 344 345 346 347 348 348 348 350 352 353 354 354 354
337 338 341 343 348 354 356 357 357 352 349 347 348 349 349 349 349 349 349 348 348 348 348 348 348 348 349 349 350 350 349 348 348 347 347 346 346 344 343 343 343 344 344 344 343 342 341 341 341 341 343 344 345 346 347 348 348 349 351 352 353 354 353
333 333 336 336 338 342 344 348 350 349 351 350 348 348 349 350 350 349 350 350 350 350 349 349 349 349 350 350 351 351 350 350 349 348 348 347 346 345 344 343 342 342 343 344 344 343 342 341 340 340 341 341 343 344 344 345 346 348 349 351 353 354 353
330 330 332 332 334 335 336 339 341 344 347 350 351 350 348 350 350 350 350 350 351 351 351 350 350 350 351 350 351 352 351 351 350 349 349 347 347 346 345 344 343 342 342 342 343 344 343 343 341 340 340 340 340 341 341 342 344 346 349 350 352 354 354
328 328 329 329 330 332 332 334 334 337 340 342 346 351 351 352 351 350 351 350 351 353 352 352 352 351 351 351 351 352 352 352 352 351 350 349 349 348 347 346 344 343 343 342 342 343 343 344 343 342 342 341 341 341 340 341 343 345 348 350 352 354 354
326 326 327 327 328 329 330 331 331 333 335 336 339 343 347 352 353 353 353 351 352 353 353 354 353 352 352 352 352 352 352 352 352 352 351 350 350 349 348 348 346 345 344 343 343 342 342 343 344 344 344 343 343 343 343 344 344 345 348 349 351 353 354
325 325 325 325 327 327 328 329 330 331 332 333 335 338 341 346 350 352 354 354 353 353 354 355 355 354 354 353 353 353 352 353 353 352 352 352 351 351 350 349 348 347 346 344 343 343 342 342 343 344 345 345 345 345 345 346 346 346 347 349 350 352 353
324 324 324 325 325 326 326 327 328 329 330 331 333 335 337 341 346 349 352 353 353 353 354 355 355 355 354 354 354 353 353 354 353 353 353 352 351 351 350 350 349 348 347 346 345 344 343 343 343 344 345 346 346 346 347 347 347 347 348 349 350 351 352
324 323 323 324 324 325 325 325 326 328 329 330 332 333 334 338 342 345 348 351 352 351 352 354 354 354 355 354 354 354 354 354 354 354 354 353 352 352 351 351 350 349 348 347 346 345 344 343 343 343 344 346 347 347 347 347 347 348 349 350 351 352 352
323 322 322 322 323 324 324 324 325 326 327 329 331 331 332 335 336 338 342 348 350 349 349 351 352 353 354 355 354 354 355 355 354 354 354 354 353 352 352 351 350 350 349 348 348 347 346 345 344 344 344 345 346 347 347 347 347 348 349 350 351 352 352
323 322 322 321 321 322 323 323 324 325 325 327 328 329 330 332 332 334 337 343 347 348 349 350 352 352 354 355 355 355 356 356 355 354 354 355 355 354 353 352 351 351 350 349 349 348 347 347 346 345 345 345 346 347 347 347 348 348 349 350 350 352 352
324 323 321 320 320 321 321 322 323 323 324 326 326 326 328 329 330 332 334 337 342 347 349 350 351 352 354 355 355 355 356 356 356 355 355 356 356 356 355 354 353 352 351 351 350 349 349 349 348 348 347 347 347 347 347 348 348 348 349 350 351 352 352
325 324 323 321 320 320 321 322 322 322 324 324 324 325 326 326 327 330 332 335 338 343 347 350 350 351 352 354 355 355 355 356 356 356 356 356 356 356 356 356 355 354 353 352 352 351 351 350 350 349 349 349 349 349 349 349 349 350 350 350 351 352 353
325 325 323 322 321 320 320 321 321 322 323 323 323 323 324 324 326 328 330 334 337 339 343 347 350 351 351 352 353 354 354 355 355 356 357 356 356 356 357 357 357 356 355 354 353 352 352 352 351 351 351 350 351 351 351 351 350 351 351 351 351 352 353
324 324 323 322 321 320 320 320 321 322 322 322 322 322 323 323 324 327 330 333 335 337 339 342 347 351 352 352 352 353 353 354 354 356 357 357 356 356 357 357 358 357 356 356 355 354 353 353 352 352 352 352 352 351 352 351 351 352 352 352 352 353 353
323 323 322 321 321 321 320 320 320 321 321 321 322 322 322 323 324 326 329 332 334 335 337 340 343 347 350 352 353 353 353 353 354 355 356 356 357 357 357 358 358 358 358 357 356 355 354 354 353 353 353 352 352 352 352 352 352 352 352 352 353 353 353
321 321 321 321 321 321 320 320 320 320 320 321 322 322 322 323 324 326 328 331 333 335 337 338 340 342 344 347 350 353 354 354 354 355 355 355 356 356 357 358 359 359 358 358 357 356 356 355 354 354 353 353 353 353 353 353 352 353 353 353 353 353 354
319 320 320 320 320 321 321 320 319 319 319 320 321 321 322 323 324 327 329 330 332 334 336 337 338 339 341 343 346 351 355 356 355 355 355 355 355 356 357 358 359 359 359 358 358 357 356 356 355 354 354 354 354 353 353 353 353 353 353 353 353 353 354
317 318 319 319 320 320 321 320 320 319 319 320 320 321 321 322 324 327 329 331 332 334 335 336 337 339 341 343 345 349 355 359 358 356 356 355 355 356 356 358 359 359 359 359 358 357 357 356 355 355 355 354 354 354 354 354 354 354 353 354 354 354 354
316 317 318 319 319 320 320 321 320 320 319 319 319 320 320 322 325 327 329 331 332 333 335 336 338 340 341 343 345 348 354 360 360 356 354 356 356 356 357 358 359 360 359 359 359 358 357 357 356 356 355 355 355 355 355 354 355 355 355 354 354 354 355
315 316 316 317 318 319 320 320 320 320 320 319 319 320 320 322 324 327 329 330 331 333 335 336 338 341 343 345 347 349 354 361 361 355 354 355 356 356 358 359 359 360 360 359 359 358 357 357 356 356 355 355 355 355 355 355 355 355 355 355 355 355 355
314 315 315 316 318 318 319 320 320 320 320 319 318 319 320 321 324 326 327 328 329 331 333 335 338 342 345 347 349 351 355 361 363 361 360 360 358 356 357 359 360 361 360 360 360 359 358 358 357 356 356 356 355 355 355 355 356 355 355 356 356 355 355
313 314 315 316 317 318 319 319 320 320 320 319 318 319 320 321 323 325 325 326 328 330 331 334 338 342 345 347 350 354 358 361 361 361 362 363 361 358 358 359 360 361 361 360 360 359 358 358 357 357 356 356 355 355 355 355 356 356 356 356 356 356 356
313 313 314 315 315 317 318 319 319 319 319 319 318 319 320 321 322 324 324 325 327 329 330 333 336 340 342 344 347 354 358 359 358 359 361 363 363 361 360 360 361 361 361 361 360 360 359 358 357 357 356 356 356 356 355 355 355 356 356 356 356 356 356
312 312 313 313 314 316 317 318 319 319 319 318 318 319 320 321 322 323 323 324 326 328 329 331 334 337 339 341 344 350 354 356 356 358 360 362 363 362 361 361 362 361 361 361 361 360 360 359 358 358 357 357 357 356 356 355 355 356 356 355 355 356 356
311 311 312 313 314 316 317 318 319 319 318 318 318 319 320 321 321 323 323 324 325 327 328 329 331 334 337 339 343 347 352 354 355 357 358 361 362 363 362 362 362 362 362 362 362 361 361 360 359 359 358 358 357 356 356 356 356 356 356 356 356 356 356
310 311 312 313 315 316 317 318 319 319 318 317 318 319 321 321 322 323 323 324 325 326 327 328 329 331 335 339 342 347 351 352 353 354 356 358 360 362 362 362 362 362 362 362 362 361 362 361 360 360 360 359 358 358 357 357 357 357 356 356 356 356 356
310 311 312 314 315 316 318 318 319 319 318 317 317 319 321 322 323 323 323 323 324 325 326 326 327 330 333 337 340 345 349 350 351 352 354 356 358 361 362 362 362 362 362 362 362 362 362 362 361 361 360 360 359 358 358 357 358 357 356 356 357 357 356
310 312 313 315 317 318 319 319 319 320 318 316 317 319 322 323 324 323 322 323 324 324 325 326 327 329 332 334 338 343 346 349 350 351 353 355 358 361 361 361 361 361 362 362 362 362 362 362 362 361 361 361 360 359 358 358 357 357 357 356 357 357 357

ECMWFFLT1_925_thetae_075.txt.gz
Theta_e
351 351 350 350 350 349 350 352 351 348 349 350 350 351 350 350 350 350 351 351 351 352 351 350 350 350 350 350 350 349 348 348 348 347 347 347 347 347 347 347 347 346 348 349 349 348 347 347 347 348 348 348 348 351 353 354 355 355 355 355 355 356 356
350 350 350 350 350 350 350 352 351 349 349 350 350 350 350 350 350 350 351 350 350 351 350 349 349 349 349 349 350 349 349 348 348 347 347 347 347 346 346 346 346 345 346 348 347 346 346 347 347 347 347 347 348 349 352 354 354 354 355 355 356 356 355
345 348 350 350 349 350 351 351 352 350 349 349 350 350 350 350 350 349 350 350 350 351 351 350 349 349 349 349 349 349 349 349 348 348 348 347 347 346 346 346 346 345 345 346 346 346 346 346 346 347 346 347 347 348 351 353 353 354 355 354 355 356 355
341 345 349 350 350 350 350 352 352 351 349 349 349 349 349 350 350 349 349 349 350 351 351 351 350 350 350 350 349 349 349 349 349 348 348 348 347 347 346 346 346 346 346 345 345 346 345 345 346 346 346 346 346 347 349 352 353 353 354 354 355 356 355
339 342 346 350 350 349 350 351 351 351 349 348 348 349 349 349 349 349 349 349 350 350 350 350 350 351 350 349 349 349 349 348 348 348 348 348 348 347 346 346 346 346 346 345 345 346 345 345 344 345 345 345 345 345 346 350 353 354 354 354 355 355 355
336 338 341 346 349 349 349 350 351 351 349 348 348 348 349 349 348 348 349 349 350 350 350 350 350 351 350 350 350 350 349 349 348 348 348 348 348 348 347 346 346 346 346 345 345 345 345 344 344 344 343 343 345 346 346 347 351 354 354 355 355 356 356
334 336 337 339 342 345 348 350 351 350 349 348 347 347 348 347 348 348 347 348 349 350 351 350 350 350 351 351 350 350 349 349 348 348 348 348 348 348 347 346 346 346 346 345 344 345 345 344 344 344 343 342 342 345 345 345 347 349 352 354 355 355 356
332 333 334 336 337 338 342 347 349 350 349 348 347 347 347 347 347 347 347 348 348 349 350 350 350 350 350 350 350 350 350 349 349 348 348 348 348 348 347 346 346 346 346 345 344 344 344 344 344 344 344 342 341 341 342 342 343 345 347 349 351 354 356
329 330 331 332 333 335 338 341 343 346 349 349 348 347 347 347 347 347 347 347 347 348 349 349 349 350 350 350 349 350 350 350 350 349 348 349 348 348 347 346 346 345 345 345 344 344 343 344 344 343 342 341 340 340 341 341 341 342 344 345 346 349 352
326 327 328 329 330 333 336 337 339 341 342 345 348 348 347 347 346 346 347 346 345 347 347 348 349 350 350 350 349 350 350 350 350 349 349 349 349 348 348 347 347 345 345 345 345 344 343 342 343 342 341 341 341 341 341 340 340 340 342 343 344 345 346
325 326 326 327 328 330 331 333 336 337 338 339 342 346 348 348 347 346 346 346 346 346 347 347 348 349 350 350 350 350 351 351 350 350 349 349 348 348 348 348 348 346 345 345 345 344 343 342 342 341 340 341 342 342 341 340 340 340 340 341 343 344 344
325 325 325 325 326 327 328 330 332 333 335 336 337 340 343 345 346 347 347 346 346 346 346 347 347 348 349 349 349 350 350 350 351 350 350 349 349 348 348 348 348 347 345 344 345 344 344 343 342 341 340 340 341 342 342 341 341 340 340 341 342 343 344
324 323 324 324 324 325 326 327 329 330 331 333 334 336 338 339 342 345 347 347 346 346 345 347 348 348 348 349 349 350 350 350 350 350 350 349 348 348 348 348 347 347 346 345 344 344 343 343 342 340 341 341 340 341 341 341 341 341 341 341 343 343 343
323 322 322 322 323 324 325 325 325 327 329 330 331 332 334 336 337 339 342 345 347 348 347 346 348 348 349 349 349 350 350 350 350 351 350 349 349 348 348 348 347 347 346 346 345 344 344 343 342 341 341 341 341 341 341 342 341 341 341 341 342 342 342
322 321 321 321 322 323 324 324 324 325 327 328 328 329 331 333 334 336 339 341 345 348 349 348 347 348 349 349 349 350 350 350 350 351 350 349 349 348 348 348 347 347 346 346 345 345 344 343 343 343 342 342 342 342 342 342 342 341 341 341 341 342 342
322 322 321 321 321 321 322 323 324 325 325 326 327 327 328 330 331 333 335 338 341 345 349 351 350 348 348 349 349 350 350 349 348 349 350 349 348 348 348 348 348 347 346 345 345 345 344 344 344 344 343 343 342 342 343 343 342 341 340 340 340 341 342
322 322 322 321 321 321 321 322 323 323 324 326 326 326 326 327 328 330 332 334 337 340 345 349 352 351 349 348 349 350 349 349 347 348 349 348 348 348 347 348 349 348 347 346 345 344 344 344 344 344 344 344 344 343 343 343 342 340 339 339 341 341 342
322 322 322 321 322 321 321 321 322 322 323 325 325 325 326 326 327 327 329 331 333 336 340 345 349 351 352 351 350 349 348 348 348 348 348 348 348 348 347 348 348 348 348 347 347 346 345 344 344 344 345 345 345 345 345 343 341 339 338 338 339 340 341
319 320 320 321 321 321 321 322 322 322 323 324 324 324 325 325 326 326 327 329 332 335 338 341 344 348 352 353 353 352 350 349 349 350 349 349 349 348 349 349 349 349 349 349 349 348 347 346 345 345 344 345 346 346 345 345 343 341 340 339 338 339 340
317 318 319 319 319 320 322 322 322 322 322 323 323 323 323 324 324 325 327 330 332 334 336 338 342 347 350 352 353 354 354 353 353 353 352 351 350 350 351 351 350 351 350 350 350 350 348 348 347 347 346 345 346 346 346 346 345 343 343 342 340 340 340
316 316 316 317 317 319 320 321 321 322 323 322 322 322 322 322 323 324 327 330 332 334 335 336 341 347 350 351 352 353 354 354 354 354 354 353 353 353 353 353 352 352 352 352 351 351 350 349 348 348 347 346 347 347 347 346 346 345 345 344 343 342 341
315 315 315 316 316 317 318 319 319 321 323 323 321 321 321 322 323 324 326 330 332 333 335 336 340 344 346 347 348 349 351 353 354 355 355 355 355 355 355 355 355 354 353 353 353 352 352 351 350 350 349 348 348 347 347 347 346 346 346 346 345 344 343
315 315 316 316 315 315 316 317 318 320 322 322 321 321 321 321 322 323 326 330 332 333 335 336 338 340 340 341 342 343 346 348 351 353 354 355 355 355 355 356 355 355 355 354 353 353 353 353 352 351 351 350 349 349 348 348 348 347 347 347 346 344 344
314 315 315 315 315 315 315 316 317 319 320 321 321 321 321 321 321 322 325 328 331 333 334 334 335 335 336 337 338 340 342 344 346 349 351 353 355 355 355 355 355 355 355 355 354 354 354 354 353 353 352 352 351 350 350 349 349 349 348 347 347 345 344
313 314 314 314 314 314 315 316 316 317 318 319 320 320 321 321 321 321 323 326 329 331 332 332 332 332 333 335 337 338 341 342 344 346 347 349 352 354 354 354 355 355 355 355 355 355 354 354 354 354 354 353 352 351 351 350 351 350 349 349 347 346 345
313 313 313 313 313 314 315 315 316 316 316 317 318 319 320 321 321 321 323 324 326 328 329 329 329 330 331 334 336 337 339 341 343 345 346 347 349 352 354 354 354 355 356 356 356 355 355 355 355 355 355 354 354 353 352 352 352 351 351 350 349 348 346
312 312 312 312 313 314 314 314 315 315 314 316 317 317 318 320 321 322 322 323 324 325 326 326 327 329 331 332 334 335 337 340 342 344 346 347 347 349 353 354 354 355 356 356 356 357 357 356 356 355 356 355 355 354 354 353 353 352 352 351 350 349 347
311 311 312 312 312 313 313 314 314 314 314 314 314 315 316 318 320 322 322 323 323 323 324 325 327 328 330 332 333 334 337 340 342 343 346 348 349 348 350 354 355 356 356 357 357 357 357 357 357 357 357 357 356 356 356 355 354 354 353 353 352 351 349
311 311 311 312 312 312 313 313 314 314 313 313 313 314 315 317 319 321 322 323 323 323 323 325 326 327 329 331 332 334 336 338 340 343 344 347 349 349 348 351 354 356 357 356 356 357 357 357 359 359 358 358 358 358 357 357 356 355 354 353 353 352 351
311 311 311 311 311 311 312 313 313 313 313 313 313 314 315 316 318 320 321 322 322 322 322 324 326 327 329 330 331 333 335 336 337 339 340 343 348 350 349 350 352 354 355 354 353 354 355 357 359 359 359 359 359 359 359 359 358 358 356 355 354 353 352
310 310 310 310 310 311 312 312 313 313 312 313 313 314 315 316 317 318 320 320 320 321 323 324 325 326 328 330 331 332 334 335 335 336 338 340 345 349 351 351 350 349 350 351 352 353 354 356 358 359 360 360 359 359 359 359 359 359 358 357 356 355 354
310 310 310 310 310 311 311 312 312 312 312 313 313 314 315 316 316 317 318 317 318 321 323 324 325 326 327 329 330 331 332 333 334 335 337 339 343 347 350 351 352 351 350 351 353 354 355 356 357 359 360 360 360 359 360 360 360 360 360 358 357 356 355
310 310 310 310 310 311 311 311 311 312 312 313 313 314 314 315 316 316 317 317 318 320 322 323 324 325 326 327 329 330 331 331 332 334 337 339 343 346 348 350 352 353 353 352 353 355 357 358 358 359 359 359 360 360 360 361 361 361 361 360 358 357 356
310 310 310 310 310 310 311 311 311 312 312 313 313 313 314 314 315 316 317 318 319 320 321 323 324 325 325 326 328 329 329 330 332 334 337 339 342 345 347 349 351 353 354 355 355 357 358 358 359 359 359 360 360 360 361 361 362 361 361 361 360 359 357
309 309 309 309 310 310 310 310 311 311 312 312 312 313 313 314 315 317 319 319 320 320 321 323 324 324 324 325 327 328 329 330 332 334 337 339 341 343 345 347 349 350 351 352 354 355 357 358 359 360 360 360 361 361 361 362 363 362 361 360 360 359 358
309 309 309 309 309 309 309 309 310 311 311 312 312 312 313 314 315 318 319 319 319 320 321 323 323 324 324 325 326 328 329 330 332 334 336 338 340 341 343 344 345 347 347 347 348 349 352 355 357 358 359 360 360 361 362 362 363 361 360 360 359 359 358
308 308 308 308 308 308 309 309 310 310 311 312 312 312 313 315 316 317 317 318 318 319 321 322 323 323 323 324 325 327 329 329 331 332 334 336 338 340 342 343 344 345 345 345 346 347 349 352 353 355 356 357 358 359 360 361 361 360 359 359 358 358 358
307 307 307 308 308 308 309 309 310 310 311 312 312 313 314 315 315 315 316 316 317 318 320 322 322 322 323 323 324 326 328 329 330 332 333 335 337 339 341 343 344 345 345 346 347 348 349 351 353 354 356 357 357 358 358 358 359 359 359 359 358 358 358

ECMWFFLT1_925_thetae_078.txt.gz
Theta_e
349 352 353 353 354 353 353 355 354 354 354 354 354 355 354 355 354 355 358 359 361 362 362 361 360 360 359 359 358 358 358 357 357 357 356 354 353 353 354 354 354 355 356 356 356 357 358 358 358 358 359 358 358 359 360 360 361 362 362 360 361 362 361
349 351 352 353 353 354 354 356 355 354 354 354 355 355 355 355 355 356 357 360 361 362 362 362 360 360 360 359 358 358 358 357 357 356 355 355 354 354 353 354 354 355 355 356 356 358 359 359 359 358 359 359 357 358 360 360 361 361 362 362 362 362 363
347 350 352 352 354 354 355 356 356 354 354 354 355 355 355 354 355 355 357 359 361 361 362 361 360 360 359 359 359 358 358 357 356 356 354 353 354 353 352 353 353 353 354 354 355 357 357 359 359 358 358 358 357 358 358 359 360 360 362 363 362 363 364
346 349 350 352 353 354 356 357 356 355 354 353 354 355 354 355 355 356 357 358 360 360 361 361 360 359 359 359 359 359 358 357 356 355 353 352 352 353 352 352 353 352 353 353 353 354 354 355 358 359 358 357 357 358 358 358 359 360 361 362 360 362 363
345 347 348 350 351 352 355 356 356 354 355 354 353 354 354 354 355 356 357 357 357 358 360 360 359 359 359 359 359 358 358 357 355 355 354 352 352 353 352 352 352 351 351 352 353 354 355 355 355 357 358 356 357 357 358 358 358 360 361 361 360 361 361
341 343 344 345 347 349 353 355 356 354 355 354 353 354 354 355 355 355 355 355 355 356 358 359 358 358 359 359 358 358 358 358 357 355 355 353 353 353 353 352 352 351 350 351 351 353 355 355 353 354 356 355 353 354 356 357 357 358 360 361 360 360 358
337 339 340 341 342 345 348 352 354 354 354 353 353 353 353 353 354 354 354 354 354 355 356 357 357 358 359 359 357 358 358 358 358 357 355 354 353 354 354 353 352 351 350 350 351 352 354 355 354 354 354 352 352 352 353 355 356 356 359 360 361 360 360
332 335 336 338 337 339 343 348 350 352 353 353 352 353 352 352 353 353 352 353 353 353 353 354 355 356 358 358 358 358 358 358 357 357 355 353 354 354 354 353 353 352 351 350 351 352 352 352 352 354 354 352 352 352 352 355 356 355 355 357 359 360 358
329 330 332 333 333 335 339 343 345 347 350 351 353 354 353 352 352 351 352 352 352 352 352 352 353 354 355 357 358 357 357 357 357 358 357 354 353 353 352 352 353 353 352 350 349 350 351 350 351 352 355 354 354 355 354 355 356 353 352 355 357 357 356
327 327 328 328 329 331 334 336 339 342 343 346 350 352 353 354 351 350 351 352 352 352 352 352 351 352 353 356 358 357 357 358 357 356 356 354 353 352 350 350 351 353 353 350 348 348 349 351 350 351 355 356 355 357 357 356 357 356 354 355 356 356 355
326 326 326 326 327 329 329 331 333 335 338 341 344 347 350 352 352 351 351 352 352 351 351 351 350 351 352 353 355 356 355 356 356 355 356 354 352 351 350 349 349 350 352 351 348 347 348 350 351 351 355 357 355 356 357 357 357 356 355 353 354 354 354
324 325 325 325 326 327 328 329 329 331 333 335 339 342 345 348 350 352 351 351 351 351 350 351 350 350 351 351 353 354 355 355 356 354 355 354 353 351 350 350 348 349 351 351 349 347 347 349 351 351 353 355 353 354 356 356 356 356 355 352 351 352 353
324 324 324 324 325 325 326 327 328 329 330 331 333 336 338 341 344 348 350 350 350 350 349 349 349 349 351 350 351 353 354 354 355 355 355 354 354 352 350 350 349 349 350 351 350 349 347 348 351 352 352 351 351 351 354 356 356 357 356 353 350 352 353
324 324 324 324 324 324 325 325 326 328 328 328 329 331 332 335 338 341 345 348 350 350 351 351 350 349 350 351 351 351 353 353 353 355 355 355 354 354 352 351 351 350 351 352 351 350 348 348 349 352 351 349 349 349 351 354 357 357 357 356 353 351 353
324 324 324 324 324 324 324 324 326 327 327 327 328 328 329 331 333 336 339 344 347 349 351 352 354 352 350 350 351 352 352 352 352 354 354 355 355 356 354 353 353 352 352 353 353 351 351 350 349 351 351 350 349 349 349 350 353 354 355 355 355 352 351
325 324 324 324 324 325 324 325 326 325 326 327 326 327 328 328 329 332 335 339 343 346 348 349 352 355 353 350 352 352 353 353 353 354 354 356 356 357 356 355 354 354 353 354 354 353 352 351 350 350 351 352 352 350 349 348 348 350 350 350 352 352 351
324 324 324 324 324 324 324 326 327 325 326 327 325 326 326 326 328 330 331 335 340 344 346 348 351 355 356 354 352 351 353 354 355 355 354 356 358 358 358 356 355 355 355 355 354 354 354 353 352 351 350 350 352 351 350 349 347 348 347 344 343 346 350
322 322 322 322 322 323 323 324 325 326 327 326 326 325 325 325 326 327 329 332 336 340 344 346 351 353 355 357 355 352 352 353 357 357 356 356 357 358 359 358 357 356 356 355 354 355 355 354 354 353 351 350 350 351 351 351 350 349 348 346 342 340 345
319 319 320 319 319 320 321 322 322 324 327 327 326 325 324 324 325 326 327 330 334 339 341 345 348 352 353 353 353 354 353 353 355 356 356 357 357 358 358 359 358 357 356 356 356 355 356 354 354 354 353 352 351 350 351 350 351 350 348 348 346 343 343
319 318 318 318 318 319 320 320 320 321 324 326 326 325 324 324 324 325 326 329 334 338 339 342 346 348 350 350 351 353 354 354 354 355 355 356 357 357 358 358 358 358 355 356 355 356 356 355 355 354 354 353 352 352 351 351 351 350 349 348 347 346 344
319 319 318 318 318 319 320 320 319 319 321 324 325 325 325 324 324 324 325 327 332 336 338 341 342 344 345 347 350 353 354 355 355 354 355 356 356 357 357 356 357 357 356 355 354 355 357 356 355 355 355 354 353 353 352 352 351 351 349 349 348 347 346
318 318 318 318 318 319 320 319 318 319 320 320 321 322 323 324 324 325 325 326 330 333 336 339 340 340 341 343 345 348 350 352 354 354 355 356 355 356 356 356 357 357 357 357 355 354 355 355 356 356 355 355 354 354 353 353 352 351 350 350 349 348 347
318 318 318 318 318 318 318 318 318 319 319 319 319 319 320 322 324 325 326 326 327 331 334 336 337 337 337 339 342 344 345 348 351 353 354 355 355 356 356 356 356 357 358 358 356 355 355 355 356 356 356 356 356 355 355 354 353 352 351 350 349 348 347
317 317 317 317 317 317 317 317 318 319 318 318 318 318 318 319 321 324 326 326 326 328 330 332 333 334 335 336 338 340 342 344 348 350 352 354 354 355 355 355 353 353 355 357 357 358 356 356 356 356 357 357 356 356 355 356 355 354 352 351 350 349 348
316 316 316 316 316 316 316 317 318 319 318 318 318 319 318 318 319 321 324 326 326 326 328 328 330 332 334 335 336 338 340 342 345 348 350 353 353 353 355 356 354 353 353 355 357 358 357 356 356 356 357 357 357 356 356 356 357 355 353 352 351 350 349
315 315 315 315 315 315 316 317 318 318 318 317 318 318 318 318 318 319 323 324 326 326 327 327 327 329 331 334 335 337 338 340 343 346 348 350 352 352 353 354 354 353 354 356 356 356 356 358 357 356 357 357 357 357 356 356 357 357 355 354 353 352 350
314 314 314 314 315 315 315 316 316 317 317 317 318 318 317 317 318 320 321 322 323 325 327 326 326 327 328 331 333 336 338 339 341 344 346 347 349 350 351 351 352 353 355 356 356 356 357 357 358 357 357 357 357 357 357 357 357 357 357 355 354 354 352
314 314 314 314 314 314 314 315 315 316 317 317 317 317 317 317 318 320 321 321 321 323 324 325 326 326 327 329 332 334 337 338 340 342 345 346 348 349 350 350 351 352 353 354 356 357 358 358 358 357 357 357 358 359 358 358 357 357 358 357 355 354 353
314 314 314 314 314 314 314 314 315 315 316 317 316 316 317 318 319 320 321 321 321 321 322 324 326 327 328 329 331 333 335 337 339 341 343 345 347 348 348 349 349 349 351 353 356 358 358 358 359 358 358 359 360 359 359 359 359 358 357 357 357 355 355
314 314 314 313 313 313 313 314 315 315 315 316 316 317 317 318 320 321 321 322 322 320 320 322 325 327 328 329 330 331 333 335 338 339 341 343 344 346 347 348 349 350 350 352 355 357 358 358 359 359 359 361 361 360 359 359 360 360 359 358 358 357 356
313 313 313 313 313 313 314 314 314 314 314 315 315 316 317 318 319 321 321 322 321 320 320 322 324 326 328 328 329 330 331 333 336 338 340 341 343 345 347 348 350 352 353 352 353 354 357 359 359 359 360 360 360 360 360 359 360 361 361 360 360 359 358
313 313 313 313 313 313 313 313 314 314 315 315 315 315 316 317 318 319 320 320 321 321 320 321 323 326 327 327 328 329 330 331 333 335 338 339 340 343 346 348 350 352 353 353 352 353 355 357 357 358 358 358 359 360 360 360 361 360 360 360 360 361 360
313 313 313 313 313 313 313 313 314 314 315 315 315 316 316 316 317 318 318 319 319 320 320 321 323 325 326 327 327 328 329 330 331 333 336 337 339 341 344 347 350 351 352 353 354 354 355 355 356 358 357 357 359 360 358 358 357 357 358 358 359 360 360
312 312 312 312 313 313 313 314 314 314 314 315 316 316 316 316 317 317 318 318 318 319 321 323 323 325 326 326 327 328 328 329 331 332 334 336 338 340 342 345 347 349 352 353 354 355 356 355 356 356 357 359 360 358 355 353 353 355 357 355 355 359 361
311 311 311 311 312 312 313 313 314 314 315 315 315 316 316 317 317 317 317 318 319 320 322 322 323 324 324 325 326 327 327 328 329 331 333 335 336 338 340 342 343 345 348 350 352 353 354 355 356 357 358 359 359 357 354 353 354 356 356 354 354 357 360
310 310 310 310 311 311 312 312 313 313 314 314 315 315 316 317 317 318 317 317 319 320 321 322 322 323 323 324 325 325 325 326 327 328 331 333 334 335 337 339 340 341 342 344 345 346 347 348 350 351 352 353 354 354 354 355 356 356 355 355 355 353 355
309 309 309 309 310 311 311 311 312 312 313 313 314 314 315 316 317 317 317 318 318 319 320 320 321 322 323 323 324 324 325 326 326 327 329 331 333 334 335 336 338 338 339 340 341 342 343 344 344 344 345 346 347 349 350 352 354 355 355 356 356 354 355
309 309 309 309 309 310 310 311 311 311 312 312 312 313 314 314 315 316 316 317 318 318 318 318 320 321 322 322 323 324 324 325 326 328 329 330 332 333 334 336 337 338 340 341 342 343 345 346 346 346 346 346 346 347 348 349 350 352 354 355 357 357 357

ECMWFFLT1_925_thetae_081.txt.gz
Theta_e
351 354 354 354 356 355 356 358 358 357 357 356 355 354 355 355 354 355 357 361 363 363 364 363 362 362 361 359 358 358 359 358 357 357 356 354 352 351 352 353 353 355 357 357 356 357 358 358 359 360 360 359 359 362 364 364 364 364 365 363 363 365 364
350 351 354 354 354 355 357 357 356 356 356 356 356 355 355 355 355 357 359 362 363 364 365 364 363 362 361 360 359 359 360 358 357 357 355 354 353 351 351 352 352 354 357 357 357 358 358 357 359 360 361 359 358 359 362 363 363 363 365 363 363 366 366
353 352 355 354 354 355 357 358 358 357 356 355 356 357 355 356 356 357 360 362 364 364 364 364 364 363 361 361 360 360 360 358 357 357 355 353 353 352 351 352 352 353 355 357 358 359 358 358 358 358 359 358 357 358 359 361 362 362 365 366 363 364 366
354 354 353 354 355 357 359 360 357 355 355 355 354 356 356 356 356 357 360 361 363 365 365 363 363 362 361 362 361 360 361 359 357 357 354 350 351 351 349 351 353 351 352 355 356 357 357 358 358 358 358 358 358 359 358 359 361 361 364 367 363 363 365
351 351 350 352 355 355 358 358 356 355 354 355 355 356 356 356 356 358 360 359 360 364 364 362 361 360 360 361 360 359 361 360 358 356 354 350 350 351 349 349 350 349 350 352 352 354 355 356 358 357 358 357 357 358 358 359 360 359 362 364 362 362 363
346 347 347 350 355 355 356 357 357 356 354 355 355 354 354 356 356 356 357 357 358 361 363 361 359 359 361 361 358 358 360 361 359 356 355 352 350 351 350 349 349 348 349 349 350 352 354 355 356 355 357 356 354 355 357 357 357 357 360 361 360 361 360
341 344 344 346 350 353 355 355 356 355 355 357 355 352 353 354 354 355 355 357 357 358 359 358 356 358 361 360 358 358 359 361 360 357 355 353 352 352 351 350 350 348 348 349 349 350 353 355 355 354 355 354 352 352 353 355 356 356 358 360 361 361 359
337 340 340 341 342 345 350 353 354 355 355 355 355 354 355 354 354 354 355 355 355 354 355 356 356 358 359 359 358 358 358 359 360 359 355 353 352 352 351 351 351 349 348 348 349 350 350 353 354 353 354 353 352 352 352 354 356 355 356 359 360 361 359
333 336 337 338 338 339 344 347 349 353 354 354 355 356 356 355 353 352 353 353 352 352 354 355 356 358 359 360 359 359 359 358 358 357 356 352 351 350 350 350 351 351 350 348 347 349 350 351 351 352 353 353 352 352 353 354 356 355 355 356 358 360 358
332 333 334 335 336 338 341 341 342 345 348 352 355 355 356 356 354 352 353 353 351 352 354 354 354 356 359 361 360 359 360 358 357 356 355 352 349 348 347 347 348 350 351 348 345 346 349 350 350 350 353 354 353 353 354 354 355 355 354 354 355 358 357
330 331 331 332 333 335 336 337 338 339 340 344 348 350 352 354 354 354 353 352 351 352 353 353 353 353 357 358 360 359 359 359 357 355 354 353 350 348 346 344 345 347 349 349 345 343 346 349 350 350 353 355 355 354 355 355 355 355 354 352 353 354 354
330 330 330 330 331 331 332 334 335 336 336 338 340 343 346 348 350 352 352 351 351 351 352 352 353 353 354 356 357 358 358 359 357 355 354 353 350 348 347 345 344 345 347 348 346 344 343 347 349 350 351 355 356 355 356 356 355 355 354 352 350 351 351
330 330 328 329 329 329 330 332 333 333 333 334 336 337 340 343 344 347 349 350 351 352 352 352 351 352 352 354 354 355 357 357 357 356 355 354 353 350 348 347 345 344 344 346 346 345 343 344 348 350 350 353 356 355 355 356 356 355 355 353 349 348 349
331 330 329 329 329 329 329 330 332 332 332 332 333 334 335 338 340 342 345 347 349 351 353 353 354 353 352 353 354 354 356 356 357 357 356 355 354 352 350 349 347 345 344 345 345 345 344 343 345 349 350 352 354 354 353 354 356 356 356 355 351 347 347
330 329 329 328 328 329 329 330 331 332 331 331 331 331 332 333 335 338 342 345 346 348 349 351 354 356 355 353 353 353 354 356 356 356 357 357 356 355 353 352 350 348 346 346 346 346 345 343 343 346 349 351 352 352 350 350 352 354 355 357 354 349 346
328 327 327 327 326 327 327 329 331 332 331 331 330 330 330 330 332 335 338 342 345 346 347 348 350 355 357 356 356 355 355 356 356 356 356 357 357 357 357 355 353 351 349 348 347 347 347 346 344 344 347 350 351 351 348 346 346 350 352 355 355 352 347
326 325 325 325 325 325 324 326 329 330 331 331 330 330 329 329 331 333 336 341 343 344 346 346 348 351 355 356 357 356 355 354 356 357 357 357 358 359 359 358 357 354 353 352 350 350 350 350 348 346 346 347 349 349 348 344 343 344 348 351 353 352 350
325 325 324 324 325 325 324 324 325 328 330 330 330 330 329 329 330 331 333 338 341 343 345 346 348 350 353 354 354 353 353 352 352 354 354 355 357 359 359 360 360 357 355 354 354 353 353 353 353 351 349 347 346 347 348 345 343 342 344 347 349 349 348
324 324 323 323 324 324 325 324 324 325 326 327 328 329 329 329 330 330 331 334 338 341 343 345 346 348 350 352 351 350 351 350 351 354 355 355 357 358 358 360 361 359 356 355 356 356 355 355 355 354 353 352 349 348 347 346 346 345 343 345 346 345 346
324 323 323 322 323 323 325 325 324 324 324 323 324 326 327 328 329 330 331 332 335 339 341 343 345 345 345 346 348 349 349 349 352 354 356 356 356 356 356 357 357 357 357 356 355 356 357 357 356 356 356 356 355 353 350 349 348 348 347 346 347 346 346
323 323 322 322 322 323 324 323 323 323 323 322 322 322 323 325 326 329 330 331 332 335 338 341 343 342 340 341 343 346 347 349 352 354 355 355 352 352 354 355 354 354 355 354 353 355 357 358 358 358 357 358 357 356 354 352 350 350 350 350 350 349 348
322 321 321 321 321 323 323 322 321 322 322 322 322 320 321 322 323 326 330 330 330 332 334 337 339 339 339 339 340 342 343 346 349 351 352 353 351 351 353 355 354 353 354 353 353 354 355 355 358 359 358 358 358 357 356 354 352 352 351 351 351 351 350
321 321 321 321 320 321 322 321 321 322 322 322 322 321 321 321 321 323 327 329 329 331 332 333 333 335 337 338 338 339 341 343 345 347 350 351 352 352 353 352 352 353 354 354 355 355 354 354 356 358 358 358 358 358 358 357 355 354 352 352 351 351 350
320 320 320 319 320 320 321 320 321 322 322 322 322 321 321 321 321 321 324 325 326 329 332 332 331 331 333 335 335 337 339 341 343 344 347 349 350 351 351 352 352 353 354 354 354 355 355 355 356 356 357 358 358 358 358 358 358 356 355 353 352 351 350
320 320 319 319 319 319 320 320 320 321 321 320 321 322 321 321 320 321 323 323 323 325 329 331 331 331 331 332 333 335 337 339 341 342 344 346 348 348 350 351 352 352 354 354 355 355 356 356 357 357 358 357 357 358 359 359 359 358 357 356 354 353 351
319 319 318 318 319 318 318 319 320 320 320 320 321 321 320 321 321 322 323 324 322 323 325 327 328 330 331 332 332 333 335 337 339 341 342 344 345 347 349 351 351 353 355 356 355 355 356 357 358 359 358 356 357 358 358 359 359 358 358 357 356 355 353
317 317 317 317 318 318 317 318 319 319 319 319 320 320 320 321 321 323 324 324 323 323 323 324 325 326 328 330 332 333 334 335 336 337 340 343 345 346 348 349 350 352 354 354 353 353 354 355 357 358 358 358 359 359 357 358 358 358 359 358 358 357 355
317 317 317 317 317 317 317 317 318 318 318 319 319 319 320 320 321 323 324 325 325 324 323 323 323 323 326 328 330 332 334 335 335 336 338 340 343 345 346 347 349 350 351 352 352 352 353 356 357 358 357 358 359 358 358 357 357 357 357 358 358 358 357
318 318 317 317 317 317 317 317 317 318 318 318 318 318 319 320 321 323 324 325 326 326 325 324 324 323 325 326 327 330 331 333 334 336 336 337 338 341 344 345 347 349 350 351 352 352 353 356 357 357 357 358 358 358 358 358 358 357 357 357 358 358 357
317 317 317 317 316 317 317 317 318 318 318 318 318 318 319 319 321 322 323 325 325 326 326 325 324 324 324 325 326 327 328 329 332 334 336 336 337 339 342 343 346 349 350 352 353 353 353 355 358 358 357 358 359 358 359 359 357 357 357 357 358 358 357
317 317 317 316 317 317 317 317 317 316 316 317 318 318 318 319 320 321 322 323 324 324 325 325 325 325 326 326 326 326 326 327 329 331 333 334 336 339 340 342 345 348 350 352 354 355 355 356 358 358 358 358 358 357 358 357 356 356 356 356 357 358 358
317 317 317 317 317 317 317 316 316 316 316 317 317 317 318 318 319 320 320 321 322 323 323 323 324 325 325 326 327 327 327 327 327 327 328 330 333 336 338 340 343 346 349 351 352 354 355 356 356 357 357 357 358 356 355 354 353 354 356 357 358 358 357
317 317 317 317 316 316 316 316 317 317 317 317 317 317 318 318 319 320 320 321 321 321 321 322 323 324 325 326 327 327 327 327 326 325 325 326 328 330 334 338 342 345 348 350 351 352 354 354 355 356 356 356 357 356 354 353 354 354 356 357 356 357 357
317 316 316 316 316 316 316 316 317 317 317 317 318 318 318 319 319 320 320 321 321 321 322 323 323 324 325 326 326 327 327 327 327 327 326 326 326 329 334 337 339 341 344 346 348 350 351 351 352 354 355 355 356 356 354 352 354 355 356 355 355 356 357
315 314 314 315 314 314 315 315 316 316 317 317 317 318 318 319 319 320 320 321 321 322 322 323 323 324 325 325 325 326 326 326 327 327 327 326 327 331 335 336 336 337 338 340 342 343 344 343 344 347 349 350 352 355 356 356 356 358 357 356 355 355 355
314 313 313 313 313 313 314 314 314 315 316 316 317 317 317 318 318 319 319 320 320 321 322 322 323 323 323 324 324 324 324 325 325 325 327 327 327 328 330 332 334 335 335 336 335 334 335 335 336 338 341 343 344 348 350 352 353 355 355 355 355 355 354
313 313 313 312 312 312 313 313 313 314 315 315 315 316 316 317 317 318 318 318 319 319 320 321 322 322 323 323 323 323 323 324 324 325 326 327 327 326 328 330 332 333 334 334 333 333 335 336 337 339 340 340 342 343 344 346 347 347 348 349 350 350 350
312 312 312 311 312 312 312 312 312 313 313 314 314 314 315 315 316 316 317 317 317 318 318 319 320 321 321 322 322 322 323 323 324 325 326 326 327 328 329 330 331 333 333 334 335 336 338 339 340 340 339 339 340 341 342 344 345 346 346 346 346 347 349

ECMWFFLT1_925_thetae_084.txt.gz
Theta_e
355 356 357 357 357 357 359 361 358 357 357 355 355 354 352 350 350 353 358 361 361 360 359 358 360 361 360 359 358 358 358 357 356 357 355 355 355 355 356 356 357 358 359 358 357 357 355 354 355 357 357 358 360 360 359 360 359 360 360 359 361 361 358
354 354 356 357 358 357 358 359 357 355 357 356 355 355 353 353 353 355 359 362 363 362 361 360 360 360 360 359 359 358 358 357 357 357 357 356 355 353 354 355 354 356 357 357 357 356 356 356 357 359 358 358 360 361 360 360 359 360 360 357 359 360 360
353 352 355 357 358 359 358 359 356 355 357 357 357 357 355 352 351 354 359 363 364 363 362 362 362 361 360 359 359 359 359 358 358 358 357 356 355 352 352 353 353 354 356 356 356 356 357 358 358 359 360 358 358 359 361 361 359 360 359 355 357 359 359
355 354 355 356 356 359 360 359 358 357 357 357 357 357 353 351 351 352 356 361 363 364 364 363 363 362 361 360 359 359 360 359 359 358 357 356 354 352 351 352 352 352 355 356 356 356 356 357 358 360 360 359 357 358 360 361 360 360 359 358 359 358 359
354 354 354 355 355 358 359 359 359 359 358 358 357 355 353 353 352 352 353 356 359 361 363 364 363 361 362 361 360 359 360 360 359 358 356 354 353 352 350 352 352 352 353 355 356 356 356 357 358 358 359 358 357 357 358 359 360 359 360 362 362 359 358
350 352 353 356 356 358 359 359 360 359 357 357 356 355 355 353 352 353 355 356 355 356 359 361 361 359 361 361 360 360 360 360 359 357 356 353 352 351 350 350 352 352 352 353 355 356 357 357 358 358 359 358 358 358 358 359 360 360 360 363 363 360 359
347 349 350 352 353 355 358 359 359 357 355 355 356 356 355 353 352 353 355 356 355 354 356 359 359 356 358 360 359 359 360 361 359 357 356 353 350 350 349 349 350 350 350 351 352 354 355 357 357 358 358 357 357 357 357 358 359 359 359 361 362 360 359
344 346 346 348 348 348 353 357 357 357 356 356 356 356 355 355 353 352 354 356 357 356 357 359 358 355 355 357 357 356 359 361 360 357 355 353 350 350 350 349 349 349 348 349 350 352 353 355 356 356 357 357 355 354 355 357 357 357 357 359 361 361 360
341 343 343 344 343 343 348 352 355 357 357 357 356 356 356 355 353 354 357 357 357 357 357 358 357 355 355 356 355 354 357 360 361 358 355 352 351 350 350 349 349 349 348 348 349 349 351 353 355 355 355 356 355 353 352 354 356 356 356 358 360 361 360
339 340 339 339 340 341 342 344 348 352 355 357 357 356 356 355 354 356 357 355 355 355 355 355 355 355 355 355 353 352 353 356 358 358 356 353 350 350 350 350 350 350 348 347 348 348 349 351 353 355 355 355 354 353 352 353 355 356 356 356 358 360 360
336 337 337 337 337 337 338 339 342 345 348 352 354 353 354 356 356 356 355 355 355 354 353 353 353 354 354 353 353 351 350 352 354 355 356 353 349 348 349 349 349 350 349 347 347 348 348 350 351 353 354 354 354 354 353 353 355 356 357 356 356 358 360
334 335 335 336 335 334 335 337 338 339 341 344 347 348 350 352 355 354 354 356 356 354 353 351 351 352 353 352 353 352 351 351 353 353 352 352 349 348 347 347 346 348 350 349 347 346 347 349 350 352 352 353 353 354 353 353 355 356 356 355 355 356 358
333 334 334 334 335 333 334 336 336 337 337 337 340 341 342 345 349 352 353 353 354 355 354 352 351 351 351 351 352 353 353 353 352 352 352 352 349 346 345 346 345 345 347 348 347 346 346 347 350 350 351 351 352 354 354 354 354 355 355 355 354 354 354
333 332 332 333 334 334 334 335 335 336 336 335 336 336 336 338 342 347 350 351 352 353 353 354 354 352 351 350 350 352 352 352 352 352 352 352 352 350 347 344 344 344 344 347 348 346 345 345 348 350 350 351 353 354 356 355 355 355 355 356 355 353 353
333 331 330 330 331 334 334 334 335 335 335 334 334 334 335 335 337 341 346 349 350 351 351 353 353 352 353 352 351 352 352 351 352 352 352 352 351 353 353 349 345 344 344 345 346 347 346 344 345 348 349 350 352 354 356 356 356 356 356 356 355 353 351
331 330 328 328 328 330 332 333 335 335 334 334 333 333 334 335 335 338 342 346 348 349 350 351 352 352 352 352 352 354 355 353 352 351 352 352 351 353 356 356 353 350 349 348 346 345 345 344 343 345 348 349 351 353 355 356 355 356 356 356 355 354 351
329 329 328 327 327 327 328 330 332 332 333 334 333 333 333 334 335 337 339 343 345 347 347 348 351 352 351 351 352 353 354 354 353 353 353 353 352 352 354 356 356 355 353 353 352 349 347 345 344 343 345 347 350 351 353 353 352 352 354 355 355 355 353
327 327 327 327 327 327 326 327 328 328 329 330 331 333 333 333 335 336 338 340 341 344 346 346 348 349 349 350 351 351 351 351 353 355 355 355 355 356 356 355 356 356 354 353 352 352 351 350 349 346 344 345 347 349 351 352 350 348 348 351 352 353 353
326 326 326 326 326 326 326 326 326 326 326 325 326 328 329 332 334 334 336 337 338 342 345 345 345 345 345 347 348 347 347 349 351 353 355 355 355 356 357 357 356 355 355 354 353 352 351 351 352 351 349 347 346 347 349 350 350 347 345 346 347 348 349
326 325 325 325 324 324 325 326 325 326 325 324 323 324 325 328 332 333 334 335 336 339 342 343 342 342 343 344 344 343 344 346 347 350 352 353 353 353 353 355 355 355 355 355 354 354 354 353 352 353 353 352 350 349 350 349 348 348 346 344 344 345 346
325 324 324 324 324 324 324 324 324 325 325 324 323 323 323 323 327 331 331 333 335 336 337 338 339 340 341 341 341 341 342 343 345 348 350 350 352 352 352 352 354 355 355 355 355 355 355 354 353 353 354 355 354 353 353 352 351 349 348 345 343 343 344
324 323 322 323 324 324 324 323 323 324 324 324 323 323 323 323 324 327 327 329 333 335 335 335 335 337 338 337 338 339 341 342 345 347 349 349 351 351 351 352 354 355 356 356 356 356 355 354 354 352 352 354 356 356 355 355 354 353 351 349 345 343 343
323 322 322 323 323 324 323 321 323 323 323 324 323 322 323 323 323 325 325 325 328 332 334 334 333 334 335 335 335 337 339 341 344 345 346 348 349 348 348 350 351 353 355 355 355 356 355 355 355 354 353 354 356 358 358 357 357 356 354 352 349 346 344
322 322 322 321 322 322 321 321 322 323 322 323 323 322 322 323 323 325 325 324 324 327 329 330 330 332 333 333 334 334 335 337 341 343 344 346 347 346 346 347 348 349 351 352 354 355 355 355 355 355 356 356 357 358 359 358 358 358 356 355 353 350 347
322 321 320 321 321 321 320 321 322 322 321 322 322 322 322 323 323 325 326 325 324 324 326 326 326 328 329 331 332 333 334 335 337 337 339 342 345 346 346 347 346 346 349 350 351 354 355 356 356 357 357 357 357 358 358 358 358 357 357 357 356 354 351
320 320 319 320 320 319 319 321 321 321 321 321 321 321 322 322 323 325 327 326 326 325 325 326 325 325 327 328 329 331 334 336 336 334 333 334 339 344 346 346 345 346 348 349 350 352 353 355 356 356 356 356 357 357 357 356 356 357 357 356 357 356 353
319 319 319 319 319 319 319 319 320 320 320 320 320 320 320 321 323 325 326 326 327 327 326 327 326 326 325 326 327 329 331 334 336 337 335 331 329 333 339 341 343 346 347 347 349 351 351 352 353 354 354 354 354 354 354 355 355 354 353 352 354 355 353
319 319 319 318 318 319 319 319 319 320 319 319 319 319 320 320 322 324 325 325 327 327 327 328 328 327 326 325 326 328 329 330 332 335 337 335 330 329 330 330 333 339 343 344 347 350 351 351 352 352 352 351 351 352 354 354 353 353 353 353 353 354 353
319 319 318 318 318 319 319 319 319 319 318 318 319 320 320 321 322 323 323 324 326 326 327 327 327 327 327 327 327 328 328 328 328 329 333 336 336 336 335 330 329 333 336 337 343 349 351 351 352 352 351 350 350 351 352 353 353 355 355 354 353 354 354
319 319 318 318 319 319 319 319 319 318 318 318 319 319 320 321 322 322 323 324 324 324 325 325 326 326 328 328 328 328 327 327 328 328 329 331 334 336 337 337 337 337 334 333 339 347 350 351 352 352 352 351 351 351 351 353 354 355 354 354 354 355 354
319 318 318 318 319 319 318 318 318 318 318 319 319 319 319 320 320 321 322 323 323 323 323 324 325 326 326 326 326 327 327 328 329 328 328 328 328 329 332 336 339 339 336 336 340 346 349 350 352 354 354 352 352 352 352 353 353 354 355 354 355 356 356
319 319 318 318 318 318 318 318 318 319 319 319 319 319 320 320 320 321 322 322 322 322 323 323 324 325 325 325 326 326 328 328 328 327 326 325 324 324 326 328 331 334 337 340 344 347 349 350 351 352 353 351 351 352 351 351 352 354 356 356 355 354 354
319 319 318 318 318 318 318 318 318 318 318 319 319 320 320 320 320 321 321 321 322 322 323 324 325 325 326 326 326 326 327 327 327 327 326 326 325 325 324 323 325 330 337 342 344 346 347 348 348 348 347 347 348 348 349 351 353 353 354 354 354 354 354
318 318 317 317 317 317 317 317 317 317 318 318 319 319 319 319 320 320 320 321 321 322 323 323 324 324 325 325 326 326 326 326 327 328 328 328 328 327 326 325 327 332 337 339 339 339 340 342 342 340 338 338 341 343 345 346 348 351 352 352 350 350 352
317 316 316 316 316 315 316 316 316 316 316 317 317 318 318 318 319 319 320 320 320 321 321 322 322 323 323 324 324 325 325 325 325 326 326 327 327 328 328 329 329 332 333 334 334 335 336 337 335 331 329 329 332 336 338 339 341 344 346 346 344 344 346
316 315 315 315 315 315 315 315 315 315 315 316 316 317 317 317 317 318 318 319 319 319 320 320 321 321 322 322 322 323 323 323 323 323 323 324 325 325 326 327 328 327 327 327 328 330 330 330 329 327 328 330 333 335 338 339 339 339 339 338 338 340 344
315 315 315 314 314 314 314 314 314 315 315 315 315 315 316 316 316 316 316 317 317 317 318 318 319 320 321 321 322 322 323 323 323 324 324 324 324 325 325 326 326 325 325 325 325 325 326 327 329 331 333 335 337 338 339 340 339 338 337 336 335 337 340
314 314 313 313 313 314 314 314 314 314 314 314 314 314 314 315 314 315 315 315 316 316 316 317 318 319 319 320 320 321 322 323 324 324 324 324 325 326 326 326 327 327 328 328 328 328 330 330 332 334 335 335 336 337 337 338 337 336 334 333 333 333 335

ECMWFFLT1_925_thetae_087.txt.gz
Theta_e
356 358 359 360 362 362 361 358 353 353 353 353 354 350 347 349 350 354 355 354 356 356 357 358 357 355 356 356 357 355 354 353 352 351 352 353 355 356 356 357 358 357 354 352 353 355 355 357 358 357 357 357 356 355 354 355 357 356 354 354 358 359 357
357 359 360 363 365 365 363 359 355 355 355 355 355 353 351 351 352 355 356 355 357 356 356 358 358 356 356 356 356 356 354 354 354 352 353 354 355 356 356 357 358 358 356 354 353 354 354 355 357 358 357 355 356 356 355 357 357 356 356 356 359 360 358
358 358 359 362 364 362 361 359 356 356 356 355 355 354 352 352 353 356 357 356 357 357 356 358 358 357 357 357 356 356 355 355 355 354 354 354 355 355 356 356 357 358 358 357 355 354 354 354 354 356 357 357 358 359 357 357 357 357 358 358 359 360 358
358 358 361 365 365 361 359 357 355 356 355 355 355 354 352 352 352 356 357 357 357 358 358 358 359 359 359 358 357 357 357 356 356 354 354 355 355 355 356 355 355 356 357 357 357 357 356 354 354 355 358 357 357 359 358 356 355 356 358 358 356 355 356
357 355 358 362 362 359 358 355 352 352 354 356 355 353 352 351 350 353 355 356 357 358 359 359 360 360 360 359 358 358 357 357 357 356 355 355 355 355 354 354 354 355 355 355 356 358 356 356 356 357 359 358 357 359 358 357 356 354 356 357 354 352 354
354 353 355 357 357 358 358 356 354 354 355 357 355 353 352 351 351 351 353 355 356 358 359 359 360 360 360 359 358 359 358 357 358 357 356 356 356 355 353 352 353 354 354 353 354 357 356 357 357 358 360 358 358 358 357 357 358 356 356 358 358 357 356
347 350 352 353 355 356 357 357 357 359 358 357 355 354 352 351 351 352 353 355 356 358 359 358 358 359 360 360 359 358 358 358 358 358 357 357 356 354 352 352 352 351 353 353 354 355 356 357 357 357 359 358 358 358 357 357 358 358 358 359 361 361 359
342 345 348 350 350 351 355 357 357 358 358 357 356 355 354 353 353 353 354 356 356 358 359 358 357 357 359 360 359 359 358 358 358 359 358 357 356 354 351 351 352 351 352 353 353 355 356 356 357 357 358 358 358 358 358 357 358 358 359 359 359 361 360
340 341 342 342 342 344 350 353 356 358 357 357 356 355 355 354 353 354 355 355 356 356 357 357 357 356 357 359 360 359 359 359 358 358 358 357 356 354 351 351 351 350 351 352 353 354 354 355 356 357 357 358 358 357 357 358 358 358 359 359 358 358 359
339 339 339 337 337 340 343 345 349 353 354 355 355 354 354 351 351 354 356 357 357 356 357 357 357 357 356 356 358 358 358 359 360 359 358 357 356 354 351 350 350 350 350 350 351 352 353 354 356 356 357 357 357 357 356 356 357 357 358 357 357 357 357
337 338 337 336 336 338 340 340 341 343 345 347 349 351 353 352 353 355 355 356 356 356 357 356 356 355 352 352 355 356 355 357 358 357 358 357 355 353 351 350 349 349 349 348 349 350 351 352 353 354 356 356 356 356 355 354 355 356 355 355 356 357 356
336 337 336 335 335 336 338 339 338 338 339 340 341 344 348 350 352 352 352 353 353 353 354 351 350 352 350 350 353 354 353 353 354 355 356 357 354 351 350 349 349 349 349 348 348 349 349 350 351 353 354 355 355 355 355 353 353 354 354 354 355 357 357
335 336 335 335 335 335 336 336 336 336 337 337 338 339 341 345 349 350 350 351 350 351 351 349 349 351 350 350 351 352 353 352 352 352 353 354 354 351 350 350 350 349 349 349 348 347 348 348 349 350 352 353 353 354 354 353 353 354 354 354 354 356 356
335 335 336 336 335 335 336 335 335 336 335 335 336 337 339 341 345 348 349 350 350 350 351 351 351 352 350 349 351 352 352 352 351 351 351 351 351 350 349 349 351 351 350 349 348 347 347 348 348 349 350 352 353 353 353 353 353 353 354 354 354 355 355
333 333 334 335 335 335 336 335 335 335 335 334 335 336 338 339 342 345 346 347 348 350 350 350 350 352 351 351 352 352 352 352 352 351 352 351 350 349 349 348 350 352 352 350 349 348 347 346 348 348 348 350 352 352 352 352 352 352 353 354 354 354 355
330 330 332 333 333 334 334 335 335 334 334 334 334 336 337 338 340 342 345 345 346 348 350 349 349 351 352 353 354 354 354 353 352 351 352 352 351 350 350 349 351 353 353 352 350 349 348 346 347 348 348 349 350 351 351 351 351 352 353 353 353 354 354
328 328 328 329 329 329 330 331 332 333 334 334 334 334 336 337 339 341 344 345 344 345 347 348 349 350 351 351 351 353 354 354 354 355 354 353 353 352 352 352 352 353 354 353 350 349 349 348 347 348 349 349 349 351 351 351 351 352 353 353 353 353 353
329 328 327 327 327 327 328 327 327 329 331 332 334 334 334 336 337 338 342 345 343 342 342 344 346 348 348 348 348 350 352 352 354 356 355 354 354 353 353 353 353 354 355 354 352 350 348 348 348 349 351 350 350 350 350 351 350 351 353 355 355 354 354
328 327 326 326 326 327 328 326 325 325 325 327 331 332 332 334 334 336 340 342 343 342 341 342 343 344 344 344 345 347 349 350 351 352 352 353 354 354 354 354 354 355 355 355 354 352 350 348 348 349 350 351 352 351 351 351 350 350 351 353 354 354 355
326 326 326 325 325 326 327 327 325 324 323 323 324 327 331 332 332 334 337 338 338 338 340 340 340 341 341 342 343 344 345 346 348 349 348 349 351 352 352 352 353 353 354 355 355 355 354 352 351 349 350 350 351 352 352 352 352 351 351 351 352 352 353
327 326 325 325 325 325 324 325 325 324 324 323 323 323 326 327 328 329 333 335 334 334 336 337 337 337 338 340 342 343 343 345 347 347 347 348 350 350 349 350 351 351 353 356 355 355 355 354 354 353 352 351 351 352 352 352 354 354 352 351 350 350 350
326 325 324 324 324 323 322 323 324 324 323 323 323 323 324 324 324 324 328 334 334 332 333 334 334 334 334 335 338 341 343 344 345 345 345 347 348 348 348 350 351 351 352 354 355 355 354 354 355 355 354 354 353 353 352 352 354 355 354 352 351 349 348
324 324 323 323 322 322 322 322 323 323 322 322 323 323 324 324 324 323 326 330 331 329 329 331 331 332 332 333 334 336 339 341 342 343 344 345 346 346 346 347 348 349 351 351 352 353 353 354 355 355 355 355 354 354 354 353 354 354 355 355 354 352 349
322 322 322 321 321 321 321 322 322 322 321 321 322 323 325 326 324 323 325 328 327 326 326 326 327 328 329 331 332 333 335 334 334 336 338 342 344 346 347 347 345 346 348 349 350 351 351 353 354 355 355 355 355 356 356 356 356 355 356 356 356 355 354
320 321 320 319 320 320 321 321 321 321 320 320 321 322 324 326 325 323 325 327 327 326 326 326 326 325 325 326 329 332 333 334 333 332 332 334 337 339 342 345 345 346 347 347 348 349 350 351 353 354 356 356 357 357 357 357 357 356 356 356 355 355 355
319 319 319 319 319 320 320 320 320 319 319 319 320 321 322 325 325 325 326 327 327 327 328 327 327 325 323 323 326 328 329 331 333 334 333 333 332 331 333 336 338 342 345 346 346 348 350 351 351 352 353 353 353 353 354 354 356 356 356 356 354 354 354
319 318 318 319 319 319 319 319 319 318 319 319 320 321 322 324 324 324 325 326 326 327 327 327 327 325 323 324 327 328 327 328 329 330 331 332 332 332 332 332 332 332 336 339 339 341 345 349 351 351 351 349 350 350 349 350 352 353 354 353 353 353 353
318 318 319 320 319 319 319 319 318 318 319 319 320 320 321 322 323 323 324 325 324 325 325 325 325 325 325 327 328 327 326 326 326 326 327 328 329 331 332 333 333 332 332 335 335 335 337 340 345 349 350 349 348 349 349 349 350 350 351 351 352 353 354
318 318 319 319 319 319 318 318 318 319 319 320 319 320 320 321 322 323 323 322 323 323 323 324 324 325 326 327 326 325 324 325 326 326 327 327 328 328 328 329 330 332 334 335 335 335 336 336 339 344 348 349 349 351 351 351 351 351 351 351 352 353 354
318 318 319 319 319 318 318 318 319 319 319 320 319 319 320 320 321 322 322 321 322 322 322 323 324 324 325 325 324 324 325 326 327 327 328 327 327 326 325 325 326 329 332 333 334 336 339 341 343 346 349 351 352 351 350 349 350 351 352 352 353 353 354
319 318 319 318 318 318 318 318 319 319 319 319 319 319 320 320 320 321 321 321 321 321 323 323 323 324 325 325 325 325 325 325 326 326 326 326 325 324 324 323 323 324 325 327 329 334 338 343 347 349 350 349 347 344 340 338 341 345 348 350 353 355 355
319 318 318 318 317 318 318 317 317 318 318 319 319 319 319 319 320 320 320 320 321 321 322 322 323 323 324 324 324 324 324 324 325 325 326 326 326 327 327 326 326 326 326 327 330 334 339 344 347 347 343 340 337 334 329 329 332 336 337 340 347 352 352
318 318 317 317 317 317 317 317 317 317 317 317 317 317 318 318 319 319 319 320 320 320 320 321 322 322 322 322 323 323 323 324 325 326 326 326 327 327 327 327 327 327 329 331 332 334 336 339 340 339 336 334 331 327 324 326 331 334 333 334 340 344 343
317 317 316 316 316 316 316 316 316 315 316 316 316 317 317 317 317 317 318 318 318 318 319 319 320 320 320 321 321 321 322 323 324 324 324 323 323 323 322 323 325 325 325 326 327 329 330 330 331 331 330 330 328 325 324 327 331 334 336 336 337 336 335
316 316 315 315 315 315 314 315 314 315 315 315 315 315 316 316 316 316 316 316 316 316 317 317 317 318 319 319 320 320 321 322 322 322 323 323 322 320 319 320 322 324 324 323 322 323 324 324 324 323 323 323 324 324 326 328 330 333 336 337 336 336 335
316 315 315 314 314 314 314 314 314 314 315 314 314 314 315 314 315 315 314 315 315 315 315 316 317 317 318 318 319 319 320 320 320 321 322 323 322 321 320 318 317 319 321 322 322 321 322 323 325 326 326 326 327 327 328 330 332 333 334 334 334 334 333
315 315 314 313 313 313 314 314 314 313 313 313 313 313 313 313 313 314 314 314 314 314 315 316 316 317 317 317 317 318 318 318 319 320 320 320 320 320 320 320 319 320 321 322 323 325 326 327 328 329 328 327 327 327 328 330 332 333 332 331 332 331 329
314 313 313 313 313 314 313 313 313 312 312 312 312 312 313 313 313 313 314 314 314 314 315 315 315 316 316 316 316 317 317 318 318 318 318 319 319 319 320 321 322 323 323 323 324 325 326 327 326 326 326 326 326 327 327 327 329 333 333 332 332 330 326

ECMWFFLT1_925_thetae_090.txt.gz
Theta_e
357 356 355 355 354 354 351 351 348 344 344 345 345 345 346 348 350 351 351 351 351 353 353 351 352 351 349 350 350 349 350 351 353 352 353 353 351 352 351 351 352 353 353 354 353 354 354 355 356 357 357 357 357 356 355 354 354 356 356 356 356 356 355
356 357 357 356 356 355 353 352 351 349 347 346 345 345 345 348 351 351 351 351 350 351 352 352 353 351 349 350 351 350 350 352 352 351 352 352 352 352 352 352 353 353 353 354 353 353 354 355 356 358 357 357 358 358 355 353 354 356 356 355 355 356 356
359 362 360 356 356 356 354 352 351 351 352 351 347 345 345 348 351 351 352 352 351 351 352 353 354 353 351 352 352 351 350 351 352 351 351 352 353 353 353 353 354 355 355 355 354 352 352 354 356 357 358 357 357 356 355 353 354 356 356 354 354 355 357
362 359 356 357 358 358 355 352 351 351 353 353 350 347 346 348 351 351 351 352 352 352 353 353 354 354 353 353 354 353 352 351 352 352 351 351 353 354 354 355 356 356 356 355 355 353 352 354 354 355 357 357 356 355 356 356 355 356 357 356 355 356 358
357 352 354 357 358 358 355 352 352 351 351 352 351 350 349 349 351 352 352 352 352 352 352 353 355 355 354 354 355 355 353 351 351 353 352 351 353 354 354 355 355 355 356 356 356 355 353 354 353 353 354 355 355 355 356 358 357 357 357 357 357 357 358
354 353 355 356 355 356 354 351 352 352 351 352 351 352 351 351 353 353 352 353 353 353 353 354 356 356 356 355 354 356 355 353 352 352 353 353 353 355 354 354 355 355 355 355 356 356 355 355 355 353 352 354 356 356 356 357 357 356 355 355 357 357 356
348 349 350 351 352 354 354 352 351 352 353 353 351 351 351 352 354 354 354 354 354 354 355 356 357 357 357 356 355 356 356 355 354 353 353 353 353 354 354 354 355 354 353 354 355 355 356 356 355 354 354 355 357 357 356 357 357 356 355 355 356 357 356
341 341 343 345 347 349 351 353 354 354 355 354 352 351 350 351 353 354 354 355 354 354 354 356 358 358 358 358 357 356 356 356 355 354 355 354 354 354 354 355 355 353 353 354 355 355 355 356 356 355 356 356 357 358 357 357 357 356 356 356 356 356 357
338 338 339 340 342 344 345 348 352 354 353 353 353 352 351 352 352 352 353 353 352 351 352 355 357 359 359 359 358 358 357 357 356 356 356 356 355 354 354 354 354 353 352 352 354 353 353 355 356 356 356 356 357 358 357 357 357 357 356 356 357 357 357
337 337 337 338 340 342 341 342 346 351 351 352 352 352 352 352 352 352 352 352 351 352 354 355 356 357 358 359 359 358 358 358 357 357 357 357 356 355 354 355 354 353 352 352 352 353 353 354 355 356 356 356 357 357 357 357 357 357 357 356 356 357 357
336 336 336 336 337 339 340 339 340 344 347 351 351 350 351 351 351 352 352 352 353 353 353 356 356 356 356 357 357 356 356 357 357 357 357 358 358 356 356 356 355 352 351 351 351 351 352 354 354 356 356 356 356 356 356 356 356 357 358 357 356 356 356
336 337 337 337 336 336 338 338 337 339 342 346 349 350 351 352 352 352 352 353 354 353 353 354 355 355 355 356 355 353 353 355 356 357 357 357 358 357 356 355 353 352 351 351 351 350 351 353 354 355 356 356 356 356 356 356 356 356 357 357 356 355 355
337 337 337 337 335 335 337 338 336 337 338 341 345 348 351 352 351 351 351 351 353 354 354 354 355 355 355 355 353 352 352 354 354 355 355 355 356 357 356 353 351 350 350 350 350 350 350 351 353 353 354 354 355 355 356 356 355 356 355 355 355 355 354
337 337 337 337 336 335 336 337 336 336 337 338 341 345 348 350 350 350 351 350 351 352 352 353 353 353 353 353 352 351 352 351 351 352 353 353 354 355 354 352 349 349 350 350 350 350 349 349 350 351 352 352 353 353 354 355 355 355 355 354 354 354 354
336 337 337 336 335 334 335 336 336 336 336 337 339 341 344 346 348 349 351 351 351 351 351 352 351 350 350 350 350 350 351 351 350 351 351 351 353 354 353 352 350 349 349 350 350 349 349 348 348 349 350 350 351 351 352 353 354 354 354 354 353 354 354
334 334 334 333 333 333 333 335 335 335 335 336 338 340 342 344 345 347 349 350 349 350 351 352 352 352 351 351 351 350 351 351 351 350 350 350 351 352 352 350 350 348 348 350 352 350 349 348 347 347 348 349 350 350 350 352 352 352 352 352 352 352 353
331 331 330 329 329 330 330 332 333 334 333 334 337 339 341 343 345 346 348 348 347 348 350 351 351 352 352 353 353 352 351 351 351 351 351 350 350 351 350 349 349 349 348 350 352 352 350 349 348 347 347 348 348 350 350 351 351 351 350 350 351 351 351
329 328 327 326 327 327 327 329 332 333 333 333 334 337 339 342 344 344 345 346 346 346 348 349 349 350 351 353 353 353 353 353 352 352 353 353 352 352 352 351 351 351 350 351 352 352 351 350 349 348 347 348 348 349 351 351 351 351 351 350 350 350 350
327 326 326 326 326 327 326 326 328 331 333 333 333 335 338 341 342 343 343 344 344 344 344 345 346 346 347 349 350 351 351 352 352 353 354 354 354 353 353 353 353 352 352 352 353 353 352 351 350 350 349 349 350 350 351 352 352 352 352 352 351 350 350
327 325 324 325 324 326 326 324 324 326 329 332 333 334 336 338 338 339 339 340 340 341 341 341 342 343 343 345 345 346 347 348 349 349 350 352 352 351 351 351 353 353 354 354 355 354 354 352 351 351 351 351 351 351 351 351 351 351 352 352 352 352 351
326 325 324 324 323 324 324 324 324 324 325 328 329 329 331 334 333 331 332 333 334 335 335 337 338 340 342 343 344 345 346 346 346 346 347 349 349 349 349 350 351 353 354 355 355 355 355 354 353 352 352 352 352 351 351 352 352 352 352 352 352 351 352
326 325 324 323 322 322 322 323 323 323 323 324 325 325 327 331 332 331 331 332 332 332 332 332 333 335 337 339 341 341 342 343 344 346 346 346 346 346 347 347 348 349 351 352 353 354 354 354 354 353 354 353 353 353 352 351 351 352 352 352 352 352 352
324 323 322 321 321 322 322 321 321 322 324 325 324 324 325 329 332 331 330 328 327 327 327 326 326 327 330 333 335 335 335 336 337 339 343 344 345 346 347 347 346 347 348 349 350 351 352 353 354 354 354 354 354 354 355 354 353 353 353 353 353 353 353
321 320 320 320 321 321 320 319 320 323 325 326 325 323 324 326 328 327 327 326 326 325 325 324 322 321 324 328 330 331 332 332 332 334 336 337 338 340 343 345 345 346 347 348 349 350 351 352 353 353 354 353 353 355 356 355 354 354 354 354 354 354 355
318 319 320 320 319 319 319 319 320 322 324 325 325 323 322 324 326 327 327 327 327 326 326 325 322 320 323 326 327 328 328 330 331 332 333 334 334 334 336 338 339 341 343 344 346 348 349 349 350 351 353 352 352 355 356 355 354 353 353 353 353 354 355
318 319 320 319 318 318 318 319 320 321 322 323 324 323 322 323 326 327 326 326 326 325 325 324 323 322 325 327 328 327 325 325 327 328 328 330 331 332 333 334 334 334 334 334 336 339 342 345 347 349 349 350 351 352 353 352 351 350 350 350 351 352 353
319 320 319 319 318 318 318 319 320 320 320 321 322 323 323 324 325 325 324 324 324 323 323 323 324 324 326 327 326 325 322 322 324 326 326 327 328 328 329 330 331 332 333 334 334 334 335 337 339 340 341 342 344 345 347 349 349 349 349 349 350 350 350
319 319 319 318 318 318 319 319 319 319 320 320 321 322 322 323 323 322 322 322 322 322 323 324 324 325 326 325 324 323 323 323 325 326 327 327 327 326 325 324 325 326 329 333 336 337 336 335 336 337 337 335 337 344 348 348 348 350 351 351 350 351 350
318 318 318 318 318 318 319 319 319 319 319 319 320 320 321 321 321 321 321 321 321 322 323 323 324 324 324 323 324 324 323 324 324 325 325 326 325 325 325 324 324 325 325 327 332 336 337 336 338 342 342 340 342 345 342 336 333 337 342 344 346 349 352
318 318 317 318 318 318 319 319 319 319 319 319 319 320 320 320 320 320 320 320 321 322 323 323 323 323 324 323 323 323 322 322 323 324 325 325 325 326 326 326 326 327 327 328 330 333 334 335 338 343 347 347 346 342 335 328 323 321 323 328 335 341 346
317 318 318 317 318 318 318 318 318 318 318 318 318 319 319 319 319 319 319 320 320 321 321 321 321 322 322 321 321 321 322 322 323 324 324 324 324 324 323 324 324 325 325 326 328 330 332 334 339 343 346 345 341 335 330 327 323 318 319 325 331 335 339
317 317 317 317 317 317 317 317 317 317 316 317 317 318 318 318 318 318 318 318 318 319 319 320 320 320 320 320 320 320 321 321 322 323 322 322 322 322 321 322 323 322 322 323 324 325 326 327 329 331 332 331 330 328 326 324 321 320 323 328 332 337 342
316 317 316 316 316 316 316 316 316 316 316 316 316 316 316 316 316 316 316 316 316 317 317 317 317 318 318 318 319 319 319 320 321 321 320 320 321 321 320 321 321 319 320 321 323 324 324 325 325 324 324 325 326 326 326 326 324 323 325 329 333 337 341
316 316 316 315 315 315 315 315 314 315 315 315 315 315 315 315 315 314 315 315 315 315 315 316 316 317 317 317 318 318 318 318 319 318 318 318 318 318 317 318 317 317 318 321 323 324 324 325 326 326 326 326 327 327 327 327 327 327 327 328 331 334 335
315 315 315 314 314 314 314 314 314 315 314 314 314 314 314 314 314 314 314 314 314 314 315 315 316 316 316 316 316 316 317 317 317 317 317 317 317 316 316 317 317 318 318 319 321 322 322 323 325 325 325 325 326 325 325 325 326 327 327 327 327 329 331
314 314 314 313 313 313 313 313 314 314 313 313 313 313 313 313 313 313 313 313 314 314 315 315 315 315 315 315 315 315 316 316 316 316 317 317 317 316 316 317 318 319 319 318 319 319 320 321 323 323 324 324 325 325 325 325 325 325 326 326 326 326 328
314 313 313 312 313 313 313 313 313 313 312 312 312 312 312 312 312 313 313 314 314 315 315 315 315 315 315 315 315 316 317 317 317 317 316 316 317 318 318 319 319 319 319 319 319 319 319 320 321 321 322 322 323 324 324 323 323 324 325 326 326 326 327
314 313 312 312 312 313 313 312 312 311 311 311 311 312 312 312 313 314 314 314 314 314 314 314 314 314 315 315 316 317 318 318 318 317 317 317 317 318 319 319 319 319 318 317 318 318 318 319 319 320 321 321 322 322 323 323 324 325 326 326 326 326 326

ECMWFFLT1_925_thetae_093.txt.gz
Theta_e
355 353 356 356 356 357 352 347 343 343 345 345 345 346 346 346 348 349 350 351 350 350 350 350 350 349 349 351 351 351 351 350 350 350 350 352 352 352 351 350 351 351 351 352 352 352 353 354 354 354 354 354 354 354 353 355 355 354 354 354 355 356 356
356 357 359 358 359 360 353 349 347 344 343 345 345 346 346 346 348 348 349 350 350 349 350 350 349 349 348 349 350 351 351 350 350 351 352 353 353 352 351 351 351 350 350 351 352 352 352 353 354 354 354 355 355 355 353 355 355 354 353 354 355 356 355
359 360 359 356 357 357 353 350 350 347 343 344 345 345 346 347 347 348 348 349 350 349 349 349 349 349 348 348 349 350 351 350 349 351 353 353 353 352 352 351 351 350 350 351 352 352 352 353 354 354 355 355 356 356 356 356 355 353 354 355 356 355 354
360 359 357 355 355 354 351 349 350 350 346 343 344 345 345 346 347 348 348 348 349 350 350 349 349 350 349 349 349 350 350 350 349 350 352 352 352 352 352 351 351 351 351 351 352 353 353 353 353 354 355 356 356 356 356 356 355 353 354 355 356 354 354
357 356 357 356 356 355 352 349 349 351 350 347 345 344 345 346 347 348 348 348 349 349 349 349 350 350 350 349 349 350 350 350 349 349 351 352 351 351 351 351 351 351 352 353 353 354 354 353 352 353 355 355 356 356 356 355 355 354 354 356 356 355 355
355 356 357 356 356 358 355 351 349 351 352 351 348 346 345 345 347 349 349 349 349 349 350 350 351 351 351 350 350 350 349 349 349 350 350 351 351 351 351 352 352 352 353 354 355 355 355 354 352 352 354 354 354 355 355 354 355 356 356 356 356 356 356
349 351 352 351 352 354 353 352 351 351 352 352 350 349 347 345 348 350 350 350 350 350 350 351 353 353 352 352 351 351 350 350 350 349 350 351 352 352 352 352 353 353 354 355 355 355 355 355 354 353 353 354 353 353 354 353 354 356 356 356 356 355 356
342 344 345 345 347 348 348 349 351 352 352 352 351 351 349 349 350 351 351 351 352 351 351 352 353 354 353 353 353 353 352 351 352 350 350 351 352 353 353 353 354 354 354 355 354 354 355 356 356 355 354 354 353 352 353 355 355 355 356 357 356 354 354
339 341 341 342 342 343 343 344 348 352 353 352 351 351 351 351 352 352 352 351 352 352 352 352 352 354 354 354 354 354 354 353 353 352 351 351 352 353 353 354 354 355 355 355 355 354 354 354 355 356 356 356 354 353 354 356 356 355 356 356 356 354 354
338 338 338 338 339 340 340 341 344 351 354 352 351 351 351 352 353 353 352 352 352 352 352 352 353 354 355 355 355 355 354 354 354 354 353 353 352 352 353 353 353 354 354 354 355 354 353 353 354 355 356 356 355 354 355 356 357 356 356 355 356 355 354
337 337 337 337 337 339 340 340 341 346 351 352 351 350 351 351 352 353 353 353 353 352 352 352 353 355 356 356 356 356 356 355 355 355 355 354 354 353 353 353 353 353 353 353 354 353 352 352 353 353 355 355 355 355 355 356 356 356 356 355 356 356 355
336 336 336 336 336 338 340 339 338 341 346 350 352 351 351 351 351 352 353 353 353 353 353 352 352 355 357 357 358 357 356 356 356 356 355 355 355 355 355 355 355 354 354 353 354 353 352 351 351 352 352 353 354 355 355 355 356 356 355 355 356 356 356
335 335 336 335 336 337 339 338 337 339 342 346 350 350 351 351 351 351 351 352 353 353 352 353 352 354 356 357 358 357 357 357 357 357 357 356 356 356 356 356 356 356 355 354 355 354 353 351 350 350 350 351 353 354 355 355 355 356 355 355 355 356 356
335 335 335 336 336 337 338 339 338 338 340 344 348 349 350 350 350 351 351 352 352 351 351 351 352 353 355 356 356 357 357 357 357 357 357 357 357 356 357 357 356 356 355 354 354 353 353 351 351 350 350 350 352 353 354 355 355 356 355 355 355 355 355
335 334 335 335 335 335 337 338 338 338 340 343 346 348 350 350 351 351 351 351 351 351 351 351 352 352 354 354 355 356 357 357 356 356 356 356 356 356 357 356 355 354 353 351 351 351 351 350 350 350 350 349 350 351 353 354 354 355 354 354 354 354 355
333 333 334 334 334 334 335 336 336 337 339 341 343 345 348 349 350 350 350 350 349 349 350 350 350 351 352 353 353 354 355 355 354 353 353 354 355 356 357 356 354 352 351 350 350 350 350 349 349 349 350 349 349 350 351 352 352 352 352 353 353 353 354
331 331 332 332 332 334 334 335 335 336 338 339 340 343 345 347 348 348 348 348 347 348 349 349 349 350 350 351 351 352 352 352 352 352 351 351 353 354 355 355 354 353 351 350 349 349 349 350 349 349 349 349 348 349 349 349 349 350 350 350 351 352 353
329 328 329 330 330 332 333 333 334 335 336 338 339 342 343 344 346 345 346 347 346 346 348 348 349 350 350 350 351 351 350 350 350 350 350 350 350 351 352 353 353 353 352 351 349 349 348 349 350 350 349 349 348 347 348 348 347 348 349 349 350 351 352
328 327 326 327 328 329 331 332 333 334 335 337 338 340 342 343 343 343 344 344 344 343 344 345 346 347 346 347 348 350 350 350 350 350 351 351 351 350 350 350 351 351 351 351 350 349 349 349 350 351 350 349 348 347 347 347 347 347 348 349 349 351 352
327 326 325 325 325 326 327 328 331 333 335 336 336 338 340 341 341 341 341 342 342 342 341 342 343 343 344 344 346 348 348 349 350 351 352 353 353 353 353 352 352 352 351 352 352 351 352 352 351 351 350 350 349 349 348 347 347 347 348 349 350 351 352
324 324 325 325 325 324 324 325 328 331 332 333 333 333 334 336 336 336 336 336 336 336 337 338 339 340 340 341 342 344 345 347 348 347 347 348 350 350 351 352 354 354 354 355 354 354 354 354 354 353 352 351 351 351 350 350 350 349 350 350 350 351 352
323 323 323 323 323 323 323 324 325 327 328 329 330 331 332 333 332 331 329 327 326 326 328 330 332 333 334 335 336 337 340 342 344 344 345 346 347 348 348 348 349 350 352 352 353 353 354 354 354 354 353 352 352 352 352 352 352 351 351 351 351 351 351
321 321 321 321 320 321 322 324 325 325 326 328 329 330 331 329 327 326 325 324 322 321 322 325 327 328 328 329 331 332 334 335 337 338 340 341 343 344 343 343 345 347 349 349 349 351 352 352 353 354 353 352 352 353 354 354 354 353 352 352 352 352 352
319 319 319 320 320 322 323 324 324 324 325 327 327 327 327 326 325 325 325 325 323 321 322 324 327 327 325 324 325 328 329 330 331 332 334 335 337 338 338 339 340 342 345 347 348 348 349 350 351 352 352 350 350 352 353 354 354 354 354 354 353 353 354
318 317 318 320 322 323 323 323 323 323 324 326 326 326 326 326 326 326 324 323 323 323 324 325 326 326 325 323 323 324 325 326 327 328 329 330 331 333 335 336 336 336 338 340 342 343 344 346 348 349 349 349 351 352 352 353 354 353 352 352 352 353 353
317 317 318 320 321 322 323 323 323 323 323 324 325 326 326 326 325 324 323 322 323 323 324 325 325 325 324 323 322 323 324 324 326 326 326 326 326 326 328 330 331 333 335 336 336 335 335 340 345 348 347 346 346 347 349 350 350 349 348 349 350 351 351
318 318 318 319 320 321 321 321 322 322 322 323 324 324 324 324 323 322 321 322 323 324 324 324 324 324 323 322 322 322 323 324 325 325 325 326 326 325 326 326 327 328 330 333 336 335 333 335 338 341 341 339 338 341 346 347 347 347 348 348 349 349 350
319 320 319 319 320 320 320 320 320 321 321 322 322 322 322 322 321 320 321 322 322 323 323 323 324 323 322 321 321 322 323 323 324 324 325 325 325 325 325 326 327 327 326 328 333 336 339 339 337 337 337 336 336 341 346 345 343 341 339 339 342 343 342
318 319 319 319 319 319 319 319 319 320 320 320 321 321 321 321 320 320 321 321 321 321 322 322 322 322 321 320 320 322 323 323 323 323 323 323 323 324 324 323 325 327 327 328 330 334 338 340 340 342 343 340 339 340 339 335 331 329 326 326 332 333 329
317 318 319 319 319 319 319 319 318 319 319 319 320 320 319 319 319 319 319 319 320 320 321 320 320 319 319 319 320 321 321 321 321 321 321 321 321 321 321 320 321 322 324 325 327 329 330 331 333 337 340 341 340 336 331 327 326 325 323 323 328 331 329
317 318 318 318 318 318 318 318 318 318 318 318 318 318 318 318 318 317 317 317 318 318 319 319 319 318 317 318 318 319 319 320 319 319 319 319 318 318 318 317 318 319 320 322 324 324 325 326 326 327 328 330 331 329 327 326 326 325 324 325 327 330 332
316 317 317 318 318 318 317 317 316 317 317 317 317 317 316 317 316 316 315 315 316 316 316 317 317 316 316 317 317 317 318 318 318 317 317 317 316 316 316 316 317 317 318 320 321 321 322 323 324 325 325 325 325 325 325 326 326 326 326 326 327 329 329
316 316 316 316 316 316 316 316 316 316 316 316 316 315 315 315 315 314 314 315 315 315 315 316 316 316 316 316 316 316 316 316 316 316 316 316 315 316 316 317 318 317 318 318 319 319 320 321 322 322 323 323 323 324 324 324 325 325 325 325 325 326 326
315 315 315 315 315 315 315 315 315 315 315 314 314 314 314 314 314 313 314 314 314 314 315 315 315 315 315 315 315 315 315 315 316 316 315 316 316 316 317 318 319 319 319 319 319 319 319 319 320 321 321 321 322 322 323 323 324 324 324 324 324 325 325
315 315 315 315 314 313 314 315 314 314 314 313 313 313 313 313 313 313 313 313 314 314 314 314 314 314 314 314 314 316 316 317 317 317 316 316 316 317 318 318 318 319 318 318 318 318 318 318 318 319 319 320 321 321 321 321 322 323 323 323 324 324 324
314 314 314 313 313 313 314 314 313 313 313 313 312 312 312 312 312 313 313 314 314 315 314 314 314 314 313 314 315 317 317 317 317 317 317 317 317 316 316 316 316 316 316 316 316 315 315 315 315 315 316 318 319 319 318 319 321 322 322 323 323 322 322
314 314 313 312 312 313 313 313 313 312 312 311 311 311 311 312 313 314 314 314 314 314 314 314 313 313 313 314 315 316 316 316 315 316 316 316 316 316 316 315 315 315 315 315 314 314 313 313 313 314 314 315 316 316 317 318 320 321 321 322 322 321 322
314 314 313 312 312 313 313 313 312 312 311 311 311 311 312 312 313 313 313 313 313 313 313 313 313 313 313 313 314 314 313 313 313 313 314 315 315 315 316 316 316 315 315 314 314 314 314 314 314 314 315 315 315 316 316 318 319 320 320 320 320 321 321

ECMWFFLT1_925_thetae_096.txt.gz
Theta_e
351 351 355 357 357 353 345 341 343 345 345 346 346 346 346 348 349 350 350 351 350 350 350 350 350 351 352 352 352 353 353 352 352 352 351 352 351 349 350 350 349 349 350 350 350 349 350 351 350 351 352 353 351 350 351 354 355 355 355 354 353 354 354
350 349 353 357 358 358 351 343 342 344 345 346 346 346 346 346 348 349 350 350 350 350 350 350 350 351 351 351 352 353 353 353 352 351 351 351 350 349 350 350 350 350 350 350 350 351 351 352 352 352 353 353 352 350 351 353 353 355 355 354 353 353 354
351 348 350 354 356 356 354 347 344 343 344 345 346 345 346 346 347 349 349 350 350 350 350 350 350 350 350 350 350 351 352 352 351 351 350 350 350 350 350 351 351 350 351 350 350 351 351 351 352 353 354 354 353 352 351 351 352 354 354 353 353 353 354
355 351 349 351 352 352 350 349 348 346 344 345 346 346 345 345 347 348 349 350 350 350 350 350 350 349 349 349 349 350 351 351 351 350 349 350 349 351 352 352 352 351 351 350 350 350 351 351 352 353 353 354 354 354 353 352 353 354 353 353 354 354 355
358 356 354 353 353 353 349 347 349 349 346 344 344 345 346 345 346 347 348 349 349 350 349 349 350 349 349 348 348 348 349 350 351 350 349 349 349 351 352 352 352 351 351 351 350 350 351 352 352 352 353 353 354 355 354 354 354 354 354 353 353 355 355
356 356 355 354 355 355 351 347 348 349 348 346 344 344 345 345 345 346 347 348 349 349 349 349 349 349 349 348 347 347 348 349 350 350 350 349 350 351 351 352 351 350 351 351 350 351 351 352 353 353 352 352 353 355 355 355 355 355 354 353 353 354 355
354 353 352 353 355 355 351 349 349 348 349 349 347 344 344 345 345 346 347 348 348 349 349 349 349 349 349 348 348 347 348 348 349 349 350 349 349 349 350 351 350 349 350 351 351 352 353 353 354 354 353 352 352 354 354 355 355 355 354 354 355 354 354
349 349 348 348 350 350 349 350 350 350 350 351 350 347 344 344 345 345 347 347 348 348 348 349 349 349 349 348 349 349 348 348 348 349 350 350 349 349 349 350 349 349 350 351 352 353 354 354 354 355 354 353 353 352 353 353 354 354 354 355 356 355 354
344 345 345 344 344 344 344 347 350 352 351 351 351 349 346 345 344 345 347 347 348 348 348 349 348 348 349 349 349 349 349 349 349 349 349 349 349 349 349 349 349 349 350 351 353 353 354 354 354 354 355 355 355 354 354 353 352 353 354 355 356 355 354
342 343 342 341 341 340 341 345 348 352 353 351 351 351 349 348 345 345 346 347 348 348 348 349 349 350 350 350 350 350 350 350 349 350 349 349 349 349 349 349 350 350 351 352 353 354 354 354 354 354 354 354 355 355 355 354 352 353 354 355 355 356 355
339 340 340 338 338 339 341 342 344 349 352 350 350 351 350 350 348 347 347 348 349 349 350 350 350 351 352 352 352 351 351 351 350 350 350 350 351 350 350 349 350 351 352 352 353 353 354 354 354 353 353 353 353 354 355 355 354 354 355 355 356 356 355
337 338 338 337 337 339 341 341 341 345 349 350 349 350 351 351 350 350 350 350 350 351 351 350 350 351 352 352 353 352 352 352 351 352 351 351 352 351 350 350 349 351 352 352 353 353 353 354 354 353 352 351 352 353 353 354 354 354 355 355 356 356 355
336 336 336 336 336 337 340 341 340 343 347 349 349 349 350 351 351 352 351 351 352 351 350 350 350 351 352 352 354 354 353 354 353 353 353 352 353 352 352 351 350 351 352 352 353 353 353 353 353 353 352 351 350 351 351 352 353 354 355 355 355 355 355
336 336 335 337 337 337 339 340 340 342 345 348 350 349 350 351 351 352 352 351 352 352 351 351 351 351 352 353 355 355 355 355 354 354 354 354 354 353 353 352 352 352 352 353 354 354 354 353 352 353 353 352 351 350 350 351 352 354 354 354 355 355 355
336 337 336 336 336 337 337 338 339 341 343 345 348 350 350 350 350 350 350 351 351 351 351 351 351 350 351 352 354 355 355 355 355 354 354 354 354 354 355 354 354 354 354 355 355 355 355 354 353 353 353 352 351 350 350 350 351 352 352 353 354 354 354
335 335 334 334 335 336 335 336 338 339 341 343 345 348 350 350 351 350 350 351 351 351 351 351 350 350 350 351 352 353 354 354 355 355 354 353 353 353 354 355 355 356 356 355 355 355 354 353 352 351 351 351 350 350 350 349 350 350 350 351 351 352 353
333 333 333 333 334 335 334 336 338 338 339 340 342 345 346 347 348 348 349 350 350 350 350 349 349 349 349 350 351 351 351 351 352 354 353 352 352 352 352 352 353 354 355 354 353 352 351 351 351 349 349 349 349 349 349 349 348 349 348 349 349 350 351
332 331 332 332 333 334 334 336 338 337 338 338 339 341 342 342 343 344 346 346 346 347 348 348 348 348 349 350 350 351 350 350 350 350 350 349 349 350 351 350 349 350 351 351 351 350 349 349 349 349 349 349 349 349 349 348 348 348 348 348 348 348 349
330 330 330 330 330 332 333 335 336 335 334 335 336 337 338 340 340 340 341 342 342 344 345 346 346 347 349 350 350 350 350 349 348 348 348 347 347 347 348 347 347 348 347 348 349 350 351 350 349 349 349 349 350 350 349 349 348 348 347 347 347 347 347
329 328 326 326 328 329 331 332 333 332 331 332 332 332 333 335 336 335 336 338 339 339 340 341 342 343 345 347 347 348 349 349 348 348 349 350 349 349 349 349 348 348 348 348 347 348 350 351 350 349 350 350 350 350 349 348 348 347 346 346 347 347 348
328 327 326 325 326 327 328 329 329 328 330 331 329 327 326 327 329 331 331 332 333 333 334 337 338 338 339 340 342 345 346 346 347 348 349 350 349 349 349 350 350 350 350 350 348 348 349 351 352 351 351 350 350 350 349 349 348 348 348 348 348 348 349
327 326 325 324 324 325 326 326 327 328 330 329 326 324 323 322 323 325 327 328 327 327 328 331 332 332 333 334 336 338 340 342 343 344 345 346 346 347 347 347 348 348 349 351 351 351 351 352 353 353 352 352 351 351 351 351 351 351 350 350 350 350 350
323 323 322 322 323 324 325 326 328 329 329 327 325 324 324 322 321 322 324 326 326 325 325 325 326 327 328 329 330 331 334 337 338 339 340 340 341 342 343 344 346 346 348 349 350 351 353 353 354 354 353 352 352 352 353 353 352 352 352 352 351 351 351
320 321 321 322 324 324 325 326 328 328 327 326 325 324 324 323 322 322 323 325 325 324 324 323 323 324 325 325 326 327 329 332 333 334 335 337 338 338 339 340 343 345 347 348 349 350 350 350 350 350 351 351 350 351 353 353 353 353 353 352 352 352 352
318 321 322 323 324 324 325 326 326 326 326 325 324 324 324 324 323 323 324 324 324 323 323 322 322 322 323 324 324 325 326 328 329 329 329 330 332 335 336 337 338 340 342 345 347 347 346 346 346 347 348 349 350 350 351 352 352 352 352 352 352 351 352
319 320 322 322 322 323 324 325 325 325 324 323 323 323 323 323 322 322 323 323 323 322 321 321 321 321 322 323 324 324 325 325 326 326 326 326 327 328 331 333 335 336 337 338 340 342 342 341 342 344 345 344 345 348 348 349 349 349 348 349 349 349 350
319 320 321 321 322 322 323 323 324 323 322 322 322 322 322 322 321 322 322 322 321 321 320 320 320 321 322 322 323 323 324 324 324 324 324 325 325 325 327 328 331 333 334 335 335 336 336 335 336 338 339 338 339 341 342 342 342 340 339 340 341 341 341
320 320 320 321 321 321 322 322 321 321 321 321 321 321 321 321 321 321 321 320 320 319 319 319 320 320 321 322 321 321 321 322 322 322 322 322 323 324 326 327 328 329 332 335 337 338 338 338 337 336 335 336 336 335 333 332 332 331 330 331 334 334 331
319 320 320 320 320 320 321 321 320 320 320 319 320 320 319 319 320 319 319 319 318 318 318 318 318 319 320 320 320 319 319 319 320 319 319 319 320 321 323 325 327 328 330 333 335 335 336 338 340 340 339 337 334 330 328 328 327 326 325 326 329 331 329
318 319 319 319 319 319 320 320 319 319 319 319 319 319 318 318 318 317 317 317 317 317 318 317 317 317 318 319 318 318 317 318 318 318 317 318 318 319 319 320 322 324 325 327 328 328 329 330 333 336 336 333 328 326 326 326 325 325 325 325 327 328 329
317 318 318 318 318 319 319 319 318 318 318 317 317 317 317 317 316 316 316 316 316 316 316 316 316 316 316 316 317 317 316 316 316 316 316 316 317 317 317 317 318 320 321 322 323 324 324 324 325 326 326 325 324 324 324 324 324 324 324 324 325 326 327
317 318 318 317 317 318 318 318 317 317 316 316 316 316 316 315 315 315 315 315 315 315 315 315 315 315 315 315 315 315 315 315 315 315 315 316 317 317 317 317 317 318 318 319 319 320 321 321 322 322 322 322 322 323 323 323 323 323 323 323 324 324 325
317 317 317 317 317 317 317 316 316 315 315 314 314 315 314 314 314 313 314 314 314 315 314 314 314 314 314 315 315 315 315 315 316 316 316 316 317 318 318 318 317 317 317 317 316 316 317 317 318 319 319 320 320 321 321 321 321 322 322 323 323 323 323
316 316 317 316 316 316 316 316 315 315 314 313 313 314 314 313 313 313 313 314 314 314 314 314 314 314 314 315 316 316 316 316 316 316 316 316 316 317 317 317 317 316 316 315 315 314 314 314 315 315 316 317 318 318 319 319 320 320 320 320 321 321 321
316 316 316 316 315 315 315 315 314 314 314 313 313 312 312 312 312 313 313 314 314 314 313 313 313 313 314 315 315 316 315 315 315 315 315 315 315 315 315 315 315 315 314 314 314 313 313 314 314 315 315 315 316 316 317 317 318 318 318 319 319 319 320
315 315 315 314 314 314 314 314 314 314 313 313 312 311 311 311 312 313 314 314 314 314 313 313 313 313 313 314 314 314 314 314 314 314 315 315 315 315 315 315 315 314 314 314 314 313 314 314 315 315 315 315 315 316 316 316 317 317 318 318 319 319 319
315 314 314 313 313 314 314 314 314 313 313 312 311 310 310 311 313 313 313 313 313 313 313 313 312 312 312 313 312 311 311 311 312 313 314 314 314 314 314 314 314 314 314 314 314 314 314 315 315 315 315 315 315 315 316 316 317 317 318 318 319 319 319
314 314 313 313 313 313 314 313 313 312 312 311 310 310 311 312 313 313 313 313 313 312 312 312 312 312 312 312 312 311 310 309 310 311 312 314 314 313 313 313 313 313 314 314 314 315 315 315 315 315 315 315 316 316 317 317 317 317 318 318 318 319 319

ECMWFFLT1_925_thetae_102.txt.gz
Theta_e
353 354 353 352 352 350 350 351 351 352 352 353 356 356 355 354 353 354 356 358 359 358 358 357 357 358 358 358 358 358 359 359 359 359 358 358 358 358 358 358 358 358 357 356 356 356 356 355 354 354 355 356 356 357 357 358 358 358 357 358 358 358 357
353 354 354 353 353 352 351 352 352 352 353 354 356 355 354 354 355 357 358 359 360 359 358 358 357 358 357 358 358 358 358 358 359 359 358 358 359 358 357 357 358 359 358 357 357 358 358 357 356 355 356 356 356 357 358 358 359 359 360 361 359 360 359
353 354 356 356 353 352 352 352 353 353 353 354 355 355 354 355 357 359 359 360 361 359 359 358 358 358 358 358 358 358 358 357 358 358 357 357 357 357 356 357 357 357 358 358 357 357 357 357 357 356 357 357 357 358 358 359 359 359 362 363 360 360 360
355 355 358 358 357 356 353 352 353 354 354 353 354 354 354 355 357 360 361 361 361 360 359 358 357 357 357 357 357 358 358 357 357 357 355 355 356 356 356 357 356 356 358 358 357 357 356 357 357 358 358 357 358 359 359 359 359 360 363 363 360 360 361
356 356 356 356 355 355 352 351 352 353 354 353 354 354 353 355 358 359 360 361 361 360 358 357 356 355 356 356 356 356 357 357 357 356 355 354 355 356 356 356 355 355 356 357 357 357 357 357 357 358 358 358 358 358 359 359 359 360 362 361 360 360 360
354 354 355 353 350 351 351 351 352 353 353 351 352 354 354 356 357 358 359 360 361 359 358 358 356 355 356 355 354 354 355 356 357 356 355 355 355 355 355 355 355 354 355 356 357 357 358 357 357 357 357 357 357 356 358 358 358 359 361 361 360 360 358
353 353 354 353 351 350 351 352 350 352 354 353 352 353 354 354 355 356 356 357 359 358 358 358 356 355 356 355 353 353 354 354 355 355 356 355 354 354 354 354 355 354 355 356 357 357 357 357 357 357 357 356 356 356 357 359 359 359 360 361 361 360 359
354 355 353 352 350 350 352 351 349 349 349 350 351 354 355 352 352 354 354 354 356 357 357 357 355 355 356 356 355 354 354 353 353 354 354 353 353 353 352 353 354 354 355 355 355 356 357 357 357 357 357 356 357 357 358 359 360 359 359 360 361 361 358
354 354 353 350 349 351 353 351 350 347 343 343 345 349 353 354 352 353 353 353 354 356 357 357 356 355 356 357 356 354 354 352 351 352 353 353 351 351 351 351 352 354 354 354 354 354 356 356 357 359 359 358 359 359 359 359 359 358 358 360 360 360 358
355 353 353 351 350 353 353 351 351 348 345 343 341 343 348 351 353 354 353 353 353 354 357 358 357 356 357 358 358 355 353 352 351 351 351 351 350 350 350 349 350 352 353 352 352 353 354 355 356 359 361 360 360 360 359 359 359 358 358 359 359 358 359
353 353 354 353 351 352 353 353 352 351 349 346 345 346 346 345 347 349 350 352 354 354 355 357 357 357 358 359 359 357 353 351 350 350 349 350 349 349 349 348 348 350 351 351 350 351 354 355 356 359 361 360 360 361 360 360 360 360 358 358 358 358 357
349 350 352 352 351 351 352 353 353 353 352 350 350 351 349 346 344 344 343 345 349 352 355 356 357 358 358 359 359 358 356 353 351 350 349 350 349 348 349 348 347 348 349 350 349 349 352 354 356 358 360 360 360 360 361 360 360 361 360 358 357 358 357
347 348 349 350 351 351 351 352 352 353 353 352 353 353 352 350 347 345 344 343 344 349 354 356 357 357 357 357 357 356 357 356 354 353 351 351 350 349 349 349 348 348 348 348 349 349 350 353 355 357 358 359 359 359 360 361 361 361 361 359 358 358 359
347 347 347 349 349 349 350 350 351 352 351 352 353 353 353 353 351 349 347 346 345 348 352 355 356 356 356 356 355 354 356 357 357 357 355 354 353 352 350 350 349 349 349 349 350 348 348 350 353 356 356 357 357 358 358 359 360 360 360 359 359 359 359
348 348 347 347 347 347 348 348 349 350 350 351 352 352 352 353 353 352 351 350 349 349 351 353 354 355 355 355 355 355 356 357 358 359 359 357 357 357 355 353 352 352 352 352 352 350 348 348 350 353 355 355 355 356 356 356 357 358 359 359 359 359 358
347 346 346 346 345 345 345 346 348 349 349 350 351 352 353 353 352 352 352 352 352 351 352 352 352 353 353 353 356 356 357 357 357 358 360 361 361 361 359 357 355 354 354 355 355 352 350 350 351 351 353 353 354 355 354 354 354 356 357 357 357 357 358
346 345 345 345 345 343 343 345 347 347 348 349 350 351 352 352 352 351 351 351 351 352 353 353 353 352 350 350 353 354 354 355 354 355 357 360 363 363 362 360 357 356 356 357 357 356 354 353 353 352 352 352 353 353 353 352 351 354 354 353 352 353 355
345 344 344 344 343 343 342 343 345 345 345 346 347 347 347 348 349 349 349 349 348 350 353 354 354 353 351 351 352 352 352 352 351 350 351 354 358 361 362 360 358 358 357 357 358 358 357 356 355 355 354 352 352 352 352 351 351 353 352 350 348 349 352
343 343 343 342 341 341 341 342 341 340 340 341 342 343 343 345 345 345 347 346 345 347 350 351 351 351 352 353 353 353 352 350 350 350 350 352 354 355 358 358 358 358 357 357 357 358 358 357 356 356 355 353 352 352 352 351 352 352 351 349 348 348 349
342 341 341 340 340 340 340 340 338 337 337 339 340 340 340 341 342 343 344 343 342 343 344 344 345 345 346 348 350 352 352 351 351 351 351 352 352 353 354 354 355 356 356 356 357 357 358 358 356 356 356 354 353 354 353 352 352 352 351 349 348 348 348
341 339 338 338 338 339 338 338 338 337 337 338 339 339 339 339 340 341 340 339 339 340 340 339 339 339 340 342 344 347 350 351 351 350 351 351 351 352 352 351 352 353 354 355 357 357 358 357 357 357 356 354 353 353 353 351 351 351 350 348 349 349 348
338 337 336 337 337 337 338 338 337 337 337 337 338 339 339 339 340 339 338 337 336 336 336 336 336 337 337 338 339 341 345 348 349 350 351 351 351 351 350 350 351 351 352 353 354 356 357 356 356 356 356 355 354 355 354 351 351 350 349 348 348 348 348
337 336 336 336 335 335 334 334 334 333 333 334 336 336 336 336 336 336 336 335 334 334 333 333 334 335 335 335 336 338 340 343 345 346 348 349 350 350 349 348 348 349 350 350 351 352 353 353 354 355 357 357 356 355 352 350 350 350 349 349 349 350 352
335 335 334 333 332 331 329 328 328 329 329 330 331 331 332 332 332 332 332 332 332 333 332 332 332 333 333 334 333 334 336 338 340 341 343 344 345 346 347 347 347 346 346 347 347 348 351 352 351 352 354 354 352 350 349 348 350 350 350 351 350 351 356
333 333 331 330 329 328 327 328 328 327 328 328 328 328 329 329 329 329 329 328 329 330 330 331 332 332 332 332 331 331 332 334 335 337 338 339 339 341 343 345 345 345 345 346 347 348 351 352 348 346 348 349 348 347 346 346 348 349 350 351 351 352 356
333 333 332 330 329 329 329 330 329 328 328 327 326 326 326 327 328 328 328 327 327 327 328 329 330 330 330 330 330 330 329 328 329 332 334 335 336 337 338 339 341 342 343 345 346 346 347 348 345 343 343 344 344 343 342 342 344 346 347 349 349 350 353
331 332 332 331 330 330 330 329 328 327 327 327 326 325 326 327 327 327 327 327 326 326 327 327 328 328 328 328 329 329 329 328 327 327 329 331 333 334 334 334 336 338 339 339 341 342 342 342 342 341 341 340 340 339 338 338 339 340 341 343 345 346 349
330 331 332 332 331 330 328 328 327 327 326 326 325 324 325 326 327 327 327 326 326 326 326 326 327 326 326 326 326 326 327 328 327 326 327 329 330 331 332 333 336 337 337 336 337 340 339 338 338 338 337 336 335 335 333 333 334 335 337 339 340 341 343
330 331 332 331 330 329 327 327 326 326 325 324 323 323 324 325 326 326 325 325 325 324 325 326 326 326 326 326 325 325 325 325 326 327 328 329 329 330 332 334 335 336 335 335 337 338 336 334 334 334 332 331 331 330 329 329 330 331 332 334 335 337 339
330 330 330 330 328 327 327 326 326 325 324 324 324 323 323 324 326 326 325 324 323 323 324 324 325 325 326 325 325 325 324 324 325 325 326 328 329 330 331 332 333 334 334 335 337 337 335 333 333 332 331 329 328 327 326 326 326 327 328 328 329 330 332
330 329 328 328 327 326 325 325 325 324 324 324 324 323 323 323 324 325 325 324 323 323 323 323 323 324 324 325 325 325 324 324 325 324 324 326 327 328 329 330 330 331 332 334 335 335 334 332 331 331 330 329 328 326 325 325 324 325 325 326 325 326 326
329 328 327 327 326 325 324 323 323 323 323 323 323 322 322 322 323 324 323 323 323 323 323 323 323 322 323 323 323 323 323 324 324 324 324 324 324 326 326 327 328 328 328 330 332 333 333 333 331 330 329 329 328 328 327 326 324 322 322 323 324 324 324
329 328 327 326 325 324 323 322 322 322 322 321 321 321 321 322 322 322 322 322 321 322 322 323 323 322 322 322 322 322 322 322 322 322 323 323 324 324 324 325 326 325 325 326 328 328 330 330 330 329 329 328 328 328 328 327 326 323 321 321 322 322 322
329 328 327 326 325 324 324 323 322 322 322 321 321 320 320 321 321 321 321 321 320 321 321 321 321 322 321 321 321 321 321 320 321 321 321 322 323 323 323 325 325 324 322 321 322 325 326 326 326 326 326 326 327 327 327 327 325 323 321 320 320 319 321
328 328 327 326 325 325 324 324 323 323 323 322 321 320 320 320 320 320 320 320 320 321 321 320 320 320 320 320 320 320 320 320 320 320 321 321 321 320 319 319 321 323 321 317 316 318 321 322 322 322 323 324 324 324 327 327 323 319 317 318 318 317 318
328 327 326 325 325 325 325 324 323 323 322 321 321 320 320 320 320 320 320 320 320 320 320 320 320 319 318 318 317 318 319 319 319 320 320 321 322 321 319 316 315 318 318 316 314 314 315 317 317 317 320 323 321 319 321 322 319 317 316 317 317 317 317
327 326 325 324 325 325 324 323 323 322 321 320 320 320 320 320 319 319 319 319 319 319 319 319 319 318 318 317 316 316 318 318 319 319 320 320 321 321 321 320 317 315 314 315 315 314 314 315 314 314 316 320 321 319 318 317 317 317 316 316 317 317 317
327 326 325 325 325 325 324 323 322 321 320 320 320 320 319 319 319 319 318 318 318 318 318 319 319 318 318 317 316 316 316 317 318 318 319 319 319 320 320 321 321 318 315 314 314 315 314 314 314 314 314 315 318 319 318 316 316 316 316 316 317 317 317

ECMWFFLT1_925_thetae_105.txt.gz
Theta_e
356 357 355 353 351 349 350 351 350 350 351 351 353 353 351 349 350 350 352 355 355 356 358 358 359 359 359 360 361 361 362 362 359 359 360 359 359 359 358 358 357 356 355 354 355 356 355 354 355 354 355 356 356 358 360 360 360 359 359 358 359 360 358
355 355 355 356 354 352 351 352 350 350 351 352 354 354 352 351 351 351 352 354 355 356 357 358 359 359 358 359 360 360 361 362 361 360 359 360 361 360 358 357 357 358 358 356 355 357 357 356 356 355 356 357 356 358 359 360 361 360 360 361 360 360 360
353 354 354 356 357 354 352 352 352 352 351 352 354 353 353 354 353 352 353 354 355 355 355 356 358 358 358 359 359 359 359 360 361 360 358 358 359 358 358 359 358 356 357 357 356 357 357 357 357 356 357 357 356 358 358 360 361 360 363 366 362 361 362
355 355 354 355 358 359 356 352 352 352 352 352 350 350 352 355 354 354 355 355 354 355 354 355 356 357 357 359 359 358 359 358 358 358 357 356 356 355 356 358 358 356 357 358 357 356 356 357 358 358 358 358 358 359 359 360 361 360 363 366 362 361 363
357 356 355 356 359 362 362 357 355 353 352 352 350 349 351 354 355 356 356 357 357 355 353 352 353 354 356 358 357 357 357 357 357 356 356 356 355 355 355 356 356 355 356 357 356 357 358 358 358 358 359 358 359 360 361 361 360 361 363 364 360 359 361
357 356 356 355 357 361 364 361 360 357 354 352 351 351 354 354 356 357 358 359 360 359 354 352 352 353 354 356 356 356 356 356 356 356 355 355 356 356 355 355 355 354 355 355 355 357 358 357 358 358 358 357 356 358 359 359 359 360 363 362 360 358 358
357 356 356 355 355 358 361 358 357 359 359 356 352 351 355 356 357 358 358 360 361 361 357 354 353 353 353 353 353 354 354 355 355 355 354 354 354 355 355 356 355 354 354 354 354 356 357 356 357 358 358 357 356 356 357 359 359 358 359 361 361 360 359
356 356 355 354 352 353 355 355 355 357 357 356 355 355 356 357 358 358 357 357 359 360 358 355 353 353 353 353 353 353 353 353 353 353 353 353 353 353 353 355 355 354 354 354 354 356 357 357 357 357 357 357 356 357 358 360 360 356 356 360 362 361 360
356 356 355 354 352 351 352 354 355 354 352 351 353 356 359 358 356 356 357 357 357 359 359 356 353 353 354 355 354 353 352 352 351 351 351 351 351 351 350 351 352 354 354 354 355 355 356 356 356 358 358 357 358 358 359 361 361 358 357 360 363 362 359
356 356 356 353 353 353 353 354 353 351 351 350 348 350 355 359 358 356 356 357 357 359 360 359 356 355 355 356 356 354 353 352 350 350 349 349 349 349 349 348 349 352 353 353 354 353 354 355 355 359 360 359 360 361 360 360 360 358 358 360 362 362 360
356 357 357 354 353 354 355 355 353 351 352 351 346 344 348 353 357 359 357 356 355 356 359 360 360 359 357 358 358 356 354 352 350 349 349 348 347 346 348 347 346 349 351 351 352 351 353 355 355 359 362 360 360 362 360 360 360 359 358 358 359 359 359
356 357 356 354 354 355 356 356 353 352 352 351 347 346 345 345 349 354 357 358 357 356 358 360 361 360 359 359 360 359 358 355 352 350 348 348 348 346 346 346 346 347 349 349 350 349 351 354 354 358 361 360 359 360 361 361 360 360 359 358 357 357 357
355 356 356 355 354 354 355 355 354 355 354 352 351 350 347 346 346 347 349 351 354 355 356 358 360 361 360 359 359 360 361 359 355 353 349 348 348 347 346 346 346 346 347 348 349 349 348 352 354 356 359 360 359 359 361 362 360 361 361 358 357 357 357
354 354 354 355 354 354 354 354 355 356 355 354 354 352 352 350 348 346 344 344 345 347 349 353 358 360 360 360 359 359 360 360 358 356 353 350 349 347 347 347 347 346 346 347 349 349 348 348 352 355 357 359 358 357 359 360 360 360 361 359 357 357 358
352 353 353 353 353 353 353 353 354 356 355 354 355 354 354 353 351 351 350 348 346 344 344 348 353 358 359 358 359 359 358 358 358 359 358 355 352 350 349 348 349 349 349 348 349 349 348 347 348 352 355 356 358 357 357 358 358 357 359 359 357 355 356
352 352 352 352 352 352 351 352 354 355 354 355 355 355 355 355 355 355 355 354 352 348 346 345 348 353 357 357 358 358 359 359 359 360 360 359 357 355 354 353 351 351 350 351 351 351 350 349 347 348 352 354 356 356 355 356 355 354 356 357 355 354 355
351 351 350 350 349 350 350 351 353 353 353 354 354 354 355 357 356 355 355 356 355 353 351 349 348 349 350 353 353 353 355 357 360 362 361 361 362 361 361 360 357 355 354 353 353 354 353 351 349 348 349 351 354 354 353 353 352 352 354 356 355 357 358
350 348 348 348 348 349 349 349 350 350 350 350 350 352 353 354 354 353 353 354 353 354 354 353 352 351 350 351 350 349 350 351 354 358 360 363 366 365 366 366 363 361 358 356 355 357 356 355 352 350 349 350 352 352 352 351 351 351 353 354 355 356 356
348 346 346 346 346 347 346 346 347 347 347 347 348 348 350 351 351 351 350 349 348 350 350 350 351 352 352 352 352 352 352 351 351 353 356 361 363 362 364 365 364 363 362 359 358 358 358 357 354 353 352 351 350 351 352 351 351 352 353 354 353 352 351
345 344 345 344 344 345 345 345 345 345 345 345 346 347 347 347 347 347 347 346 346 346 347 346 347 348 349 350 351 351 351 352 352 352 354 357 357 356 357 358 359 361 360 360 359 359 360 359 356 355 354 353 351 352 352 351 350 353 353 352 351 349 348
343 343 343 342 342 344 344 345 344 344 344 344 345 345 345 344 344 344 345 345 345 344 344 344 344 344 345 345 347 348 349 350 351 351 353 353 352 352 353 353 354 354 354 355 356 357 359 358 357 355 354 354 352 351 351 351 350 352 353 351 350 349 347
341 341 340 341 341 342 343 343 342 343 343 343 344 344 343 343 342 343 343 343 343 343 342 343 342 342 343 342 343 344 345 347 349 349 351 352 352 352 353 352 351 350 350 350 350 354 357 356 354 354 353 352 351 349 349 350 350 351 352 351 350 349 348
339 339 340 340 339 340 340 340 341 341 341 341 341 340 341 341 341 341 341 341 341 341 341 342 342 341 341 341 341 342 343 345 347 347 348 349 351 351 352 352 351 350 351 350 350 354 356 352 350 351 351 351 350 349 349 351 351 351 350 350 350 349 349
338 338 338 336 335 335 335 335 336 336 337 338 338 339 339 339 338 339 339 338 338 338 338 339 339 339 340 340 339 340 341 342 343 344 344 345 346 347 348 350 351 350 351 350 350 352 354 350 348 350 349 349 350 349 350 351 352 351 350 350 349 348 351
336 335 332 331 331 330 330 330 329 329 331 332 333 334 335 335 334 334 334 334 334 334 334 335 336 336 337 338 338 338 339 340 340 341 340 341 342 343 344 346 348 348 349 348 348 349 350 349 348 347 346 347 348 349 349 349 351 351 350 351 350 349 353
333 332 330 329 329 329 330 329 328 328 328 327 327 329 329 330 331 331 330 330 330 330 331 332 333 334 334 334 335 336 336 336 338 339 340 340 340 340 341 342 343 345 346 347 346 347 348 347 346 345 345 345 346 346 345 345 348 349 349 350 351 350 352
333 332 330 330 330 330 330 328 327 327 327 326 326 327 328 329 330 330 330 329 329 329 329 329 330 332 332 332 333 335 335 335 335 336 337 338 338 338 340 340 339 340 342 344 345 346 345 344 344 344 343 342 342 342 341 341 343 345 345 347 348 350 352
334 332 331 330 330 329 328 327 326 325 325 325 325 325 327 329 329 330 329 329 328 329 329 329 329 329 330 330 330 331 333 335 336 336 336 336 336 337 339 338 337 337 340 340 341 342 340 340 340 339 337 337 337 336 336 336 338 340 342 344 345 347 348
334 331 330 329 328 327 326 326 325 324 324 324 324 324 326 328 329 328 328 328 327 327 328 329 330 329 329 329 329 329 330 331 334 335 336 336 335 336 337 336 335 338 339 338 337 337 335 335 335 333 332 332 331 331 331 332 334 335 337 338 340 341 342
333 330 329 328 327 326 326 326 326 325 325 324 325 325 326 327 328 327 326 327 327 326 326 327 328 329 329 329 329 328 328 329 330 332 334 335 335 334 334 334 334 336 339 338 336 335 334 334 333 332 332 331 329 328 328 329 330 331 332 333 334 335 336
331 329 329 328 327 326 325 325 325 325 325 324 325 325 326 327 327 327 326 326 326 326 326 325 326 327 327 327 328 329 329 328 328 329 330 331 332 333 334 333 333 334 336 337 337 336 335 334 333 333 333 332 330 328 326 326 326 327 328 328 328 329 330
329 329 329 327 327 325 324 325 325 325 324 324 324 325 325 325 326 326 326 325 325 325 325 325 325 325 325 325 325 325 327 328 327 327 327 327 329 331 332 332 332 333 334 334 335 335 335 334 333 333 333 333 332 330 328 327 326 325 325 325 326 326 325
329 328 328 328 327 325 324 325 325 324 324 324 323 323 324 324 325 326 326 325 324 324 326 326 326 325 324 324 323 322 322 322 323 325 326 326 327 329 329 330 330 331 331 332 332 333 333 333 332 333 333 332 332 331 330 330 329 327 326 326 326 326 327
331 330 329 328 326 325 325 325 325 325 324 324 324 324 324 324 324 324 324 324 323 324 324 325 324 324 324 323 322 321 321 320 321 323 325 324 325 326 327 329 328 327 325 325 326 328 330 330 330 329 329 330 331 331 331 330 327 324 322 321 321 322 325
331 331 330 328 327 327 327 326 326 326 325 324 324 324 324 324 323 323 323 323 323 324 324 323 324 324 323 323 322 321 322 321 321 323 324 324 322 320 320 322 325 326 322 318 319 322 324 325 326 326 327 328 327 327 329 328 323 318 316 316 316 316 318
331 330 330 329 327 328 328 327 326 326 325 324 324 323 324 324 324 323 323 323 323 324 324 324 324 322 321 321 320 321 322 322 321 322 323 325 325 322 317 316 319 320 318 315 313 315 317 318 318 321 325 326 322 320 321 321 318 315 314 315 315 315 316
332 331 329 328 328 328 328 327 326 326 324 324 324 324 323 323 323 323 323 323 323 323 323 324 324 322 321 320 319 319 322 322 321 322 323 323 325 325 324 321 319 317 316 315 313 312 312 313 313 314 320 323 322 320 317 316 315 315 315 315 315 315 316
332 331 329 328 327 327 327 327 326 325 324 323 323 324 323 323 323 323 322 322 322 322 322 323 323 321 321 320 318 318 320 321 321 322 323 323 323 323 324 325 324 320 317 316 316 315 314 314 313 313 314 317 320 320 318 315 315 315 315 315 316 316 316

ECMWFFLT1_925_thetae_108.txt.gz
Theta_e
356 355 358 358 352 351 352 351 352 351 351 350 349 349 350 353 355 358 359 359 360 359 359 360 360 360 359 358 358 358 357 355 356 357 357 356 355 356 356 356 356 356 356 356 356 355 355 354 353 353 355 356 357 359 360 360 360 359 359 358 357 357 357
357 355 356 355 353 354 355 352 352 352 350 350 350 350 350 353 356 358 360 359 359 360 359 360 360 359 359 358 357 358 356 355 356 355 354 354 354 355 356 357 356 355 355 354 354 355 355 354 354 354 355 356 356 358 360 360 359 360 359 359 358 359 359
358 357 356 357 356 356 355 352 351 351 351 351 351 351 350 351 354 358 360 359 359 360 359 359 360 359 359 359 358 358 357 357 357 355 354 355 356 356 356 356 356 356 357 355 354 356 355 355 355 355 356 357 356 357 359 359 360 360 360 360 360 359 360
357 358 358 360 360 358 356 353 352 351 350 351 351 352 351 350 352 355 357 358 358 359 358 358 359 359 359 359 359 359 358 358 357 355 355 357 357 357 356 356 357 356 356 356 355 355 356 357 356 356 356 357 356 357 358 359 360 361 361 360 359 360 361
357 359 359 360 361 361 359 354 353 353 351 351 352 353 353 351 351 354 355 356 356 357 357 357 357 357 358 359 358 359 359 358 357 355 355 356 356 355 355 357 358 357 355 355 356 355 355 356 356 357 357 357 358 358 358 359 360 360 360 360 360 360 361
357 358 358 359 360 363 366 359 354 352 351 352 353 354 355 354 353 353 352 354 354 354 355 355 355 355 356 357 356 356 358 358 357 356 355 356 354 353 354 357 357 356 355 355 355 356 356 357 357 357 358 357 358 358 359 359 359 360 360 361 361 359 359
356 356 356 358 360 362 368 367 361 357 353 352 354 354 354 354 354 354 354 353 353 352 352 352 353 353 354 355 354 354 356 357 357 356 355 355 355 355 355 355 355 355 355 354 355 356 356 357 357 357 358 357 356 356 357 358 358 358 359 361 361 359 358
354 355 354 357 359 358 363 364 364 362 356 353 356 356 353 351 352 353 354 353 352 353 352 350 351 352 353 354 353 353 355 355 355 356 354 354 354 354 354 354 355 354 354 354 355 355 356 356 355 356 357 357 356 355 356 358 357 357 359 360 361 360 359
354 355 354 355 356 356 360 361 361 360 357 355 357 356 352 352 352 352 353 352 348 352 354 351 351 351 352 353 352 353 353 353 354 354 354 353 352 352 353 353 355 355 353 354 355 354 354 356 355 355 357 356 356 356 356 357 358 358 358 358 358 359 359
358 358 355 355 356 357 359 358 358 358 357 357 358 357 354 352 352 352 353 352 350 354 357 353 351 352 353 353 353 352 352 351 352 353 353 352 351 351 351 351 352 353 354 354 354 352 353 356 355 355 356 356 356 358 357 357 358 359 358 355 355 358 360
357 359 359 358 356 356 358 357 357 357 356 356 357 358 357 355 354 355 353 351 353 358 360 356 353 352 353 354 354 353 351 350 351 351 350 350 350 349 349 349 348 350 352 352 352 352 353 354 354 355 357 357 357 359 359 358 359 359 358 357 357 359 361
353 355 358 360 358 356 358 357 356 357 357 356 355 355 358 358 359 360 358 355 356 358 358 358 358 356 354 355 356 356 355 352 351 350 349 348 349 348 347 347 347 348 349 350 351 352 352 353 353 355 357 358 358 359 359 359 359 359 358 357 357 358 360
353 354 355 359 360 357 358 358 355 356 356 356 355 352 353 356 358 360 359 357 358 358 357 357 359 361 359 357 357 357 358 356 355 353 351 348 348 348 347 347 346 346 346 349 350 351 351 351 352 354 356 358 359 358 358 359 358 359 359 358 357 357 357
353 353 351 355 357 356 359 358 355 355 355 354 355 352 350 350 353 357 357 355 354 355 355 356 359 361 362 360 359 359 359 359 358 356 355 352 350 348 348 347 346 346 345 346 348 349 350 349 351 353 355 358 359 358 358 359 359 359 359 359 360 358 356
353 353 351 352 353 354 357 357 356 356 355 353 354 355 354 351 348 350 351 350 349 349 349 351 354 358 361 361 361 360 359 358 357 356 356 356 354 351 350 348 346 346 346 347 347 348 349 348 348 351 353 356 358 357 357 357 358 359 359 360 360 357 356
353 353 351 352 352 352 352 353 353 354 355 354 355 356 356 355 353 350 349 347 346 344 344 345 346 350 356 360 360 360 359 358 356 356 356 357 356 354 353 352 351 350 349 348 348 348 349 349 347 348 350 354 356 356 356 355 356 358 359 359 358 357 356
352 353 352 351 351 349 349 350 350 350 352 354 355 355 355 356 357 356 354 353 351 350 349 349 347 347 349 353 356 358 358 357 357 358 358 359 357 354 353 352 351 352 351 351 351 350 350 351 349 348 348 350 352 355 355 353 353 355 356 356 356 357 356
352 353 352 351 351 350 348 350 349 348 350 352 354 355 355 356 357 355 355 355 355 355 355 354 354 351 349 350 352 353 353 353 354 354 356 359 359 357 356 354 352 352 352 352 352 352 353 354 353 352 350 348 349 352 353 352 351 351 351 353 354 355 355
351 353 351 350 351 350 348 347 347 348 348 349 351 352 352 353 353 352 352 353 353 353 354 354 355 355 354 353 353 352 351 350 350 350 350 354 357 358 358 358 358 357 355 354 354 353 354 354 353 353 352 351 350 351 351 350 350 350 350 351 353 354 355
349 349 349 347 348 347 346 346 347 347 346 346 347 347 348 349 349 349 350 350 350 350 351 351 351 351 352 352 352 353 353 352 352 352 350 351 353 356 357 357 359 359 357 357 357 356 356 356 355 354 351 350 350 351 351 350 349 350 350 352 354 355 356
348 347 346 346 345 346 346 347 347 346 346 346 346 346 346 347 347 347 347 347 347 348 348 348 348 347 348 348 348 350 351 351 352 353 352 352 353 355 355 355 356 357 357 358 357 357 356 356 356 355 351 351 351 351 351 351 350 350 351 353 355 355 354
345 344 344 345 345 346 346 347 347 347 347 347 347 346 346 346 346 346 345 345 345 345 345 345 345 344 344 345 345 346 347 348 350 351 352 353 353 353 353 353 353 355 356 355 353 354 353 353 355 354 352 352 352 349 349 349 349 350 352 354 354 352 350
342 341 342 343 344 345 345 345 345 345 345 344 344 344 344 344 344 343 344 344 344 344 343 343 343 343 342 342 343 343 344 345 347 349 349 350 351 351 351 351 351 352 353 352 350 350 350 351 352 353 352 352 351 349 349 349 349 351 351 352 352 350 349
340 340 341 341 340 341 342 342 343 342 342 342 342 342 342 342 341 341 342 342 342 341 341 341 342 341 341 341 341 341 341 342 343 345 347 347 347 348 349 350 351 351 352 352 351 349 349 350 352 352 351 350 349 348 348 349 349 351 350 351 351 350 349
336 336 336 336 335 334 335 335 336 337 339 339 338 338 338 338 338 337 337 338 337 337 337 337 338 339 339 339 339 339 340 341 341 342 343 344 344 344 345 346 347 349 351 350 350 350 350 350 351 351 350 348 347 348 347 348 348 349 350 351 351 350 351
333 332 331 331 330 330 331 330 330 331 333 332 333 333 333 333 333 333 332 332 332 333 334 335 335 335 336 337 337 337 338 340 341 341 340 341 342 342 342 343 344 345 346 347 347 348 348 349 349 348 347 346 346 345 344 344 345 346 348 349 350 350 351
332 331 330 330 330 329 328 328 328 329 329 329 331 332 332 332 331 331 331 331 330 330 331 332 332 332 333 334 335 336 336 337 338 339 340 341 341 340 339 340 341 342 343 344 345 346 346 347 347 345 344 343 343 342 341 340 341 342 344 346 348 349 351
331 330 330 330 328 327 325 325 326 326 326 327 328 330 331 331 331 330 331 330 330 331 330 330 330 330 330 331 332 334 336 336 336 337 338 339 339 338 338 339 339 340 342 342 342 342 342 341 340 340 338 337 337 337 337 337 338 340 341 343 345 347 348
332 330 329 328 327 326 326 325 325 325 325 326 327 328 329 330 330 330 329 329 329 330 331 331 331 330 330 330 329 331 333 335 336 336 336 336 336 336 338 339 339 339 339 338 338 337 336 335 335 334 333 332 332 332 332 332 334 336 338 339 341 343 344
331 329 328 328 327 326 326 325 325 325 326 326 326 327 328 328 329 329 329 329 328 328 329 330 331 330 330 330 330 329 330 332 334 334 334 335 335 335 336 338 340 339 338 337 336 336 334 333 333 333 331 330 329 328 328 327 328 331 334 335 337 338 339
329 328 327 327 326 326 325 324 324 324 325 326 327 328 328 328 328 328 328 328 327 327 327 328 328 329 328 329 330 330 329 329 330 330 332 333 334 334 333 335 338 338 338 337 337 336 335 334 334 334 332 330 328 327 326 326 326 327 329 330 331 331 332
329 329 327 326 326 326 326 325 324 324 325 326 326 326 326 326 326 327 327 326 326 327 327 327 326 327 326 326 326 327 328 329 329 328 330 331 332 332 332 333 335 335 334 335 335 335 335 335 335 336 335 333 332 329 328 328 328 327 327 328 329 329 330
331 329 327 326 326 326 326 326 325 325 325 325 324 325 326 326 327 327 326 326 325 327 328 328 327 326 325 324 323 322 321 323 326 327 328 329 330 331 331 331 331 330 329 329 330 331 333 334 334 334 334 334 334 332 331 330 328 325 324 326 327 328 330
334 331 328 326 326 327 327 326 326 326 326 326 326 326 326 326 326 325 325 325 325 325 325 325 325 325 325 323 322 322 320 321 323 325 325 324 324 327 329 328 327 325 324 323 323 324 327 329 330 330 331 332 332 332 330 327 323 320 319 320 321 323 325
334 332 330 328 328 328 328 327 327 326 327 326 326 325 325 325 324 324 324 325 325 326 326 326 326 326 325 323 322 323 323 323 324 325 325 322 319 319 323 325 325 323 320 318 319 320 322 324 327 328 328 327 327 328 327 322 318 316 315 315 315 316 317
332 332 330 329 328 329 329 328 327 327 326 326 326 325 325 325 325 324 324 324 325 326 327 327 327 324 323 322 322 324 325 324 322 324 326 325 322 319 318 318 319 319 316 314 314 316 317 320 322 324 326 324 322 321 321 319 316 315 314 314 314 314 313
332 331 330 329 329 330 330 329 327 327 326 326 326 326 326 326 325 325 325 325 325 325 326 327 327 325 323 321 320 322 325 324 323 324 325 325 325 325 322 319 317 316 316 314 312 312 312 312 314 317 321 322 320 319 317 316 315 314 314 314 314 314 315
332 331 331 330 329 330 330 329 328 327 325 324 325 325 325 325 325 324 324 324 324 324 325 325 324 323 322 321 320 321 323 323 324 325 325 324 324 324 324 324 323 320 319 318 317 316 315 313 312 312 315 317 319 318 316 315 314 314 314 314 314 314 315

ECMWFFLT1_925_thetae_114.txt.gz
Theta_e
355 357 360 356 351 346 345 346 348 349 350 350 350 352 355 356 356 356 355 356 357 357 357 356 356 356 355 356 357 356 354 352 352 352 353 352 351 352 353 353 354 355 355 355 355 355 355 355 354 353 355 355 356 357 357 357 356 355 355 355 355 355 355
355 356 360 358 355 351 347 345 348 348 349 350 350 352 355 356 356 356 357 357 357 358 357 356 357 356 355 355 356 357 355 352 351 352 352 352 352 353 354 354 355 355 356 355 354 354 355 354 354 353 354 355 354 354 356 357 356 356 356 356 355 355 355
355 356 360 359 356 354 350 346 346 347 348 349 350 353 355 356 357 357 357 358 358 358 358 357 358 357 357 356 355 356 356 353 351 351 352 353 353 353 354 355 354 353 354 353 353 354 354 354 354 354 353 354 353 353 353 355 354 354 354 355 354 353 354
355 356 359 358 355 352 351 348 347 347 348 348 351 354 355 356 356 357 357 358 358 358 359 358 358 359 358 357 356 356 356 354 352 351 352 353 352 352 354 354 352 352 354 354 354 355 354 354 355 354 353 353 354 353 353 354 354 353 352 354 356 355 354
355 356 359 358 354 353 351 350 349 348 348 349 351 353 355 355 356 357 357 358 358 358 358 358 359 359 359 358 357 357 355 354 353 352 352 353 352 353 354 353 352 353 354 355 355 355 354 354 355 354 354 354 354 354 354 354 355 354 353 353 356 358 356
355 356 359 357 354 354 353 351 350 349 349 349 351 354 355 356 356 357 357 357 358 357 358 358 358 358 359 359 358 357 355 355 354 352 352 353 353 353 353 353 353 354 355 354 355 354 353 353 354 354 354 355 355 355 355 356 355 355 356 355 356 357 357
354 356 358 355 353 354 352 350 349 349 349 349 351 354 356 356 357 357 357 358 357 358 358 358 358 358 359 359 359 357 355 355 355 353 351 352 353 353 352 353 354 354 355 354 354 355 354 354 355 354 354 355 355 356 356 356 356 355 357 358 358 357 356
355 356 357 355 355 354 351 349 349 348 348 349 351 353 355 356 357 357 357 358 358 358 358 358 358 358 359 359 358 357 355 355 356 353 350 350 351 351 352 354 353 354 355 354 355 355 355 355 355 354 355 355 355 355 355 356 357 356 357 358 359 358 357
356 358 357 356 357 357 351 347 348 349 349 349 350 351 354 356 357 357 357 358 358 358 358 358 358 358 358 359 358 357 356 356 356 354 352 351 350 351 353 355 354 355 355 355 355 355 354 354 354 354 355 355 355 355 355 356 357 357 358 358 358 359 358
358 360 362 361 363 363 355 348 348 349 349 351 350 350 354 356 357 357 357 358 358 358 359 359 359 359 358 359 358 358 357 356 356 355 355 354 353 353 355 355 354 355 356 356 355 355 354 354 354 355 355 355 356 356 356 356 356 357 357 358 358 358 358
359 360 360 359 359 361 357 351 349 349 349 351 351 350 353 356 358 357 357 358 358 357 359 358 359 359 359 359 359 358 358 358 357 357 357 356 354 354 354 355 354 353 354 356 356 354 354 354 354 355 355 355 355 356 356 356 356 356 356 356 357 357 357
359 358 355 353 355 355 353 351 350 350 350 350 351 352 354 356 357 357 357 358 357 357 358 358 358 358 358 359 358 357 358 357 356 355 356 356 355 354 354 354 353 353 353 354 354 353 353 353 354 355 355 355 355 355 356 356 356 355 355 355 356 356 356
358 356 353 353 355 355 355 355 352 350 351 351 352 353 354 355 356 357 357 357 357 357 357 357 355 355 356 358 356 355 356 356 355 353 354 355 356 355 355 354 353 353 353 353 353 353 353 353 354 354 355 355 355 355 355 356 356 355 356 356 356 357 357
355 353 352 353 353 353 355 356 352 350 350 351 353 352 351 351 351 352 354 354 354 355 355 354 353 353 354 355 354 354 353 354 353 352 353 355 356 355 354 354 353 353 352 353 353 353 353 353 354 354 353 354 354 354 355 355 356 356 357 357 357 358 358
352 352 353 354 352 350 350 351 350 349 348 348 348 348 348 348 348 348 349 349 350 351 352 352 351 350 351 352 353 353 351 351 351 351 352 354 354 354 352 352 352 352 352 352 351 352 353 353 354 354 353 353 353 353 354 355 356 357 357 358 358 358 358
351 352 353 353 352 350 349 350 349 347 348 347 346 347 348 348 348 349 349 349 349 350 350 350 350 350 351 351 351 351 351 351 351 352 354 355 354 353 351 350 350 350 350 350 350 351 353 353 353 353 351 352 353 353 354 356 357 357 357 358 358 359 359
349 351 351 350 350 349 349 350 348 346 347 347 346 347 348 348 349 349 350 350 350 350 351 351 351 352 352 352 352 352 352 352 352 354 355 355 354 353 352 351 349 348 349 350 350 351 352 352 352 352 352 352 353 353 355 356 357 357 358 357 357 358 358
348 349 349 348 348 349 349 350 348 346 346 347 347 347 347 348 349 348 349 350 349 349 351 352 353 354 354 354 355 354 354 354 355 355 355 355 355 355 354 352 350 349 348 349 349 349 350 350 350 350 351 351 352 353 354 357 358 358 357 357 357 358 358
348 347 347 347 347 347 347 347 346 345 345 346 347 347 347 347 347 347 348 348 348 348 348 349 351 352 353 355 355 353 353 354 355 354 353 354 354 354 356 355 353 352 350 349 350 349 349 349 348 348 348 348 349 350 352 356 358 358 357 356 355 356 357
347 346 346 346 346 345 344 344 344 344 345 345 346 347 348 348 347 348 350 349 348 348 347 348 349 349 350 352 351 351 350 349 349 349 349 350 349 350 354 356 356 355 353 352 351 350 349 349 348 348 348 348 348 348 351 355 357 356 355 355 354 354 354
346 346 346 345 345 344 343 343 344 344 345 345 346 346 347 348 347 348 349 349 348 347 347 348 349 349 350 351 350 349 348 347 347 349 350 351 350 350 351 354 355 356 355 355 353 352 351 350 350 350 350 349 349 349 350 351 351 351 352 352 352 352 351
346 344 344 345 344 343 343 344 344 344 345 345 344 344 345 346 346 346 346 345 345 345 344 345 346 347 349 349 349 349 349 350 350 351 350 351 351 351 351 351 353 354 354 355 355 354 353 352 352 352 351 350 350 349 349 348 348 349 350 350 350 350 349
343 343 343 343 343 343 343 344 344 344 344 344 344 343 343 343 343 343 343 342 342 342 342 342 342 343 345 346 346 346 347 349 350 351 350 350 349 349 348 347 349 352 353 354 355 355 355 354 353 352 351 350 350 349 350 349 349 349 349 349 349 349 350
339 340 341 341 342 343 343 344 344 344 344 344 343 342 342 342 342 341 341 342 341 340 340 339 339 340 341 342 342 342 344 346 348 349 349 349 349 349 349 348 349 351 353 354 355 355 353 352 351 351 351 350 350 349 349 349 349 349 349 349 349 350 351
338 338 339 340 340 340 340 340 340 341 342 342 341 340 340 339 339 338 338 339 339 339 340 339 339 340 340 339 340 341 341 343 344 345 345 346 347 348 349 350 351 352 353 353 354 352 351 349 348 348 348 348 348 349 349 348 349 349 349 349 349 350 351
335 335 336 337 337 337 336 336 335 336 338 337 336 336 336 336 336 335 334 335 336 338 339 339 339 340 340 340 340 340 340 340 341 343 343 344 345 346 346 347 349 349 350 351 352 350 348 346 346 347 347 346 346 346 346 346 346 347 348 348 348 349 351
333 331 332 333 333 333 333 333 332 332 333 333 333 332 332 333 332 331 330 332 334 335 337 337 337 338 339 339 339 339 340 340 340 341 341 342 342 343 343 344 345 345 346 348 348 347 345 342 343 344 345 344 343 343 343 344 344 345 346 347 347 348 350
330 328 329 330 330 331 331 331 331 331 331 331 331 331 331 330 329 328 328 328 329 331 334 335 336 336 336 337 339 340 340 340 340 340 339 340 340 341 341 341 342 342 343 344 344 344 342 339 338 338 338 338 338 338 339 340 341 342 344 345 346 348 349
327 326 328 328 328 329 329 329 330 330 330 330 330 330 331 330 329 330 330 329 328 329 330 332 334 335 336 336 337 337 337 338 339 339 338 337 338 338 339 340 340 340 341 341 341 340 338 337 336 335 334 333 333 333 335 337 337 339 341 342 344 346 347
325 325 326 327 328 328 328 328 329 328 328 329 329 329 330 330 329 329 329 329 330 330 329 330 331 333 334 334 334 334 334 336 338 339 338 337 337 336 336 336 336 337 337 338 338 337 335 334 334 333 332 330 330 330 332 334 335 336 336 337 338 339 341
324 325 326 326 326 327 327 327 327 327 327 327 326 326 328 329 328 327 326 326 328 329 329 329 329 330 332 333 333 333 333 333 335 337 337 337 336 336 336 336 335 335 334 333 333 332 331 331 330 330 329 328 328 328 329 330 331 332 332 332 332 333 334
324 324 325 326 326 326 327 327 327 327 326 325 325 324 325 325 326 326 326 325 325 325 325 325 326 327 328 330 332 333 332 332 332 333 333 332 332 333 335 336 335 334 334 333 331 330 329 328 328 328 327 328 328 328 327 328 330 330 330 330 330 331 332
325 324 324 325 326 326 326 326 325 325 325 325 326 325 324 325 326 326 326 326 325 325 324 323 322 322 323 325 329 331 332 331 330 330 329 328 328 328 329 330 330 331 332 333 333 333 332 330 329 329 329 330 328 325 324 325 326 327 328 328 328 328 328
327 326 324 324 324 324 324 324 324 325 325 325 326 326 325 325 326 325 325 326 326 325 324 325 323 321 321 324 328 330 331 330 330 329 326 324 324 324 325 325 325 327 329 330 332 334 335 334 332 331 331 330 327 324 323 322 320 320 321 321 321 321 321
328 327 325 324 324 324 324 325 325 325 324 324 324 324 324 323 323 322 322 324 325 325 325 326 326 324 323 325 327 327 327 327 326 324 321 318 317 318 318 319 319 322 324 326 328 331 332 333 333 332 331 330 328 324 323 321 318 316 315 314 313 313 314
327 327 326 325 326 325 325 326 326 324 323 324 324 323 323 323 322 321 321 323 325 325 325 325 325 324 324 325 324 322 322 322 322 320 319 317 316 315 313 312 313 314 316 317 320 323 325 326 327 326 326 326 324 321 319 318 317 315 313 313 312 312 312
327 327 326 326 326 326 325 325 325 323 323 323 324 324 325 324 323 321 321 322 325 325 324 323 323 324 324 324 324 323 322 323 323 323 323 323 322 320 317 314 313 312 312 311 312 314 315 316 316 316 316 316 317 316 315 314 314 313 312 312 312 312 313
328 327 326 326 325 325 325 324 323 322 322 324 325 325 325 324 324 324 322 322 323 324 324 322 321 322 323 324 324 324 324 324 325 325 325 325 324 323 321 319 318 316 314 313 312 313 313 314 314 315 314 313 313 313 312 312 312 312 312 312 312 313 313

ECMWFFLT1_925_thetae_117.txt.gz
Theta_e
353 359 356 346 343 347 347 347 348 348 349 349 350 350 351 351 352 352 352 352 352 351 351 352 354 354 353 353 352 351 350 350 351 351 352 352 352 352 353 354 353 353 354 355 355 355 355 356 356 355 354 353 354 355 356 355 355 355 354 354 355 355 354
352 357 359 350 343 346 347 346 348 349 349 350 350 350 351 352 352 353 352 353 353 351 352 353 355 355 354 354 353 352 351 350 351 352 353 353 353 353 353 353 352 351 353 354 354 354 355 355 354 354 354 353 354 356 356 356 355 355 355 354 354 355 354
352 355 358 353 344 344 347 346 348 349 349 349 350 351 352 352 352 353 353 353 353 353 353 353 355 355 355 354 354 353 352 351 352 353 353 353 353 353 352 353 352 351 352 352 353 353 354 354 354 354 354 353 353 355 355 356 356 356 356 355 354 354 354
354 355 356 354 346 343 346 346 347 349 349 349 350 351 352 353 353 353 353 354 354 354 354 354 355 354 355 355 354 354 354 353 353 352 353 352 352 352 352 351 352 351 352 353 354 354 354 355 354 354 354 353 353 354 354 355 355 355 355 355 354 354 353
354 354 356 355 349 344 345 346 347 348 349 349 349 351 352 353 354 353 353 354 354 354 354 354 354 355 355 355 355 355 354 354 355 354 352 351 352 352 351 351 352 353 353 354 354 355 354 354 354 354 354 354 353 353 354 354 354 355 355 354 354 354 353
355 354 355 355 350 347 345 345 346 347 348 350 349 350 352 353 354 354 353 354 354 354 354 355 355 355 356 356 355 355 355 355 356 355 353 351 351 352 352 352 353 353 354 353 353 354 354 353 354 354 354 354 354 353 354 354 353 354 355 355 354 353 354
354 353 354 355 352 349 346 344 345 347 348 349 349 350 352 353 354 354 354 354 355 355 356 356 356 356 356 356 356 355 355 354 355 355 354 352 350 351 352 352 352 352 353 352 352 354 354 354 354 354 354 354 354 353 353 354 354 354 355 355 356 355 356
353 353 353 354 352 350 347 345 344 346 347 348 349 351 352 354 354 355 355 355 355 356 356 356 357 356 357 356 356 356 355 354 354 354 354 352 351 351 352 352 352 352 353 353 353 354 354 354 354 354 354 354 354 354 354 355 355 355 355 355 356 357 357
353 353 354 355 354 351 348 346 346 346 347 347 349 351 353 354 355 355 355 356 356 356 356 356 356 357 357 357 357 356 356 356 356 355 354 353 352 352 352 352 352 352 352 352 354 354 354 354 354 354 354 355 354 354 355 355 355 355 356 356 356 357 357
357 359 362 361 360 354 348 346 347 347 347 348 350 352 353 354 354 355 355 356 356 356 356 357 357 357 357 357 357 357 357 357 357 355 354 354 353 352 350 350 350 350 352 352 353 354 354 354 354 354 355 355 354 354 355 355 355 355 356 356 357 357 357
362 364 364 361 359 355 351 351 349 347 347 348 350 352 354 354 354 355 355 356 356 356 357 357 357 357 357 357 357 357 357 357 357 356 355 354 354 352 349 348 348 350 352 353 353 354 354 354 354 354 354 354 354 354 355 355 355 355 355 356 356 357 357
361 360 357 356 357 355 353 353 349 347 348 348 349 350 351 353 354 354 354 356 356 356 356 357 357 357 357 357 357 357 357 357 356 356 355 355 355 352 350 349 349 351 353 353 354 354 355 355 355 354 353 354 354 354 355 355 355 355 355 355 356 356 356
354 354 352 355 360 358 354 352 349 347 348 348 348 348 349 350 352 352 351 350 350 351 351 353 355 357 357 357 357 357 357 357 356 355 355 356 355 354 353 352 352 353 354 353 353 354 354 355 355 354 353 353 354 354 355 355 355 355 356 356 355 355 355
351 350 350 352 356 356 354 354 352 349 347 348 348 348 349 351 352 352 351 349 349 351 352 353 355 356 356 357 357 357 357 357 357 356 356 356 356 355 355 354 353 353 353 353 353 352 353 354 354 354 353 353 354 354 354 354 355 355 355 356 355 355 355
351 351 350 350 351 353 353 353 351 349 347 347 348 348 349 350 350 351 352 352 352 353 354 354 354 356 356 356 356 355 356 356 356 357 357 357 357 356 356 355 354 354 353 354 353 352 352 353 353 353 353 353 353 353 354 354 354 355 355 355 355 355 356
352 351 351 351 352 351 350 350 349 347 347 348 348 349 349 350 350 351 351 352 353 353 353 353 354 355 355 355 355 355 354 352 351 352 354 355 355 355 354 355 355 355 354 354 353 353 353 353 353 353 353 353 353 353 354 354 354 355 355 355 356 356 357
350 351 351 351 350 349 347 348 348 346 346 348 348 349 349 349 350 350 351 351 353 353 352 352 352 352 353 354 354 354 353 351 349 349 349 350 350 351 352 353 353 354 354 354 353 353 353 353 353 353 353 353 353 353 354 354 353 354 354 355 356 357 357
349 349 349 349 349 348 347 347 346 345 346 347 348 348 348 348 349 349 349 351 351 351 351 350 350 350 350 351 351 351 350 350 350 349 349 350 350 349 351 351 350 351 352 352 351 350 351 352 353 352 352 352 353 353 353 352 353 353 354 356 357 357 357
349 348 348 347 347 347 346 345 345 344 345 346 347 347 347 347 348 347 348 348 349 350 350 349 349 349 349 350 350 350 350 349 349 349 349 351 351 350 350 349 349 349 349 350 350 349 350 351 352 352 352 352 352 352 352 352 352 352 353 355 357 357 357
348 347 346 345 345 345 344 344 344 343 344 346 346 346 347 346 347 347 348 348 348 348 349 348 348 349 349 350 351 351 350 350 349 349 350 351 351 350 349 350 350 349 349 349 349 349 349 349 350 351 352 352 352 352 352 353 353 354 354 355 357 357 357
347 346 345 345 344 344 343 344 344 344 345 346 346 346 346 346 346 347 348 348 348 348 348 347 348 348 349 350 351 350 350 349 347 348 350 350 351 351 350 351 351 351 350 349 348 348 349 349 349 350 350 350 350 351 352 353 353 354 355 355 357 357 356
346 345 345 344 343 343 343 343 344 344 345 345 346 346 346 346 346 347 347 348 348 348 347 347 347 347 347 349 350 349 349 348 347 348 350 349 350 351 350 350 350 351 351 351 350 349 348 347 348 349 348 348 349 349 350 351 351 352 354 355 356 355 354
343 343 343 344 343 343 344 344 344 344 344 344 344 345 345 345 346 346 346 346 346 346 345 344 344 344 345 346 347 348 349 349 349 349 349 349 350 350 350 350 350 351 351 351 351 350 348 348 348 349 349 349 349 348 349 349 350 350 351 352 352 352 352
340 340 341 341 341 342 342 342 343 342 342 342 342 342 343 343 344 344 344 344 343 343 343 342 342 343 343 343 344 345 347 348 349 349 349 350 349 349 349 349 349 349 349 349 348 347 347 350 350 350 350 350 349 349 348 347 347 347 348 348 349 349 349
339 338 338 338 338 339 339 339 340 341 340 340 340 340 340 341 341 341 341 341 341 341 341 341 341 341 341 341 341 342 343 345 346 347 347 348 348 348 348 348 348 348 348 348 348 347 348 351 350 348 349 350 349 349 347 346 345 345 346 347 347 348 349
336 336 336 335 335 336 337 337 337 337 337 336 337 338 338 338 338 338 338 339 339 339 340 339 339 340 340 340 340 340 341 342 343 344 344 344 345 345 346 347 347 347 348 348 348 348 348 348 347 346 347 348 348 347 345 344 345 346 346 346 347 348 348
332 333 334 333 334 334 335 335 334 333 333 333 334 335 335 335 336 335 337 338 337 338 339 339 340 340 340 340 340 340 341 341 341 342 342 342 342 343 343 344 344 344 345 344 345 347 347 345 344 344 344 346 346 343 340 340 343 345 345 344 346 347 347
330 331 332 332 332 332 332 332 332 331 331 331 331 331 332 333 333 332 334 336 335 336 338 338 339 339 339 339 339 338 338 339 339 340 340 340 341 341 341 341 342 342 342 342 342 343 343 341 342 342 341 341 341 339 337 338 339 341 341 342 344 345 346
329 329 330 330 330 331 331 331 330 330 330 329 329 328 328 328 329 328 329 331 333 334 335 336 336 337 339 339 339 338 338 339 339 338 339 338 339 339 339 339 339 340 340 339 339 340 340 339 339 338 337 336 336 335 336 336 336 336 336 338 340 341 342
327 327 328 329 329 329 329 329 329 329 329 329 329 327 326 327 329 328 327 329 330 332 334 335 335 336 336 336 337 338 339 339 337 336 336 336 336 336 337 337 338 338 338 337 336 337 337 336 336 336 334 332 331 331 332 333 333 333 333 334 336 337 338
325 326 327 328 327 328 328 327 327 327 327 328 328 328 327 327 328 328 328 329 329 329 331 333 334 334 334 334 335 337 339 338 337 337 336 336 335 334 334 334 334 334 334 335 335 334 333 332 333 332 330 329 327 327 328 330 330 330 331 332 333 334 334
325 326 326 327 327 326 326 325 325 325 325 326 326 326 326 327 327 326 326 326 327 328 328 330 331 333 333 333 333 335 337 337 336 335 334 334 335 335 334 333 333 332 330 331 331 330 329 329 329 328 328 328 325 322 322 325 326 327 327 328 329 329 329
325 325 325 326 326 324 324 324 324 325 325 324 324 325 325 326 326 326 325 325 324 324 324 325 326 328 331 332 332 332 333 333 332 331 331 331 333 333 333 333 333 332 331 330 329 328 328 328 328 328 327 326 322 318 318 320 320 320 320 320 320 320 320
324 325 326 326 324 324 326 326 326 326 326 325 325 325 325 325 324 324 325 325 324 323 322 321 321 323 326 330 331 331 330 330 329 328 328 328 328 328 328 330 332 333 333 333 332 331 330 329 329 328 326 324 321 319 318 318 317 316 315 314 313 313 314
324 325 325 324 324 325 327 327 327 326 325 325 325 325 324 323 322 323 325 325 324 324 324 323 322 322 325 329 331 330 330 328 326 324 322 322 323 324 325 326 328 330 331 332 333 333 332 331 331 330 328 327 325 322 320 319 318 316 315 313 312 312 312
324 325 325 324 324 325 326 326 326 325 324 324 323 323 322 321 320 322 324 324 324 324 324 324 324 323 325 328 330 329 329 326 322 319 317 316 318 320 321 321 323 325 326 327 328 329 329 329 328 326 326 325 323 320 318 317 316 314 313 312 312 312 311
324 325 325 324 324 325 325 325 324 323 323 323 322 322 323 322 321 321 322 323 324 324 323 324 324 324 324 327 328 327 326 323 320 318 317 315 314 315 315 315 315 318 319 320 320 319 319 319 318 317 317 317 316 315 314 313 313 312 312 312 312 311 311
325 325 325 325 325 325 325 324 323 322 321 322 323 324 324 323 323 322 321 322 323 323 323 323 323 324 324 323 323 323 323 323 322 322 322 320 317 316 315 313 312 313 313 313 314 314 315 315 314 314 313 312 312 312 311 311 311 311 311 311 311 310 313

ECMWFFLT1_925_thetae_120.txt.gz
Theta_e
352 353 347 343 345 346 346 346 346 346 347 347 348 348 348 349 350 350 351 351 351 351 351 351 351 350 349 349 349 350 350 349 348 349 349 349 349 349 349 349 351 353 354 354 351 350 353 355 355 355 355 355 354 353 352 353 354 354 354 354 354 354 353
350 353 350 344 345 347 346 346 346 346 346 347 348 348 349 349 350 350 351 351 351 351 351 351 351 351 350 350 350 351 352 350 349 350 350 350 349 349 350 350 351 352 353 354 352 352 353 354 355 355 355 355 353 353 353 353 354 354 354 354 354 354 354
350 353 353 346 344 347 346 345 346 347 347 347 348 349 349 349 350 350 350 351 351 351 351 351 351 350 350 350 350 352 352 350 350 350 350 350 350 350 350 350 351 352 352 353 353 353 353 354 354 355 354 354 353 353 353 354 355 355 355 355 355 355 355
351 352 353 349 345 345 346 345 346 347 347 347 348 349 349 349 350 351 351 351 351 351 351 351 350 350 350 350 351 352 352 351 351 351 350 350 350 350 351 351 351 352 352 353 352 352 353 353 353 354 354 353 353 353 353 354 354 355 355 355 356 355 355
351 351 354 352 347 345 346 345 346 347 347 347 348 348 349 349 350 351 350 351 351 351 351 351 350 350 350 350 352 353 352 352 352 352 351 350 351 352 352 353 352 352 352 352 351 351 352 353 352 353 353 353 354 353 353 353 353 353 354 354 356 355 354
351 349 354 355 348 346 346 345 345 347 347 348 348 349 349 349 350 351 351 351 351 351 351 351 351 351 351 351 352 353 353 353 353 353 352 351 351 352 353 352 352 352 352 351 351 351 352 353 354 354 354 354 354 353 353 353 352 352 353 353 354 355 354
350 349 351 354 350 345 343 343 345 346 347 348 348 348 349 350 350 351 351 351 352 352 351 352 352 351 351 352 353 353 354 353 353 353 353 352 352 353 353 352 351 351 351 351 351 352 353 353 354 354 354 354 353 353 353 353 353 353 353 353 353 354 354
350 350 351 353 351 345 343 343 344 346 347 347 348 349 349 350 350 351 352 352 352 352 352 352 352 352 352 353 353 354 353 353 353 353 353 353 354 354 353 352 350 351 351 351 351 352 353 353 353 353 354 354 354 353 353 353 353 353 353 353 353 354 355
351 352 352 352 351 346 341 341 343 346 347 347 348 348 349 350 351 351 352 352 352 353 353 353 353 353 353 353 353 354 354 354 354 354 353 353 353 354 354 352 350 350 351 352 351 352 352 352 352 353 354 354 353 353 353 353 353 353 353 353 354 354 355
356 357 359 357 355 350 343 342 343 345 346 347 348 348 349 350 351 352 352 352 353 353 353 353 354 354 354 354 354 354 354 354 354 354 353 353 353 353 354 352 351 351 351 352 352 352 352 352 353 354 354 353 353 353 353 354 353 354 354 354 355 355 355
358 359 360 357 355 353 350 347 346 345 345 347 347 348 349 350 351 352 352 353 353 353 354 354 354 355 355 354 355 355 355 355 355 355 354 353 353 352 352 352 351 351 351 352 352 352 352 352 353 354 353 353 353 353 354 354 354 354 354 354 354 355 355
359 357 355 355 355 354 352 350 347 345 345 346 347 348 350 351 352 352 352 353 353 354 355 355 355 355 355 356 356 356 356 356 355 355 355 354 353 353 352 352 352 351 350 350 350 351 351 352 353 353 353 354 354 354 354 354 354 354 354 354 354 354 355
355 354 353 357 360 358 355 353 349 346 346 347 347 349 350 351 351 351 351 352 352 353 355 355 355 356 356 356 356 356 356 356 356 356 355 355 355 354 353 353 353 353 351 349 348 348 351 352 353 353 354 354 354 354 354 354 353 354 354 354 355 354 355
350 350 350 351 354 354 354 353 349 346 346 347 347 348 350 351 351 351 352 352 351 352 354 355 356 356 356 356 356 356 356 356 356 356 356 356 356 355 355 355 355 355 353 351 349 349 351 353 353 354 354 354 354 354 354 353 353 354 354 354 355 354 355
349 349 350 351 351 352 352 351 348 346 345 346 347 347 348 349 350 350 351 352 352 352 353 355 355 356 356 356 356 356 356 356 356 356 356 356 356 355 356 355 355 355 354 353 353 353 353 353 353 353 353 353 353 354 354 353 353 354 354 354 354 354 355
350 350 351 351 350 350 350 349 347 344 345 347 346 347 348 348 349 350 350 352 352 352 353 355 355 355 356 356 356 356 356 356 356 356 355 355 355 355 355 355 355 354 354 354 354 354 354 353 353 353 353 352 352 352 353 353 353 353 353 354 354 354 355
350 350 350 349 349 349 349 348 347 344 345 346 346 347 348 348 349 350 350 351 351 352 353 354 354 354 354 355 356 356 356 355 355 355 355 355 354 354 354 355 354 354 354 353 353 353 354 353 353 353 353 353 352 352 352 352 352 352 353 353 354 354 354
349 349 348 348 349 350 348 347 347 345 345 346 346 347 347 348 349 349 350 351 351 350 351 350 351 351 352 354 355 355 355 354 354 355 355 354 354 353 354 354 353 354 354 353 352 352 352 353 353 353 353 353 352 352 352 352 351 352 352 353 353 353 353
348 347 347 347 348 348 346 346 346 345 345 345 346 347 347 347 348 349 349 350 350 350 349 348 349 349 349 351 353 353 353 353 353 353 353 352 352 351 352 352 352 352 352 351 351 350 350 351 351 351 351 351 352 352 352 352 352 352 352 353 352 352 353
346 346 345 345 345 345 344 344 344 344 345 345 345 346 347 347 348 348 349 349 349 349 348 347 348 348 348 349 351 352 352 351 352 352 351 351 351 350 351 351 351 351 350 349 349 349 349 349 349 349 349 350 350 351 352 352 352 352 352 352 352 353 354
345 345 344 344 344 344 344 344 344 344 344 346 346 346 346 347 347 347 348 348 348 348 347 347 347 348 348 349 349 350 350 350 350 350 351 350 349 349 350 350 350 349 349 349 348 348 348 348 348 348 348 348 349 349 351 351 351 352 352 352 353 353 354
345 345 345 345 344 344 344 344 344 344 345 345 346 346 346 346 346 346 346 347 347 347 346 347 347 347 348 348 348 349 349 349 349 349 349 349 348 348 349 350 349 348 349 350 350 349 349 348 348 348 347 347 347 348 349 350 350 351 352 352 353 354 354
343 343 343 343 342 342 342 342 342 342 343 344 344 344 345 345 345 345 345 345 346 346 346 346 346 346 347 347 347 348 349 349 348 348 348 347 347 347 348 348 348 347 348 350 351 350 351 350 350 349 348 346 346 347 348 348 349 350 350 351 352 352 353
338 338 339 339 339 340 339 339 339 339 339 340 340 341 343 343 344 344 344 343 344 344 344 344 344 344 345 345 345 346 348 348 347 347 347 347 347 348 348 348 348 348 349 350 351 351 352 352 351 350 349 348 347 348 348 347 347 347 347 348 349 350 351
336 335 336 336 336 337 336 336 337 337 337 337 336 338 340 341 341 341 342 342 342 342 342 341 341 341 342 342 342 343 344 346 346 346 346 346 347 348 348 348 348 349 349 349 350 351 351 350 350 349 348 348 348 347 347 346 345 345 346 346 346 347 347
334 334 334 334 334 334 335 335 335 334 333 333 334 336 338 339 339 339 338 339 340 340 340 339 339 340 340 341 342 342 343 344 344 344 344 344 345 346 347 347 348 348 348 348 347 348 348 347 348 347 346 346 346 346 346 346 345 345 345 345 345 346 346
333 333 333 333 332 333 332 332 331 330 330 331 333 335 335 336 336 335 335 335 336 337 339 340 340 340 341 341 341 341 341 342 341 341 341 341 342 342 343 344 345 345 346 347 347 348 348 347 346 344 342 342 343 344 344 343 342 342 343 343 344 345 345
331 331 332 331 331 330 330 329 329 329 328 329 330 332 334 333 331 331 332 332 332 334 338 339 339 339 338 338 338 338 338 339 339 339 339 339 340 340 340 342 342 343 344 345 345 346 345 344 343 340 337 337 338 339 340 339 337 338 340 341 341 341 342
329 329 330 330 329 329 329 328 328 328 328 327 325 326 328 330 329 328 330 331 332 334 337 338 338 338 337 338 338 338 337 337 336 336 336 337 338 338 339 339 340 341 342 341 339 339 338 337 338 336 333 332 333 335 336 335 334 335 338 338 338 338 339
328 328 328 329 329 329 329 328 328 328 327 327 326 323 322 324 324 324 326 328 330 331 333 335 336 335 335 337 338 337 335 335 335 334 334 334 335 335 336 338 338 339 340 338 335 334 334 333 333 331 330 330 331 331 332 331 332 333 334 335 335 335 335
327 327 328 328 328 328 329 329 329 328 327 327 327 325 324 325 325 326 326 328 328 328 331 334 333 330 329 333 337 337 336 335 335 334 334 333 332 332 333 334 335 336 337 336 334 332 331 331 329 327 326 325 327 328 329 329 329 330 330 331 330 330 328
326 326 327 326 326 327 327 327 327 327 326 326 326 326 325 326 326 326 327 327 328 328 330 333 333 331 330 333 337 337 336 334 333 333 334 334 334 333 332 331 331 332 332 332 331 330 329 329 328 325 321 320 321 323 324 326 325 325 324 323 322 321 319
325 325 325 325 324 324 324 324 324 325 326 325 325 325 325 325 325 325 325 325 325 325 327 329 332 333 332 333 335 334 333 332 330 330 331 332 332 333 332 331 331 330 330 329 328 328 329 329 327 323 319 317 318 318 319 320 319 318 319 318 318 315 312
324 324 324 324 324 323 323 324 325 326 325 325 324 324 323 324 324 325 325 324 323 322 322 324 327 330 331 331 331 331 330 329 327 327 327 327 329 330 332 332 332 332 332 331 329 329 329 327 326 323 321 319 317 317 318 318 318 318 319 319 319 316 312
324 324 324 324 325 325 325 325 325 325 324 324 323 322 321 322 323 324 324 324 324 323 322 322 323 326 330 331 330 329 328 326 324 322 321 323 325 327 329 330 331 332 332 332 332 331 331 330 328 327 324 323 320 319 318 318 317 317 316 315 314 313 311
323 324 324 324 325 326 325 324 324 324 323 322 322 321 321 321 322 323 323 323 323 324 324 323 323 325 328 330 329 328 327 323 319 317 316 318 322 324 325 326 327 328 329 329 329 329 328 327 325 323 321 320 318 317 316 315 314 313 312 311 311 310 310
324 324 323 324 325 325 324 324 323 322 322 322 323 323 323 322 321 320 320 320 322 323 323 323 323 324 326 328 329 328 325 321 318 315 314 315 317 320 321 322 322 322 322 321 320 319 319 318 316 315 314 314 313 313 312 311 311 311 311 310 310 311 314
324 324 324 324 324 324 324 323 322 321 321 322 323 323 323 323 323 321 319 319 320 321 322 323 322 323 325 326 326 326 323 321 320 319 318 316 314 314 315 316 315 315 314 314 315 315 314 314 313 313 313 312 311 311 310 310 310 311 310 310 311 315 319

ECMWFFLT1_925_thetae_123.txt.gz
Theta_e
351 348 343 342 344 344 347 350 350 351 351 352 351 352 352 352 353 354 353 352 351 351 350 348 349 349 349 349 348 348 348 349 350 349 348 348 348 349 348 349 351 351 352 355 355 355 354 351 351 355 356 355 356 356 354 353 353 355 355 355 354 354 355
350 349 345 343 344 345 348 350 350 351 351 351 351 351 352 352 353 354 354 352 352 352 351 350 349 349 349 350 349 349 348 349 350 349 348 348 348 348 348 349 350 349 350 352 354 354 353 350 349 353 356 356 356 356 355 354 354 355 356 355 355 355 355
351 351 348 344 345 346 348 350 350 351 351 350 351 351 351 353 353 353 354 353 353 353 353 352 350 350 350 350 350 349 348 349 349 349 349 349 348 348 349 349 349 350 350 351 352 353 354 353 351 352 355 356 357 356 355 356 355 355 356 355 356 358 357
352 353 352 346 345 347 349 351 351 350 351 350 351 351 351 353 353 353 353 353 353 354 354 353 353 352 352 350 350 350 348 348 349 350 351 352 350 349 350 349 349 350 351 351 352 352 354 354 354 353 354 354 355 355 354 355 355 355 355 355 357 358 358
353 352 353 348 345 347 349 351 351 351 351 350 351 352 352 352 352 353 353 353 354 354 353 354 354 355 354 352 352 351 350 349 349 351 352 352 351 350 350 351 350 350 351 351 352 352 352 353 355 355 354 354 355 355 354 354 355 355 354 355 357 358 359
352 350 353 349 346 347 349 350 351 351 351 350 351 352 352 352 352 353 353 353 354 354 354 354 354 356 356 354 354 353 351 350 349 351 352 351 350 351 352 352 352 352 353 353 353 353 353 353 354 355 355 355 355 355 355 356 355 355 355 354 355 356 357
351 350 352 352 348 346 347 350 350 351 351 350 351 352 352 352 353 353 353 353 354 354 354 355 355 356 356 354 354 354 352 351 350 351 352 353 351 352 353 353 353 354 354 354 353 353 353 352 352 353 354 356 356 356 356 355 354 355 355 354 354 354 356
351 350 350 352 350 344 345 349 350 351 352 351 351 352 352 352 353 353 354 353 354 354 354 354 355 355 356 355 355 354 353 352 352 352 353 354 354 354 355 354 354 354 354 355 354 353 354 354 354 354 354 356 356 356 356 355 353 354 355 355 354 355 356
350 350 349 352 352 347 345 348 349 350 352 352 352 352 352 353 353 354 354 354 354 355 355 354 354 356 356 356 355 354 354 354 354 353 354 355 356 356 356 355 355 355 354 355 355 355 354 354 356 356 354 354 355 355 355 355 354 354 355 354 353 355 356
352 352 353 354 355 352 346 346 349 351 352 352 352 353 353 354 354 354 354 355 355 355 356 355 355 356 356 354 355 355 355 355 355 355 355 356 356 356 356 356 356 356 355 355 355 356 355 354 356 355 353 353 355 355 355 355 354 354 354 353 353 354 356
356 356 358 358 357 354 350 348 349 350 351 351 351 351 352 352 353 355 355 355 355 356 356 355 355 356 356 355 356 356 357 357 357 356 356 356 356 356 356 356 356 356 355 355 355 356 356 354 354 354 353 354 355 356 355 355 354 353 354 355 355 355 356
353 355 357 356 355 355 354 352 350 350 350 349 349 350 350 349 351 353 354 354 354 356 355 353 353 355 356 356 357 358 358 358 357 357 357 357 357 356 356 355 355 355 355 355 355 355 355 355 355 354 353 353 355 356 355 354 354 354 354 356 357 356 357
350 350 350 351 352 352 353 352 351 352 352 349 348 348 348 349 350 351 351 352 353 354 355 354 354 355 356 357 358 358 358 358 358 358 358 358 357 357 356 355 355 355 355 355 355 354 354 354 354 354 353 353 354 355 355 354 354 354 354 355 357 357 357
350 350 349 349 350 350 351 352 352 353 352 349 347 347 348 349 350 350 350 351 351 351 353 355 356 357 357 357 358 358 358 358 358 358 358 358 358 358 357 357 356 356 356 356 356 355 354 354 354 354 354 355 354 355 355 355 355 355 354 354 355 357 358
351 350 350 349 349 350 351 352 353 352 351 349 348 348 348 349 350 350 350 351 351 350 350 352 354 355 357 358 359 358 358 358 357 358 358 358 358 358 357 357 356 356 356 356 356 356 355 355 355 355 356 356 355 355 356 356 357 356 354 354 355 356 355
351 350 350 350 349 349 350 351 350 349 350 351 349 348 348 348 349 350 350 350 350 350 351 351 352 353 354 355 357 358 358 358 357 358 358 358 358 357 356 355 355 354 355 355 356 356 355 355 356 356 356 357 357 356 355 355 355 354 353 353 355 355 352
350 349 349 349 348 347 347 348 348 348 349 350 350 348 348 348 349 349 349 350 350 350 351 350 351 352 352 352 354 357 358 358 358 358 358 357 357 355 354 355 354 354 355 355 355 354 354 355 355 356 356 356 357 357 355 354 353 352 351 351 353 353 351
348 348 348 347 346 346 346 346 347 348 348 349 349 348 347 347 348 348 349 350 350 350 350 350 350 352 352 352 353 355 357 357 357 357 357 357 356 355 355 355 354 354 355 354 354 354 354 354 354 354 355 355 356 356 355 354 353 351 350 350 350 352 352
347 346 346 345 345 345 345 346 347 347 348 348 348 348 347 347 348 348 348 349 350 350 350 350 350 350 351 352 352 353 355 354 354 355 356 356 355 355 355 354 354 355 354 354 353 353 353 353 352 352 353 354 354 353 354 354 352 350 350 351 351 351 353
345 345 345 345 345 345 345 346 346 346 346 347 347 347 347 347 347 347 348 348 350 350 350 350 350 349 349 350 350 351 351 352 352 353 354 355 355 355 354 353 353 353 353 353 353 352 351 351 351 351 351 351 351 352 354 354 352 350 350 351 352 352 352
345 345 346 345 344 344 345 345 346 345 345 346 346 347 347 347 347 347 348 348 349 350 349 349 349 348 348 348 349 349 349 350 351 351 351 351 352 353 352 352 352 351 350 350 350 350 349 349 349 350 349 349 350 351 353 352 350 350 351 351 351 352 352
344 344 343 342 341 341 341 342 342 342 342 342 343 344 345 346 347 347 348 348 348 349 348 348 347 347 347 347 347 348 348 349 349 348 347 347 348 349 348 349 350 350 349 349 349 349 348 348 348 348 348 348 348 349 349 349 349 349 350 350 350 351 351
340 341 340 340 339 338 338 338 338 338 338 338 339 340 342 343 345 347 348 348 348 348 348 347 346 346 346 346 346 346 347 348 347 346 346 346 346 346 346 347 348 347 348 350 350 350 350 350 349 349 348 347 347 346 347 347 347 348 348 349 349 350 351
339 339 339 339 338 337 336 336 336 336 336 336 337 337 338 339 341 343 345 346 346 346 346 346 346 345 345 346 346 346 346 346 345 345 345 345 344 344 344 345 345 344 346 349 350 350 350 351 351 351 350 348 347 347 347 346 347 346 346 347 347 347 348
339 339 338 337 336 335 335 335 335 335 335 335 335 335 336 337 338 338 339 341 342 343 343 343 343 344 344 344 344 345 345 345 345 344 344 344 344 343 344 345 345 345 346 349 349 348 348 348 349 349 349 348 347 346 346 345 345 345 345 345 345 345 346
338 338 337 334 333 333 333 333 333 333 333 333 333 334 335 336 336 336 337 338 339 339 340 341 341 342 342 342 343 343 343 343 343 343 343 343 343 343 343 344 345 346 347 348 347 347 347 347 347 347 346 345 345 345 344 344 343 343 343 344 344 344 345
335 336 334 333 332 332 331 331 330 330 329 329 331 333 334 334 334 335 335 337 337 337 338 338 339 339 339 339 340 340 340 341 340 340 341 341 342 343 343 343 344 344 345 346 345 346 346 346 345 344 343 341 341 341 340 339 340 340 341 342 343 343 344
334 333 333 332 331 330 329 329 328 327 326 326 327 329 330 331 331 332 334 335 336 337 338 338 337 336 336 336 337 337 337 337 338 338 339 340 340 340 340 339 340 341 342 343 344 343 343 342 341 339 337 336 336 335 335 336 337 337 338 339 341 341 341
333 332 332 331 330 329 329 328 327 326 326 325 325 324 324 325 326 328 331 333 332 330 332 334 334 334 333 331 333 334 334 334 335 335 336 336 337 338 337 336 336 337 337 339 339 338 336 335 336 335 333 332 333 333 333 334 334 334 334 336 337 337 338
333 332 332 331 331 330 329 329 328 328 327 327 326 325 325 326 326 327 330 332 329 324 323 324 329 333 332 330 330 331 329 328 329 331 333 333 333 333 334 335 334 334 334 334 334 334 332 331 333 333 331 330 331 331 332 332 331 331 331 331 331 330 329
332 332 331 331 331 330 329 329 328 328 327 327 327 326 326 327 329 329 330 331 329 326 324 324 328 334 335 333 330 326 323 322 323 326 330 332 331 328 328 331 332 331 331 332 331 331 330 330 330 329 327 327 328 327 327 327 325 323 322 321 320 319 317
331 331 330 330 330 329 328 328 328 327 327 327 326 326 325 325 326 327 327 329 329 330 330 330 332 335 335 333 331 328 327 327 327 329 331 333 331 329 328 330 329 328 329 330 330 329 328 327 326 325 323 323 322 321 320 319 317 316 315 313 312 312 311
330 329 329 328 328 328 328 328 327 326 326 326 326 326 326 324 324 324 324 324 327 330 332 332 333 334 333 331 330 329 328 327 328 329 331 332 332 332 331 331 330 328 328 329 329 329 328 326 324 322 321 321 319 318 317 317 317 316 315 313 312 311 310
329 328 329 328 327 327 328 328 327 326 326 326 325 325 324 323 323 324 323 323 324 326 329 330 331 331 330 329 328 327 325 323 323 324 327 330 331 332 332 333 332 331 330 329 329 330 329 327 325 323 322 321 320 320 320 320 317 315 313 312 312 310 310
329 329 329 328 326 325 326 327 327 326 326 326 325 323 322 321 321 322 323 324 323 323 325 327 329 329 328 327 326 324 321 320 319 321 325 328 330 330 330 331 331 331 331 331 330 330 329 327 324 322 320 319 319 319 320 319 315 312 311 310 309 309 311
329 329 328 327 325 325 325 325 326 327 326 325 324 323 322 320 320 320 321 321 322 323 323 325 327 328 328 327 324 321 318 317 317 320 323 325 325 325 324 324 324 325 325 324 323 322 320 319 317 315 315 314 313 313 314 314 312 311 310 309 310 312 316
329 328 327 327 326 327 326 325 326 327 326 325 324 324 323 322 321 321 320 320 321 322 323 323 325 327 328 326 323 320 317 316 316 317 319 321 321 321 320 318 316 316 316 315 315 314 314 313 312 311 310 310 310 310 310 310 310 310 310 312 315 318 321
329 328 328 327 327 327 326 325 324 325 325 325 325 325 324 323 322 321 322 320 319 321 321 322 323 325 326 324 321 318 318 318 318 316 316 317 318 318 316 314 313 313 314 313 314 314 314 313 312 311 311 311 311 311 310 310 311 312 314 317 320 322 322

ECMWFFLT1_925_thetae_126.txt.gz
Theta_e
350 351 351 347 346 345 346 349 351 352 353 355 356 354 352 351 353 354 355 357 357 357 357 357 356 355 355 355 354 355 355 354 354 354 355 354 353 353 354 354 354 354 354 353 351 353 354 355 355 354 357 359 359 360 361 360 360 360 361 362 360 360 360
349 351 351 348 347 346 347 350 353 354 354 355 356 354 352 351 353 355 356 357 357 357 357 357 356 357 356 355 355 356 356 354 354 354 354 355 355 355 355 355 355 355 355 354 352 353 354 355 355 354 355 358 358 360 361 360 360 358 359 363 361 361 361
352 352 352 349 348 348 349 351 354 354 354 354 355 354 353 353 354 356 357 357 357 356 357 357 357 356 356 356 356 356 356 355 354 354 354 354 355 355 355 355 355 355 355 355 355 354 354 354 355 354 354 356 357 359 360 360 360 358 359 362 360 360 363
354 353 352 351 350 350 351 353 354 354 353 353 353 353 353 354 356 357 358 358 357 356 356 356 356 356 356 357 357 356 357 355 353 354 353 353 354 354 354 355 355 355 355 355 355 355 355 355 356 356 356 357 358 359 360 360 359 358 360 362 359 359 362
355 353 352 351 351 352 351 354 355 354 353 352 352 354 355 356 357 358 358 358 357 355 355 355 354 355 355 356 356 355 356 355 354 354 353 353 354 354 354 355 355 355 355 355 355 356 357 357 356 357 357 357 357 357 358 358 358 357 359 360 358 358 359
355 354 352 350 351 352 352 354 355 354 354 351 352 354 354 355 357 357 357 358 358 356 355 354 353 354 355 355 355 354 355 355 355 354 354 353 354 354 355 355 355 355 355 355 355 356 358 357 357 357 357 357 356 356 356 356 356 356 357 359 358 358 357
355 354 353 349 350 351 351 354 354 353 354 351 351 355 354 354 356 357 356 356 357 356 354 355 354 353 355 355 355 354 354 355 355 354 353 353 354 355 355 355 355 355 355 355 355 356 356 357 357 357 357 357 355 355 355 356 357 356 357 359 359 359 358
353 353 353 350 348 348 350 353 353 353 354 351 351 355 355 355 356 357 356 355 355 355 354 354 353 353 354 355 355 355 354 354 354 354 353 352 353 355 355 355 355 355 355 355 356 356 356 357 357 356 357 356 356 356 356 357 359 358 356 357 359 360 358
351 352 356 355 349 347 350 353 353 353 355 353 352 355 356 356 356 357 357 356 356 357 356 355 354 353 354 356 356 355 355 355 354 354 353 352 353 354 354 354 355 356 356 355 355 356 356 356 356 356 357 356 356 357 357 357 358 357 356 357 359 359 358
352 352 357 358 353 350 352 353 353 354 356 355 354 356 357 357 357 358 358 358 358 358 359 357 355 354 355 357 358 356 355 355 354 353 352 351 352 353 354 354 354 355 356 355 355 355 356 356 356 357 358 358 357 357 357 357 357 357 356 357 358 358 358
353 353 356 356 354 353 353 352 354 355 356 357 356 357 357 357 358 358 358 358 359 359 359 360 358 357 357 358 358 357 355 355 354 353 352 351 351 352 353 353 353 355 355 355 354 354 355 356 356 357 359 359 358 357 358 357 358 358 356 356 357 357 357
353 354 356 357 357 357 355 353 354 356 357 357 357 357 358 358 358 359 358 359 359 358 359 360 359 359 359 360 360 358 356 355 354 354 352 351 351 351 353 353 353 354 355 355 355 354 355 356 356 357 358 359 358 357 358 358 358 359 358 357 357 357 357
351 353 354 355 356 356 355 353 353 354 355 356 357 357 358 359 359 359 360 359 359 358 358 359 360 359 360 361 360 358 356 356 356 356 355 353 352 351 352 353 352 353 353 354 354 354 354 355 356 357 357 357 357 356 358 360 359 360 360 359 357 357 357
352 352 352 353 353 353 353 352 352 354 355 357 358 357 357 357 357 359 360 360 359 359 359 360 360 360 359 359 359 358 356 354 355 358 358 356 355 354 353 354 353 352 353 354 354 354 354 353 354 355 355 356 356 356 357 359 360 360 360 359 358 357 357
353 353 352 353 352 352 352 351 352 353 353 354 356 355 355 355 356 357 358 359 360 358 358 359 359 360 359 360 361 359 356 355 354 355 359 359 357 356 355 355 354 354 353 354 354 354 353 353 353 354 354 355 355 356 357 357 358 358 359 359 359 357 357
354 353 353 353 352 352 352 351 352 352 352 353 353 353 353 354 355 357 356 356 356 354 353 354 356 359 360 362 361 357 355 356 356 354 355 355 355 356 358 358 356 355 356 356 355 355 354 354 354 353 354 355 356 356 357 357 357 357 357 358 358 358 359
351 351 351 351 350 350 350 350 352 352 352 352 352 352 353 353 354 356 356 356 355 354 353 352 354 357 360 360 359 356 355 355 356 356 355 355 353 351 354 358 359 358 358 358 356 356 355 355 355 354 354 354 355 356 357 356 356 357 357 356 355 356 360
349 349 349 349 349 349 348 348 350 351 351 351 351 351 352 352 353 354 355 355 355 355 355 354 354 355 357 357 356 355 354 353 353 354 355 355 353 349 350 356 361 362 360 358 357 358 358 357 356 356 356 356 355 356 356 356 356 356 355 354 352 352 356
348 348 348 347 347 347 347 347 349 350 350 350 350 350 350 351 351 351 352 353 353 353 353 354 355 355 356 356 354 353 353 352 352 353 354 355 354 352 352 351 355 361 362 359 358 359 360 359 357 356 357 357 356 355 356 355 354 355 354 353 350 350 352
346 345 345 344 343 343 343 345 345 345 347 347 348 349 349 350 350 350 351 351 351 351 351 351 353 355 355 355 354 352 352 352 353 353 354 355 353 353 353 350 351 357 361 360 360 361 361 360 358 357 357 356 356 358 358 355 353 355 355 353 351 350 350
344 343 341 340 340 340 340 341 341 342 343 344 345 346 347 348 349 349 350 351 351 351 351 351 351 353 354 354 353 352 351 353 355 354 353 353 351 351 353 352 351 353 354 356 357 358 359 359 358 358 357 356 355 354 353 352 353 356 355 352 352 351 351
343 341 340 339 338 339 339 340 340 340 341 342 343 344 345 346 347 349 350 350 350 350 351 351 351 350 352 352 352 352 352 352 353 352 352 351 350 351 352 352 352 352 352 352 353 354 355 357 356 355 356 357 356 353 350 349 352 354 352 351 351 350 351
341 339 339 339 339 339 340 339 339 339 339 340 341 342 343 344 345 347 348 349 350 350 351 352 351 350 351 351 351 352 351 351 351 351 350 350 348 348 349 350 351 351 351 351 351 351 352 353 352 351 350 351 352 354 350 347 348 350 349 349 349 349 351
338 337 338 339 339 340 339 339 339 339 339 339 339 340 341 342 343 344 345 346 347 347 347 349 349 350 351 350 350 350 349 348 349 348 348 347 346 345 346 347 347 348 348 349 349 349 351 352 351 350 348 346 347 350 348 344 344 345 346 347 347 347 350
334 335 336 338 339 339 338 338 339 338 339 339 339 339 340 340 341 341 341 342 342 342 342 343 344 346 347 348 348 348 347 346 346 346 345 345 345 345 344 344 344 346 346 347 348 349 349 349 349 348 347 346 346 346 345 342 341 342 344 345 345 346 348
332 333 335 337 336 336 336 336 336 338 338 338 338 338 338 338 339 339 338 339 339 339 339 339 340 341 341 343 343 343 343 343 344 345 345 344 344 344 344 344 345 346 346 347 349 349 348 347 346 344 343 343 343 343 342 341 340 341 343 344 345 345 347
330 329 331 332 331 330 331 332 333 336 336 334 334 334 334 335 337 337 336 335 335 335 336 335 336 337 336 337 338 338 339 340 340 341 341 341 343 343 343 344 344 344 345 345 345 346 346 345 343 341 340 339 338 339 338 338 338 339 341 342 342 343 345
330 328 327 328 327 327 328 329 330 331 331 330 329 331 331 332 332 333 333 333 332 332 330 329 329 331 331 332 334 334 334 334 335 337 337 337 338 339 339 340 341 341 341 341 342 342 341 340 339 338 336 335 334 334 335 335 336 337 337 338 339 339 341
331 328 327 326 327 327 329 329 328 328 329 328 328 330 332 331 329 328 330 332 334 331 327 323 323 323 324 326 328 329 330 328 326 328 333 335 335 335 336 336 337 338 338 338 338 337 336 336 335 333 332 331 330 330 331 332 332 331 331 330 331 332 333
330 329 328 327 327 328 328 329 329 328 329 330 331 331 332 333 331 330 330 332 335 333 327 324 323 322 320 320 320 322 326 327 325 324 328 333 334 334 334 334 334 335 335 334 334 333 333 332 331 330 329 327 326 326 327 327 326 324 322 319 318 319 319
328 327 328 328 327 327 327 327 328 328 328 329 330 330 331 332 333 333 333 333 335 334 331 329 328 328 327 326 324 321 321 325 327 328 329 330 331 332 334 333 333 332 331 331 331 330 329 329 328 327 326 324 322 321 322 322 321 320 318 315 314 313 310
327 326 328 328 327 325 324 323 324 326 327 327 327 328 329 329 331 333 334 334 334 335 334 333 333 333 332 331 330 327 324 323 327 331 331 329 329 330 332 333 332 331 329 329 328 327 326 325 324 324 323 321 320 320 320 321 320 319 319 317 315 314 311
328 328 329 329 327 325 324 323 324 325 326 326 326 326 328 328 329 331 332 332 333 334 334 334 334 333 332 329 328 327 327 326 328 331 332 331 330 329 329 330 331 330 330 330 329 328 327 325 325 324 323 321 321 321 320 319 317 316 317 315 312 311 311
329 329 329 329 328 327 327 326 326 327 327 326 326 326 327 327 328 330 331 331 332 333 334 334 333 332 331 329 327 327 327 328 329 330 331 332 332 330 329 329 329 329 329 330 330 330 330 328 327 326 323 322 322 324 323 320 316 312 311 311 311 312 314
329 329 329 329 329 329 329 329 329 330 329 328 327 327 327 327 326 328 330 330 332 333 334 334 333 331 329 327 325 325 325 326 327 328 329 330 330 330 329 329 328 326 325 324 324 324 325 325 324 323 323 321 319 321 324 321 315 310 309 312 317 319 320
329 329 330 330 330 330 330 330 331 331 331 330 329 328 328 328 326 326 327 329 331 333 333 333 331 329 327 325 324 324 324 324 325 326 326 326 325 324 323 322 321 319 317 315 315 314 315 315 314 314 318 319 316 314 315 315 311 310 314 319 322 323 323
330 331 331 331 331 332 332 331 331 332 332 331 331 330 329 329 328 326 326 327 329 330 332 332 330 328 326 324 324 325 324 323 324 325 325 324 323 321 318 316 315 314 313 313 312 311 309 310 309 309 311 314 313 311 311 312 313 316 320 322 323 323 325
331 331 330 330 330 331 331 331 332 332 332 332 331 330 330 330 329 328 327 326 326 328 330 330 328 327 325 324 325 326 326 325 324 324 324 324 322 320 319 318 317 316 315 313 312 312 312 312 313 313 313 314 314 314 316 318 319 320 321 322 323 324 325

ECMWFFLT1_925_thetae_129.txt.gz
Theta_e
350 350 347 347 345 344 345 346 349 348 349 351 350 350 351 353 353 353 355 357 357 358 357 357 357 356 356 355 355 355 354 353 353 352 354 354 353 352 352 352 352 352 352 351 351 351 352 353 354 354 355 358 359 361 364 362 360 360 361 362 360 358 360
349 349 349 348 345 344 346 347 348 348 351 351 351 351 351 352 353 354 356 357 357 358 358 357 358 357 356 355 355 355 354 354 352 352 353 354 353 353 352 352 352 352 352 352 351 351 351 353 354 354 356 358 359 360 362 361 360 359 360 362 362 360 362
347 348 350 350 348 346 346 347 347 348 351 352 352 351 351 351 352 354 356 357 358 358 357 357 357 357 356 356 355 355 356 355 353 352 353 354 354 353 353 353 354 353 353 353 353 352 351 353 354 354 354 355 356 358 360 360 360 359 358 362 363 360 361
348 350 352 353 352 348 347 347 347 349 351 351 351 351 351 351 351 353 356 357 358 358 357 356 356 356 356 356 355 355 356 356 354 353 353 354 354 354 354 355 355 355 354 354 354 352 352 351 353 354 354 354 354 357 360 360 360 359 359 361 361 358 360
353 351 350 352 352 349 349 349 347 350 351 350 351 350 351 351 351 354 356 357 358 357 356 355 354 354 354 355 355 354 355 355 354 353 352 353 354 354 354 354 355 354 354 355 354 354 353 353 353 354 354 355 354 355 359 360 359 359 360 362 361 357 358
356 352 349 351 353 351 350 350 348 350 351 350 351 351 350 351 351 352 354 356 358 356 354 353 353 353 354 354 353 353 354 354 354 353 352 353 354 354 354 354 354 354 353 354 355 354 355 355 355 355 356 356 354 353 355 357 357 357 358 359 360 357 355
357 356 352 352 353 351 349 350 351 351 351 348 349 350 350 350 351 352 353 355 356 355 353 353 352 352 353 352 352 352 353 353 354 353 352 352 353 353 354 354 354 354 354 354 354 354 356 356 355 355 355 356 355 353 353 354 356 356 356 358 359 358 356
358 358 356 353 349 348 349 352 354 354 351 349 349 351 350 350 351 352 353 353 354 354 353 353 353 352 353 353 352 352 352 352 353 353 352 352 351 352 353 354 354 355 355 355 355 354 355 357 356 355 356 356 356 355 354 355 356 356 356 357 359 359 357
358 357 354 354 352 349 350 354 356 356 354 350 351 352 351 351 352 353 354 354 354 354 353 353 352 352 353 353 353 352 352 352 352 352 352 351 350 350 351 352 354 355 355 355 355 355 355 356 356 356 357 357 357 357 356 356 358 358 356 355 357 359 358
355 354 353 352 354 355 354 354 356 356 357 353 352 353 353 354 353 355 355 355 355 355 353 353 352 352 353 354 355 354 353 353 352 352 352 351 350 350 350 351 352 354 355 355 354 354 355 355 355 356 358 358 357 358 358 358 358 358 357 355 355 357 358
353 354 354 353 353 353 356 358 357 357 358 356 354 355 357 357 356 356 358 357 356 357 356 355 353 352 354 355 356 356 354 353 352 352 352 351 350 349 349 350 352 353 354 354 354 353 353 354 355 355 357 358 358 358 359 359 358 358 356 355 354 356 357
351 353 353 353 353 351 353 358 358 358 359 358 356 356 358 359 358 357 359 359 358 357 359 360 358 356 357 356 356 358 357 355 354 354 352 351 351 349 349 349 351 352 353 353 354 353 352 353 353 354 356 358 358 358 359 359 358 358 357 356 355 355 357
350 351 350 351 352 351 354 358 359 358 359 360 359 358 359 359 357 357 360 360 359 357 359 362 362 360 359 358 357 359 360 357 357 356 352 350 350 349 350 351 351 351 351 352 354 354 353 352 352 354 355 356 358 358 358 359 358 359 359 359 357 356 357
350 350 350 351 352 352 354 357 358 359 359 360 360 360 361 361 359 360 361 361 360 359 360 363 363 362 361 359 358 359 361 360 359 358 353 350 349 347 349 350 351 352 352 352 352 353 353 353 352 353 354 355 357 357 357 357 357 359 360 360 358 357 357
350 351 352 353 352 352 354 354 354 357 357 358 359 359 360 360 361 362 362 362 362 361 362 362 362 363 362 361 360 360 363 364 363 360 354 352 351 350 350 350 350 351 351 351 353 353 353 353 352 353 352 353 356 356 356 356 355 357 358 359 360 359 357
349 350 351 352 351 352 353 352 353 354 355 356 356 357 358 359 360 361 361 363 363 363 364 363 363 365 364 362 361 361 363 365 363 359 355 354 354 354 354 352 350 349 347 348 352 354 354 353 352 352 351 352 354 355 356 355 354 355 355 356 358 359 358
348 348 348 348 349 351 352 353 352 353 354 354 354 354 355 356 357 357 358 359 360 361 362 362 363 363 362 361 360 360 363 365 362 359 356 355 355 355 355 354 353 351 347 346 350 352 354 354 354 353 351 351 352 353 354 355 354 354 354 354 356 357 359
346 346 344 344 346 348 349 350 351 352 354 354 353 353 353 354 355 355 356 357 357 357 358 358 359 359 358 358 357 358 362 364 362 359 357 355 355 355 355 355 355 354 351 348 350 352 352 351 352 354 353 352 352 352 353 352 352 353 353 353 355 356 358
345 344 343 343 343 344 345 346 347 349 350 351 352 352 352 353 353 353 354 355 355 356 356 356 357 357 357 358 357 357 360 362 362 360 358 357 357 356 356 355 355 355 353 351 351 351 351 351 350 351 353 354 353 351 350 350 350 351 352 353 354 356 356
344 343 342 342 342 343 344 345 346 346 346 348 349 350 351 351 351 352 353 353 353 354 355 355 356 356 357 357 356 357 359 360 360 359 358 357 356 354 355 355 355 354 354 354 353 352 352 352 351 351 352 352 351 348 347 349 351 351 352 353 354 356 355
344 342 341 341 342 342 343 344 344 345 345 346 347 348 349 350 351 351 352 353 353 353 354 355 355 355 356 356 355 355 358 359 358 357 357 356 354 353 354 355 355 354 354 353 353 352 352 352 352 353 352 351 351 350 348 349 351 351 352 353 354 355 354
342 340 340 341 341 341 342 342 343 343 343 345 346 347 348 349 350 351 352 353 353 353 354 355 356 356 357 358 357 354 354 356 355 354 356 357 355 354 355 355 354 353 353 353 353 353 353 352 353 354 352 350 350 350 348 348 348 349 351 353 354 354 353
340 339 341 342 341 341 342 341 342 343 343 344 345 345 346 348 350 351 351 352 352 351 352 353 355 356 356 357 357 355 354 354 353 352 354 357 356 355 355 354 351 350 352 353 354 354 354 354 353 352 352 351 350 349 347 346 345 347 349 351 351 351 350
340 340 341 341 341 341 341 341 342 342 342 343 343 343 345 345 347 347 347 347 347 346 346 347 349 351 351 351 353 353 354 353 353 353 353 352 353 355 355 352 351 351 352 351 352 353 354 354 352 350 351 352 351 350 346 344 344 344 345 347 347 347 347
340 339 340 340 340 340 340 341 341 341 341 342 341 342 342 342 343 343 342 343 343 342 342 342 344 345 346 346 347 349 350 350 350 351 350 349 351 352 352 352 351 351 351 350 350 351 351 352 351 349 349 349 349 348 345 343 344 344 344 345 346 345 346
338 337 336 337 339 339 338 337 338 339 339 340 339 339 339 340 340 340 339 340 339 339 338 339 340 340 340 341 342 343 345 345 345 346 346 347 348 347 347 349 348 347 347 348 349 349 349 350 348 346 346 345 344 344 342 341 342 343 343 345 344 344 344
334 333 333 334 336 337 334 332 334 334 335 335 336 337 337 337 336 336 336 336 335 335 336 336 336 336 335 337 338 338 339 340 341 342 343 343 344 344 344 344 345 345 345 347 348 347 346 345 344 342 341 341 340 340 339 339 340 340 341 342 342 342 343
330 331 332 332 333 334 332 331 333 333 332 331 332 334 335 334 334 333 333 332 332 333 332 332 332 333 332 332 334 336 337 337 337 338 339 340 341 341 341 342 343 344 344 344 345 344 342 341 340 338 337 336 336 336 335 335 336 337 337 337 337 339 339
329 331 331 331 331 332 332 332 332 333 332 331 331 332 333 333 333 332 331 331 331 330 330 329 328 328 328 328 330 333 335 336 337 337 336 337 338 338 337 338 339 340 340 340 339 338 337 336 335 334 333 332 332 332 332 332 332 333 333 332 332 332 332
330 330 330 330 330 330 331 331 332 332 332 332 331 331 332 333 333 332 332 331 331 330 331 330 328 327 328 329 330 330 329 330 333 335 336 336 337 337 336 336 336 336 335 335 335 334 332 332 331 330 328 327 326 325 326 327 327 326 325 324 325 324 321
329 328 327 327 328 329 329 329 329 330 330 331 331 331 333 333 334 333 333 333 333 332 331 330 329 329 329 329 330 330 327 325 327 331 333 334 334 335 335 334 334 334 333 332 331 330 329 328 327 325 324 324 324 323 322 323 322 321 321 320 320 320 317
328 327 325 325 326 326 327 327 327 328 329 329 329 330 332 333 334 335 334 334 334 333 331 329 328 328 327 327 328 330 330 328 328 330 331 331 331 332 333 333 333 333 332 331 330 329 327 326 325 325 324 324 324 322 321 321 321 321 322 322 322 321 318
330 329 327 326 325 326 326 327 327 328 328 329 329 329 330 331 333 334 334 333 333 334 333 331 329 327 325 326 327 328 330 331 331 331 330 329 330 330 330 331 331 331 331 331 330 330 330 328 328 328 328 327 325 323 322 319 317 316 317 318 319 317 316
331 331 330 330 329 329 328 328 328 328 328 329 329 329 329 330 330 331 332 332 332 333 332 331 329 327 326 326 326 327 328 330 331 330 329 328 328 329 329 329 328 327 326 327 328 328 329 329 329 329 329 328 327 327 326 320 312 309 309 311 312 310 309
331 331 331 332 332 332 332 332 331 331 330 329 329 328 328 329 329 330 331 332 333 333 333 331 330 328 326 326 325 326 325 326 327 328 327 326 325 323 323 323 322 320 318 319 322 323 323 323 325 326 326 324 323 326 327 320 311 310 313 316 317 316 313
332 332 332 332 332 332 333 333 332 332 332 332 331 329 328 328 329 329 331 331 333 333 333 332 329 326 325 325 325 325 325 324 324 326 325 323 321 318 316 315 315 313 312 312 312 313 313 314 317 321 321 318 316 318 319 316 314 317 321 322 323 324 323
333 333 334 333 333 333 334 333 333 333 333 333 332 331 330 329 328 328 329 330 331 332 331 330 328 326 325 326 326 327 326 325 324 325 324 323 321 320 319 316 314 312 311 311 311 310 310 309 310 313 315 315 314 314 315 317 319 322 323 324 324 325 326
334 334 335 335 335 335 334 334 334 334 333 333 332 331 331 331 330 329 329 329 330 331 331 330 328 327 326 326 327 328 328 327 326 326 324 323 323 323 323 321 318 315 315 315 315 314 314 313 312 312 313 315 317 319 319 321 323 323 324 325 326 326 327

ECMWFFLT1_925_thetae_132.txt.gz
Theta_e
354 353 353 350 345 345 347 348 349 349 350 350 350 352 351 350 351 353 356 357 357 357 357 357 357 356 356 355 355 356 355 355 355 354 353 353 353 353 353 353 352 351 353 353 354 354 352 352 353 353 355 358 358 359 361 363 361 359 358 357 359 358 357
354 353 353 350 347 348 349 348 349 349 349 349 349 351 352 351 352 353 355 357 358 358 358 358 358 357 356 355 355 355 356 356 355 354 354 354 353 353 352 352 351 351 352 352 352 352 351 352 352 353 354 356 358 358 360 363 361 359 358 358 359 359 357
351 353 353 352 352 352 351 349 348 348 348 350 350 350 351 352 352 354 356 358 358 359 359 358 358 357 356 356 355 355 356 355 355 354 354 354 354 353 352 352 352 352 352 351 351 351 351 351 352 353 354 356 357 358 359 361 361 359 359 359 361 361 360
351 352 353 356 356 354 354 351 349 350 348 350 350 349 352 353 353 354 357 358 358 359 359 358 358 357 357 356 356 355 356 355 354 353 352 352 353 354 353 352 352 352 352 352 351 351 351 351 352 353 354 355 355 356 358 359 359 360 359 358 360 362 360
361 357 353 358 358 354 356 353 349 350 348 348 350 350 352 354 353 354 356 358 359 358 358 357 357 357 356 357 355 355 356 355 354 352 351 350 352 353 353 352 353 354 353 353 352 351 352 351 351 352 354 355 354 354 356 358 359 359 360 359 359 360 359
361 358 354 357 355 354 358 355 348 348 349 349 351 350 351 352 352 354 355 357 359 358 358 356 354 355 355 356 355 354 356 356 355 353 352 351 351 352 353 353 353 354 353 353 353 352 352 352 352 352 353 354 355 354 354 356 358 358 358 359 360 360 359
359 358 356 355 355 359 363 357 350 348 347 349 350 349 351 351 351 353 354 356 358 357 357 355 353 353 353 354 354 353 354 355 355 354 353 352 352 352 353 353 353 353 353 353 353 353 353 353 353 353 352 354 355 355 352 352 355 356 356 358 359 359 359
359 359 358 355 356 362 366 357 352 351 349 350 352 351 352 352 352 351 352 355 356 355 354 353 352 351 352 353 353 353 353 354 354 354 353 352 352 352 353 353 353 354 353 353 353 353 353 354 355 354 353 353 354 355 354 352 352 354 355 356 357 358 359
357 358 360 357 355 360 363 355 348 352 355 351 350 351 352 351 350 350 351 353 355 355 354 353 352 351 352 352 352 352 352 352 353 354 354 352 351 351 351 351 352 353 353 354 354 354 354 354 355 355 354 354 354 354 355 355 354 354 355 356 355 356 358
355 356 359 358 355 357 357 354 352 353 355 354 353 353 354 353 350 350 352 354 355 355 354 353 351 351 352 352 352 351 351 351 351 352 353 352 351 350 349 350 350 351 352 353 353 353 354 354 354 355 355 355 355 355 356 356 356 356 357 357 356 355 356
355 355 357 357 357 356 355 355 357 356 353 352 353 355 355 354 354 352 352 354 357 355 355 354 351 352 353 352 352 351 350 350 350 350 352 352 351 350 349 349 349 350 351 352 353 353 352 353 354 354 355 357 357 357 357 358 357 357 358 357 357 355 355
354 355 355 356 356 354 355 356 356 355 353 350 350 352 353 353 353 354 352 354 355 353 353 354 351 351 353 353 354 353 351 351 351 352 352 352 352 352 351 350 349 350 350 351 352 353 352 353 353 353 354 356 358 357 357 358 358 358 358 358 357 355 355
353 354 353 354 355 353 354 354 353 354 354 353 352 351 352 351 350 351 350 351 353 352 353 355 352 348 350 353 354 353 353 354 353 351 352 352 353 353 351 350 350 351 352 352 352 353 354 353 352 352 353 354 356 356 356 357 358 358 358 358 357 356 355
352 353 352 353 353 351 352 353 354 354 352 353 354 351 351 352 352 352 352 352 353 353 354 357 357 353 352 353 354 354 356 357 355 354 356 355 353 351 350 350 350 351 351 351 351 352 353 353 352 351 351 351 353 354 355 356 357 358 358 358 359 359 358
350 351 352 352 351 350 351 351 353 354 351 351 351 350 350 351 351 353 355 355 355 353 355 358 359 359 358 357 356 357 359 359 357 359 361 359 355 353 352 350 350 351 351 350 351 351 351 350 351 351 350 350 351 350 353 355 355 355 357 357 359 360 358
348 348 349 349 350 350 349 349 352 353 352 352 350 350 350 348 348 350 353 355 356 356 357 358 357 360 363 363 360 360 360 360 361 363 365 364 360 356 353 351 351 352 352 350 350 350 350 349 349 351 352 351 351 350 351 353 354 354 355 356 357 358 358
346 346 346 346 347 348 348 349 350 351 354 354 352 351 352 351 351 351 353 355 355 356 357 358 356 358 361 362 361 361 362 362 361 362 364 365 363 361 357 354 353 353 352 351 350 349 348 347 347 351 353 352 350 349 350 351 352 353 353 354 354 355 357
345 345 344 344 344 346 346 347 348 349 352 353 353 353 353 353 354 354 355 355 354 354 356 357 357 356 358 360 359 359 361 359 355 355 358 361 363 363 360 357 355 355 354 354 352 349 347 347 349 351 353 352 350 349 350 351 351 352 352 352 353 354 355
344 343 343 343 343 344 345 346 347 348 349 350 351 353 353 353 354 353 354 354 353 354 354 355 355 355 355 357 356 356 357 353 350 353 358 360 361 361 360 358 355 355 355 355 354 352 349 349 351 352 352 351 351 350 350 351 351 351 350 351 352 352 353
342 342 343 342 343 344 345 346 346 346 347 348 349 350 352 352 352 351 352 353 353 355 355 355 356 356 356 356 356 357 357 354 353 355 358 358 358 359 360 358 356 355 354 355 355 353 351 350 351 352 351 350 350 351 351 351 351 351 350 351 351 352 352
342 343 344 344 344 344 344 345 345 345 346 347 348 349 350 351 352 352 352 353 353 355 355 356 356 356 355 354 354 356 358 357 356 357 357 357 356 358 359 358 357 356 354 354 354 353 353 351 351 351 351 351 352 351 351 351 351 351 351 352 352 352 352
344 343 344 345 344 344 344 344 344 345 346 346 346 348 349 350 351 352 352 352 352 353 354 354 354 354 353 351 350 352 355 355 356 356 356 356 356 356 356 356 355 355 353 352 353 354 353 352 351 352 352 352 353 352 350 349 350 350 351 351 352 352 353
344 344 344 343 343 343 343 342 343 344 344 344 345 345 346 347 347 348 348 348 348 349 350 350 350 349 349 349 349 350 352 353 354 354 354 354 354 354 354 353 353 354 354 353 354 354 353 353 353 353 353 353 353 352 350 348 346 347 348 349 350 351 351
343 344 343 342 342 342 342 342 342 341 341 342 343 343 343 343 344 344 344 344 344 344 344 345 345 345 346 346 347 349 351 351 352 352 351 352 352 352 351 351 351 352 354 353 354 354 354 354 354 354 354 352 351 350 348 345 344 344 345 347 348 348 349
341 342 342 341 341 341 341 341 340 339 340 340 340 340 340 340 341 341 341 341 340 341 340 340 341 342 343 343 344 345 348 348 348 348 349 350 350 349 348 347 347 349 351 352 352 353 353 353 353 352 352 351 348 346 345 343 342 342 344 345 346 346 346
341 340 339 338 338 338 338 338 338 338 338 337 336 337 336 336 338 338 338 339 338 338 338 338 339 340 340 341 341 342 343 343 344 345 345 346 346 345 345 345 344 346 349 351 351 351 350 350 349 349 349 348 346 344 342 342 341 341 343 344 345 346 346
339 337 335 334 335 335 334 334 335 337 337 335 335 334 334 334 335 334 334 335 335 336 336 336 337 338 338 339 340 339 340 340 341 341 342 342 342 342 343 344 344 345 348 349 349 348 346 345 345 344 342 341 341 340 339 338 338 338 340 342 344 345 345
337 336 334 333 333 334 333 332 333 334 334 333 333 333 333 333 333 332 332 331 331 332 333 334 336 336 337 337 338 338 339 339 339 339 338 339 339 339 340 341 342 343 344 343 342 342 340 338 338 337 335 334 333 332 332 331 331 333 336 338 339 340 341
335 335 334 334 333 333 333 332 332 332 332 331 330 330 331 331 332 332 332 332 331 330 331 332 333 333 334 335 336 336 337 337 337 337 337 337 337 337 337 338 338 338 338 337 336 336 333 332 333 332 330 328 326 325 325 325 326 329 331 331 331 331 330
333 333 333 332 332 333 333 333 332 332 331 332 332 332 332 333 333 333 332 331 331 330 331 331 331 331 331 331 332 334 334 333 334 334 335 335 335 335 335 336 335 334 334 334 334 332 330 329 329 328 326 324 323 323 324 323 323 325 327 327 326 324 322
330 330 331 329 329 330 330 331 333 332 332 333 334 334 334 334 335 333 331 329 328 328 328 328 329 331 331 331 331 332 332 332 332 332 332 333 333 334 334 334 334 333 333 332 331 330 329 328 327 327 326 325 323 321 322 323 323 323 324 324 324 323 321
328 327 329 328 328 329 329 329 330 332 333 334 334 335 335 335 335 334 333 332 331 328 326 326 327 328 329 330 331 331 331 331 330 330 331 331 331 332 332 332 332 332 331 331 332 331 330 329 328 328 327 326 324 322 320 321 321 321 321 320 321 322 320
331 328 328 328 328 329 329 330 330 330 331 332 333 334 334 335 335 334 333 332 332 329 327 326 326 327 327 328 330 331 331 330 329 328 328 329 328 329 328 328 328 328 327 327 328 329 330 331 330 330 329 328 328 325 320 315 313 314 315 315 316 318 318
333 331 330 329 329 329 329 330 330 330 330 331 331 331 331 332 332 333 333 333 332 332 330 328 327 327 327 327 327 328 329 329 328 325 323 323 322 322 322 322 321 320 319 320 321 322 324 327 328 329 329 329 329 329 325 318 312 311 312 312 311 312 312
334 333 333 332 332 332 332 331 331 331 330 330 330 331 331 331 332 332 332 333 333 332 331 330 328 327 327 326 326 325 326 327 326 322 319 317 315 314 314 314 313 312 311 312 315 316 318 322 324 324 322 322 323 325 324 319 316 316 318 319 318 317 315
333 332 333 334 334 334 334 334 333 333 332 331 330 330 330 330 331 331 332 332 332 330 328 327 327 326 327 327 327 325 325 325 325 323 321 319 317 315 312 311 311 311 310 310 310 310 311 314 318 318 315 313 314 316 317 317 319 322 323 323 324 324 324
333 333 333 333 334 335 335 334 334 334 333 333 332 331 331 331 330 331 332 332 332 330 328 327 327 326 327 328 328 327 326 325 324 323 322 322 322 320 317 315 314 313 313 313 312 311 310 310 312 312 312 312 314 317 319 320 322 324 324 325 326 327 327
333 333 334 335 335 335 335 334 334 334 334 333 333 332 331 331 330 330 331 331 331 330 329 327 327 328 329 329 329 329 329 327 326 325 325 326 326 324 321 320 318 316 315 314 314 314 313 313 314 315 316 318 320 321 322 324 324 325 326 327 327 327 327

ECMWFFLT1_925_thetae_135.txt.gz
Theta_e
357 357 357 355 354 352 347 348 350 350 351 352 351 349 349 352 355 355 354 355 353 354 356 354 355 357 356 356 355 353 354 353 352 353 354 353 353 354 355 356 356 356 354 353 353 354 354 355 355 354 354 355 355 355 355 357 357 355 356 356 356 357 358
356 356 358 356 356 357 352 346 349 350 350 351 350 350 350 351 355 355 354 355 354 354 356 355 354 357 357 356 356 355 355 354 353 353 353 353 353 354 354 354 354 354 354 353 352 352 353 354 353 353 355 355 355 356 356 359 360 358 357 357 356 356 358
357 357 359 360 360 360 356 349 348 350 350 350 350 351 350 351 355 355 354 355 355 354 356 356 355 355 356 357 356 356 355 355 355 353 353 353 353 353 353 353 353 352 352 353 352 352 352 352 352 352 355 355 356 356 357 358 360 360 358 358 358 358 357
360 360 359 363 362 359 356 349 346 348 349 350 350 351 351 351 355 356 355 355 355 354 355 356 356 355 356 356 356 355 355 354 355 354 353 353 353 352 353 352 352 351 351 351 352 352 352 351 350 351 354 355 356 357 357 357 359 359 357 357 358 359 360
362 362 359 360 363 364 360 350 347 348 348 349 350 351 351 351 354 356 355 356 356 355 355 356 356 356 356 355 355 355 355 354 355 354 353 353 353 352 352 352 352 352 351 351 351 351 352 351 350 351 352 354 355 357 357 357 357 359 358 358 358 358 360
360 360 359 359 361 364 359 351 349 350 348 348 349 350 352 351 354 357 356 357 357 356 356 356 357 357 356 356 355 355 355 355 355 355 354 353 353 352 352 352 352 352 352 352 351 351 351 351 351 351 352 352 353 355 356 356 356 358 359 359 359 358 358
359 357 357 359 359 358 354 351 351 351 349 348 348 349 351 352 354 357 357 357 358 357 358 357 357 357 356 356 355 355 355 355 355 355 354 352 352 352 352 353 352 352 352 352 353 352 352 351 351 351 352 352 352 353 354 354 356 357 358 359 359 359 358
359 358 359 361 361 359 357 354 352 350 349 347 349 349 351 352 353 356 357 357 358 358 358 358 357 357 357 356 355 355 355 355 355 355 354 352 351 351 352 353 353 352 352 353 353 352 352 352 351 351 352 353 353 354 353 353 354 355 356 358 358 358 358
353 356 360 363 365 364 361 354 351 351 349 347 349 349 348 349 350 352 354 356 358 358 358 358 357 356 357 356 355 355 354 355 355 355 354 353 352 351 351 352 353 353 353 353 353 353 352 352 353 352 352 353 353 354 354 354 353 353 355 356 357 357 357
350 352 356 360 363 365 361 354 353 353 350 348 349 348 348 349 349 349 349 350 356 359 358 358 357 356 355 355 355 354 354 355 355 355 354 353 353 352 351 352 352 353 353 353 353 353 353 353 353 354 353 354 353 353 354 354 354 354 354 354 355 355 357
351 352 352 355 358 361 363 362 359 355 351 349 349 349 349 349 349 349 348 347 351 356 358 357 355 354 353 353 354 354 353 354 354 355 354 353 353 352 351 351 351 352 352 353 353 353 353 353 353 354 354 354 355 354 354 352 353 354 353 352 354 355 355
350 351 351 352 354 355 360 363 360 355 352 350 351 350 350 349 348 348 348 347 347 351 354 352 351 354 353 352 352 353 353 353 353 353 353 354 353 353 351 351 351 351 350 351 352 352 352 352 353 354 354 354 356 357 355 353 354 355 354 353 353 353 353
348 351 351 352 354 354 356 358 358 356 353 352 351 350 350 350 348 348 349 347 346 347 350 351 350 351 352 353 353 352 352 351 352 352 351 352 353 352 352 352 351 351 351 351 351 352 352 352 352 353 353 354 355 356 356 356 355 355 354 353 353 354 353
348 350 351 353 354 354 354 354 355 355 353 353 352 349 349 350 348 349 349 348 348 347 348 351 350 348 350 352 352 352 353 352 353 352 351 353 354 351 351 352 351 351 351 352 351 351 353 353 353 353 352 352 353 353 354 355 354 353 353 354 355 355 355
347 347 348 350 351 352 352 352 353 354 353 353 352 350 350 349 349 350 351 351 351 350 349 351 353 350 348 349 351 352 351 352 353 353 351 353 355 354 352 352 352 351 351 352 351 351 351 352 352 352 351 351 351 350 351 353 353 352 353 354 356 358 358
346 345 345 346 347 348 349 349 350 351 350 351 350 350 350 349 349 351 351 351 351 351 350 350 353 353 351 351 353 353 354 355 355 354 353 354 356 358 357 355 353 353 354 354 352 350 349 350 350 351 351 350 350 350 350 351 351 352 353 354 356 358 360
345 344 344 344 345 345 346 346 346 347 349 350 349 349 348 349 350 351 352 352 351 351 351 351 354 356 355 354 354 353 355 356 356 355 354 355 359 361 361 360 357 355 354 355 353 351 349 349 349 350 351 351 350 350 350 350 350 352 353 354 354 355 357
345 344 344 344 344 344 343 344 344 344 347 348 350 350 350 350 352 351 352 354 353 352 351 352 355 355 352 351 352 353 354 356 358 357 356 357 360 362 362 362 360 358 356 354 353 352 351 349 348 350 352 352 351 351 350 350 350 350 352 353 353 353 354
345 344 344 344 344 344 343 343 343 344 345 346 349 351 351 351 351 352 353 353 354 353 352 352 353 351 348 349 352 353 354 355 357 358 359 360 361 361 361 362 361 359 358 356 354 354 353 350 349 351 352 351 350 350 349 350 350 350 351 351 351 351 352
344 344 344 344 345 345 344 344 345 344 346 347 347 349 351 351 351 352 353 354 354 354 354 354 354 352 350 350 351 352 353 354 355 355 356 358 359 360 361 361 361 361 359 358 356 355 354 352 351 352 353 352 351 350 350 350 350 350 350 350 350 350 351
344 344 344 344 344 344 344 345 345 344 346 346 347 348 350 351 351 352 353 354 354 354 354 354 354 353 351 349 349 351 353 355 356 356 356 356 357 358 358 358 360 359 358 358 356 355 354 353 353 353 352 351 350 350 351 351 350 350 350 350 350 351 350
344 343 343 344 344 343 343 344 343 343 343 344 345 346 347 348 349 350 350 350 350 350 351 352 351 350 350 349 349 350 352 354 356 355 355 356 356 356 356 356 356 356 355 355 355 354 353 353 353 352 352 351 350 350 350 350 349 350 350 350 351 351 352
343 343 342 342 342 342 342 342 342 342 341 341 342 342 343 343 344 344 343 343 344 344 345 346 346 346 346 347 348 349 350 351 352 351 352 352 353 353 353 353 353 353 353 353 353 354 353 352 352 352 353 352 351 350 349 348 347 348 348 349 350 350 352
340 342 342 341 342 341 340 340 340 339 338 339 340 340 341 341 341 340 340 339 340 341 342 342 342 342 343 344 345 347 348 348 348 349 349 349 349 349 349 349 350 351 351 351 352 353 353 353 353 352 353 353 350 347 346 345 344 344 345 347 347 349 353
339 340 341 340 340 340 338 337 336 335 336 337 337 338 338 338 339 338 338 338 339 339 340 340 341 341 341 341 343 344 345 345 345 346 346 345 345 345 346 346 346 346 347 347 349 351 353 353 351 349 350 349 346 344 344 342 341 342 343 345 345 347 350
339 338 338 337 337 338 336 335 334 334 334 334 334 334 335 335 336 336 336 337 338 338 339 339 340 340 340 340 340 341 342 342 343 343 343 343 343 343 344 344 344 344 345 347 348 349 348 347 346 345 343 342 342 342 341 340 341 341 342 344 345 345 347
338 335 334 334 334 336 334 333 333 333 333 333 332 332 331 331 332 332 333 335 336 337 338 338 339 339 339 339 339 339 339 339 339 340 340 340 341 341 342 342 342 342 344 344 343 340 336 336 338 338 336 334 336 337 337 338 340 341 342 343 344 344 344
337 333 333 333 332 333 332 330 330 330 331 332 332 332 332 331 331 331 331 332 334 334 336 336 337 337 336 337 338 337 337 337 337 337 337 337 338 338 338 338 339 339 339 339 337 334 331 331 332 331 329 328 329 330 331 332 334 337 339 341 342 341 340
336 333 333 333 331 331 331 330 329 329 330 332 332 331 331 331 331 331 331 331 332 332 332 333 333 333 333 334 334 335 335 335 335 335 335 335 335 334 334 335 335 335 335 336 335 333 330 329 329 328 327 327 326 325 325 327 329 332 333 334 336 337 336
335 333 334 333 332 331 331 331 331 332 332 333 332 329 328 328 329 329 329 330 331 331 331 332 332 332 332 332 332 332 332 332 332 333 333 333 333 333 332 332 332 332 332 333 332 330 327 326 326 325 324 325 325 324 324 324 325 327 328 328 330 331 332
333 331 332 333 332 332 332 332 333 334 334 334 332 330 329 329 327 327 326 327 329 330 330 330 330 330 331 330 330 329 329 330 330 329 330 330 330 330 329 330 330 330 330 330 329 328 327 325 325 323 321 320 320 320 320 321 321 322 323 323 324 324 325
331 329 331 332 332 332 332 333 334 334 335 335 334 334 334 333 331 328 326 324 325 326 326 326 327 327 326 326 327 327 327 326 326 326 327 328 327 327 327 327 327 327 327 329 329 329 329 328 327 326 324 321 318 315 314 315 316 317 319 321 321 321 321
333 331 330 331 331 331 331 332 333 333 334 335 335 334 334 334 333 331 329 327 326 325 325 326 327 327 325 323 322 322 320 319 318 318 319 320 321 321 321 322 324 323 323 325 327 328 329 329 329 328 328 327 324 319 314 313 313 312 313 316 317 318 318
334 333 332 331 330 330 330 331 331 331 332 333 333 332 332 333 332 330 330 330 329 327 326 326 326 328 327 325 322 320 318 315 313 312 312 312 312 312 312 313 315 315 315 317 320 323 324 323 322 323 324 327 326 321 317 317 317 315 315 315 315 313 314
334 334 334 333 332 331 331 331 331 332 332 331 331 332 332 332 332 330 329 330 329 329 328 327 327 327 327 326 325 323 321 319 316 312 311 311 311 311 312 311 311 310 310 311 313 315 316 315 313 314 315 318 319 318 318 320 322 322 323 323 321 320 321
334 334 335 335 333 333 333 333 333 332 331 331 331 331 331 331 331 330 328 328 328 328 328 328 329 328 326 325 324 323 321 321 320 317 314 312 312 313 314 314 313 313 312 312 311 311 310 310 311 312 313 314 317 320 321 323 324 325 326 326 325 326 327
333 334 334 334 335 334 334 334 333 332 331 331 331 331 330 330 330 329 327 326 327 328 328 328 328 329 328 327 325 324 323 323 324 323 320 317 316 315 316 316 316 315 314 313 313 313 313 313 315 317 319 320 322 324 324 325 326 326 325 325 326 327 328
332 333 332 333 334 334 334 334 333 332 332 331 330 330 330 330 330 329 327 327 326 326 327 328 328 329 329 329 328 328 327 326 327 327 325 323 321 319 319 320 319 318 316 315 314 313 314 314 315 317 320 322 324 325 325 326 326 325 325 325 326 326 326